<?xml version="1.0" encoding="UTF-8"?>
<gpx
  version="1.1"
  creator="Runmeter - http://www.runmeter.com"
  xmlns:xsi="http://www.w3.org/2001/XMLSchema-instance"
  xmlns:abvio="http://www.abvio.com/xmlschemas/1"
  xmlns="http://www.topografix.com/GPX/1/1"
  xsi:schemaLocation="http://www.topografix.com/GPX/1/1 http://www.topografix.com/gpx/1/1/gpx.xsd">
<metadata>
<name>Runmeter-Cycle-20160614-1752.gpx</name>
<desc>Runmeter Fahrrad (Straße) 14.06.2016, 17:52:08</desc>
<author><name>Abvio Runmeter</name><email id="support" domain="abvio.com"/></author>
<copyright author="Abvio Inc."><year>2016</year></copyright>
<link href="http://www.runmeter.com">
<text>Abvio Runmeter</text>
<type>text/html</type>
</link>
<time>2016-06-15T13:18:53Z</time>
<keywords>Abvio, Runmeter, Fahrrad</keywords>
<bounds minlat="46.8219628" minlon="7.4327619" maxlat="46.9597439" maxlon="7.5526534"/>
</metadata>
<trk>
<name><![CDATA[Neue Route]]></name>
<type><![CDATA[Tandem]]></type>
<trkseg>
<trkpt lat="46.9571017" lon="7.4330742"><ele>562.1</ele><time>2016-06-14T15:52:09Z</time></trkpt>
</trkseg>
<trkseg>
<trkpt lat="46.9571017" lon="7.4330742"><ele>562.1</ele><time>2016-06-14T15:58:08Z</time></trkpt>
<trkpt lat="46.9572774" lon="7.4333637"><ele>560.9</ele><time>2016-06-14T15:58:12Z</time></trkpt>
<trkpt lat="46.9575937" lon="7.4338414"><ele>560.8</ele><time>2016-06-14T15:58:22Z</time></trkpt>
<trkpt lat="46.9578825" lon="7.4343957"><ele>560.8</ele><time>2016-06-14T15:58:33Z</time></trkpt>
<trkpt lat="46.9580915" lon="7.4347485"><ele>560.7</ele><time>2016-06-14T15:58:40Z</time></trkpt>
<trkpt lat="46.9581989" lon="7.4348875"><ele>560.7</ele><time>2016-06-14T15:58:43Z</time></trkpt>
<trkpt lat="46.9582821" lon="7.4351695"><ele>560.7</ele><time>2016-06-14T15:58:46Z</time></trkpt>
<trkpt lat="46.9583517" lon="7.4352639"><ele>560.7</ele><time>2016-06-14T15:58:47Z</time></trkpt>
<trkpt lat="46.9583419" lon="7.4353682"><ele>560.6</ele><time>2016-06-14T15:58:49Z</time></trkpt>
<trkpt lat="46.9584708" lon="7.4355550"><ele>560.6</ele><time>2016-06-14T15:58:53Z</time></trkpt>
<trkpt lat="46.9584743" lon="7.4355973"><ele>560.6</ele><time>2016-06-14T15:58:54Z</time></trkpt>
<trkpt lat="46.9586886" lon="7.4359423"><ele>560.6</ele><time>2016-06-14T15:59:00Z</time></trkpt>
<trkpt lat="46.9587509" lon="7.4362030"><ele>560.5</ele><time>2016-06-14T15:59:04Z</time></trkpt>
<trkpt lat="46.9584712" lon="7.4364262"><ele>560.5</ele><time>2016-06-14T15:59:08Z</time></trkpt>
<trkpt lat="46.9584064" lon="7.4364241"><ele>560.5</ele><time>2016-06-14T15:59:10Z</time></trkpt>
<trkpt lat="46.9583266" lon="7.4363594"><ele>560.5</ele><time>2016-06-14T15:59:11Z</time></trkpt>
<trkpt lat="46.9579182" lon="7.4367114"><ele>560.4</ele><time>2016-06-14T15:59:19Z</time></trkpt>
<trkpt lat="46.9575222" lon="7.4370445"><ele>560.4</ele><time>2016-06-14T15:59:27Z</time></trkpt>
<trkpt lat="46.9570978" lon="7.4374360"><ele>560.2</ele><time>2016-06-14T15:59:34Z</time></trkpt>
<trkpt lat="46.9567878" lon="7.4377350"><ele>559.4</ele><time>2016-06-14T15:59:40Z</time></trkpt>
<trkpt lat="46.9566927" lon="7.4376132"><ele>558.9</ele><time>2016-06-14T15:59:44Z</time></trkpt>
<trkpt lat="46.9565580" lon="7.4378888"><ele>558.8</ele><time>2016-06-14T15:59:46Z</time></trkpt>
<trkpt lat="46.9560833" lon="7.4382018"><ele>557.9</ele><time>2016-06-14T16:00:02Z</time></trkpt>
<trkpt lat="46.9556482" lon="7.4385260"><ele>557.4</ele><time>2016-06-14T16:00:09Z</time></trkpt>
<trkpt lat="46.9552419" lon="7.4388226"><ele>555.9</ele><time>2016-06-14T16:00:15Z</time></trkpt>
<trkpt lat="46.9548166" lon="7.4389990"><ele>552.9</ele><time>2016-06-14T16:00:20Z</time></trkpt>
<trkpt lat="46.9540136" lon="7.4390218"><ele>547.0</ele><time>2016-06-14T16:00:30Z</time></trkpt>
</trkseg>
<trkseg>
<trkpt lat="46.9540136" lon="7.4390218"><ele>547.0</ele><time>2016-06-14T16:01:05Z</time></trkpt>
<trkpt lat="46.9537070" lon="7.4389832"><ele>544.0</ele><time>2016-06-14T16:01:07Z</time></trkpt>
<trkpt lat="46.9534099" lon="7.4391494"><ele>541.7</ele><time>2016-06-14T16:01:12Z</time></trkpt>
<trkpt lat="46.9534354" lon="7.4392938"><ele>541.2</ele><time>2016-06-14T16:01:13Z</time></trkpt>
<trkpt lat="46.9531629" lon="7.4398023"><ele>540.1</ele><time>2016-06-14T16:01:17Z</time></trkpt>
<trkpt lat="46.9527496" lon="7.4402980"><ele>539.1</ele><time>2016-06-14T16:01:22Z</time></trkpt>
<trkpt lat="46.9526516" lon="7.4403974"><ele>538.5</ele><time>2016-06-14T16:01:25Z</time></trkpt>
<trkpt lat="46.9525037" lon="7.4404833"><ele>538.3</ele><time>2016-06-14T16:01:26Z</time></trkpt>
<trkpt lat="46.9523951" lon="7.4406901"><ele>538.5</ele><time>2016-06-14T16:01:28Z</time></trkpt>
<trkpt lat="46.9518177" lon="7.4410797"><ele>536.7</ele><time>2016-06-14T16:01:38Z</time></trkpt>
</trkseg>
<trkseg>
<trkpt lat="46.9518177" lon="7.4410797"><ele>536.7</ele><time>2016-06-14T16:02:27Z</time></trkpt>
<trkpt lat="46.9516971" lon="7.4413069"><ele>534.9</ele><time>2016-06-14T16:02:27Z</time></trkpt>
<trkpt lat="46.9519784" lon="7.4418343"><ele>533.9</ele><time>2016-06-14T16:02:38Z</time></trkpt>
<trkpt lat="46.9523093" lon="7.4423615"><ele>526.5</ele><time>2016-06-14T16:02:58Z</time></trkpt>
<trkpt lat="46.9524297" lon="7.4425590"><ele>524.5</ele><time>2016-06-14T16:03:01Z</time></trkpt>
<trkpt lat="46.9525073" lon="7.4425759"><ele>523.5</ele><time>2016-06-14T16:03:02Z</time></trkpt>
<trkpt lat="46.9525617" lon="7.4426426"><ele>522.5</ele><time>2016-06-14T16:03:03Z</time></trkpt>
<trkpt lat="46.9526564" lon="7.4429146"><ele>518.3</ele><time>2016-06-14T16:03:07Z</time></trkpt>
<trkpt lat="46.9529939" lon="7.4433883"><ele>522.9</ele><time>2016-06-14T16:03:14Z</time></trkpt>
<trkpt lat="46.9532956" lon="7.4439023"><ele>525.4</ele><time>2016-06-14T16:03:21Z</time></trkpt>
<trkpt lat="46.9535962" lon="7.4444118"><ele>526.7</ele><time>2016-06-14T16:03:29Z</time></trkpt>
<trkpt lat="46.9539076" lon="7.4449410"><ele>529.9</ele><time>2016-06-14T16:03:38Z</time></trkpt>
<trkpt lat="46.9541895" lon="7.4454636"><ele>533.5</ele><time>2016-06-14T16:03:51Z</time></trkpt>
<trkpt lat="46.9544454" lon="7.4460597"><ele>538.2</ele><time>2016-06-14T16:04:04Z</time></trkpt>
<trkpt lat="46.9544414" lon="7.4461277"><ele>538.1</ele><time>2016-06-14T16:04:06Z</time></trkpt>
<trkpt lat="46.9543698" lon="7.4460697"><ele>537.8</ele><time>2016-06-14T16:04:09Z</time></trkpt>
<trkpt lat="46.9542549" lon="7.4456991"><ele>536.6</ele><time>2016-06-14T16:04:13Z</time></trkpt>
<trkpt lat="46.9541929" lon="7.4456334"><ele>536.2</ele><time>2016-06-14T16:04:14Z</time></trkpt>
<trkpt lat="46.9537287" lon="7.4456341"><ele>533.3</ele><time>2016-06-14T16:04:20Z</time></trkpt>
<trkpt lat="46.9534653" lon="7.4456826"><ele>532.4</ele><time>2016-06-14T16:04:23Z</time></trkpt>
<trkpt lat="46.9531688" lon="7.4458266"><ele>531.7</ele><time>2016-06-14T16:04:26Z</time></trkpt>
<trkpt lat="46.9527434" lon="7.4457644"><ele>529.6</ele><time>2016-06-14T16:04:33Z</time></trkpt>
<trkpt lat="46.9524428" lon="7.4458275"><ele>525.5</ele><time>2016-06-14T16:04:38Z</time></trkpt>
<trkpt lat="46.9522813" lon="7.4458080"><ele>524.2</ele><time>2016-06-14T16:04:40Z</time></trkpt>
<trkpt lat="46.9520926" lon="7.4459898"><ele>522.9</ele><time>2016-06-14T16:04:42Z</time></trkpt>
<trkpt lat="46.9518932" lon="7.4460736"><ele>520.3</ele><time>2016-06-14T16:04:45Z</time></trkpt>
<trkpt lat="46.9518516" lon="7.4462513"><ele>518.3</ele><time>2016-06-14T16:04:47Z</time></trkpt>
<trkpt lat="46.9517775" lon="7.4462605"><ele>517.3</ele><time>2016-06-14T16:04:48Z</time></trkpt>
<trkpt lat="46.9513998" lon="7.4468176"><ele>512.2</ele><time>2016-06-14T16:04:52Z</time></trkpt>
<trkpt lat="46.9512274" lon="7.4471276"><ele>508.9</ele><time>2016-06-14T16:04:55Z</time></trkpt>
<trkpt lat="46.9511268" lon="7.4474782"><ele>507.4</ele><time>2016-06-14T16:04:57Z</time></trkpt>
<trkpt lat="46.9510161" lon="7.4475332"><ele>506.7</ele><time>2016-06-14T16:04:58Z</time></trkpt>
<trkpt lat="46.9508854" lon="7.4479553"><ele>506.3</ele><time>2016-06-14T16:05:01Z</time></trkpt>
<trkpt lat="46.9509018" lon="7.4480417"><ele>506.5</ele><time>2016-06-14T16:05:02Z</time></trkpt>
<trkpt lat="46.9508301" lon="7.4483022"><ele>506.9</ele><time>2016-06-14T16:05:04Z</time></trkpt>
<trkpt lat="46.9508299" lon="7.4484733"><ele>507.0</ele><time>2016-06-14T16:05:05Z</time></trkpt>
<trkpt lat="46.9507926" lon="7.4485497"><ele>507.3</ele><time>2016-06-14T16:05:06Z</time></trkpt>
<trkpt lat="46.9507606" lon="7.4491939"><ele>508.0</ele><time>2016-06-14T16:05:09Z</time></trkpt>
<trkpt lat="46.9507624" lon="7.4494765"><ele>509.9</ele><time>2016-06-14T16:05:12Z</time></trkpt>
<trkpt lat="46.9508440" lon="7.4495283"><ele>513.2</ele><time>2016-06-14T16:05:16Z</time></trkpt>
<trkpt lat="46.9507982" lon="7.4498127"><ele>511.7</ele><time>2016-06-14T16:05:18Z</time></trkpt>
<trkpt lat="46.9507354" lon="7.4499604"><ele>511.0</ele><time>2016-06-14T16:05:19Z</time></trkpt>
<trkpt lat="46.9506451" lon="7.4503037"><ele>509.5</ele><time>2016-06-14T16:05:21Z</time></trkpt>
<trkpt lat="46.9506154" lon="7.4505528"><ele>509.0</ele><time>2016-06-14T16:05:26Z</time></trkpt>
<trkpt lat="46.9506572" lon="7.4508233"><ele>508.8</ele><time>2016-06-14T16:05:29Z</time></trkpt>
<trkpt lat="46.9507025" lon="7.4508554"><ele>508.4</ele><time>2016-06-14T16:05:30Z</time></trkpt>
<trkpt lat="46.9507073" lon="7.4509289"><ele>508.0</ele><time>2016-06-14T16:05:31Z</time></trkpt>
<trkpt lat="46.9506749" lon="7.4510490"><ele>507.7</ele><time>2016-06-14T16:05:32Z</time></trkpt>
<trkpt lat="46.9507239" lon="7.4513968"><ele>506.7</ele><time>2016-06-14T16:05:36Z</time></trkpt>
<trkpt lat="46.9507027" lon="7.4514851"><ele>506.6</ele><time>2016-06-14T16:05:37Z</time></trkpt>
<trkpt lat="46.9507220" lon="7.4516954"><ele>506.3</ele><time>2016-06-14T16:05:39Z</time></trkpt>
<trkpt lat="46.9506422" lon="7.4521799"><ele>505.9</ele><time>2016-06-14T16:05:42Z</time></trkpt>
<trkpt lat="46.9506704" lon="7.4524494"><ele>505.2</ele><time>2016-06-14T16:05:47Z</time></trkpt>
<trkpt lat="46.9506468" lon="7.4525467"><ele>505.0</ele><time>2016-06-14T16:05:48Z</time></trkpt>
<trkpt lat="46.9506293" lon="7.4527824"><ele>504.4</ele><time>2016-06-14T16:05:51Z</time></trkpt>
<trkpt lat="46.9506725" lon="7.4530399"><ele>504.0</ele><time>2016-06-14T16:05:53Z</time></trkpt>
<trkpt lat="46.9506527" lon="7.4533465"><ele>503.4</ele><time>2016-06-14T16:05:56Z</time></trkpt>
<trkpt lat="46.9505843" lon="7.4534994"><ele>503.0</ele><time>2016-06-14T16:05:58Z</time></trkpt>
<trkpt lat="46.9506370" lon="7.4536900"><ele>502.6</ele><time>2016-06-14T16:06:00Z</time></trkpt>
<trkpt lat="46.9505674" lon="7.4539177"><ele>502.0</ele><time>2016-06-14T16:06:03Z</time></trkpt>
<trkpt lat="46.9505240" lon="7.4539708"><ele>501.8</ele><time>2016-06-14T16:06:04Z</time></trkpt>
<trkpt lat="46.9505165" lon="7.4546821"><ele>500.4</ele><time>2016-06-14T16:06:11Z</time></trkpt>
<trkpt lat="46.9505010" lon="7.4549824"><ele>499.7</ele><time>2016-06-14T16:06:14Z</time></trkpt>
<trkpt lat="46.9504366" lon="7.4550612"><ele>499.5</ele><time>2016-06-14T16:06:15Z</time></trkpt>
<trkpt lat="46.9504573" lon="7.4554214"><ele>499.3</ele><time>2016-06-14T16:06:16Z</time></trkpt>
<trkpt lat="46.9504434" lon="7.4555339"><ele>499.4</ele><time>2016-06-14T16:06:20Z</time></trkpt>
<trkpt lat="46.9504686" lon="7.4556735"><ele>499.4</ele><time>2016-06-14T16:06:21Z</time></trkpt>
<trkpt lat="46.9505169" lon="7.4557429"><ele>499.5</ele><time>2016-06-14T16:06:22Z</time></trkpt>
<trkpt lat="46.9505101" lon="7.4559809"><ele>499.7</ele><time>2016-06-14T16:06:24Z</time></trkpt>
<trkpt lat="46.9505798" lon="7.4562162"><ele>499.9</ele><time>2016-06-14T16:06:26Z</time></trkpt>
<trkpt lat="46.9505858" lon="7.4567033"><ele>500.3</ele><time>2016-06-14T16:06:31Z</time></trkpt>
<trkpt lat="46.9506371" lon="7.4568733"><ele>500.4</ele><time>2016-06-14T16:06:33Z</time></trkpt>
<trkpt lat="46.9505934" lon="7.4571011"><ele>501.1</ele><time>2016-06-14T16:06:36Z</time></trkpt>
<trkpt lat="46.9506374" lon="7.4573850"><ele>502.2</ele><time>2016-06-14T16:06:39Z</time></trkpt>
<trkpt lat="46.9506228" lon="7.4576501"><ele>503.3</ele><time>2016-06-14T16:06:42Z</time></trkpt>
<trkpt lat="46.9505930" lon="7.4577426"><ele>503.7</ele><time>2016-06-14T16:06:43Z</time></trkpt>
<trkpt lat="46.9506060" lon="7.4578217"><ele>504.0</ele><time>2016-06-14T16:06:44Z</time></trkpt>
<trkpt lat="46.9505729" lon="7.4580729"><ele>504.9</ele><time>2016-06-14T16:06:47Z</time></trkpt>
<trkpt lat="46.9505339" lon="7.4581270"><ele>505.1</ele><time>2016-06-14T16:06:48Z</time></trkpt>
<trkpt lat="46.9505236" lon="7.4582663"><ele>505.4</ele><time>2016-06-14T16:06:50Z</time></trkpt>
<trkpt lat="46.9504633" lon="7.4583561"><ele>506.2</ele><time>2016-06-14T16:06:52Z</time></trkpt>
<trkpt lat="46.9505154" lon="7.4586329"><ele>506.9</ele><time>2016-06-14T16:06:53Z</time></trkpt>
<trkpt lat="46.9504482" lon="7.4586406"><ele>508.2</ele><time>2016-06-14T16:06:55Z</time></trkpt>
<trkpt lat="46.9504576" lon="7.4586987"><ele>508.9</ele><time>2016-06-14T16:06:56Z</time></trkpt>
<trkpt lat="46.9503890" lon="7.4586973"><ele>509.6</ele><time>2016-06-14T16:06:57Z</time></trkpt>
<trkpt lat="46.9502265" lon="7.4585538"><ele>508.6</ele><time>2016-06-14T16:06:58Z</time></trkpt>
<trkpt lat="46.9501315" lon="7.4585751"><ele>507.6</ele><time>2016-06-14T16:06:59Z</time></trkpt>
<trkpt lat="46.9501377" lon="7.4586084"><ele>505.7</ele><time>2016-06-14T16:07:01Z</time></trkpt>
<trkpt lat="46.9499048" lon="7.4587285"><ele>504.7</ele><time>2016-06-14T16:07:04Z</time></trkpt>
<trkpt lat="46.9497194" lon="7.4588749"><ele>504.6</ele><time>2016-06-14T16:07:06Z</time></trkpt>
<trkpt lat="46.9497353" lon="7.4589834"><ele>504.6</ele><time>2016-06-14T16:07:07Z</time></trkpt>
<trkpt lat="46.9497473" lon="7.4589565"><ele>505.1</ele><time>2016-06-14T16:07:11Z</time></trkpt>
<trkpt lat="46.9495585" lon="7.4590037"><ele>504.2</ele><time>2016-06-14T16:07:16Z</time></trkpt>
<trkpt lat="46.9494946" lon="7.4588777"><ele>501.9</ele><time>2016-06-14T16:07:19Z</time></trkpt>
<trkpt lat="46.9494100" lon="7.4586164"><ele>501.3</ele><time>2016-06-14T16:07:21Z</time></trkpt>
<trkpt lat="46.9494611" lon="7.4585849"><ele>501.5</ele><time>2016-06-14T16:07:22Z</time></trkpt>
<trkpt lat="46.9494673" lon="7.4584049"><ele>501.7</ele><time>2016-06-14T16:07:24Z</time></trkpt>
<trkpt lat="46.9494151" lon="7.4582052"><ele>502.0</ele><time>2016-06-14T16:07:26Z</time></trkpt>
<trkpt lat="46.9494553" lon="7.4581336"><ele>502.1</ele><time>2016-06-14T16:07:27Z</time></trkpt>
<trkpt lat="46.9494014" lon="7.4580594"><ele>502.2</ele><time>2016-06-14T16:07:28Z</time></trkpt>
<trkpt lat="46.9494034" lon="7.4578179"><ele>502.8</ele><time>2016-06-14T16:07:32Z</time></trkpt>
<trkpt lat="46.9491803" lon="7.4576113"><ele>505.8</ele><time>2016-06-14T16:07:39Z</time></trkpt>
<trkpt lat="46.9490895" lon="7.4577675"><ele>505.3</ele><time>2016-06-14T16:07:40Z</time></trkpt>
<trkpt lat="46.9488976" lon="7.4578425"><ele>503.3</ele><time>2016-06-14T16:07:44Z</time></trkpt>
<trkpt lat="46.9484990" lon="7.4578049"><ele>503.5</ele><time>2016-06-14T16:07:52Z</time></trkpt>
<trkpt lat="46.9484897" lon="7.4576178"><ele>503.7</ele><time>2016-06-14T16:07:57Z</time></trkpt>
<trkpt lat="46.9484414" lon="7.4575514"><ele>503.6</ele><time>2016-06-14T16:07:58Z</time></trkpt>
<trkpt lat="46.9483098" lon="7.4574865"><ele>503.3</ele><time>2016-06-14T16:08:00Z</time></trkpt>
<trkpt lat="46.9484703" lon="7.4575309"><ele>503.1</ele><time>2016-06-14T16:08:01Z</time></trkpt>
<trkpt lat="46.9485322" lon="7.4573175"><ele>502.9</ele><time>2016-06-14T16:08:03Z</time></trkpt>
<trkpt lat="46.9484640" lon="7.4573003"><ele>502.7</ele><time>2016-06-14T16:08:04Z</time></trkpt>
<trkpt lat="46.9484717" lon="7.4573585"><ele>502.6</ele><time>2016-06-14T16:08:05Z</time></trkpt>
<trkpt lat="46.9483918" lon="7.4573081"><ele>502.4</ele><time>2016-06-14T16:08:06Z</time></trkpt>
<trkpt lat="46.9483628" lon="7.4574208"><ele>502.3</ele><time>2016-06-14T16:08:07Z</time></trkpt>
<trkpt lat="46.9483427" lon="7.4573138"><ele>502.2</ele><time>2016-06-14T16:08:08Z</time></trkpt>
<trkpt lat="46.9483133" lon="7.4573477"><ele>502.1</ele><time>2016-06-14T16:08:09Z</time></trkpt>
<trkpt lat="46.9482743" lon="7.4572381"><ele>501.9</ele><time>2016-06-14T16:08:11Z</time></trkpt>
<trkpt lat="46.9476476" lon="7.4567965"><ele>501.8</ele><time>2016-06-14T16:08:12Z</time></trkpt>
<trkpt lat="46.9473202" lon="7.4562834"><ele>501.2</ele><time>2016-06-14T16:08:20Z</time></trkpt>
<trkpt lat="46.9471228" lon="7.4559026"><ele>501.4</ele><time>2016-06-14T16:08:25Z</time></trkpt>
<trkpt lat="46.9471481" lon="7.4559004"><ele>501.4</ele><time>2016-06-14T16:08:26Z</time></trkpt>
<trkpt lat="46.9468758" lon="7.4553595"><ele>501.6</ele><time>2016-06-14T16:08:34Z</time></trkpt>
<trkpt lat="46.9466280" lon="7.4549648"><ele>501.8</ele><time>2016-06-14T16:08:39Z</time></trkpt>
<trkpt lat="46.9465574" lon="7.4549050"><ele>501.8</ele><time>2016-06-14T16:08:40Z</time></trkpt>
<trkpt lat="46.9465223" lon="7.4547592"><ele>501.9</ele><time>2016-06-14T16:08:42Z</time></trkpt>
<trkpt lat="46.9464365" lon="7.4545421"><ele>502.0</ele><time>2016-06-14T16:08:45Z</time></trkpt>
<trkpt lat="46.9463948" lon="7.4544887"><ele>502.0</ele><time>2016-06-14T16:08:46Z</time></trkpt>
<trkpt lat="46.9464163" lon="7.4544142"><ele>502.1</ele><time>2016-06-14T16:08:47Z</time></trkpt>
<trkpt lat="46.9462871" lon="7.4540475"><ele>502.2</ele><time>2016-06-14T16:08:52Z</time></trkpt>
<trkpt lat="46.9462445" lon="7.4537059"><ele>502.3</ele><time>2016-06-14T16:08:54Z</time></trkpt>
<trkpt lat="46.9462322" lon="7.4534952"><ele>502.4</ele><time>2016-06-14T16:08:58Z</time></trkpt>
<trkpt lat="46.9461034" lon="7.4532206"><ele>502.4</ele><time>2016-06-14T16:09:01Z</time></trkpt>
<trkpt lat="46.9460889" lon="7.4530308"><ele>502.5</ele><time>2016-06-14T16:09:03Z</time></trkpt>
<trkpt lat="46.9460059" lon="7.4526892"><ele>502.8</ele><time>2016-06-14T16:09:07Z</time></trkpt>
<trkpt lat="46.9460085" lon="7.4522375"><ele>503.4</ele><time>2016-06-14T16:09:13Z</time></trkpt>
<trkpt lat="46.9460491" lon="7.4522080"><ele>503.5</ele><time>2016-06-14T16:09:14Z</time></trkpt>
<trkpt lat="46.9460391" lon="7.4519961"><ele>503.7</ele><time>2016-06-14T16:09:17Z</time></trkpt>
<trkpt lat="46.9460552" lon="7.4519797"><ele>503.8</ele><time>2016-06-14T16:09:18Z</time></trkpt>
<trkpt lat="46.9460262" lon="7.4515574"><ele>504.3</ele><time>2016-06-14T16:09:23Z</time></trkpt>
<trkpt lat="46.9459756" lon="7.4514316"><ele>504.5</ele><time>2016-06-14T16:09:25Z</time></trkpt>
<trkpt lat="46.9460912" lon="7.4507630"><ele>505.7</ele><time>2016-06-14T16:09:33Z</time></trkpt>
<trkpt lat="46.9461087" lon="7.4504290"><ele>506.5</ele><time>2016-06-14T16:09:37Z</time></trkpt>
<trkpt lat="46.9460940" lon="7.4504011"><ele>506.4</ele><time>2016-06-14T16:09:38Z</time></trkpt>
<trkpt lat="46.9461190" lon="7.4502221"><ele>506.1</ele><time>2016-06-14T16:09:40Z</time></trkpt>
<trkpt lat="46.9460692" lon="7.4499992"><ele>505.3</ele><time>2016-06-14T16:09:43Z</time></trkpt>
<trkpt lat="46.9460850" lon="7.4498112"><ele>504.7</ele><time>2016-06-14T16:09:45Z</time></trkpt>
<trkpt lat="46.9460273" lon="7.4496509"><ele>504.4</ele><time>2016-06-14T16:09:46Z</time></trkpt>
<trkpt lat="46.9460255" lon="7.4492751"><ele>504.8</ele><time>2016-06-14T16:09:51Z</time></trkpt>
<trkpt lat="46.9461209" lon="7.4491917"><ele>505.2</ele><time>2016-06-14T16:09:53Z</time></trkpt>
<trkpt lat="46.9460244" lon="7.4490576"><ele>505.4</ele><time>2016-06-14T16:09:54Z</time></trkpt>
<trkpt lat="46.9460201" lon="7.4483633"><ele>506.7</ele><time>2016-06-14T16:10:01Z</time></trkpt>
<trkpt lat="46.9459629" lon="7.4476675"><ele>507.4</ele><time>2016-06-14T16:10:09Z</time></trkpt>
<trkpt lat="46.9458610" lon="7.4470108"><ele>506.8</ele><time>2016-06-14T16:10:16Z</time></trkpt>
<trkpt lat="46.9457040" lon="7.4463283"><ele>505.7</ele><time>2016-06-14T16:10:25Z</time></trkpt>
<trkpt lat="46.9454587" lon="7.4457291"><ele>504.2</ele><time>2016-06-14T16:10:32Z</time></trkpt>
<trkpt lat="46.9451548" lon="7.4452353"><ele>502.7</ele><time>2016-06-14T16:10:40Z</time></trkpt>
<trkpt lat="46.9447437" lon="7.4448467"><ele>501.7</ele><time>2016-06-14T16:10:49Z</time></trkpt>
<trkpt lat="46.9447043" lon="7.4449410"><ele>501.2</ele><time>2016-06-14T16:10:53Z</time></trkpt>
<trkpt lat="46.9447333" lon="7.4450156"><ele>501.1</ele><time>2016-06-14T16:10:54Z</time></trkpt>
<trkpt lat="46.9445214" lon="7.4456860"><ele>500.1</ele><time>2016-06-14T16:11:02Z</time></trkpt>
<trkpt lat="46.9444277" lon="7.4459654"><ele>499.6</ele><time>2016-06-14T16:11:06Z</time></trkpt>
<trkpt lat="46.9442615" lon="7.4462857"><ele>502.4</ele><time>2016-06-14T16:11:12Z</time></trkpt>
<trkpt lat="46.9441327" lon="7.4462764"><ele>503.9</ele><time>2016-06-14T16:11:14Z</time></trkpt>
<trkpt lat="46.9440560" lon="7.4463107"><ele>504.6</ele><time>2016-06-14T16:11:15Z</time></trkpt>
<trkpt lat="46.9435809" lon="7.4461092"><ele>502.5</ele><time>2016-06-14T16:11:22Z</time></trkpt>
<trkpt lat="46.9431265" lon="7.4460089"><ele>501.2</ele><time>2016-06-14T16:11:29Z</time></trkpt>
<trkpt lat="46.9426778" lon="7.4459097"><ele>502.1</ele><time>2016-06-14T16:11:36Z</time></trkpt>
<trkpt lat="46.9422296" lon="7.4458116"><ele>502.5</ele><time>2016-06-14T16:11:43Z</time></trkpt>
<trkpt lat="46.9417676" lon="7.4457074"><ele>502.9</ele><time>2016-06-14T16:11:51Z</time></trkpt>
<trkpt lat="46.9413135" lon="7.4455978"><ele>503.3</ele><time>2016-06-14T16:11:57Z</time></trkpt>
<trkpt lat="46.9410771" lon="7.4455407"><ele>503.5</ele><time>2016-06-14T16:12:02Z</time></trkpt>
<trkpt lat="46.9410440" lon="7.4454684"><ele>503.6</ele><time>2016-06-14T16:12:03Z</time></trkpt>
<trkpt lat="46.9409594" lon="7.4455128"><ele>503.7</ele><time>2016-06-14T16:12:05Z</time></trkpt>
<trkpt lat="46.9404817" lon="7.4454036"><ele>504.2</ele><time>2016-06-14T16:12:14Z</time></trkpt>
<trkpt lat="46.9399856" lon="7.4452946"><ele>504.7</ele><time>2016-06-14T16:12:23Z</time></trkpt>
<trkpt lat="46.9395212" lon="7.4451954"><ele>504.8</ele><time>2016-06-14T16:12:32Z</time></trkpt>
<trkpt lat="46.9392683" lon="7.4451424"><ele>504.2</ele><time>2016-06-14T16:12:38Z</time></trkpt>
<trkpt lat="46.9392061" lon="7.4452514"><ele>504.1</ele><time>2016-06-14T16:12:39Z</time></trkpt>
<trkpt lat="46.9391245" lon="7.4451130"><ele>504.0</ele><time>2016-06-14T16:12:40Z</time></trkpt>
<trkpt lat="46.9386415" lon="7.4450130"><ele>503.4</ele><time>2016-06-14T16:12:46Z</time></trkpt>
<trkpt lat="46.9381847" lon="7.4449175"><ele>502.6</ele><time>2016-06-14T16:12:55Z</time></trkpt>
<trkpt lat="46.9377028" lon="7.4448444"><ele>501.9</ele><time>2016-06-14T16:13:03Z</time></trkpt>
<trkpt lat="46.9371826" lon="7.4448280"><ele>501.9</ele><time>2016-06-14T16:13:09Z</time></trkpt>
<trkpt lat="46.9367271" lon="7.4448707"><ele>502.0</ele><time>2016-06-14T16:13:16Z</time></trkpt>
<trkpt lat="46.9362781" lon="7.4450204"><ele>502.1</ele><time>2016-06-14T16:13:23Z</time></trkpt>
<trkpt lat="46.9358318" lon="7.4452441"><ele>502.2</ele><time>2016-06-14T16:13:31Z</time></trkpt>
<trkpt lat="46.9354002" lon="7.4455010"><ele>502.2</ele><time>2016-06-14T16:13:38Z</time></trkpt>
<trkpt lat="46.9346343" lon="7.4454483"><ele>503.9</ele><time>2016-06-14T16:13:50Z</time></trkpt>
</trkseg>
<trkseg>
<trkpt lat="46.9346343" lon="7.4454483"><ele>503.9</ele><time>2016-06-14T16:16:40Z</time></trkpt>
<trkpt lat="46.9341732" lon="7.4452042"><ele>505.5</ele><time>2016-06-14T16:16:44Z</time></trkpt>
<trkpt lat="46.9338137" lon="7.4452133"><ele>512.6</ele><time>2016-06-14T16:17:00Z</time></trkpt>
<trkpt lat="46.9335336" lon="7.4454013"><ele>514.1</ele><time>2016-06-14T16:17:08Z</time></trkpt>
<trkpt lat="46.9332271" lon="7.4458131"><ele>515.0</ele><time>2016-06-14T16:17:18Z</time></trkpt>
<trkpt lat="46.9331530" lon="7.4458292"><ele>515.2</ele><time>2016-06-14T16:17:19Z</time></trkpt>
<trkpt lat="46.9331272" lon="7.4457976"><ele>515.4</ele><time>2016-06-14T16:17:20Z</time></trkpt>
<trkpt lat="46.9331471" lon="7.4458772"><ele>515.5</ele><time>2016-06-14T16:17:21Z</time></trkpt>
<trkpt lat="46.9329145" lon="7.4464416"><ele>521.3</ele><time>2016-06-14T16:17:36Z</time></trkpt>
<trkpt lat="46.9327474" lon="7.4471029"><ele>520.2</ele><time>2016-06-14T16:17:55Z</time></trkpt>
<trkpt lat="46.9325131" lon="7.4477043"><ele>524.0</ele><time>2016-06-14T16:18:07Z</time></trkpt>
<trkpt lat="46.9324161" lon="7.4482016"><ele>523.9</ele><time>2016-06-14T16:18:14Z</time></trkpt>
<trkpt lat="46.9323116" lon="7.4487083"><ele>525.2</ele><time>2016-06-14T16:18:25Z</time></trkpt>
<trkpt lat="46.9322447" lon="7.4487442"><ele>525.1</ele><time>2016-06-14T16:18:26Z</time></trkpt>
<trkpt lat="46.9322236" lon="7.4488824"><ele>525.0</ele><time>2016-06-14T16:18:28Z</time></trkpt>
<trkpt lat="46.9321452" lon="7.4490445"><ele>524.9</ele><time>2016-06-14T16:18:31Z</time></trkpt>
<trkpt lat="46.9320995" lon="7.4490951"><ele>524.8</ele><time>2016-06-14T16:18:32Z</time></trkpt>
<trkpt lat="46.9321868" lon="7.4493289"><ele>524.6</ele><time>2016-06-14T16:18:38Z</time></trkpt>
<trkpt lat="46.9319761" lon="7.4499220"><ele>527.1</ele><time>2016-06-14T16:18:52Z</time></trkpt>
<trkpt lat="46.9318687" lon="7.4503902"><ele>529.2</ele><time>2016-06-14T16:18:57Z</time></trkpt>
<trkpt lat="46.9317892" lon="7.4512502"><ele>533.9</ele><time>2016-06-14T16:19:15Z</time></trkpt>
<trkpt lat="46.9317562" lon="7.4516653"><ele>533.1</ele><time>2016-06-14T16:19:27Z</time></trkpt>
<trkpt lat="46.9317973" lon="7.4522768"><ele>531.0</ele><time>2016-06-14T16:19:38Z</time></trkpt>
<trkpt lat="46.9317684" lon="7.4524051"><ele>530.6</ele><time>2016-06-14T16:19:40Z</time></trkpt>
<trkpt lat="46.9318382" lon="7.4525027"><ele>530.7</ele><time>2016-06-14T16:19:43Z</time></trkpt>
<trkpt lat="46.9319055" lon="7.4525276"><ele>531.2</ele><time>2016-06-14T16:19:44Z</time></trkpt>
<trkpt lat="46.9316353" lon="7.4525878"><ele>532.9</ele><time>2016-06-14T16:19:47Z</time></trkpt>
<trkpt lat="46.9315701" lon="7.4526456"><ele>533.3</ele><time>2016-06-14T16:19:48Z</time></trkpt>
<trkpt lat="46.9315634" lon="7.4526860"><ele>533.7</ele><time>2016-06-14T16:19:49Z</time></trkpt>
<trkpt lat="46.9315308" lon="7.4527091"><ele>534.2</ele><time>2016-06-14T16:19:50Z</time></trkpt>
<trkpt lat="46.9313746" lon="7.4529554"><ele>535.8</ele><time>2016-06-14T16:19:55Z</time></trkpt>
<trkpt lat="46.9310483" lon="7.4533849"><ele>536.3</ele><time>2016-06-14T16:20:03Z</time></trkpt>
<trkpt lat="46.9309850" lon="7.4534123"><ele>536.3</ele><time>2016-06-14T16:20:04Z</time></trkpt>
<trkpt lat="46.9309505" lon="7.4534991"><ele>536.3</ele><time>2016-06-14T16:20:05Z</time></trkpt>
<trkpt lat="46.9308939" lon="7.4535389"><ele>536.3</ele><time>2016-06-14T16:20:06Z</time></trkpt>
<trkpt lat="46.9308692" lon="7.4536274"><ele>536.3</ele><time>2016-06-14T16:20:08Z</time></trkpt>
<trkpt lat="46.9306683" lon="7.4537765"><ele>536.3</ele><time>2016-06-14T16:20:13Z</time></trkpt>
<trkpt lat="46.9306671" lon="7.4538848"><ele>536.4</ele><time>2016-06-14T16:20:15Z</time></trkpt>
<trkpt lat="46.9304665" lon="7.4540184"><ele>536.4</ele><time>2016-06-14T16:20:21Z</time></trkpt>
<trkpt lat="46.9303904" lon="7.4542726"><ele>536.4</ele><time>2016-06-14T16:20:24Z</time></trkpt>
<trkpt lat="46.9303966" lon="7.4544277"><ele>536.4</ele><time>2016-06-14T16:20:26Z</time></trkpt>
<trkpt lat="46.9303055" lon="7.4545230"><ele>536.4</ele><time>2016-06-14T16:20:29Z</time></trkpt>
<trkpt lat="46.9302481" lon="7.4547872"><ele>536.5</ele><time>2016-06-14T16:20:32Z</time></trkpt>
<trkpt lat="46.9302454" lon="7.4549454"><ele>536.5</ele><time>2016-06-14T16:20:33Z</time></trkpt>
<trkpt lat="46.9301873" lon="7.4549954"><ele>536.5</ele><time>2016-06-14T16:20:34Z</time></trkpt>
<trkpt lat="46.9301265" lon="7.4551585"><ele>536.5</ele><time>2016-06-14T16:20:36Z</time></trkpt>
<trkpt lat="46.9301494" lon="7.4552462"><ele>536.5</ele><time>2016-06-14T16:20:38Z</time></trkpt>
<trkpt lat="46.9300459" lon="7.4553533"><ele>536.5</ele><time>2016-06-14T16:20:39Z</time></trkpt>
<trkpt lat="46.9301682" lon="7.4556672"><ele>536.5</ele><time>2016-06-14T16:20:40Z</time></trkpt>
<trkpt lat="46.9300516" lon="7.4558553"><ele>536.5</ele><time>2016-06-14T16:20:42Z</time></trkpt>
<trkpt lat="46.9300357" lon="7.4559408"><ele>536.5</ele><time>2016-06-14T16:20:43Z</time></trkpt>
<trkpt lat="46.9298173" lon="7.4559976"><ele>536.5</ele><time>2016-06-14T16:20:44Z</time></trkpt>
<trkpt lat="46.9297975" lon="7.4561012"><ele>536.5</ele><time>2016-06-14T16:20:47Z</time></trkpt>
<trkpt lat="46.9297712" lon="7.4559998"><ele>536.5</ele><time>2016-06-14T16:20:48Z</time></trkpt>
<trkpt lat="46.9297874" lon="7.4561196"><ele>536.6</ele><time>2016-06-14T16:20:49Z</time></trkpt>
<trkpt lat="46.9297186" lon="7.4563211"><ele>536.0</ele><time>2016-06-14T16:20:51Z</time></trkpt>
<trkpt lat="46.9297518" lon="7.4565822"><ele>535.7</ele><time>2016-06-14T16:20:52Z</time></trkpt>
<trkpt lat="46.9295952" lon="7.4567351"><ele>535.1</ele><time>2016-06-14T16:20:54Z</time></trkpt>
<trkpt lat="46.9295460" lon="7.4568652"><ele>535.4</ele><time>2016-06-14T16:20:59Z</time></trkpt>
<trkpt lat="46.9295315" lon="7.4569794"><ele>535.6</ele><time>2016-06-14T16:21:00Z</time></trkpt>
<trkpt lat="46.9294717" lon="7.4570164"><ele>535.7</ele><time>2016-06-14T16:21:01Z</time></trkpt>
<trkpt lat="46.9294507" lon="7.4570830"><ele>535.9</ele><time>2016-06-14T16:21:02Z</time></trkpt>
<trkpt lat="46.9292671" lon="7.4573202"><ele>536.5</ele><time>2016-06-14T16:21:06Z</time></trkpt>
<trkpt lat="46.9292032" lon="7.4573479"><ele>536.9</ele><time>2016-06-14T16:21:09Z</time></trkpt>
<trkpt lat="46.9291610" lon="7.4573181"><ele>537.1</ele><time>2016-06-14T16:21:10Z</time></trkpt>
<trkpt lat="46.9291262" lon="7.4574543"><ele>537.4</ele><time>2016-06-14T16:21:12Z</time></trkpt>
<trkpt lat="46.9290672" lon="7.4574566"><ele>537.6</ele><time>2016-06-14T16:21:13Z</time></trkpt>
<trkpt lat="46.9289412" lon="7.4575392"><ele>538.0</ele><time>2016-06-14T16:21:16Z</time></trkpt>
<trkpt lat="46.9289109" lon="7.4574882"><ele>538.2</ele><time>2016-06-14T16:21:17Z</time></trkpt>
<trkpt lat="46.9289023" lon="7.4573048"><ele>538.9</ele><time>2016-06-14T16:21:22Z</time></trkpt>
<trkpt lat="46.9286189" lon="7.4569057"><ele>540.5</ele><time>2016-06-14T16:21:35Z</time></trkpt>
<trkpt lat="46.9282141" lon="7.4566405"><ele>543.9</ele><time>2016-06-14T16:21:47Z</time></trkpt>
<trkpt lat="46.9278674" lon="7.4571809"><ele>544.2</ele><time>2016-06-14T16:21:58Z</time></trkpt>
<trkpt lat="46.9278532" lon="7.4572700"><ele>543.9</ele><time>2016-06-14T16:22:00Z</time></trkpt>
<trkpt lat="46.9278166" lon="7.4573224"><ele>543.7</ele><time>2016-06-14T16:22:01Z</time></trkpt>
<trkpt lat="46.9278325" lon="7.4573580"><ele>543.5</ele><time>2016-06-14T16:22:02Z</time></trkpt>
<trkpt lat="46.9275383" lon="7.4576738"><ele>543.7</ele><time>2016-06-14T16:22:11Z</time></trkpt>
<trkpt lat="46.9274970" lon="7.4576652"><ele>543.7</ele><time>2016-06-14T16:22:12Z</time></trkpt>
<trkpt lat="46.9273766" lon="7.4578727"><ele>543.9</ele><time>2016-06-14T16:22:14Z</time></trkpt>
<trkpt lat="46.9273853" lon="7.4581221"><ele>544.1</ele><time>2016-06-14T16:22:17Z</time></trkpt>
<trkpt lat="46.9273413" lon="7.4581024"><ele>544.1</ele><time>2016-06-14T16:22:18Z</time></trkpt>
<trkpt lat="46.9272879" lon="7.4582840"><ele>544.3</ele><time>2016-06-14T16:22:20Z</time></trkpt>
<trkpt lat="46.9272984" lon="7.4584771"><ele>544.3</ele><time>2016-06-14T16:22:21Z</time></trkpt>
<trkpt lat="46.9271886" lon="7.4586320"><ele>544.4</ele><time>2016-06-14T16:22:22Z</time></trkpt>
<trkpt lat="46.9271489" lon="7.4587409"><ele>544.6</ele><time>2016-06-14T16:22:25Z</time></trkpt>
<trkpt lat="46.9270460" lon="7.4588604"><ele>544.8</ele><time>2016-06-14T16:22:27Z</time></trkpt>
<trkpt lat="46.9269912" lon="7.4589885"><ele>544.9</ele><time>2016-06-14T16:22:29Z</time></trkpt>
<trkpt lat="46.9269425" lon="7.4590043"><ele>545.0</ele><time>2016-06-14T16:22:30Z</time></trkpt>
<trkpt lat="46.9268995" lon="7.4590785"><ele>545.1</ele><time>2016-06-14T16:22:32Z</time></trkpt>
<trkpt lat="46.9268742" lon="7.4590715"><ele>545.2</ele><time>2016-06-14T16:22:33Z</time></trkpt>
<trkpt lat="46.9268670" lon="7.4591275"><ele>545.2</ele><time>2016-06-14T16:22:34Z</time></trkpt>
<trkpt lat="46.9268198" lon="7.4591174"><ele>545.3</ele><time>2016-06-14T16:22:35Z</time></trkpt>
<trkpt lat="46.9267709" lon="7.4590414"><ele>545.4</ele><time>2016-06-14T16:22:36Z</time></trkpt>
<trkpt lat="46.9267452" lon="7.4591432"><ele>545.4</ele><time>2016-06-14T16:22:37Z</time></trkpt>
<trkpt lat="46.9266368" lon="7.4592556"><ele>545.6</ele><time>2016-06-14T16:22:39Z</time></trkpt>
<trkpt lat="46.9266345" lon="7.4593907"><ele>545.7</ele><time>2016-06-14T16:22:41Z</time></trkpt>
<trkpt lat="46.9264967" lon="7.4595036"><ele>545.7</ele><time>2016-06-14T16:22:43Z</time></trkpt>
<trkpt lat="46.9265082" lon="7.4595606"><ele>545.7</ele><time>2016-06-14T16:22:45Z</time></trkpt>
<trkpt lat="46.9264562" lon="7.4596273"><ele>545.7</ele><time>2016-06-14T16:22:46Z</time></trkpt>
<trkpt lat="46.9264639" lon="7.4596870"><ele>545.7</ele><time>2016-06-14T16:22:47Z</time></trkpt>
<trkpt lat="46.9263417" lon="7.4599786"><ele>546.2</ele><time>2016-06-14T16:22:53Z</time></trkpt>
<trkpt lat="46.9262974" lon="7.4600017"><ele>546.2</ele><time>2016-06-14T16:22:54Z</time></trkpt>
<trkpt lat="46.9261800" lon="7.4601707"><ele>546.4</ele><time>2016-06-14T16:22:57Z</time></trkpt>
<trkpt lat="46.9261337" lon="7.4603214"><ele>546.6</ele><time>2016-06-14T16:22:59Z</time></trkpt>
<trkpt lat="46.9257365" lon="7.4607843"><ele>547.1</ele><time>2016-06-14T16:23:07Z</time></trkpt>
<trkpt lat="46.9255749" lon="7.4609376"><ele>547.4</ele><time>2016-06-14T16:23:10Z</time></trkpt>
<trkpt lat="46.9254450" lon="7.4611215"><ele>547.6</ele><time>2016-06-14T16:23:13Z</time></trkpt>
<trkpt lat="46.9251259" lon="7.4614880"><ele>548.1</ele><time>2016-06-14T16:23:20Z</time></trkpt>
<trkpt lat="46.9249840" lon="7.4617560"><ele>548.5</ele><time>2016-06-14T16:23:24Z</time></trkpt>
<trkpt lat="46.9249819" lon="7.4618174"><ele>548.6</ele><time>2016-06-14T16:23:26Z</time></trkpt>
<trkpt lat="46.9248769" lon="7.4619556"><ele>548.7</ele><time>2016-06-14T16:23:27Z</time></trkpt>
<trkpt lat="46.9248402" lon="7.4619688"><ele>549.7</ele><time>2016-06-14T16:23:30Z</time></trkpt>
<trkpt lat="46.9248193" lon="7.4620489"><ele>550.1</ele><time>2016-06-14T16:23:31Z</time></trkpt>
<trkpt lat="46.9247726" lon="7.4621004"><ele>550.5</ele><time>2016-06-14T16:23:32Z</time></trkpt>
<trkpt lat="46.9248002" lon="7.4622431"><ele>551.3</ele><time>2016-06-14T16:23:35Z</time></trkpt>
<trkpt lat="46.9247290" lon="7.4624665"><ele>552.1</ele><time>2016-06-14T16:23:40Z</time></trkpt>
<trkpt lat="46.9242831" lon="7.4622599"><ele>552.7</ele><time>2016-06-14T16:23:52Z</time></trkpt>
<trkpt lat="46.9238392" lon="7.4620372"><ele>554.2</ele><time>2016-06-14T16:24:03Z</time></trkpt>
<trkpt lat="46.9234555" lon="7.4616608"><ele>556.8</ele><time>2016-06-14T16:24:15Z</time></trkpt>
<trkpt lat="46.9231867" lon="7.4615336"><ele>558.7</ele><time>2016-06-14T16:24:29Z</time></trkpt>
<trkpt lat="46.9228992" lon="7.4620498"><ele>558.6</ele><time>2016-06-14T16:24:44Z</time></trkpt>
<trkpt lat="46.9228615" lon="7.4622196"><ele>558.5</ele><time>2016-06-14T16:24:46Z</time></trkpt>
<trkpt lat="46.9227935" lon="7.4623134"><ele>558.5</ele><time>2016-06-14T16:24:48Z</time></trkpt>
<trkpt lat="46.9227772" lon="7.4624703"><ele>558.5</ele><time>2016-06-14T16:24:50Z</time></trkpt>
<trkpt lat="46.9227433" lon="7.4625185"><ele>558.5</ele><time>2016-06-14T16:24:51Z</time></trkpt>
<trkpt lat="46.9226966" lon="7.4625172"><ele>558.5</ele><time>2016-06-14T16:24:52Z</time></trkpt>
<trkpt lat="46.9227083" lon="7.4625683"><ele>558.5</ele><time>2016-06-14T16:24:53Z</time></trkpt>
<trkpt lat="46.9226687" lon="7.4626912"><ele>558.5</ele><time>2016-06-14T16:24:55Z</time></trkpt>
<trkpt lat="46.9225700" lon="7.4628877"><ele>558.4</ele><time>2016-06-14T16:24:59Z</time></trkpt>
<trkpt lat="46.9225165" lon="7.4629234"><ele>558.4</ele><time>2016-06-14T16:25:00Z</time></trkpt>
<trkpt lat="46.9225193" lon="7.4629589"><ele>558.4</ele><time>2016-06-14T16:25:01Z</time></trkpt>
<trkpt lat="46.9223860" lon="7.4630528"><ele>558.4</ele><time>2016-06-14T16:25:05Z</time></trkpt>
<trkpt lat="46.9223757" lon="7.4632595"><ele>558.4</ele><time>2016-06-14T16:25:08Z</time></trkpt>
<trkpt lat="46.9223552" lon="7.4632984"><ele>558.3</ele><time>2016-06-14T16:25:09Z</time></trkpt>
<trkpt lat="46.9222848" lon="7.4632740"><ele>558.3</ele><time>2016-06-14T16:25:10Z</time></trkpt>
<trkpt lat="46.9221803" lon="7.4633828"><ele>558.3</ele><time>2016-06-14T16:25:13Z</time></trkpt>
<trkpt lat="46.9221675" lon="7.4634601"><ele>558.3</ele><time>2016-06-14T16:25:14Z</time></trkpt>
<trkpt lat="46.9220204" lon="7.4635428"><ele>558.3</ele><time>2016-06-14T16:25:18Z</time></trkpt>
<trkpt lat="46.9218642" lon="7.4638977"><ele>558.2</ele><time>2016-06-14T16:25:24Z</time></trkpt>
<trkpt lat="46.9218611" lon="7.4639658"><ele>558.2</ele><time>2016-06-14T16:25:25Z</time></trkpt>
<trkpt lat="46.9217637" lon="7.4641169"><ele>558.2</ele><time>2016-06-14T16:25:28Z</time></trkpt>
<trkpt lat="46.9217465" lon="7.4644261"><ele>558.2</ele><time>2016-06-14T16:25:32Z</time></trkpt>
<trkpt lat="46.9218676" lon="7.4647300"><ele>558.1</ele><time>2016-06-14T16:25:36Z</time></trkpt>
<trkpt lat="46.9219285" lon="7.4654111"><ele>558.1</ele><time>2016-06-14T16:25:44Z</time></trkpt>
<trkpt lat="46.9219331" lon="7.4658669"><ele>558.0</ele><time>2016-06-14T16:25:50Z</time></trkpt>
<trkpt lat="46.9219951" lon="7.4659291"><ele>558.0</ele><time>2016-06-14T16:25:51Z</time></trkpt>
<trkpt lat="46.9220639" lon="7.4662218"><ele>557.9</ele><time>2016-06-14T16:25:57Z</time></trkpt>
<trkpt lat="46.9219675" lon="7.4664061"><ele>557.9</ele><time>2016-06-14T16:26:00Z</time></trkpt>
<trkpt lat="46.9220098" lon="7.4666995"><ele>557.9</ele><time>2016-06-14T16:26:01Z</time></trkpt>
<trkpt lat="46.9220123" lon="7.4668271"><ele>557.6</ele><time>2016-06-14T16:26:04Z</time></trkpt>
<trkpt lat="46.9219699" lon="7.4669956"><ele>557.2</ele><time>2016-06-14T16:26:05Z</time></trkpt>
<trkpt lat="46.9219750" lon="7.4671474"><ele>556.9</ele><time>2016-06-14T16:26:06Z</time></trkpt>
<trkpt lat="46.9218772" lon="7.4675736"><ele>555.9</ele><time>2016-06-14T16:26:09Z</time></trkpt>
<trkpt lat="46.9217883" lon="7.4676139"><ele>555.2</ele><time>2016-06-14T16:26:10Z</time></trkpt>
<trkpt lat="46.9217744" lon="7.4680024"><ele>554.6</ele><time>2016-06-14T16:26:11Z</time></trkpt>
<trkpt lat="46.9217963" lon="7.4681103"><ele>552.6</ele><time>2016-06-14T16:26:14Z</time></trkpt>
<trkpt lat="46.9219449" lon="7.4683413"><ele>551.0</ele><time>2016-06-14T16:26:16Z</time></trkpt>
<trkpt lat="46.9219644" lon="7.4684895"><ele>550.0</ele><time>2016-06-14T16:26:17Z</time></trkpt>
<trkpt lat="46.9220488" lon="7.4686134"><ele>549.0</ele><time>2016-06-14T16:26:18Z</time></trkpt>
<trkpt lat="46.9221156" lon="7.4690908"><ele>546.1</ele><time>2016-06-14T16:26:21Z</time></trkpt>
<trkpt lat="46.9221076" lon="7.4697076"><ele>543.3</ele><time>2016-06-14T16:26:24Z</time></trkpt>
<trkpt lat="46.9220849" lon="7.4699016"><ele>542.4</ele><time>2016-06-14T16:26:25Z</time></trkpt>
<trkpt lat="46.9219284" lon="7.4706460"><ele>540.7</ele><time>2016-06-14T16:26:29Z</time></trkpt>
<trkpt lat="46.9218687" lon="7.4708090"><ele>540.4</ele><time>2016-06-14T16:26:30Z</time></trkpt>
<trkpt lat="46.9218147" lon="7.4711582"><ele>539.9</ele><time>2016-06-14T16:26:32Z</time></trkpt>
<trkpt lat="46.9217606" lon="7.4713583"><ele>539.6</ele><time>2016-06-14T16:26:33Z</time></trkpt>
<trkpt lat="46.9217785" lon="7.4715750"><ele>539.3</ele><time>2016-06-14T16:26:34Z</time></trkpt>
<trkpt lat="46.9217250" lon="7.4720664"><ele>538.5</ele><time>2016-06-14T16:26:37Z</time></trkpt>
<trkpt lat="46.9216243" lon="7.4721845"><ele>538.1</ele><time>2016-06-14T16:26:38Z</time></trkpt>
<trkpt lat="46.9216230" lon="7.4723631"><ele>537.8</ele><time>2016-06-14T16:26:39Z</time></trkpt>
<trkpt lat="46.9215521" lon="7.4728130"><ele>536.6</ele><time>2016-06-14T16:26:42Z</time></trkpt>
<trkpt lat="46.9216038" lon="7.4733190"><ele>536.8</ele><time>2016-06-14T16:26:44Z</time></trkpt>
<trkpt lat="46.9215781" lon="7.4734840"><ele>536.8</ele><time>2016-06-14T16:26:45Z</time></trkpt>
<trkpt lat="46.9214715" lon="7.4734982"><ele>536.9</ele><time>2016-06-14T16:26:46Z</time></trkpt>
<trkpt lat="46.9214076" lon="7.4740250"><ele>536.8</ele><time>2016-06-14T16:26:49Z</time></trkpt>
<trkpt lat="46.9213600" lon="7.4741035"><ele>536.4</ele><time>2016-06-14T16:26:50Z</time></trkpt>
<trkpt lat="46.9213182" lon="7.4743843"><ele>535.8</ele><time>2016-06-14T16:26:52Z</time></trkpt>
<trkpt lat="46.9212218" lon="7.4743083"><ele>535.5</ele><time>2016-06-14T16:26:53Z</time></trkpt>
<trkpt lat="46.9210916" lon="7.4746825"><ele>534.5</ele><time>2016-06-14T16:26:55Z</time></trkpt>
<trkpt lat="46.9208682" lon="7.4746912"><ele>533.1</ele><time>2016-06-14T16:26:58Z</time></trkpt>
<trkpt lat="46.9208130" lon="7.4749672"><ele>533.2</ele><time>2016-06-14T16:27:00Z</time></trkpt>
<trkpt lat="46.9207390" lon="7.4750449"><ele>533.2</ele><time>2016-06-14T16:27:01Z</time></trkpt>
<trkpt lat="46.9206036" lon="7.4756666"><ele>533.4</ele><time>2016-06-14T16:27:04Z</time></trkpt>
<trkpt lat="46.9205770" lon="7.4759970"><ele>531.4</ele><time>2016-06-14T16:27:07Z</time></trkpt>
<trkpt lat="46.9205046" lon="7.4760634"><ele>530.8</ele><time>2016-06-14T16:27:08Z</time></trkpt>
<trkpt lat="46.9204313" lon="7.4764968"><ele>529.5</ele><time>2016-06-14T16:27:11Z</time></trkpt>
<trkpt lat="46.9204592" lon="7.4767959"><ele>529.1</ele><time>2016-06-14T16:27:12Z</time></trkpt>
<trkpt lat="46.9204163" lon="7.4769323"><ele>528.8</ele><time>2016-06-14T16:27:13Z</time></trkpt>
<trkpt lat="46.9203459" lon="7.4774070"><ele>527.8</ele><time>2016-06-14T16:27:16Z</time></trkpt>
<trkpt lat="46.9203701" lon="7.4776040"><ele>527.4</ele><time>2016-06-14T16:27:17Z</time></trkpt>
<trkpt lat="46.9202362" lon="7.4781866"><ele>526.1</ele><time>2016-06-14T16:27:21Z</time></trkpt>
<trkpt lat="46.9201520" lon="7.4783108"><ele>525.9</ele><time>2016-06-14T16:27:22Z</time></trkpt>
<trkpt lat="46.9200332" lon="7.4787867"><ele>525.4</ele><time>2016-06-14T16:27:25Z</time></trkpt>
<trkpt lat="46.9199811" lon="7.4789117"><ele>525.2</ele><time>2016-06-14T16:27:26Z</time></trkpt>
<trkpt lat="46.9199960" lon="7.4791425"><ele>525.0</ele><time>2016-06-14T16:27:27Z</time></trkpt>
<trkpt lat="46.9199211" lon="7.4792501"><ele>524.8</ele><time>2016-06-14T16:27:28Z</time></trkpt>
<trkpt lat="46.9198437" lon="7.4793022"><ele>524.6</ele><time>2016-06-14T16:27:29Z</time></trkpt>
<trkpt lat="46.9198000" lon="7.4796040"><ele>524.2</ele><time>2016-06-14T16:27:31Z</time></trkpt>
<trkpt lat="46.9198248" lon="7.4797174"><ele>523.2</ele><time>2016-06-14T16:27:33Z</time></trkpt>
<trkpt lat="46.9196740" lon="7.4795411"><ele>522.4</ele><time>2016-06-14T16:27:34Z</time></trkpt>
<trkpt lat="46.9197715" lon="7.4796095"><ele>521.5</ele><time>2016-06-14T16:27:35Z</time></trkpt>
<trkpt lat="46.9197859" lon="7.4796946"><ele>520.7</ele><time>2016-06-14T16:27:36Z</time></trkpt>
<trkpt lat="46.9198515" lon="7.4797635"><ele>519.9</ele><time>2016-06-14T16:27:37Z</time></trkpt>
<trkpt lat="46.9200203" lon="7.4798318"><ele>519.0</ele><time>2016-06-14T16:27:38Z</time></trkpt>
<trkpt lat="46.9201108" lon="7.4801007"><ele>518.7</ele><time>2016-06-14T16:27:39Z</time></trkpt>
<trkpt lat="46.9202037" lon="7.4802448"><ele>517.6</ele><time>2016-06-14T16:27:43Z</time></trkpt>
<trkpt lat="46.9202860" lon="7.4803079"><ele>517.3</ele><time>2016-06-14T16:27:44Z</time></trkpt>
<trkpt lat="46.9203130" lon="7.4803929"><ele>517.0</ele><time>2016-06-14T16:27:45Z</time></trkpt>
<trkpt lat="46.9204545" lon="7.4804541"><ele>516.4</ele><time>2016-06-14T16:27:47Z</time></trkpt>
<trkpt lat="46.9206074" lon="7.4806760"><ele>515.5</ele><time>2016-06-14T16:27:50Z</time></trkpt>
<trkpt lat="46.9206373" lon="7.4810772"><ele>513.7</ele><time>2016-06-14T16:27:53Z</time></trkpt>
<trkpt lat="46.9205833" lon="7.4812347"><ele>513.1</ele><time>2016-06-14T16:27:54Z</time></trkpt>
<trkpt lat="46.9206201" lon="7.4818512"><ele>509.8</ele><time>2016-06-14T16:27:59Z</time></trkpt>
<trkpt lat="46.9206054" lon="7.4819995"><ele>509.1</ele><time>2016-06-14T16:28:00Z</time></trkpt>
<trkpt lat="46.9204306" lon="7.4827375"><ele>508.8</ele><time>2016-06-14T16:28:05Z</time></trkpt>
<trkpt lat="46.9202826" lon="7.4828986"><ele>508.8</ele><time>2016-06-14T16:28:06Z</time></trkpt>
<trkpt lat="46.9201381" lon="7.4831201"><ele>508.6</ele><time>2016-06-14T16:28:08Z</time></trkpt>
<trkpt lat="46.9201315" lon="7.4832000"><ele>508.6</ele><time>2016-06-14T16:28:09Z</time></trkpt>
<trkpt lat="46.9200817" lon="7.4833091"><ele>508.5</ele><time>2016-06-14T16:28:10Z</time></trkpt>
<trkpt lat="46.9200170" lon="7.4833785"><ele>508.5</ele><time>2016-06-14T16:28:11Z</time></trkpt>
<trkpt lat="46.9197134" lon="7.4837967"><ele>508.7</ele><time>2016-06-14T16:28:16Z</time></trkpt>
<trkpt lat="46.9196799" lon="7.4839236"><ele>508.8</ele><time>2016-06-14T16:28:17Z</time></trkpt>
<trkpt lat="46.9195362" lon="7.4840320"><ele>508.9</ele><time>2016-06-14T16:28:19Z</time></trkpt>
<trkpt lat="46.9194506" lon="7.4841995"><ele>509.0</ele><time>2016-06-14T16:28:21Z</time></trkpt>
<trkpt lat="46.9193822" lon="7.4842197"><ele>509.1</ele><time>2016-06-14T16:28:22Z</time></trkpt>
<trkpt lat="46.9193372" lon="7.4843116"><ele>509.2</ele><time>2016-06-14T16:28:23Z</time></trkpt>
<trkpt lat="46.9192632" lon="7.4843514"><ele>509.2</ele><time>2016-06-14T16:28:24Z</time></trkpt>
<trkpt lat="46.9191626" lon="7.4845341"><ele>509.4</ele><time>2016-06-14T16:28:26Z</time></trkpt>
<trkpt lat="46.9191094" lon="7.4845869"><ele>509.4</ele><time>2016-06-14T16:28:27Z</time></trkpt>
<trkpt lat="46.9190373" lon="7.4848093"><ele>509.5</ele><time>2016-06-14T16:28:28Z</time></trkpt>
<trkpt lat="46.9189783" lon="7.4847650"><ele>509.6</ele><time>2016-06-14T16:28:29Z</time></trkpt>
<trkpt lat="46.9190043" lon="7.4848090"><ele>509.7</ele><time>2016-06-14T16:28:31Z</time></trkpt>
<trkpt lat="46.9190258" lon="7.4848181"><ele>509.8</ele><time>2016-06-14T16:28:33Z</time></trkpt>
<trkpt lat="46.9192168" lon="7.4850044"><ele>510.3</ele><time>2016-06-14T16:28:39Z</time></trkpt>
<trkpt lat="46.9191841" lon="7.4851332"><ele>509.9</ele><time>2016-06-14T16:28:40Z</time></trkpt>
<trkpt lat="46.9195643" lon="7.4854265"><ele>508.0</ele><time>2016-06-14T16:28:46Z</time></trkpt>
<trkpt lat="46.9199860" lon="7.4858045"><ele>507.7</ele><time>2016-06-14T16:28:53Z</time></trkpt>
<trkpt lat="46.9204401" lon="7.4862337"><ele>507.2</ele><time>2016-06-14T16:29:02Z</time></trkpt>
<trkpt lat="46.9204674" lon="7.4862915"><ele>507.1</ele><time>2016-06-14T16:29:03Z</time></trkpt>
<trkpt lat="46.9204701" lon="7.4862619"><ele>507.0</ele><time>2016-06-14T16:29:04Z</time></trkpt>
<trkpt lat="46.9205607" lon="7.4863228"><ele>506.9</ele><time>2016-06-14T16:29:06Z</time></trkpt>
<trkpt lat="46.9207059" lon="7.4866685"><ele>506.3</ele><time>2016-06-14T16:29:12Z</time></trkpt>
<trkpt lat="46.9207178" lon="7.4867764"><ele>506.2</ele><time>2016-06-14T16:29:13Z</time></trkpt>
<trkpt lat="46.9209291" lon="7.4874392"><ele>506.0</ele><time>2016-06-14T16:29:16Z</time></trkpt>
<trkpt lat="46.9209972" lon="7.4878617"><ele>505.7</ele><time>2016-06-14T16:29:19Z</time></trkpt>
<trkpt lat="46.9202318" lon="7.4873765"><ele>505.6</ele><time>2016-06-14T16:29:20Z</time></trkpt>
<trkpt lat="46.9200365" lon="7.4877279"><ele>505.3</ele><time>2016-06-14T16:29:24Z</time></trkpt>
<trkpt lat="46.9199457" lon="7.4878240"><ele>505.1</ele><time>2016-06-14T16:29:26Z</time></trkpt>
<trkpt lat="46.9199148" lon="7.4879278"><ele>505.0</ele><time>2016-06-14T16:29:27Z</time></trkpt>
<trkpt lat="46.9198445" lon="7.4879693"><ele>504.9</ele><time>2016-06-14T16:29:28Z</time></trkpt>
<trkpt lat="46.9198308" lon="7.4880718"><ele>504.8</ele><time>2016-06-14T16:29:29Z</time></trkpt>
<trkpt lat="46.9196779" lon="7.4881428"><ele>504.7</ele><time>2016-06-14T16:29:31Z</time></trkpt>
<trkpt lat="46.9195126" lon="7.4883208"><ele>504.4</ele><time>2016-06-14T16:29:34Z</time></trkpt>
<trkpt lat="46.9194572" lon="7.4883478"><ele>504.5</ele><time>2016-06-14T16:29:35Z</time></trkpt>
<trkpt lat="46.9194084" lon="7.4885712"><ele>504.8</ele><time>2016-06-14T16:29:37Z</time></trkpt>
<trkpt lat="46.9193241" lon="7.4887038"><ele>505.0</ele><time>2016-06-14T16:29:39Z</time></trkpt>
<trkpt lat="46.9191493" lon="7.4886914"><ele>505.3</ele><time>2016-06-14T16:29:41Z</time></trkpt>
<trkpt lat="46.9189235" lon="7.4891512"><ele>506.1</ele><time>2016-06-14T16:29:47Z</time></trkpt>
<trkpt lat="46.9188470" lon="7.4894393"><ele>506.5</ele><time>2016-06-14T16:29:50Z</time></trkpt>
<trkpt lat="46.9187014" lon="7.4895972"><ele>506.9</ele><time>2016-06-14T16:29:53Z</time></trkpt>
<trkpt lat="46.9185947" lon="7.4898198"><ele>507.3</ele><time>2016-06-14T16:29:56Z</time></trkpt>
<trkpt lat="46.9182624" lon="7.4900314"><ele>508.0</ele><time>2016-06-14T16:30:01Z</time></trkpt>
<trkpt lat="46.9181922" lon="7.4901981"><ele>508.2</ele><time>2016-06-14T16:30:03Z</time></trkpt>
<trkpt lat="46.9179359" lon="7.4903561"><ele>508.2</ele><time>2016-06-14T16:30:07Z</time></trkpt>
<trkpt lat="46.9178346" lon="7.4904707"><ele>508.2</ele><time>2016-06-14T16:30:09Z</time></trkpt>
<trkpt lat="46.9177976" lon="7.4905528"><ele>508.2</ele><time>2016-06-14T16:30:10Z</time></trkpt>
<trkpt lat="46.9176809" lon="7.4906182"><ele>508.2</ele><time>2016-06-14T16:30:12Z</time></trkpt>
<trkpt lat="46.9175983" lon="7.4906235"><ele>508.2</ele><time>2016-06-14T16:30:13Z</time></trkpt>
<trkpt lat="46.9175426" lon="7.4906701"><ele>508.2</ele><time>2016-06-14T16:30:14Z</time></trkpt>
<trkpt lat="46.9175382" lon="7.4907991"><ele>508.2</ele><time>2016-06-14T16:30:15Z</time></trkpt>
<trkpt lat="46.9174006" lon="7.4908904"><ele>508.2</ele><time>2016-06-14T16:30:17Z</time></trkpt>
<trkpt lat="46.9172645" lon="7.4909485"><ele>508.2</ele><time>2016-06-14T16:30:19Z</time></trkpt>
<trkpt lat="46.9172788" lon="7.4911100"><ele>508.2</ele><time>2016-06-14T16:30:20Z</time></trkpt>
<trkpt lat="46.9172507" lon="7.4911970"><ele>508.2</ele><time>2016-06-14T16:30:21Z</time></trkpt>
<trkpt lat="46.9169337" lon="7.4914068"><ele>508.2</ele><time>2016-06-14T16:30:26Z</time></trkpt>
<trkpt lat="46.9169329" lon="7.4915033"><ele>508.2</ele><time>2016-06-14T16:30:27Z</time></trkpt>
<trkpt lat="46.9168432" lon="7.4916105"><ele>508.2</ele><time>2016-06-14T16:30:29Z</time></trkpt>
<trkpt lat="46.9167560" lon="7.4916127"><ele>508.2</ele><time>2016-06-14T16:30:30Z</time></trkpt>
<trkpt lat="46.9167115" lon="7.4916458"><ele>508.2</ele><time>2016-06-14T16:30:31Z</time></trkpt>
<trkpt lat="46.9166397" lon="7.4917905"><ele>508.2</ele><time>2016-06-14T16:30:33Z</time></trkpt>
<trkpt lat="46.9164878" lon="7.4919109"><ele>508.1</ele><time>2016-06-14T16:30:36Z</time></trkpt>
<trkpt lat="46.9163345" lon="7.4919787"><ele>508.1</ele><time>2016-06-14T16:30:38Z</time></trkpt>
<trkpt lat="46.9162896" lon="7.4920385"><ele>508.1</ele><time>2016-06-14T16:30:39Z</time></trkpt>
<trkpt lat="46.9162100" lon="7.4920667"><ele>508.1</ele><time>2016-06-14T16:30:40Z</time></trkpt>
<trkpt lat="46.9161389" lon="7.4921700"><ele>508.1</ele><time>2016-06-14T16:30:42Z</time></trkpt>
<trkpt lat="46.9159221" lon="7.4923284"><ele>508.1</ele><time>2016-06-14T16:30:46Z</time></trkpt>
<trkpt lat="46.9158339" lon="7.4923374"><ele>508.1</ele><time>2016-06-14T16:30:47Z</time></trkpt>
<trkpt lat="46.9157899" lon="7.4923962"><ele>508.1</ele><time>2016-06-14T16:30:48Z</time></trkpt>
<trkpt lat="46.9156257" lon="7.4924513"><ele>508.1</ele><time>2016-06-14T16:30:50Z</time></trkpt>
<trkpt lat="46.9155886" lon="7.4925091"><ele>508.1</ele><time>2016-06-14T16:30:51Z</time></trkpt>
<trkpt lat="46.9153418" lon="7.4925991"><ele>508.1</ele><time>2016-06-14T16:30:55Z</time></trkpt>
<trkpt lat="46.9153067" lon="7.4926525"><ele>508.1</ele><time>2016-06-14T16:30:56Z</time></trkpt>
<trkpt lat="46.9151148" lon="7.4927204"><ele>508.1</ele><time>2016-06-14T16:30:59Z</time></trkpt>
<trkpt lat="46.9150259" lon="7.4928795"><ele>508.1</ele><time>2016-06-14T16:31:01Z</time></trkpt>
<trkpt lat="46.9145686" lon="7.4930811"><ele>508.0</ele><time>2016-06-14T16:31:09Z</time></trkpt>
<trkpt lat="46.9143939" lon="7.4932091"><ele>508.0</ele><time>2016-06-14T16:31:13Z</time></trkpt>
<trkpt lat="46.9142923" lon="7.4933255"><ele>508.0</ele><time>2016-06-14T16:31:15Z</time></trkpt>
<trkpt lat="46.9139653" lon="7.4935350"><ele>508.0</ele><time>2016-06-14T16:31:21Z</time></trkpt>
<trkpt lat="46.9135882" lon="7.4936227"><ele>508.0</ele><time>2016-06-14T16:31:26Z</time></trkpt>
<trkpt lat="46.9134199" lon="7.4935633"><ele>508.1</ele><time>2016-06-14T16:31:27Z</time></trkpt>
<trkpt lat="46.9133101" lon="7.4937194"><ele>508.3</ele><time>2016-06-14T16:31:30Z</time></trkpt>
<trkpt lat="46.9129893" lon="7.4937975"><ele>508.3</ele><time>2016-06-14T16:31:34Z</time></trkpt>
<trkpt lat="46.9129486" lon="7.4938597"><ele>508.2</ele><time>2016-06-14T16:31:35Z</time></trkpt>
<trkpt lat="46.9126692" lon="7.4940456"><ele>507.8</ele><time>2016-06-14T16:31:40Z</time></trkpt>
<trkpt lat="46.9125255" lon="7.4940453"><ele>507.6</ele><time>2016-06-14T16:31:42Z</time></trkpt>
<trkpt lat="46.9122338" lon="7.4942362"><ele>507.1</ele><time>2016-06-14T16:31:47Z</time></trkpt>
<trkpt lat="46.9118594" lon="7.4943183"><ele>506.6</ele><time>2016-06-14T16:31:53Z</time></trkpt>
<trkpt lat="46.9116690" lon="7.4944797"><ele>506.3</ele><time>2016-06-14T16:31:56Z</time></trkpt>
<trkpt lat="46.9115959" lon="7.4944942"><ele>506.2</ele><time>2016-06-14T16:31:57Z</time></trkpt>
<trkpt lat="46.9115702" lon="7.4946049"><ele>506.1</ele><time>2016-06-14T16:31:58Z</time></trkpt>
<trkpt lat="46.9114792" lon="7.4946133"><ele>506.0</ele><time>2016-06-14T16:31:59Z</time></trkpt>
<trkpt lat="46.9113624" lon="7.4946806"><ele>505.8</ele><time>2016-06-14T16:32:01Z</time></trkpt>
<trkpt lat="46.9113485" lon="7.4947316"><ele>506.0</ele><time>2016-06-14T16:32:02Z</time></trkpt>
<trkpt lat="46.9112971" lon="7.4947317"><ele>506.3</ele><time>2016-06-14T16:32:03Z</time></trkpt>
<trkpt lat="46.9112605" lon="7.4947844"><ele>506.5</ele><time>2016-06-14T16:32:04Z</time></trkpt>
<trkpt lat="46.9111916" lon="7.4947903"><ele>506.7</ele><time>2016-06-14T16:32:05Z</time></trkpt>
<trkpt lat="46.9111541" lon="7.4948745"><ele>506.9</ele><time>2016-06-14T16:32:06Z</time></trkpt>
<trkpt lat="46.9106936" lon="7.4951415"><ele>507.4</ele><time>2016-06-14T16:32:14Z</time></trkpt>
<trkpt lat="46.9106482" lon="7.4951790"><ele>507.4</ele><time>2016-06-14T16:32:15Z</time></trkpt>
<trkpt lat="46.9105457" lon="7.4951876"><ele>507.4</ele><time>2016-06-14T16:32:16Z</time></trkpt>
<trkpt lat="46.9104033" lon="7.4953007"><ele>507.6</ele><time>2016-06-14T16:32:19Z</time></trkpt>
<trkpt lat="46.9101594" lon="7.4953401"><ele>507.7</ele><time>2016-06-14T16:32:23Z</time></trkpt>
<trkpt lat="46.9099297" lon="7.4954227"><ele>507.8</ele><time>2016-06-14T16:32:27Z</time></trkpt>
<trkpt lat="46.9096992" lon="7.4955493"><ele>508.0</ele><time>2016-06-14T16:32:31Z</time></trkpt>
<trkpt lat="46.9096621" lon="7.4956001"><ele>508.0</ele><time>2016-06-14T16:32:32Z</time></trkpt>
<trkpt lat="46.9094268" lon="7.4956890"><ele>508.2</ele><time>2016-06-14T16:32:36Z</time></trkpt>
<trkpt lat="46.9093644" lon="7.4956711"><ele>508.2</ele><time>2016-06-14T16:32:37Z</time></trkpt>
<trkpt lat="46.9093043" lon="7.4958036"><ele>508.3</ele><time>2016-06-14T16:32:39Z</time></trkpt>
<trkpt lat="46.9088464" lon="7.4960733"><ele>508.6</ele><time>2016-06-14T16:32:48Z</time></trkpt>
<trkpt lat="46.9085018" lon="7.4961782"><ele>508.8</ele><time>2016-06-14T16:32:54Z</time></trkpt>
<trkpt lat="46.9083863" lon="7.4961585"><ele>508.8</ele><time>2016-06-14T16:32:55Z</time></trkpt>
<trkpt lat="46.9081119" lon="7.4963456"><ele>508.4</ele><time>2016-06-14T16:33:01Z</time></trkpt>
<trkpt lat="46.9080351" lon="7.4963605"><ele>508.3</ele><time>2016-06-14T16:33:02Z</time></trkpt>
<trkpt lat="46.9079916" lon="7.4964121"><ele>508.1</ele><time>2016-06-14T16:33:03Z</time></trkpt>
<trkpt lat="46.9078387" lon="7.4964598"><ele>507.7</ele><time>2016-06-14T16:33:06Z</time></trkpt>
<trkpt lat="46.9074014" lon="7.4967625"><ele>507.8</ele><time>2016-06-14T16:33:14Z</time></trkpt>
<trkpt lat="46.9069535" lon="7.4969429"><ele>508.6</ele><time>2016-06-14T16:33:21Z</time></trkpt>
<trkpt lat="46.9067263" lon="7.4970224"><ele>508.7</ele><time>2016-06-14T16:33:25Z</time></trkpt>
<trkpt lat="46.9066197" lon="7.4971701"><ele>508.8</ele><time>2016-06-14T16:33:26Z</time></trkpt>
<trkpt lat="46.9065852" lon="7.4971488"><ele>508.9</ele><time>2016-06-14T16:33:29Z</time></trkpt>
<trkpt lat="46.9061111" lon="7.4973803"><ele>509.2</ele><time>2016-06-14T16:33:35Z</time></trkpt>
<trkpt lat="46.9056349" lon="7.4976236"><ele>509.5</ele><time>2016-06-14T16:33:44Z</time></trkpt>
<trkpt lat="46.9051730" lon="7.4978616"><ele>509.9</ele><time>2016-06-14T16:33:53Z</time></trkpt>
<trkpt lat="46.9047373" lon="7.4981002"><ele>510.1</ele><time>2016-06-14T16:34:01Z</time></trkpt>
<trkpt lat="46.9042573" lon="7.4983673"><ele>510.4</ele><time>2016-06-14T16:34:09Z</time></trkpt>
<trkpt lat="46.9038023" lon="7.4985890"><ele>510.8</ele><time>2016-06-14T16:34:22Z</time></trkpt>
<trkpt lat="46.9033694" lon="7.4988018"><ele>511.1</ele><time>2016-06-14T16:34:31Z</time></trkpt>
<trkpt lat="46.9029220" lon="7.4990226"><ele>511.3</ele><time>2016-06-14T16:34:38Z</time></trkpt>
<trkpt lat="46.9024537" lon="7.4992610"><ele>511.6</ele><time>2016-06-14T16:34:47Z</time></trkpt>
<trkpt lat="46.9019889" lon="7.4995015"><ele>511.4</ele><time>2016-06-14T16:34:56Z</time></trkpt>
<trkpt lat="46.9015347" lon="7.4997348"><ele>511.2</ele><time>2016-06-14T16:35:05Z</time></trkpt>
<trkpt lat="46.9010902" lon="7.4999602"><ele>510.9</ele><time>2016-06-14T16:35:16Z</time></trkpt>
<trkpt lat="46.9006267" lon="7.5001876"><ele>510.7</ele><time>2016-06-14T16:35:25Z</time></trkpt>
<trkpt lat="46.9001853" lon="7.5004056"><ele>511.5</ele><time>2016-06-14T16:35:35Z</time></trkpt>
<trkpt lat="46.8997488" lon="7.5006286"><ele>511.8</ele><time>2016-06-14T16:35:46Z</time></trkpt>
<trkpt lat="46.8992833" lon="7.5008094"><ele>509.0</ele><time>2016-06-14T16:35:56Z</time></trkpt>
<trkpt lat="46.8989933" lon="7.5007696"><ele>504.7</ele><time>2016-06-14T16:36:08Z</time></trkpt>
<trkpt lat="46.8985050" lon="7.5009888"><ele>504.3</ele><time>2016-06-14T16:36:09Z</time></trkpt>
<trkpt lat="46.8982547" lon="7.5010112"><ele>504.6</ele><time>2016-06-14T16:36:14Z</time></trkpt>
<trkpt lat="46.8981876" lon="7.5010727"><ele>504.4</ele><time>2016-06-14T16:36:16Z</time></trkpt>
<trkpt lat="46.8981533" lon="7.5010168"><ele>504.1</ele><time>2016-06-14T16:36:17Z</time></trkpt>
<trkpt lat="46.8979909" lon="7.5009762"><ele>502.8</ele><time>2016-06-14T16:36:21Z</time></trkpt>
<trkpt lat="46.8978926" lon="7.5009160"><ele>501.9</ele><time>2016-06-14T16:36:23Z</time></trkpt>
<trkpt lat="46.8977174" lon="7.5008588"><ele>500.5</ele><time>2016-06-14T16:36:26Z</time></trkpt>
<trkpt lat="46.8977090" lon="7.5009321"><ele>500.6</ele><time>2016-06-14T16:36:27Z</time></trkpt>
<trkpt lat="46.8976112" lon="7.5009725"><ele>501.0</ele><time>2016-06-14T16:36:29Z</time></trkpt>
<trkpt lat="46.8973901" lon="7.5009178"><ele>501.9</ele><time>2016-06-14T16:36:34Z</time></trkpt>
<trkpt lat="46.8971144" lon="7.5008443"><ele>502.9</ele><time>2016-06-14T16:36:38Z</time></trkpt>
<trkpt lat="46.8968579" lon="7.5008062"><ele>504.6</ele><time>2016-06-14T16:36:43Z</time></trkpt>
<trkpt lat="46.8966504" lon="7.5007098"><ele>506.0</ele><time>2016-06-14T16:36:47Z</time></trkpt>
<trkpt lat="46.8965910" lon="7.5006203"><ele>506.7</ele><time>2016-06-14T16:36:49Z</time></trkpt>
<trkpt lat="46.8963736" lon="7.5005912"><ele>507.1</ele><time>2016-06-14T16:36:53Z</time></trkpt>
<trkpt lat="46.8963224" lon="7.5005347"><ele>507.2</ele><time>2016-06-14T16:36:54Z</time></trkpt>
<trkpt lat="46.8962600" lon="7.5005145"><ele>507.3</ele><time>2016-06-14T16:36:55Z</time></trkpt>
<trkpt lat="46.8962325" lon="7.5004364"><ele>507.4</ele><time>2016-06-14T16:36:56Z</time></trkpt>
<trkpt lat="46.8959349" lon="7.5002229"><ele>507.4</ele><time>2016-06-14T16:37:01Z</time></trkpt>
<trkpt lat="46.8957196" lon="7.4999902"><ele>506.2</ele><time>2016-06-14T16:37:05Z</time></trkpt>
<trkpt lat="46.8956433" lon="7.4999544"><ele>505.9</ele><time>2016-06-14T16:37:07Z</time></trkpt>
<trkpt lat="46.8955559" lon="7.4998431"><ele>505.5</ele><time>2016-06-14T16:37:09Z</time></trkpt>
<trkpt lat="46.8954562" lon="7.4997691"><ele>505.3</ele><time>2016-06-14T16:37:10Z</time></trkpt>
<trkpt lat="46.8954213" lon="7.4997033"><ele>505.1</ele><time>2016-06-14T16:37:11Z</time></trkpt>
<trkpt lat="46.8950340" lon="7.4993584"><ele>506.5</ele><time>2016-06-14T16:37:22Z</time></trkpt>
<trkpt lat="46.8949035" lon="7.4992234"><ele>506.2</ele><time>2016-06-14T16:37:26Z</time></trkpt>
<trkpt lat="46.8941352" lon="7.4991288"><ele>504.6</ele><time>2016-06-14T16:37:40Z</time></trkpt>
</trkseg>
<trkseg>
<trkpt lat="46.8941352" lon="7.4991288"><ele>504.6</ele><time>2016-06-14T16:38:03Z</time></trkpt>
<trkpt lat="46.8938625" lon="7.4991604"><ele>504.5</ele><time>2016-06-14T16:38:04Z</time></trkpt>
<trkpt lat="46.8937902" lon="7.4992802"><ele>502.4</ele><time>2016-06-14T16:38:07Z</time></trkpt>
<trkpt lat="46.8937906" lon="7.4994033"><ele>501.7</ele><time>2016-06-14T16:38:08Z</time></trkpt>
<trkpt lat="46.8935119" lon="7.4999562"><ele>501.6</ele><time>2016-06-14T16:38:17Z</time></trkpt>
<trkpt lat="46.8933387" lon="7.5002769"><ele>504.2</ele><time>2016-06-14T16:38:24Z</time></trkpt>
<trkpt lat="46.8932743" lon="7.5002876"><ele>504.7</ele><time>2016-06-14T16:38:25Z</time></trkpt>
<trkpt lat="46.8930451" lon="7.5007427"><ele>508.9</ele><time>2016-06-14T16:38:32Z</time></trkpt>
<trkpt lat="46.8929957" lon="7.5009743"><ele>509.7</ele><time>2016-06-14T16:38:35Z</time></trkpt>
<trkpt lat="46.8930102" lon="7.5009898"><ele>509.9</ele><time>2016-06-14T16:38:36Z</time></trkpt>
<trkpt lat="46.8928132" lon="7.5015751"><ele>511.5</ele><time>2016-06-14T16:38:42Z</time></trkpt>
<trkpt lat="46.8924880" lon="7.5020825"><ele>514.0</ele><time>2016-06-14T16:38:50Z</time></trkpt>
<trkpt lat="46.8921886" lon="7.5026307"><ele>516.6</ele><time>2016-06-14T16:38:58Z</time></trkpt>
<trkpt lat="46.8921074" lon="7.5028827"><ele>517.5</ele><time>2016-06-14T16:39:01Z</time></trkpt>
<trkpt lat="46.8920483" lon="7.5028933"><ele>517.8</ele><time>2016-06-14T16:39:02Z</time></trkpt>
<trkpt lat="46.8920773" lon="7.5029371"><ele>518.9</ele><time>2016-06-14T16:39:06Z</time></trkpt>
<trkpt lat="46.8920542" lon="7.5029163"><ele>519.1</ele><time>2016-06-14T16:39:07Z</time></trkpt>
<trkpt lat="46.8918729" lon="7.5030945"><ele>519.6</ele><time>2016-06-14T16:39:09Z</time></trkpt>
<trkpt lat="46.8919144" lon="7.5029541"><ele>519.9</ele><time>2016-06-14T16:39:10Z</time></trkpt>
<trkpt lat="46.8917628" lon="7.5028270"><ele>520.4</ele><time>2016-06-14T16:39:12Z</time></trkpt>
<trkpt lat="46.8915554" lon="7.5025738"><ele>520.6</ele><time>2016-06-14T16:39:13Z</time></trkpt>
<trkpt lat="46.8913229" lon="7.5023702"><ele>521.7</ele><time>2016-06-14T16:39:20Z</time></trkpt>
<trkpt lat="46.8910042" lon="7.5020014"><ele>521.7</ele><time>2016-06-14T16:39:25Z</time></trkpt>
<trkpt lat="46.8909782" lon="7.5018944"><ele>521.7</ele><time>2016-06-14T16:39:27Z</time></trkpt>
<trkpt lat="46.8910034" lon="7.5018683"><ele>521.7</ele><time>2016-06-14T16:39:29Z</time></trkpt>
<trkpt lat="46.8908678" lon="7.5016736"><ele>521.6</ele><time>2016-06-14T16:39:30Z</time></trkpt>
<trkpt lat="46.8906149" lon="7.5014474"><ele>521.3</ele><time>2016-06-14T16:39:36Z</time></trkpt>
<trkpt lat="46.8904544" lon="7.5014380"><ele>521.1</ele><time>2016-06-14T16:39:39Z</time></trkpt>
<trkpt lat="46.8904298" lon="7.5013854"><ele>521.0</ele><time>2016-06-14T16:39:40Z</time></trkpt>
<trkpt lat="46.8902252" lon="7.5013001"><ele>520.8</ele><time>2016-06-14T16:39:43Z</time></trkpt>
<trkpt lat="46.8899890" lon="7.5012258"><ele>519.4</ele><time>2016-06-14T16:39:48Z</time></trkpt>
<trkpt lat="46.8899222" lon="7.5012565"><ele>519.1</ele><time>2016-06-14T16:39:49Z</time></trkpt>
<trkpt lat="46.8896872" lon="7.5012662"><ele>517.8</ele><time>2016-06-14T16:39:53Z</time></trkpt>
<trkpt lat="46.8895657" lon="7.5013580"><ele>517.2</ele><time>2016-06-14T16:39:55Z</time></trkpt>
<trkpt lat="46.8895102" lon="7.5014416"><ele>516.8</ele><time>2016-06-14T16:39:56Z</time></trkpt>
<trkpt lat="46.8895069" lon="7.5015572"><ele>516.5</ele><time>2016-06-14T16:39:57Z</time></trkpt>
<trkpt lat="46.8894171" lon="7.5016983"><ele>515.9</ele><time>2016-06-14T16:39:59Z</time></trkpt>
<trkpt lat="46.8893407" lon="7.5017168"><ele>515.5</ele><time>2016-06-14T16:40:00Z</time></trkpt>
<trkpt lat="46.8892940" lon="7.5018190"><ele>514.4</ele><time>2016-06-14T16:40:01Z</time></trkpt>
<trkpt lat="46.8891125" lon="7.5015858"><ele>513.3</ele><time>2016-06-14T16:40:02Z</time></trkpt>
<trkpt lat="46.8890676" lon="7.5016473"><ele>512.2</ele><time>2016-06-14T16:40:03Z</time></trkpt>
<trkpt lat="46.8889843" lon="7.5018494"><ele>510.0</ele><time>2016-06-14T16:40:05Z</time></trkpt>
<trkpt lat="46.8889701" lon="7.5019566"><ele>511.0</ele><time>2016-06-14T16:40:06Z</time></trkpt>
<trkpt lat="46.8889975" lon="7.5021915"><ele>512.0</ele><time>2016-06-14T16:40:07Z</time></trkpt>
<trkpt lat="46.8889269" lon="7.5022413"><ele>513.0</ele><time>2016-06-14T16:40:08Z</time></trkpt>
<trkpt lat="46.8888540" lon="7.5023972"><ele>515.0</ele><time>2016-06-14T16:40:10Z</time></trkpt>
<trkpt lat="46.8887468" lon="7.5024578"><ele>516.9</ele><time>2016-06-14T16:40:12Z</time></trkpt>
<trkpt lat="46.8886491" lon="7.5024607"><ele>517.9</ele><time>2016-06-14T16:40:13Z</time></trkpt>
<trkpt lat="46.8885215" lon="7.5026774"><ele>518.9</ele><time>2016-06-14T16:40:14Z</time></trkpt>
<trkpt lat="46.8884295" lon="7.5027877"><ele>521.2</ele><time>2016-06-14T16:40:18Z</time></trkpt>
<trkpt lat="46.8879271" lon="7.5029423"><ele>521.7</ele><time>2016-06-14T16:40:25Z</time></trkpt>
<trkpt lat="46.8879141" lon="7.5030225"><ele>521.7</ele><time>2016-06-14T16:40:26Z</time></trkpt>
<trkpt lat="46.8879298" lon="7.5031941"><ele>521.7</ele><time>2016-06-14T16:40:27Z</time></trkpt>
<trkpt lat="46.8875176" lon="7.5033185"><ele>521.7</ele><time>2016-06-14T16:40:33Z</time></trkpt>
<trkpt lat="46.8873764" lon="7.5033289"><ele>521.6</ele><time>2016-06-14T16:40:35Z</time></trkpt>
<trkpt lat="46.8873197" lon="7.5033718"><ele>521.6</ele><time>2016-06-14T16:40:36Z</time></trkpt>
<trkpt lat="46.8870145" lon="7.5034457"><ele>521.6</ele><time>2016-06-14T16:40:41Z</time></trkpt>
<trkpt lat="46.8866416" lon="7.5035967"><ele>521.6</ele><time>2016-06-14T16:40:48Z</time></trkpt>
<trkpt lat="46.8865872" lon="7.5035869"><ele>521.6</ele><time>2016-06-14T16:40:49Z</time></trkpt>
<trkpt lat="46.8863030" lon="7.5037042"><ele>521.6</ele><time>2016-06-14T16:40:55Z</time></trkpt>
<trkpt lat="46.8861659" lon="7.5036016"><ele>521.6</ele><time>2016-06-14T16:40:59Z</time></trkpt>
<trkpt lat="46.8860833" lon="7.5034542"><ele>521.6</ele><time>2016-06-14T16:41:01Z</time></trkpt>
<trkpt lat="46.8859741" lon="7.5032630"><ele>521.6</ele><time>2016-06-14T16:41:02Z</time></trkpt>
<trkpt lat="46.8859039" lon="7.5031418"><ele>521.6</ele><time>2016-06-14T16:41:06Z</time></trkpt>
<trkpt lat="46.8858365" lon="7.5030796"><ele>521.6</ele><time>2016-06-14T16:41:07Z</time></trkpt>
<trkpt lat="46.8857475" lon="7.5029160"><ele>521.6</ele><time>2016-06-14T16:41:09Z</time></trkpt>
<trkpt lat="46.8855882" lon="7.5024953"><ele>521.6</ele><time>2016-06-14T16:41:14Z</time></trkpt>
<trkpt lat="46.8855952" lon="7.5024517"><ele>521.6</ele><time>2016-06-14T16:41:15Z</time></trkpt>
<trkpt lat="46.8855009" lon="7.5023727"><ele>521.6</ele><time>2016-06-14T16:41:17Z</time></trkpt>
<trkpt lat="46.8854693" lon="7.5022997"><ele>521.6</ele><time>2016-06-14T16:41:18Z</time></trkpt>
<trkpt lat="46.8850794" lon="7.5019462"><ele>521.6</ele><time>2016-06-14T16:41:28Z</time></trkpt>
<trkpt lat="46.8845303" lon="7.5017036"><ele>521.5</ele><time>2016-06-14T16:41:38Z</time></trkpt>
<trkpt lat="46.8843225" lon="7.5015488"><ele>521.5</ele><time>2016-06-14T16:41:41Z</time></trkpt>
<trkpt lat="46.8841929" lon="7.5014775"><ele>521.5</ele><time>2016-06-14T16:41:44Z</time></trkpt>
<trkpt lat="46.8841730" lon="7.5015043"><ele>521.5</ele><time>2016-06-14T16:41:45Z</time></trkpt>
<trkpt lat="46.8839619" lon="7.5015107"><ele>521.5</ele><time>2016-06-14T16:41:50Z</time></trkpt>
<trkpt lat="46.8839271" lon="7.5015349"><ele>521.5</ele><time>2016-06-14T16:41:51Z</time></trkpt>
<trkpt lat="46.8837016" lon="7.5014371"><ele>521.5</ele><time>2016-06-14T16:41:55Z</time></trkpt>
<trkpt lat="46.8835946" lon="7.5013392"><ele>521.5</ele><time>2016-06-14T16:41:57Z</time></trkpt>
<trkpt lat="46.8832371" lon="7.5012337"><ele>521.5</ele><time>2016-06-14T16:42:05Z</time></trkpt>
<trkpt lat="46.8831980" lon="7.5012734"><ele>521.5</ele><time>2016-06-14T16:42:06Z</time></trkpt>
<trkpt lat="46.8830892" lon="7.5012387"><ele>521.5</ele><time>2016-06-14T16:42:09Z</time></trkpt>
<trkpt lat="46.8829064" lon="7.5011489"><ele>521.5</ele><time>2016-06-14T16:42:13Z</time></trkpt>
<trkpt lat="46.8827891" lon="7.5011968"><ele>521.5</ele><time>2016-06-14T16:42:16Z</time></trkpt>
<trkpt lat="46.8827302" lon="7.5011288"><ele>521.5</ele><time>2016-06-14T16:42:17Z</time></trkpt>
<trkpt lat="46.8825717" lon="7.5011159"><ele>521.5</ele><time>2016-06-14T16:42:20Z</time></trkpt>
<trkpt lat="46.8824854" lon="7.5010315"><ele>521.5</ele><time>2016-06-14T16:42:21Z</time></trkpt>
<trkpt lat="46.8823607" lon="7.5009547"><ele>521.5</ele><time>2016-06-14T16:42:23Z</time></trkpt>
<trkpt lat="46.8823699" lon="7.5011421"><ele>521.5</ele><time>2016-06-14T16:42:24Z</time></trkpt>
<trkpt lat="46.8821547" lon="7.5010205"><ele>521.5</ele><time>2016-06-14T16:42:27Z</time></trkpt>
<trkpt lat="46.8820552" lon="7.5009452"><ele>521.5</ele><time>2016-06-14T16:42:29Z</time></trkpt>
<trkpt lat="46.8820213" lon="7.5009832"><ele>521.4</ele><time>2016-06-14T16:42:30Z</time></trkpt>
<trkpt lat="46.8819430" lon="7.5009070"><ele>521.4</ele><time>2016-06-14T16:42:31Z</time></trkpt>
<trkpt lat="46.8817016" lon="7.5008225"><ele>521.4</ele><time>2016-06-14T16:42:35Z</time></trkpt>
<trkpt lat="46.8814311" lon="7.5008064"><ele>521.4</ele><time>2016-06-14T16:42:40Z</time></trkpt>
<trkpt lat="46.8812146" lon="7.5007135"><ele>521.4</ele><time>2016-06-14T16:42:43Z</time></trkpt>
<trkpt lat="46.8811458" lon="7.5007304"><ele>521.4</ele><time>2016-06-14T16:42:45Z</time></trkpt>
<trkpt lat="46.8809722" lon="7.5006093"><ele>521.4</ele><time>2016-06-14T16:42:48Z</time></trkpt>
<trkpt lat="46.8809516" lon="7.5006829"><ele>521.4</ele><time>2016-06-14T16:42:49Z</time></trkpt>
<trkpt lat="46.8807236" lon="7.5006578"><ele>521.4</ele><time>2016-06-14T16:42:54Z</time></trkpt>
<trkpt lat="46.8804369" lon="7.5005383"><ele>521.4</ele><time>2016-06-14T16:42:59Z</time></trkpt>
<trkpt lat="46.8803611" lon="7.5004604"><ele>521.4</ele><time>2016-06-14T16:43:00Z</time></trkpt>
<trkpt lat="46.8801956" lon="7.5004347"><ele>521.4</ele><time>2016-06-14T16:43:04Z</time></trkpt>
<trkpt lat="46.8798170" lon="7.5002498"><ele>521.4</ele><time>2016-06-14T16:43:11Z</time></trkpt>
<trkpt lat="46.8798035" lon="7.5002189"><ele>521.4</ele><time>2016-06-14T16:43:12Z</time></trkpt>
<trkpt lat="46.8797139" lon="7.5002311"><ele>521.4</ele><time>2016-06-14T16:43:14Z</time></trkpt>
<trkpt lat="46.8796699" lon="7.5002807"><ele>521.4</ele><time>2016-06-14T16:43:15Z</time></trkpt>
<trkpt lat="46.8796246" lon="7.5002791"><ele>521.4</ele><time>2016-06-14T16:43:16Z</time></trkpt>
<trkpt lat="46.8793066" lon="7.5000618"><ele>521.4</ele><time>2016-06-14T16:43:22Z</time></trkpt>
<trkpt lat="46.8791512" lon="7.5000688"><ele>521.4</ele><time>2016-06-14T16:43:25Z</time></trkpt>
<trkpt lat="46.8790369" lon="7.4999511"><ele>521.4</ele><time>2016-06-14T16:43:27Z</time></trkpt>
<trkpt lat="46.8787140" lon="7.4999366"><ele>521.3</ele><time>2016-06-14T16:43:35Z</time></trkpt>
<trkpt lat="46.8785981" lon="7.4998450"><ele>521.3</ele><time>2016-06-14T16:43:37Z</time></trkpt>
<trkpt lat="46.8783222" lon="7.4999143"><ele>521.3</ele><time>2016-06-14T16:43:43Z</time></trkpt>
<trkpt lat="46.8781496" lon="7.4998819"><ele>521.3</ele><time>2016-06-14T16:43:46Z</time></trkpt>
<trkpt lat="46.8781569" lon="7.4999837"><ele>521.3</ele><time>2016-06-14T16:43:47Z</time></trkpt>
<trkpt lat="46.8780994" lon="7.4999747"><ele>521.3</ele><time>2016-06-14T16:43:48Z</time></trkpt>
<trkpt lat="46.8778297" lon="7.4997955"><ele>521.4</ele><time>2016-06-14T16:43:54Z</time></trkpt>
<trkpt lat="46.8777646" lon="7.4998101"><ele>521.3</ele><time>2016-06-14T16:43:56Z</time></trkpt>
<trkpt lat="46.8776062" lon="7.4996973"><ele>521.3</ele><time>2016-06-14T16:43:59Z</time></trkpt>
<trkpt lat="46.8775552" lon="7.4997065"><ele>521.3</ele><time>2016-06-14T16:44:00Z</time></trkpt>
<trkpt lat="46.8775176" lon="7.4998079"><ele>521.3</ele><time>2016-06-14T16:44:01Z</time></trkpt>
<trkpt lat="46.8774285" lon="7.4998079"><ele>521.2</ele><time>2016-06-14T16:44:03Z</time></trkpt>
<trkpt lat="46.8773940" lon="7.4998671"><ele>521.2</ele><time>2016-06-14T16:44:04Z</time></trkpt>
<trkpt lat="46.8769064" lon="7.4997257"><ele>521.1</ele><time>2016-06-14T16:44:13Z</time></trkpt>
<trkpt lat="46.8768685" lon="7.4997015"><ele>521.1</ele><time>2016-06-14T16:44:14Z</time></trkpt>
<trkpt lat="46.8768426" lon="7.4998053"><ele>521.1</ele><time>2016-06-14T16:44:15Z</time></trkpt>
<trkpt lat="46.8765744" lon="7.4996862"><ele>521.0</ele><time>2016-06-14T16:44:21Z</time></trkpt>
<trkpt lat="46.8763996" lon="7.4996863"><ele>521.0</ele><time>2016-06-14T16:44:25Z</time></trkpt>
<trkpt lat="46.8763438" lon="7.4996333"><ele>520.9</ele><time>2016-06-14T16:44:26Z</time></trkpt>
<trkpt lat="46.8762586" lon="7.4996740"><ele>520.9</ele><time>2016-06-14T16:44:28Z</time></trkpt>
<trkpt lat="46.8759510" lon="7.4995385"><ele>518.5</ele><time>2016-06-14T16:44:33Z</time></trkpt>
<trkpt lat="46.8759246" lon="7.4994915"><ele>518.0</ele><time>2016-06-14T16:44:34Z</time></trkpt>
<trkpt lat="46.8757162" lon="7.4994592"><ele>518.5</ele><time>2016-06-14T16:44:38Z</time></trkpt>
<trkpt lat="46.8756063" lon="7.4994208"><ele>518.8</ele><time>2016-06-14T16:44:40Z</time></trkpt>
<trkpt lat="46.8755555" lon="7.4994515"><ele>518.6</ele><time>2016-06-14T16:44:41Z</time></trkpt>
<trkpt lat="46.8754754" lon="7.4994240"><ele>518.4</ele><time>2016-06-14T16:44:42Z</time></trkpt>
<trkpt lat="46.8752544" lon="7.4994515"><ele>518.3</ele><time>2016-06-14T16:44:47Z</time></trkpt>
<trkpt lat="46.8751358" lon="7.4994044"><ele>518.8</ele><time>2016-06-14T16:44:50Z</time></trkpt>
<trkpt lat="46.8748880" lon="7.4992940"><ele>519.6</ele><time>2016-06-14T16:44:55Z</time></trkpt>
<trkpt lat="46.8748605" lon="7.4993176"><ele>519.8</ele><time>2016-06-14T16:44:56Z</time></trkpt>
<trkpt lat="46.8748492" lon="7.4992908"><ele>519.9</ele><time>2016-06-14T16:44:57Z</time></trkpt>
<trkpt lat="46.8746121" lon="7.4992601"><ele>520.3</ele><time>2016-06-14T16:45:02Z</time></trkpt>
<trkpt lat="46.8741526" lon="7.4990244"><ele>522.1</ele><time>2016-06-14T16:45:11Z</time></trkpt>
<trkpt lat="46.8737237" lon="7.4988236"><ele>523.5</ele><time>2016-06-14T16:45:18Z</time></trkpt>
<trkpt lat="46.8736124" lon="7.4987929"><ele>523.5</ele><time>2016-06-14T16:45:20Z</time></trkpt>
<trkpt lat="46.8735769" lon="7.4988273"><ele>523.5</ele><time>2016-06-14T16:45:21Z</time></trkpt>
<trkpt lat="46.8735209" lon="7.4987744"><ele>523.4</ele><time>2016-06-14T16:45:22Z</time></trkpt>
<trkpt lat="46.8731270" lon="7.4987644"><ele>520.7</ele><time>2016-06-14T16:45:29Z</time></trkpt>
<trkpt lat="46.8730059" lon="7.4985864"><ele>520.6</ele><time>2016-06-14T16:45:31Z</time></trkpt>
<trkpt lat="46.8728536" lon="7.4985287"><ele>520.4</ele><time>2016-06-14T16:45:34Z</time></trkpt>
<trkpt lat="46.8727452" lon="7.4985260"><ele>520.2</ele><time>2016-06-14T16:45:36Z</time></trkpt>
<trkpt lat="46.8724711" lon="7.4984175"><ele>519.7</ele><time>2016-06-14T16:45:42Z</time></trkpt>
<trkpt lat="46.8722834" lon="7.4983069"><ele>521.6</ele><time>2016-06-14T16:45:46Z</time></trkpt>
<trkpt lat="46.8722097" lon="7.4982323"><ele>522.1</ele><time>2016-06-14T16:45:47Z</time></trkpt>
<trkpt lat="46.8721231" lon="7.4982623"><ele>521.3</ele><time>2016-06-14T16:45:48Z</time></trkpt>
<trkpt lat="46.8718343" lon="7.4981042"><ele>518.5</ele><time>2016-06-14T16:45:53Z</time></trkpt>
<trkpt lat="46.8718171" lon="7.4981427"><ele>519.0</ele><time>2016-06-14T16:45:54Z</time></trkpt>
<trkpt lat="46.8716696" lon="7.4980909"><ele>520.4</ele><time>2016-06-14T16:45:57Z</time></trkpt>
<trkpt lat="46.8716123" lon="7.4981148"><ele>520.9</ele><time>2016-06-14T16:45:58Z</time></trkpt>
<trkpt lat="46.8711176" lon="7.4980482"><ele>518.7</ele><time>2016-06-14T16:46:08Z</time></trkpt>
<trkpt lat="46.8706329" lon="7.4979124"><ele>519.9</ele><time>2016-06-14T16:46:18Z</time></trkpt>
<trkpt lat="46.8705414" lon="7.4979212"><ele>519.3</ele><time>2016-06-14T16:46:20Z</time></trkpt>
<trkpt lat="46.8705243" lon="7.4979617"><ele>519.0</ele><time>2016-06-14T16:46:21Z</time></trkpt>
<trkpt lat="46.8704644" lon="7.4979480"><ele>518.8</ele><time>2016-06-14T16:46:22Z</time></trkpt>
<trkpt lat="46.8704669" lon="7.4979984"><ele>518.5</ele><time>2016-06-14T16:46:23Z</time></trkpt>
<trkpt lat="46.8703748" lon="7.4978808"><ele>518.2</ele><time>2016-06-14T16:46:24Z</time></trkpt>
<trkpt lat="46.8703300" lon="7.4978724"><ele>517.9</ele><time>2016-06-14T16:46:25Z</time></trkpt>
<trkpt lat="46.8701720" lon="7.4977328"><ele>517.3</ele><time>2016-06-14T16:46:27Z</time></trkpt>
<trkpt lat="46.8699791" lon="7.4976878"><ele>516.2</ele><time>2016-06-14T16:46:31Z</time></trkpt>
<trkpt lat="46.8699431" lon="7.4977276"><ele>515.9</ele><time>2016-06-14T16:46:32Z</time></trkpt>
<trkpt lat="46.8697568" lon="7.4975732"><ele>515.3</ele><time>2016-06-14T16:46:34Z</time></trkpt>
<trkpt lat="46.8697149" lon="7.4974971"><ele>515.0</ele><time>2016-06-14T16:46:35Z</time></trkpt>
<trkpt lat="46.8696659" lon="7.4975198"><ele>514.7</ele><time>2016-06-14T16:46:36Z</time></trkpt>
<trkpt lat="46.8696011" lon="7.4974072"><ele>515.5</ele><time>2016-06-14T16:46:37Z</time></trkpt>
<trkpt lat="46.8694326" lon="7.4974530"><ele>518.0</ele><time>2016-06-14T16:46:40Z</time></trkpt>
<trkpt lat="46.8693225" lon="7.4972539"><ele>518.8</ele><time>2016-06-14T16:46:41Z</time></trkpt>
<trkpt lat="46.8691766" lon="7.4969027"><ele>519.7</ele><time>2016-06-14T16:46:42Z</time></trkpt>
<trkpt lat="46.8691389" lon="7.4969711"><ele>520.5</ele><time>2016-06-14T16:46:43Z</time></trkpt>
<trkpt lat="46.8690758" lon="7.4969500"><ele>521.3</ele><time>2016-06-14T16:46:44Z</time></trkpt>
<trkpt lat="46.8690516" lon="7.4970713"><ele>522.1</ele><time>2016-06-14T16:46:45Z</time></trkpt>
<trkpt lat="46.8689978" lon="7.4971108"><ele>523.0</ele><time>2016-06-14T16:46:46Z</time></trkpt>
<trkpt lat="46.8689329" lon="7.4970698"><ele>523.8</ele><time>2016-06-14T16:46:47Z</time></trkpt>
<trkpt lat="46.8687227" lon="7.4969215"><ele>524.6</ele><time>2016-06-14T16:46:49Z</time></trkpt>
<trkpt lat="46.8686586" lon="7.4968291"><ele>524.7</ele><time>2016-06-14T16:46:52Z</time></trkpt>
<trkpt lat="46.8686120" lon="7.4968245"><ele>524.7</ele><time>2016-06-14T16:46:53Z</time></trkpt>
<trkpt lat="46.8685801" lon="7.4970886"><ele>524.7</ele><time>2016-06-14T16:46:55Z</time></trkpt>
<trkpt lat="46.8684227" lon="7.4971786"><ele>524.7</ele><time>2016-06-14T16:46:56Z</time></trkpt>
<trkpt lat="46.8682468" lon="7.4969714"><ele>524.8</ele><time>2016-06-14T16:47:02Z</time></trkpt>
<trkpt lat="46.8680328" lon="7.4969715"><ele>524.8</ele><time>2016-06-14T16:47:06Z</time></trkpt>
<trkpt lat="46.8678296" lon="7.4969651"><ele>524.8</ele><time>2016-06-14T16:47:07Z</time></trkpt>
<trkpt lat="46.8676944" lon="7.4969789"><ele>524.8</ele><time>2016-06-14T16:47:11Z</time></trkpt>
<trkpt lat="46.8673995" lon="7.4969702"><ele>524.9</ele><time>2016-06-14T16:47:18Z</time></trkpt>
<trkpt lat="46.8671170" lon="7.4968712"><ele>524.9</ele><time>2016-06-14T16:47:21Z</time></trkpt>
<trkpt lat="46.8670850" lon="7.4969483"><ele>524.9</ele><time>2016-06-14T16:47:23Z</time></trkpt>
<trkpt lat="46.8669970" lon="7.4969659"><ele>524.9</ele><time>2016-06-14T16:47:25Z</time></trkpt>
<trkpt lat="46.8669761" lon="7.4968705"><ele>524.9</ele><time>2016-06-14T16:47:26Z</time></trkpt>
<trkpt lat="46.8669414" lon="7.4968785"><ele>525.0</ele><time>2016-06-14T16:47:27Z</time></trkpt>
<trkpt lat="46.8668360" lon="7.4970220"><ele>525.0</ele><time>2016-06-14T16:47:28Z</time></trkpt>
<trkpt lat="46.8667622" lon="7.4970036"><ele>525.0</ele><time>2016-06-14T16:47:31Z</time></trkpt>
<trkpt lat="46.8665687" lon="7.4968697"><ele>525.0</ele><time>2016-06-14T16:47:34Z</time></trkpt>
<trkpt lat="46.8665379" lon="7.4968076"><ele>525.0</ele><time>2016-06-14T16:47:35Z</time></trkpt>
<trkpt lat="46.8664470" lon="7.4967459"><ele>525.0</ele><time>2016-06-14T16:47:36Z</time></trkpt>
<trkpt lat="46.8663763" lon="7.4966460"><ele>525.0</ele><time>2016-06-14T16:47:37Z</time></trkpt>
<trkpt lat="46.8663216" lon="7.4966411"><ele>525.0</ele><time>2016-06-14T16:47:38Z</time></trkpt>
<trkpt lat="46.8661356" lon="7.4964919"><ele>525.0</ele><time>2016-06-14T16:47:41Z</time></trkpt>
<trkpt lat="46.8661476" lon="7.4967581"><ele>525.1</ele><time>2016-06-14T16:47:42Z</time></trkpt>
<trkpt lat="46.8658931" lon="7.4967449"><ele>525.1</ele><time>2016-06-14T16:47:45Z</time></trkpt>
<trkpt lat="46.8658426" lon="7.4967794"><ele>525.1</ele><time>2016-06-14T16:47:48Z</time></trkpt>
<trkpt lat="46.8655956" lon="7.4967129"><ele>525.1</ele><time>2016-06-14T16:47:53Z</time></trkpt>
<trkpt lat="46.8653400" lon="7.4965134"><ele>525.2</ele><time>2016-06-14T16:47:57Z</time></trkpt>
<trkpt lat="46.8650255" lon="7.4965097"><ele>525.2</ele><time>2016-06-14T16:48:02Z</time></trkpt>
<trkpt lat="46.8647900" lon="7.4964788"><ele>525.2</ele><time>2016-06-14T16:48:04Z</time></trkpt>
<trkpt lat="46.8646300" lon="7.4964164"><ele>525.2</ele><time>2016-06-14T16:48:09Z</time></trkpt>
<trkpt lat="46.8645109" lon="7.4963195"><ele>525.3</ele><time>2016-06-14T16:48:11Z</time></trkpt>
<trkpt lat="46.8644460" lon="7.4964331"><ele>525.3</ele><time>2016-06-14T16:48:13Z</time></trkpt>
<trkpt lat="46.8644109" lon="7.4964383"><ele>525.3</ele><time>2016-06-14T16:48:14Z</time></trkpt>
<trkpt lat="46.8642180" lon="7.4962875"><ele>525.3</ele><time>2016-06-14T16:48:17Z</time></trkpt>
<trkpt lat="46.8641472" lon="7.4962621"><ele>525.3</ele><time>2016-06-14T16:48:18Z</time></trkpt>
<trkpt lat="46.8640702" lon="7.4961461"><ele>525.3</ele><time>2016-06-14T16:48:19Z</time></trkpt>
<trkpt lat="46.8640411" lon="7.4961745"><ele>525.3</ele><time>2016-06-14T16:48:20Z</time></trkpt>
<trkpt lat="46.8637178" lon="7.4960642"><ele>525.3</ele><time>2016-06-14T16:48:25Z</time></trkpt>
<trkpt lat="46.8637020" lon="7.4960949"><ele>525.4</ele><time>2016-06-14T16:48:26Z</time></trkpt>
<trkpt lat="46.8635720" lon="7.4960595"><ele>525.4</ele><time>2016-06-14T16:48:28Z</time></trkpt>
<trkpt lat="46.8634487" lon="7.4960659"><ele>525.4</ele><time>2016-06-14T16:48:30Z</time></trkpt>
<trkpt lat="46.8632013" lon="7.4959036"><ele>525.4</ele><time>2016-06-14T16:48:34Z</time></trkpt>
<trkpt lat="46.8631515" lon="7.4959342"><ele>525.4</ele><time>2016-06-14T16:48:35Z</time></trkpt>
<trkpt lat="46.8631130" lon="7.4958761"><ele>525.4</ele><time>2016-06-14T16:48:36Z</time></trkpt>
<trkpt lat="46.8628494" lon="7.4959306"><ele>525.5</ele><time>2016-06-14T16:48:41Z</time></trkpt>
<trkpt lat="46.8627999" lon="7.4959227"><ele>525.5</ele><time>2016-06-14T16:48:44Z</time></trkpt>
<trkpt lat="46.8627523" lon="7.4959961"><ele>525.5</ele><time>2016-06-14T16:48:45Z</time></trkpt>
<trkpt lat="46.8625689" lon="7.4959813"><ele>525.3</ele><time>2016-06-14T16:48:48Z</time></trkpt>
<trkpt lat="46.8625265" lon="7.4960278"><ele>525.2</ele><time>2016-06-14T16:48:49Z</time></trkpt>
<trkpt lat="46.8622457" lon="7.4959065"><ele>524.7</ele><time>2016-06-14T16:48:54Z</time></trkpt>
<trkpt lat="46.8620198" lon="7.4959458"><ele>524.3</ele><time>2016-06-14T16:48:58Z</time></trkpt>
<trkpt lat="46.8619325" lon="7.4959550"><ele>524.2</ele><time>2016-06-14T16:48:59Z</time></trkpt>
<trkpt lat="46.8619022" lon="7.4960152"><ele>524.0</ele><time>2016-06-14T16:49:02Z</time></trkpt>
<trkpt lat="46.8614108" lon="7.4959700"><ele>523.1</ele><time>2016-06-14T16:49:11Z</time></trkpt>
<trkpt lat="46.8611322" lon="7.4960135"><ele>523.1</ele><time>2016-06-14T16:49:16Z</time></trkpt>
<trkpt lat="46.8610570" lon="7.4959172"><ele>523.2</ele><time>2016-06-14T16:49:17Z</time></trkpt>
<trkpt lat="46.8607544" lon="7.4958372"><ele>522.6</ele><time>2016-06-14T16:49:24Z</time></trkpt>
<trkpt lat="46.8607856" lon="7.4961576"><ele>522.4</ele><time>2016-06-14T16:49:25Z</time></trkpt>
<trkpt lat="46.8606046" lon="7.4961981"><ele>521.8</ele><time>2016-06-14T16:49:29Z</time></trkpt>
<trkpt lat="46.8605738" lon="7.4962378"><ele>521.6</ele><time>2016-06-14T16:49:30Z</time></trkpt>
<trkpt lat="46.8605203" lon="7.4962414"><ele>521.4</ele><time>2016-06-14T16:49:31Z</time></trkpt>
<trkpt lat="46.8602820" lon="7.4961187"><ele>521.1</ele><time>2016-06-14T16:49:33Z</time></trkpt>
<trkpt lat="46.8601757" lon="7.4961386"><ele>520.7</ele><time>2016-06-14T16:49:35Z</time></trkpt>
<trkpt lat="46.8601389" lon="7.4961823"><ele>520.9</ele><time>2016-06-14T16:49:36Z</time></trkpt>
<trkpt lat="46.8601208" lon="7.4961573"><ele>521.2</ele><time>2016-06-14T16:49:37Z</time></trkpt>
<trkpt lat="46.8600157" lon="7.4962291"><ele>521.6</ele><time>2016-06-14T16:49:39Z</time></trkpt>
<trkpt lat="46.8598745" lon="7.4962072"><ele>522.1</ele><time>2016-06-14T16:49:42Z</time></trkpt>
<trkpt lat="46.8597999" lon="7.4962437"><ele>522.2</ele><time>2016-06-14T16:49:43Z</time></trkpt>
<trkpt lat="46.8597905" lon="7.4962901"><ele>522.3</ele><time>2016-06-14T16:49:44Z</time></trkpt>
<trkpt lat="46.8596900" lon="7.4962506"><ele>522.4</ele><time>2016-06-14T16:49:45Z</time></trkpt>
<trkpt lat="46.8595514" lon="7.4963611"><ele>522.7</ele><time>2016-06-14T16:49:48Z</time></trkpt>
<trkpt lat="46.8594320" lon="7.4963183"><ele>523.0</ele><time>2016-06-14T16:49:51Z</time></trkpt>
<trkpt lat="46.8593935" lon="7.4961730"><ele>523.2</ele><time>2016-06-14T16:49:53Z</time></trkpt>
<trkpt lat="46.8594316" lon="7.4961683"><ele>523.3</ele><time>2016-06-14T16:49:54Z</time></trkpt>
<trkpt lat="46.8595349" lon="7.4957448"><ele>523.6</ele><time>2016-06-14T16:50:02Z</time></trkpt>
<trkpt lat="46.8594796" lon="7.4956353"><ele>523.5</ele><time>2016-06-14T16:50:05Z</time></trkpt>
<trkpt lat="46.8589820" lon="7.4957488"><ele>523.1</ele><time>2016-06-14T16:50:14Z</time></trkpt>
<trkpt lat="46.8587968" lon="7.4957661"><ele>523.4</ele><time>2016-06-14T16:50:17Z</time></trkpt>
<trkpt lat="46.8587104" lon="7.4957375"><ele>523.6</ele><time>2016-06-14T16:50:19Z</time></trkpt>
<trkpt lat="46.8584565" lon="7.4959052"><ele>524.4</ele><time>2016-06-14T16:50:24Z</time></trkpt>
<trkpt lat="46.8583911" lon="7.4959071"><ele>524.6</ele><time>2016-06-14T16:50:25Z</time></trkpt>
<trkpt lat="46.8583818" lon="7.4959897"><ele>524.5</ele><time>2016-06-14T16:50:26Z</time></trkpt>
<trkpt lat="46.8582653" lon="7.4960958"><ele>524.1</ele><time>2016-06-14T16:50:29Z</time></trkpt>
<trkpt lat="46.8581578" lon="7.4961332"><ele>523.9</ele><time>2016-06-14T16:50:30Z</time></trkpt>
<trkpt lat="46.8580903" lon="7.4962145"><ele>523.9</ele><time>2016-06-14T16:50:32Z</time></trkpt>
<trkpt lat="46.8579666" lon="7.4962531"><ele>523.9</ele><time>2016-06-14T16:50:34Z</time></trkpt>
<trkpt lat="46.8579143" lon="7.4962379"><ele>523.9</ele><time>2016-06-14T16:50:35Z</time></trkpt>
<trkpt lat="46.8577091" lon="7.4963255"><ele>523.9</ele><time>2016-06-14T16:50:40Z</time></trkpt>
<trkpt lat="46.8575685" lon="7.4963348"><ele>523.9</ele><time>2016-06-14T16:50:42Z</time></trkpt>
<trkpt lat="46.8575274" lon="7.4963766"><ele>523.9</ele><time>2016-06-14T16:50:43Z</time></trkpt>
<trkpt lat="46.8574761" lon="7.4963402"><ele>523.9</ele><time>2016-06-14T16:50:44Z</time></trkpt>
<trkpt lat="46.8570982" lon="7.4964482"><ele>523.9</ele><time>2016-06-14T16:50:52Z</time></trkpt>
<trkpt lat="46.8570325" lon="7.4963891"><ele>523.9</ele><time>2016-06-14T16:50:53Z</time></trkpt>
<trkpt lat="46.8565684" lon="7.4964812"><ele>523.9</ele><time>2016-06-14T16:51:03Z</time></trkpt>
<trkpt lat="46.8561771" lon="7.4965335"><ele>523.9</ele><time>2016-06-14T16:51:10Z</time></trkpt>
<trkpt lat="46.8561214" lon="7.4965937"><ele>523.9</ele><time>2016-06-14T16:51:11Z</time></trkpt>
<trkpt lat="46.8559224" lon="7.4966472"><ele>523.9</ele><time>2016-06-14T16:51:14Z</time></trkpt>
<trkpt lat="46.8558717" lon="7.4966912"><ele>523.9</ele><time>2016-06-14T16:51:15Z</time></trkpt>
<trkpt lat="46.8554408" lon="7.4967172"><ele>523.8</ele><time>2016-06-14T16:51:22Z</time></trkpt>
<trkpt lat="46.8553785" lon="7.4967518"><ele>523.8</ele><time>2016-06-14T16:51:23Z</time></trkpt>
<trkpt lat="46.8552126" lon="7.4967670"><ele>523.8</ele><time>2016-06-14T16:51:26Z</time></trkpt>
<trkpt lat="46.8551642" lon="7.4967459"><ele>523.9</ele><time>2016-06-14T16:51:27Z</time></trkpt>
<trkpt lat="46.8549404" lon="7.4967631"><ele>524.1</ele><time>2016-06-14T16:51:31Z</time></trkpt>
<trkpt lat="46.8549054" lon="7.4967424"><ele>524.1</ele><time>2016-06-14T16:51:32Z</time></trkpt>
<trkpt lat="46.8548686" lon="7.4968176"><ele>524.2</ele><time>2016-06-14T16:51:33Z</time></trkpt>
<trkpt lat="46.8548493" lon="7.4967964"><ele>524.2</ele><time>2016-06-14T16:51:34Z</time></trkpt>
<trkpt lat="46.8548226" lon="7.4968832"><ele>524.3</ele><time>2016-06-14T16:51:35Z</time></trkpt>
<trkpt lat="46.8546069" lon="7.4969040"><ele>524.5</ele><time>2016-06-14T16:51:39Z</time></trkpt>
<trkpt lat="46.8545186" lon="7.4966392"><ele>524.6</ele><time>2016-06-14T16:51:42Z</time></trkpt>
<trkpt lat="46.8545813" lon="7.4965325"><ele>524.6</ele><time>2016-06-14T16:51:43Z</time></trkpt>
<trkpt lat="46.8544787" lon="7.4958910"><ele>524.4</ele><time>2016-06-14T16:51:52Z</time></trkpt>
<trkpt lat="46.8544495" lon="7.4957643"><ele>524.7</ele><time>2016-06-14T16:51:54Z</time></trkpt>
<trkpt lat="46.8545052" lon="7.4956649"><ele>524.9</ele><time>2016-06-14T16:51:55Z</time></trkpt>
<trkpt lat="46.8545036" lon="7.4954452"><ele>525.4</ele><time>2016-06-14T16:51:58Z</time></trkpt>
<trkpt lat="46.8544526" lon="7.4953871"><ele>525.5</ele><time>2016-06-14T16:51:59Z</time></trkpt>
<trkpt lat="46.8544021" lon="7.4951972"><ele>525.9</ele><time>2016-06-14T16:52:01Z</time></trkpt>
<trkpt lat="46.8544063" lon="7.4951162"><ele>526.0</ele><time>2016-06-14T16:52:02Z</time></trkpt>
<trkpt lat="46.8543803" lon="7.4950429"><ele>526.2</ele><time>2016-06-14T16:52:03Z</time></trkpt>
<trkpt lat="46.8544168" lon="7.4949179"><ele>526.5</ele><time>2016-06-14T16:52:05Z</time></trkpt>
<trkpt lat="46.8544348" lon="7.4947594"><ele>526.8</ele><time>2016-06-14T16:52:07Z</time></trkpt>
<trkpt lat="46.8544703" lon="7.4946646"><ele>527.0</ele><time>2016-06-14T16:52:08Z</time></trkpt>
<trkpt lat="46.8544847" lon="7.4944445"><ele>527.4</ele><time>2016-06-14T16:52:11Z</time></trkpt>
<trkpt lat="46.8544254" lon="7.4943828"><ele>527.5</ele><time>2016-06-14T16:52:12Z</time></trkpt>
<trkpt lat="46.8543905" lon="7.4940414"><ele>527.8</ele><time>2016-06-14T16:52:16Z</time></trkpt>
<trkpt lat="46.8544107" lon="7.4939462"><ele>527.8</ele><time>2016-06-14T16:52:17Z</time></trkpt>
<trkpt lat="46.8543035" lon="7.4936579"><ele>528.1</ele><time>2016-06-14T16:52:21Z</time></trkpt>
<trkpt lat="46.8542935" lon="7.4934391"><ele>528.7</ele><time>2016-06-14T16:52:24Z</time></trkpt>
<trkpt lat="46.8544184" lon="7.4931805"><ele>529.5</ele><time>2016-06-14T16:52:28Z</time></trkpt>
<trkpt lat="46.8544682" lon="7.4931306"><ele>529.7</ele><time>2016-06-14T16:52:29Z</time></trkpt>
<trkpt lat="46.8545135" lon="7.4929208"><ele>531.0</ele><time>2016-06-14T16:52:34Z</time></trkpt>
<trkpt lat="46.8549535" lon="7.4927052"><ele>532.4</ele><time>2016-06-14T16:52:53Z</time></trkpt>
<trkpt lat="46.8552047" lon="7.4924400"><ele>533.5</ele><time>2016-06-14T16:53:05Z</time></trkpt>
<trkpt lat="46.8551517" lon="7.4923217"><ele>533.9</ele><time>2016-06-14T16:53:10Z</time></trkpt>
<trkpt lat="46.8548521" lon="7.4922782"><ele>534.6</ele><time>2016-06-14T16:53:18Z</time></trkpt>
<trkpt lat="46.8547412" lon="7.4923381"><ele>534.7</ele><time>2016-06-14T16:53:19Z</time></trkpt>
<trkpt lat="46.8546027" lon="7.4923648"><ele>534.8</ele><time>2016-06-14T16:53:22Z</time></trkpt>
<trkpt lat="46.8541555" lon="7.4925316"><ele>534.0</ele><time>2016-06-14T16:53:30Z</time></trkpt>
<trkpt lat="46.8538969" lon="7.4924332"><ele>533.9</ele><time>2016-06-14T16:53:33Z</time></trkpt>
<trkpt lat="46.8537654" lon="7.4925898"><ele>533.9</ele><time>2016-06-14T16:53:35Z</time></trkpt>
<trkpt lat="46.8533944" lon="7.4927131"><ele>534.0</ele><time>2016-06-14T16:53:42Z</time></trkpt>
<trkpt lat="46.8533101" lon="7.4926593"><ele>534.0</ele><time>2016-06-14T16:53:44Z</time></trkpt>
<trkpt lat="46.8531094" lon="7.4927162"><ele>534.1</ele><time>2016-06-14T16:53:48Z</time></trkpt>
<trkpt lat="46.8530313" lon="7.4926762"><ele>534.2</ele><time>2016-06-14T16:53:50Z</time></trkpt>
<trkpt lat="46.8529873" lon="7.4927345"><ele>534.2</ele><time>2016-06-14T16:53:51Z</time></trkpt>
<trkpt lat="46.8529367" lon="7.4927473"><ele>534.2</ele><time>2016-06-14T16:53:52Z</time></trkpt>
<trkpt lat="46.8528832" lon="7.4926839"><ele>534.2</ele><time>2016-06-14T16:53:53Z</time></trkpt>
<trkpt lat="46.8528022" lon="7.4927024"><ele>534.2</ele><time>2016-06-14T16:53:54Z</time></trkpt>
<trkpt lat="46.8523519" lon="7.4926186"><ele>535.8</ele><time>2016-06-14T16:54:01Z</time></trkpt>
<trkpt lat="46.8522356" lon="7.4925507"><ele>537.0</ele><time>2016-06-14T16:54:03Z</time></trkpt>
<trkpt lat="46.8522929" lon="7.4928067"><ele>537.6</ele><time>2016-06-14T16:54:04Z</time></trkpt>
<trkpt lat="46.8522352" lon="7.4928885"><ele>538.2</ele><time>2016-06-14T16:54:05Z</time></trkpt>
<trkpt lat="46.8521312" lon="7.4928142"><ele>537.5</ele><time>2016-06-14T16:54:07Z</time></trkpt>
<trkpt lat="46.8517683" lon="7.4928693"><ele>535.8</ele><time>2016-06-14T16:54:12Z</time></trkpt>
<trkpt lat="46.8517310" lon="7.4927982"><ele>535.7</ele><time>2016-06-14T16:54:13Z</time></trkpt>
<trkpt lat="46.8516792" lon="7.4927842"><ele>535.6</ele><time>2016-06-14T16:54:14Z</time></trkpt>
<trkpt lat="46.8516440" lon="7.4928402"><ele>535.4</ele><time>2016-06-14T16:54:15Z</time></trkpt>
<trkpt lat="46.8515015" lon="7.4929394"><ele>535.0</ele><time>2016-06-14T16:54:18Z</time></trkpt>
<trkpt lat="46.8511263" lon="7.4929025"><ele>534.3</ele><time>2016-06-14T16:54:23Z</time></trkpt>
<trkpt lat="46.8507245" lon="7.4930314"><ele>533.9</ele><time>2016-06-14T16:54:30Z</time></trkpt>
<trkpt lat="46.8504181" lon="7.4932272"><ele>534.7</ele><time>2016-06-14T16:54:35Z</time></trkpt>
<trkpt lat="46.8502729" lon="7.4932472"><ele>535.0</ele><time>2016-06-14T16:54:37Z</time></trkpt>
<trkpt lat="46.8499173" lon="7.4934959"><ele>534.2</ele><time>2016-06-14T16:54:43Z</time></trkpt>
<trkpt lat="46.8498639" lon="7.4934858"><ele>534.0</ele><time>2016-06-14T16:54:44Z</time></trkpt>
<trkpt lat="46.8497643" lon="7.4935924"><ele>534.0</ele><time>2016-06-14T16:54:46Z</time></trkpt>
<trkpt lat="46.8497046" lon="7.4936062"><ele>534.0</ele><time>2016-06-14T16:54:47Z</time></trkpt>
<trkpt lat="46.8496384" lon="7.4937534"><ele>534.0</ele><time>2016-06-14T16:54:49Z</time></trkpt>
<trkpt lat="46.8493346" lon="7.4941051"><ele>534.0</ele><time>2016-06-14T16:54:55Z</time></trkpt>
<trkpt lat="46.8492208" lon="7.4943321"><ele>534.0</ele><time>2016-06-14T16:54:58Z</time></trkpt>
<trkpt lat="46.8491614" lon="7.4943541"><ele>534.0</ele><time>2016-06-14T16:54:59Z</time></trkpt>
<trkpt lat="46.8491272" lon="7.4944302"><ele>534.0</ele><time>2016-06-14T16:55:00Z</time></trkpt>
<trkpt lat="46.8490564" lon="7.4944047"><ele>534.0</ele><time>2016-06-14T16:55:01Z</time></trkpt>
<trkpt lat="46.8489167" lon="7.4944748"><ele>533.9</ele><time>2016-06-14T16:55:03Z</time></trkpt>
<trkpt lat="46.8486738" lon="7.4944626"><ele>533.8</ele><time>2016-06-14T16:55:06Z</time></trkpt>
<trkpt lat="46.8483905" lon="7.4945799"><ele>535.9</ele><time>2016-06-14T16:55:11Z</time></trkpt>
<trkpt lat="46.8483495" lon="7.4946339"><ele>536.3</ele><time>2016-06-14T16:55:12Z</time></trkpt>
<trkpt lat="46.8482020" lon="7.4947004"><ele>536.0</ele><time>2016-06-14T16:55:14Z</time></trkpt>
<trkpt lat="46.8481627" lon="7.4947861"><ele>535.9</ele><time>2016-06-14T16:55:15Z</time></trkpt>
<trkpt lat="46.8479361" lon="7.4949308"><ele>535.3</ele><time>2016-06-14T16:55:19Z</time></trkpt>
<trkpt lat="46.8475884" lon="7.4952868"><ele>535.3</ele><time>2016-06-14T16:55:26Z</time></trkpt>
<trkpt lat="46.8474054" lon="7.4955963"><ele>536.0</ele><time>2016-06-14T16:55:31Z</time></trkpt>
<trkpt lat="46.8472948" lon="7.4956539"><ele>536.2</ele><time>2016-06-14T16:55:33Z</time></trkpt>
<trkpt lat="46.8472604" lon="7.4957376"><ele>536.2</ele><time>2016-06-14T16:55:34Z</time></trkpt>
<trkpt lat="46.8470431" lon="7.4958604"><ele>537.4</ele><time>2016-06-14T16:55:38Z</time></trkpt>
<trkpt lat="46.8470026" lon="7.4959219"><ele>537.7</ele><time>2016-06-14T16:55:39Z</time></trkpt>
<trkpt lat="46.8469388" lon="7.4959065"><ele>537.8</ele><time>2016-06-14T16:55:40Z</time></trkpt>
<trkpt lat="46.8465256" lon="7.4963236"><ele>539.2</ele><time>2016-06-14T16:55:49Z</time></trkpt>
<trkpt lat="46.8464640" lon="7.4963612"><ele>539.3</ele><time>2016-06-14T16:55:50Z</time></trkpt>
<trkpt lat="46.8464522" lon="7.4964631"><ele>539.4</ele><time>2016-06-14T16:55:51Z</time></trkpt>
<trkpt lat="46.8460529" lon="7.4967133"><ele>540.6</ele><time>2016-06-14T16:55:59Z</time></trkpt>
<trkpt lat="46.8459874" lon="7.4966956"><ele>540.8</ele><time>2016-06-14T16:56:00Z</time></trkpt>
<trkpt lat="46.8458380" lon="7.4967147"><ele>541.1</ele><time>2016-06-14T16:56:03Z</time></trkpt>
<trkpt lat="46.8458026" lon="7.4967627"><ele>541.2</ele><time>2016-06-14T16:56:04Z</time></trkpt>
<trkpt lat="46.8453695" lon="7.4967871"><ele>541.5</ele><time>2016-06-14T16:56:11Z</time></trkpt>
<trkpt lat="46.8453021" lon="7.4967621"><ele>541.5</ele><time>2016-06-14T16:56:12Z</time></trkpt>
<trkpt lat="46.8452644" lon="7.4968318"><ele>541.5</ele><time>2016-06-14T16:56:13Z</time></trkpt>
<trkpt lat="46.8450884" lon="7.4968448"><ele>541.6</ele><time>2016-06-14T16:56:16Z</time></trkpt>
<trkpt lat="46.8449275" lon="7.4969018"><ele>541.6</ele><time>2016-06-14T16:56:19Z</time></trkpt>
<trkpt lat="46.8447613" lon="7.4968858"><ele>541.7</ele><time>2016-06-14T16:56:22Z</time></trkpt>
<trkpt lat="46.8446566" lon="7.4969446"><ele>541.7</ele><time>2016-06-14T16:56:24Z</time></trkpt>
<trkpt lat="46.8445450" lon="7.4969226"><ele>541.8</ele><time>2016-06-14T16:56:26Z</time></trkpt>
<trkpt lat="46.8441926" lon="7.4970103"><ele>541.9</ele><time>2016-06-14T16:56:32Z</time></trkpt>
<trkpt lat="46.8439644" lon="7.4970035"><ele>542.0</ele><time>2016-06-14T16:56:36Z</time></trkpt>
<trkpt lat="46.8438084" lon="7.4970633"><ele>542.0</ele><time>2016-06-14T16:56:39Z</time></trkpt>
<trkpt lat="46.8437575" lon="7.4970467"><ele>542.1</ele><time>2016-06-14T16:56:40Z</time></trkpt>
<trkpt lat="46.8435377" lon="7.4970885"><ele>542.1</ele><time>2016-06-14T16:56:44Z</time></trkpt>
<trkpt lat="46.8435157" lon="7.4971246"><ele>542.2</ele><time>2016-06-14T16:56:45Z</time></trkpt>
<trkpt lat="46.8434514" lon="7.4971005"><ele>542.2</ele><time>2016-06-14T16:56:46Z</time></trkpt>
<trkpt lat="46.8434091" lon="7.4971525"><ele>542.2</ele><time>2016-06-14T16:56:47Z</time></trkpt>
<trkpt lat="46.8433385" lon="7.4971775"><ele>542.2</ele><time>2016-06-14T16:56:48Z</time></trkpt>
<trkpt lat="46.8432854" lon="7.4971350"><ele>542.2</ele><time>2016-06-14T16:56:49Z</time></trkpt>
<trkpt lat="46.8431379" lon="7.4971567"><ele>542.3</ele><time>2016-06-14T16:56:52Z</time></trkpt>
<trkpt lat="46.8430360" lon="7.4971140"><ele>542.4</ele><time>2016-06-14T16:56:54Z</time></trkpt>
<trkpt lat="46.8429846" lon="7.4971554"><ele>542.4</ele><time>2016-06-14T16:56:55Z</time></trkpt>
<trkpt lat="46.8429454" lon="7.4972370"><ele>542.4</ele><time>2016-06-14T16:56:56Z</time></trkpt>
<trkpt lat="46.8428278" lon="7.4972282"><ele>542.4</ele><time>2016-06-14T16:56:58Z</time></trkpt>
<trkpt lat="46.8427504" lon="7.4973732"><ele>542.5</ele><time>2016-06-14T16:57:00Z</time></trkpt>
<trkpt lat="46.8425420" lon="7.4974707"><ele>542.1</ele><time>2016-06-14T16:57:04Z</time></trkpt>
<trkpt lat="46.8424948" lon="7.4975190"><ele>542.0</ele><time>2016-06-14T16:57:05Z</time></trkpt>
<trkpt lat="46.8422671" lon="7.4976214"><ele>542.1</ele><time>2016-06-14T16:57:09Z</time></trkpt>
<trkpt lat="46.8418679" lon="7.4976967"><ele>542.2</ele><time>2016-06-14T16:57:16Z</time></trkpt>
<trkpt lat="46.8418249" lon="7.4977504"><ele>542.2</ele><time>2016-06-14T16:57:17Z</time></trkpt>
<trkpt lat="46.8415392" lon="7.4978664"><ele>542.3</ele><time>2016-06-14T16:57:22Z</time></trkpt>
<trkpt lat="46.8415110" lon="7.4979095"><ele>542.3</ele><time>2016-06-14T16:57:23Z</time></trkpt>
<trkpt lat="46.8413317" lon="7.4979373"><ele>542.4</ele><time>2016-06-14T16:57:26Z</time></trkpt>
<trkpt lat="46.8412073" lon="7.4979766"><ele>542.4</ele><time>2016-06-14T16:57:28Z</time></trkpt>
<trkpt lat="46.8410583" lon="7.4979363"><ele>542.4</ele><time>2016-06-14T16:57:30Z</time></trkpt>
<trkpt lat="46.8410223" lon="7.4980081"><ele>542.5</ele><time>2016-06-14T16:57:31Z</time></trkpt>
<trkpt lat="46.8409303" lon="7.4980810"><ele>542.5</ele><time>2016-06-14T16:57:33Z</time></trkpt>
<trkpt lat="46.8407651" lon="7.4981000"><ele>542.5</ele><time>2016-06-14T16:57:36Z</time></trkpt>
<trkpt lat="46.8407001" lon="7.4980724"><ele>542.6</ele><time>2016-06-14T16:57:37Z</time></trkpt>
<trkpt lat="46.8406676" lon="7.4981450"><ele>542.6</ele><time>2016-06-14T16:57:38Z</time></trkpt>
<trkpt lat="46.8402723" lon="7.4981689"><ele>542.7</ele><time>2016-06-14T16:57:45Z</time></trkpt>
<trkpt lat="46.8401686" lon="7.4981218"><ele>542.7</ele><time>2016-06-14T16:57:47Z</time></trkpt>
<trkpt lat="46.8400422" lon="7.4981476"><ele>542.8</ele><time>2016-06-14T16:57:50Z</time></trkpt>
<trkpt lat="46.8397721" lon="7.4981115"><ele>542.8</ele><time>2016-06-14T16:57:56Z</time></trkpt>
<trkpt lat="46.8397315" lon="7.4981291"><ele>542.8</ele><time>2016-06-14T16:57:57Z</time></trkpt>
<trkpt lat="46.8394444" lon="7.4980866"><ele>542.6</ele><time>2016-06-14T16:58:04Z</time></trkpt>
<trkpt lat="46.8393529" lon="7.4981182"><ele>542.5</ele><time>2016-06-14T16:58:06Z</time></trkpt>
<trkpt lat="46.8390032" lon="7.4983663"><ele>541.2</ele><time>2016-06-14T16:58:13Z</time></trkpt>
<trkpt lat="46.8387507" lon="7.4984626"><ele>543.2</ele><time>2016-06-14T16:58:18Z</time></trkpt>
<trkpt lat="46.8385326" lon="7.4986481"><ele>545.2</ele><time>2016-06-14T16:58:23Z</time></trkpt>
<trkpt lat="46.8383556" lon="7.4986911"><ele>545.0</ele><time>2016-06-14T16:58:27Z</time></trkpt>
<trkpt lat="46.8383425" lon="7.4986377"><ele>544.9</ele><time>2016-06-14T16:58:28Z</time></trkpt>
<trkpt lat="46.8381344" lon="7.4987326"><ele>545.3</ele><time>2016-06-14T16:58:34Z</time></trkpt>
<trkpt lat="46.8380401" lon="7.4986592"><ele>545.5</ele><time>2016-06-14T16:58:36Z</time></trkpt>
<trkpt lat="46.8376565" lon="7.4987299"><ele>546.9</ele><time>2016-06-14T16:58:50Z</time></trkpt>
<trkpt lat="46.8374242" lon="7.4983958"><ele>549.1</ele><time>2016-06-14T16:59:02Z</time></trkpt>
<trkpt lat="46.8372008" lon="7.4983563"><ele>553.5</ele><time>2016-06-14T16:59:11Z</time></trkpt>
</trkseg>
<trkseg>
<trkpt lat="46.8372008" lon="7.4983563"><ele>553.5</ele><time>2016-06-14T16:59:35Z</time></trkpt>
<trkpt lat="46.8369857" lon="7.4984204"><ele>557.6</ele><time>2016-06-14T16:59:35Z</time></trkpt>
<trkpt lat="46.8365516" lon="7.4986429"><ele>556.8</ele><time>2016-06-14T16:59:58Z</time></trkpt>
<trkpt lat="46.8361588" lon="7.4985935"><ele>561.4</ele><time>2016-06-14T17:00:22Z</time></trkpt>
<trkpt lat="46.8357550" lon="7.4989604"><ele>568.6</ele><time>2016-06-14T17:00:41Z</time></trkpt>
<trkpt lat="46.8353149" lon="7.4992080"><ele>571.3</ele><time>2016-06-14T17:00:56Z</time></trkpt>
<trkpt lat="46.8350209" lon="7.4993023"><ele>572.5</ele><time>2016-06-14T17:01:08Z</time></trkpt>
<trkpt lat="46.8345540" lon="7.4992657"><ele>577.9</ele><time>2016-06-14T17:01:27Z</time></trkpt>
<trkpt lat="46.8341059" lon="7.4993435"><ele>579.6</ele><time>2016-06-14T17:01:46Z</time></trkpt>
<trkpt lat="46.8336571" lon="7.4993660"><ele>581.7</ele><time>2016-06-14T17:02:02Z</time></trkpt>
<trkpt lat="46.8334119" lon="7.4991505"><ele>585.5</ele><time>2016-06-14T17:02:11Z</time></trkpt>
<trkpt lat="46.8329525" lon="7.4991035"><ele>589.2</ele><time>2016-06-14T17:02:31Z</time></trkpt>
<trkpt lat="46.8325025" lon="7.4990102"><ele>591.4</ele><time>2016-06-14T17:02:52Z</time></trkpt>
<trkpt lat="46.8320596" lon="7.4988631"><ele>595.3</ele><time>2016-06-14T17:03:16Z</time></trkpt>
<trkpt lat="46.8313006" lon="7.4985471"><ele>602.8</ele><time>2016-06-14T17:03:50Z</time></trkpt>
</trkseg>
<trkseg>
<trkpt lat="46.8313006" lon="7.4985471"><ele>602.8</ele><time>2016-06-14T17:04:30Z</time></trkpt>
<trkpt lat="46.8307843" lon="7.4982534"><ele>607.9</ele><time>2016-06-14T17:04:38Z</time></trkpt>
<trkpt lat="46.8303601" lon="7.4985369"><ele>607.8</ele><time>2016-06-14T17:04:49Z</time></trkpt>
<trkpt lat="46.8300930" lon="7.4987327"><ele>607.7</ele><time>2016-06-14T17:04:56Z</time></trkpt>
<trkpt lat="46.8301035" lon="7.4988689"><ele>607.7</ele><time>2016-06-14T17:04:57Z</time></trkpt>
<trkpt lat="46.8299166" lon="7.4989416"><ele>607.6</ele><time>2016-06-14T17:05:01Z</time></trkpt>
<trkpt lat="46.8298554" lon="7.4988729"><ele>607.6</ele><time>2016-06-14T17:05:02Z</time></trkpt>
<trkpt lat="46.8295440" lon="7.4989845"><ele>607.5</ele><time>2016-06-14T17:05:08Z</time></trkpt>
<trkpt lat="46.8293015" lon="7.4990427"><ele>607.5</ele><time>2016-06-14T17:05:12Z</time></trkpt>
<trkpt lat="46.8292505" lon="7.4990060"><ele>607.5</ele><time>2016-06-14T17:05:13Z</time></trkpt>
<trkpt lat="46.8289221" lon="7.4992716"><ele>607.4</ele><time>2016-06-14T17:05:18Z</time></trkpt>
<trkpt lat="46.8288528" lon="7.4992236"><ele>607.4</ele><time>2016-06-14T17:05:19Z</time></trkpt>
<trkpt lat="46.8285886" lon="7.4993653"><ele>607.7</ele><time>2016-06-14T17:05:24Z</time></trkpt>
<trkpt lat="46.8285155" lon="7.4993583"><ele>607.8</ele><time>2016-06-14T17:05:25Z</time></trkpt>
<trkpt lat="46.8284439" lon="7.4994314"><ele>607.8</ele><time>2016-06-14T17:05:26Z</time></trkpt>
<trkpt lat="46.8283071" lon="7.4994214"><ele>608.0</ele><time>2016-06-14T17:05:28Z</time></trkpt>
<trkpt lat="46.8282818" lon="7.4994875"><ele>608.0</ele><time>2016-06-14T17:05:29Z</time></trkpt>
<trkpt lat="46.8277960" lon="7.4995516"><ele>609.1</ele><time>2016-06-14T17:05:37Z</time></trkpt>
<trkpt lat="46.8273449" lon="7.4996611"><ele>610.6</ele><time>2016-06-14T17:05:46Z</time></trkpt>
<trkpt lat="46.8272069" lon="7.4996921"><ele>611.0</ele><time>2016-06-14T17:05:48Z</time></trkpt>
<trkpt lat="46.8269699" lon="7.4997537"><ele>611.1</ele><time>2016-06-14T17:05:49Z</time></trkpt>
<trkpt lat="46.8268219" lon="7.4997211"><ele>611.5</ele><time>2016-06-14T17:05:54Z</time></trkpt>
<trkpt lat="46.8266384" lon="7.4998048"><ele>611.4</ele><time>2016-06-14T17:05:57Z</time></trkpt>
<trkpt lat="46.8265789" lon="7.4997874"><ele>611.3</ele><time>2016-06-14T17:05:58Z</time></trkpt>
<trkpt lat="46.8264162" lon="7.4998830"><ele>611.1</ele><time>2016-06-14T17:06:01Z</time></trkpt>
<trkpt lat="46.8262604" lon="7.4999048"><ele>611.0</ele><time>2016-06-14T17:06:03Z</time></trkpt>
<trkpt lat="46.8260670" lon="7.5000294"><ele>610.8</ele><time>2016-06-14T17:06:06Z</time></trkpt>
<trkpt lat="46.8258626" lon="7.5000187"><ele>610.7</ele><time>2016-06-14T17:06:09Z</time></trkpt>
<trkpt lat="46.8254207" lon="7.5001627"><ele>610.2</ele><time>2016-06-14T17:06:17Z</time></trkpt>
<trkpt lat="46.8252904" lon="7.5002441"><ele>610.0</ele><time>2016-06-14T17:06:20Z</time></trkpt>
<trkpt lat="46.8252792" lon="7.5002862"><ele>610.0</ele><time>2016-06-14T17:06:21Z</time></trkpt>
<trkpt lat="46.8250164" lon="7.5003510"><ele>609.8</ele><time>2016-06-14T17:06:24Z</time></trkpt>
<trkpt lat="46.8246952" lon="7.5006312"><ele>610.5</ele><time>2016-06-14T17:06:30Z</time></trkpt>
<trkpt lat="46.8246480" lon="7.5006999"><ele>610.7</ele><time>2016-06-14T17:06:31Z</time></trkpt>
<trkpt lat="46.8245808" lon="7.5007188"><ele>610.5</ele><time>2016-06-14T17:06:32Z</time></trkpt>
<trkpt lat="46.8240857" lon="7.5014834"><ele>607.2</ele><time>2016-06-14T17:06:41Z</time></trkpt>
</trkseg>
<trkseg>
<trkpt lat="46.8240857" lon="7.5014834"><ele>607.2</ele><time>2016-06-14T17:13:27Z</time></trkpt>
<trkpt lat="46.8238539" lon="7.5017912"><ele>605.3</ele><time>2016-06-14T17:13:30Z</time></trkpt>
<trkpt lat="46.8238782" lon="7.5020293"><ele>605.5</ele><time>2016-06-14T17:13:31Z</time></trkpt>
<trkpt lat="46.8238048" lon="7.5019809"><ele>605.6</ele><time>2016-06-14T17:13:32Z</time></trkpt>
<trkpt lat="46.8238223" lon="7.5020473"><ele>605.8</ele><time>2016-06-14T17:13:33Z</time></trkpt>
<trkpt lat="46.8237907" lon="7.5022739"><ele>605.3</ele><time>2016-06-14T17:13:35Z</time></trkpt>
<trkpt lat="46.8236695" lon="7.5025514"><ele>602.9</ele><time>2016-06-14T17:13:39Z</time></trkpt>
<trkpt lat="46.8235077" lon="7.5026667"><ele>602.3</ele><time>2016-06-14T17:13:40Z</time></trkpt>
<trkpt lat="46.8233755" lon="7.5028386"><ele>602.4</ele><time>2016-06-14T17:13:42Z</time></trkpt>
<trkpt lat="46.8232186" lon="7.5028743"><ele>602.4</ele><time>2016-06-14T17:13:43Z</time></trkpt>
<trkpt lat="46.8229958" lon="7.5030600"><ele>602.5</ele><time>2016-06-14T17:13:45Z</time></trkpt>
<trkpt lat="46.8228937" lon="7.5032404"><ele>601.9</ele><time>2016-06-14T17:13:47Z</time></trkpt>
<trkpt lat="46.8228313" lon="7.5034084"><ele>601.4</ele><time>2016-06-14T17:13:48Z</time></trkpt>
<trkpt lat="46.8228066" lon="7.5036215"><ele>600.8</ele><time>2016-06-14T17:13:49Z</time></trkpt>
<trkpt lat="46.8226868" lon="7.5038598"><ele>599.7</ele><time>2016-06-14T17:13:51Z</time></trkpt>
<trkpt lat="46.8226325" lon="7.5040364"><ele>599.1</ele><time>2016-06-14T17:13:52Z</time></trkpt>
<trkpt lat="46.8224956" lon="7.5043255"><ele>597.8</ele><time>2016-06-14T17:13:54Z</time></trkpt>
<trkpt lat="46.8222550" lon="7.5050206"><ele>595.2</ele><time>2016-06-14T17:13:58Z</time></trkpt>
<trkpt lat="46.8219628" lon="7.5057163"><ele>591.9</ele><time>2016-06-14T17:14:03Z</time></trkpt>
<trkpt lat="46.8219634" lon="7.5058518"><ele>591.3</ele><time>2016-06-14T17:14:04Z</time></trkpt>
<trkpt lat="46.8221218" lon="7.5060349"><ele>589.2</ele><time>2016-06-14T17:14:06Z</time></trkpt>
<trkpt lat="46.8223547" lon="7.5061203"><ele>586.2</ele><time>2016-06-14T17:14:09Z</time></trkpt>
<trkpt lat="46.8225716" lon="7.5060831"><ele>584.5</ele><time>2016-06-14T17:14:11Z</time></trkpt>
<trkpt lat="46.8229715" lon="7.5061219"><ele>581.9</ele><time>2016-06-14T17:14:14Z</time></trkpt>
<trkpt lat="46.8230802" lon="7.5061680"><ele>580.3</ele><time>2016-06-14T17:14:15Z</time></trkpt>
<trkpt lat="46.8235871" lon="7.5062399"><ele>573.9</ele><time>2016-06-14T17:14:19Z</time></trkpt>
<trkpt lat="46.8241037" lon="7.5062879"><ele>568.8</ele><time>2016-06-14T17:14:23Z</time></trkpt>
<trkpt lat="46.8244244" lon="7.5063943"><ele>565.6</ele><time>2016-06-14T17:14:26Z</time></trkpt>
<trkpt lat="46.8246025" lon="7.5065621"><ele>563.7</ele><time>2016-06-14T17:14:28Z</time></trkpt>
<trkpt lat="46.8246993" lon="7.5070199"><ele>560.9</ele><time>2016-06-14T17:14:31Z</time></trkpt>
<trkpt lat="46.8245406" lon="7.5077632"><ele>556.4</ele><time>2016-06-14T17:14:36Z</time></trkpt>
<trkpt lat="46.8244964" lon="7.5079552"><ele>555.9</ele><time>2016-06-14T17:14:37Z</time></trkpt>
<trkpt lat="46.8242614" lon="7.5085654"><ele>553.6</ele><time>2016-06-14T17:14:41Z</time></trkpt>
<trkpt lat="46.8242243" lon="7.5087277"><ele>553.1</ele><time>2016-06-14T17:14:42Z</time></trkpt>
<trkpt lat="46.8241470" lon="7.5089060"><ele>552.5</ele><time>2016-06-14T17:14:43Z</time></trkpt>
<trkpt lat="46.8239688" lon="7.5095063"><ele>550.8</ele><time>2016-06-14T17:14:46Z</time></trkpt>
<trkpt lat="46.8238004" lon="7.5098949"><ele>549.7</ele><time>2016-06-14T17:14:48Z</time></trkpt>
<trkpt lat="46.8237573" lon="7.5105506"><ele>547.4</ele><time>2016-06-14T17:14:51Z</time></trkpt>
<trkpt lat="46.8237264" lon="7.5107771"><ele>546.7</ele><time>2016-06-14T17:14:52Z</time></trkpt>
<trkpt lat="46.8237112" lon="7.5113075"><ele>545.2</ele><time>2016-06-14T17:14:54Z</time></trkpt>
<trkpt lat="46.8237298" lon="7.5115221"><ele>545.0</ele><time>2016-06-14T17:14:55Z</time></trkpt>
<trkpt lat="46.8237868" lon="7.5118029"><ele>544.9</ele><time>2016-06-14T17:14:56Z</time></trkpt>
<trkpt lat="46.8238468" lon="7.5116989"><ele>544.8</ele><time>2016-06-14T17:14:57Z</time></trkpt>
<trkpt lat="46.8238879" lon="7.5116963"><ele>544.7</ele><time>2016-06-14T17:14:58Z</time></trkpt>
<trkpt lat="46.8239685" lon="7.5119314"><ele>544.5</ele><time>2016-06-14T17:14:59Z</time></trkpt>
<trkpt lat="46.8239530" lon="7.5122238"><ele>544.3</ele><time>2016-06-14T17:15:01Z</time></trkpt>
<trkpt lat="46.8239687" lon="7.5123675"><ele>544.1</ele><time>2016-06-14T17:15:02Z</time></trkpt>
<trkpt lat="46.8241596" lon="7.5129118"><ele>543.8</ele><time>2016-06-14T17:15:05Z</time></trkpt>
<trkpt lat="46.8241811" lon="7.5130012"><ele>543.7</ele><time>2016-06-14T17:15:08Z</time></trkpt>
<trkpt lat="46.8242356" lon="7.5130904"><ele>543.6</ele><time>2016-06-14T17:15:09Z</time></trkpt>
<trkpt lat="46.8242460" lon="7.5132150"><ele>543.6</ele><time>2016-06-14T17:15:10Z</time></trkpt>
<trkpt lat="46.8242921" lon="7.5133751"><ele>543.6</ele><time>2016-06-14T17:15:11Z</time></trkpt>
<trkpt lat="46.8242707" lon="7.5134510"><ele>543.5</ele><time>2016-06-14T17:15:12Z</time></trkpt>
<trkpt lat="46.8243317" lon="7.5136320"><ele>543.5</ele><time>2016-06-14T17:15:13Z</time></trkpt>
<trkpt lat="46.8243850" lon="7.5139299"><ele>543.4</ele><time>2016-06-14T17:15:15Z</time></trkpt>
<trkpt lat="46.8244810" lon="7.5141824"><ele>543.4</ele><time>2016-06-14T17:15:17Z</time></trkpt>
<trkpt lat="46.8245321" lon="7.5144583"><ele>543.3</ele><time>2016-06-14T17:15:19Z</time></trkpt>
<trkpt lat="46.8245827" lon="7.5145826"><ele>543.3</ele><time>2016-06-14T17:15:20Z</time></trkpt>
<trkpt lat="46.8246198" lon="7.5147784"><ele>543.2</ele><time>2016-06-14T17:15:22Z</time></trkpt>
<trkpt lat="46.8246738" lon="7.5148586"><ele>543.2</ele><time>2016-06-14T17:15:23Z</time></trkpt>
<trkpt lat="46.8246780" lon="7.5149754"><ele>543.1</ele><time>2016-06-14T17:15:24Z</time></trkpt>
<trkpt lat="46.8247306" lon="7.5151156"><ele>543.1</ele><time>2016-06-14T17:15:25Z</time></trkpt>
<trkpt lat="46.8248195" lon="7.5156496"><ele>542.9</ele><time>2016-06-14T17:15:30Z</time></trkpt>
<trkpt lat="46.8249351" lon="7.5160289"><ele>542.8</ele><time>2016-06-14T17:15:33Z</time></trkpt>
<trkpt lat="46.8249431" lon="7.5161490"><ele>542.8</ele><time>2016-06-14T17:15:34Z</time></trkpt>
<trkpt lat="46.8251283" lon="7.5168085"><ele>542.6</ele><time>2016-06-14T17:15:40Z</time></trkpt>
<trkpt lat="46.8251420" lon="7.5169478"><ele>542.5</ele><time>2016-06-14T17:15:41Z</time></trkpt>
<trkpt lat="46.8252797" lon="7.5171753"><ele>542.4</ele><time>2016-06-14T17:15:44Z</time></trkpt>
<trkpt lat="46.8253332" lon="7.5174674"><ele>542.3</ele><time>2016-06-14T17:15:47Z</time></trkpt>
<trkpt lat="46.8253196" lon="7.5175653"><ele>542.3</ele><time>2016-06-14T17:15:48Z</time></trkpt>
<trkpt lat="46.8253598" lon="7.5176681"><ele>542.3</ele><time>2016-06-14T17:15:49Z</time></trkpt>
<trkpt lat="46.8253464" lon="7.5177817"><ele>542.2</ele><time>2016-06-14T17:15:50Z</time></trkpt>
<trkpt lat="46.8254519" lon="7.5179564"><ele>542.2</ele><time>2016-06-14T17:15:51Z</time></trkpt>
<trkpt lat="46.8254974" lon="7.5182428"><ele>542.1</ele><time>2016-06-14T17:15:54Z</time></trkpt>
<trkpt lat="46.8255729" lon="7.5184335"><ele>542.0</ele><time>2016-06-14T17:15:56Z</time></trkpt>
<trkpt lat="46.8255873" lon="7.5187153"><ele>541.9</ele><time>2016-06-14T17:15:59Z</time></trkpt>
<trkpt lat="46.8257256" lon="7.5190744"><ele>541.8</ele><time>2016-06-14T17:16:03Z</time></trkpt>
<trkpt lat="46.8257320" lon="7.5191606"><ele>541.8</ele><time>2016-06-14T17:16:04Z</time></trkpt>
<trkpt lat="46.8258396" lon="7.5194020"><ele>541.7</ele><time>2016-06-14T17:16:06Z</time></trkpt>
<trkpt lat="46.8258986" lon="7.5198165"><ele>541.5</ele><time>2016-06-14T17:16:11Z</time></trkpt>
<trkpt lat="46.8259536" lon="7.5199653"><ele>541.4</ele><time>2016-06-14T17:16:13Z</time></trkpt>
<trkpt lat="46.8260758" lon="7.5206794"><ele>541.2</ele><time>2016-06-14T17:16:21Z</time></trkpt>
<trkpt lat="46.8262289" lon="7.5213356"><ele>540.9</ele><time>2016-06-14T17:16:29Z</time></trkpt>
<trkpt lat="46.8262993" lon="7.5216677"><ele>540.8</ele><time>2016-06-14T17:16:33Z</time></trkpt>
<trkpt lat="46.8264576" lon="7.5220714"><ele>540.6</ele><time>2016-06-14T17:16:38Z</time></trkpt>
<trkpt lat="46.8264828" lon="7.5223264"><ele>539.7</ele><time>2016-06-14T17:16:41Z</time></trkpt>
<trkpt lat="46.8265795" lon="7.5226349"><ele>539.1</ele><time>2016-06-14T17:16:44Z</time></trkpt>
<trkpt lat="46.8266639" lon="7.5230936"><ele>538.9</ele><time>2016-06-14T17:16:49Z</time></trkpt>
<trkpt lat="46.8266543" lon="7.5232903"><ele>538.6</ele><time>2016-06-14T17:16:51Z</time></trkpt>
<trkpt lat="46.8268107" lon="7.5239384"><ele>538.3</ele><time>2016-06-14T17:16:57Z</time></trkpt>
<trkpt lat="46.8268505" lon="7.5243005"><ele>538.4</ele><time>2016-06-14T17:17:01Z</time></trkpt>
<trkpt lat="46.8269878" lon="7.5246907"><ele>538.5</ele><time>2016-06-14T17:17:05Z</time></trkpt>
<trkpt lat="46.8270978" lon="7.5248838"><ele>538.5</ele><time>2016-06-14T17:17:08Z</time></trkpt>
<trkpt lat="46.8272358" lon="7.5253500"><ele>538.7</ele><time>2016-06-14T17:17:13Z</time></trkpt>
<trkpt lat="46.8272384" lon="7.5254446"><ele>538.7</ele><time>2016-06-14T17:17:14Z</time></trkpt>
<trkpt lat="46.8274594" lon="7.5259891"><ele>538.9</ele><time>2016-06-14T17:17:21Z</time></trkpt>
<trkpt lat="46.8275040" lon="7.5260437"><ele>538.9</ele><time>2016-06-14T17:17:22Z</time></trkpt>
<trkpt lat="46.8275875" lon="7.5260067"><ele>538.9</ele><time>2016-06-14T17:17:23Z</time></trkpt>
<trkpt lat="46.8276664" lon="7.5261301"><ele>539.0</ele><time>2016-06-14T17:17:25Z</time></trkpt>
<trkpt lat="46.8276522" lon="7.5262232"><ele>539.0</ele><time>2016-06-14T17:17:26Z</time></trkpt>
<trkpt lat="46.8277583" lon="7.5263588"><ele>539.1</ele><time>2016-06-14T17:17:28Z</time></trkpt>
<trkpt lat="46.8278565" lon="7.5266174"><ele>539.1</ele><time>2016-06-14T17:17:31Z</time></trkpt>
<trkpt lat="46.8279179" lon="7.5266843"><ele>539.2</ele><time>2016-06-14T17:17:32Z</time></trkpt>
<trkpt lat="46.8280430" lon="7.5270408"><ele>539.3</ele><time>2016-06-14T17:17:36Z</time></trkpt>
<trkpt lat="46.8281068" lon="7.5270811"><ele>539.3</ele><time>2016-06-14T17:17:37Z</time></trkpt>
<trkpt lat="46.8281427" lon="7.5271722"><ele>539.0</ele><time>2016-06-14T17:17:38Z</time></trkpt>
<trkpt lat="46.8281947" lon="7.5272002"><ele>538.6</ele><time>2016-06-14T17:17:39Z</time></trkpt>
<trkpt lat="46.8284928" lon="7.5277219"><ele>538.2</ele><time>2016-06-14T17:17:46Z</time></trkpt>
<trkpt lat="46.8287023" lon="7.5279193"><ele>539.2</ele><time>2016-06-14T17:17:50Z</time></trkpt>
<trkpt lat="46.8288438" lon="7.5281484"><ele>539.7</ele><time>2016-06-14T17:17:54Z</time></trkpt>
<trkpt lat="46.8289063" lon="7.5281688"><ele>539.8</ele><time>2016-06-14T17:17:55Z</time></trkpt>
<trkpt lat="46.8291701" lon="7.5285521"><ele>540.6</ele><time>2016-06-14T17:18:02Z</time></trkpt>
<trkpt lat="46.8290758" lon="7.5286806"><ele>541.5</ele><time>2016-06-14T17:18:04Z</time></trkpt>
</trkseg>
<trkseg>
<trkpt lat="46.8290758" lon="7.5286806"><ele>541.5</ele><time>2016-06-14T17:21:33Z</time></trkpt>
<trkpt lat="46.8291062" lon="7.5288377"><ele>543.2</ele><time>2016-06-14T17:21:38Z</time></trkpt>
</trkseg>
<trkseg>
<trkpt lat="46.8291062" lon="7.5288377"><ele>543.2</ele><time>2016-06-14T17:22:06Z</time></trkpt>
<trkpt lat="46.8293059" lon="7.5289028"><ele>544.9</ele><time>2016-06-14T17:22:10Z</time></trkpt>
</trkseg>
<trkseg>
<trkpt lat="46.8293059" lon="7.5289028"><ele>544.9</ele><time>2016-06-14T17:23:03Z</time></trkpt>
<trkpt lat="46.8293456" lon="7.5289286"><ele>545.5</ele><time>2016-06-14T17:23:04Z</time></trkpt>
<trkpt lat="46.8295486" lon="7.5292905"><ele>545.9</ele><time>2016-06-14T17:23:10Z</time></trkpt>
<trkpt lat="46.8297809" lon="7.5299010"><ele>550.4</ele><time>2016-06-14T17:23:26Z</time></trkpt>
<trkpt lat="46.8296681" lon="7.5305518"><ele>553.1</ele><time>2016-06-14T17:23:50Z</time></trkpt>
<trkpt lat="46.8294068" lon="7.5308334"><ele>553.1</ele><time>2016-06-14T17:24:06Z</time></trkpt>
<trkpt lat="46.8292878" lon="7.5308230"><ele>555.0</ele><time>2016-06-14T17:24:12Z</time></trkpt>
<trkpt lat="46.8290326" lon="7.5313909"><ele>560.3</ele><time>2016-06-14T17:24:33Z</time></trkpt>
<trkpt lat="46.8286006" lon="7.5316199"><ele>564.3</ele><time>2016-06-14T17:24:58Z</time></trkpt>
<trkpt lat="46.8283722" lon="7.5318722"><ele>568.7</ele><time>2016-06-14T17:25:14Z</time></trkpt>
<trkpt lat="46.8282789" lon="7.5318848"><ele>569.2</ele><time>2016-06-14T17:25:18Z</time></trkpt>
<trkpt lat="46.8280269" lon="7.5321555"><ele>572.9</ele><time>2016-06-14T17:25:37Z</time></trkpt>
<trkpt lat="46.8277817" lon="7.5322202"><ele>574.6</ele><time>2016-06-14T17:25:48Z</time></trkpt>
<trkpt lat="46.8277487" lon="7.5323402"><ele>575.4</ele><time>2016-06-14T17:25:52Z</time></trkpt>
<trkpt lat="46.8274955" lon="7.5325990"><ele>578.8</ele><time>2016-06-14T17:26:08Z</time></trkpt>
<trkpt lat="46.8270859" lon="7.5327940"><ele>583.0</ele><time>2016-06-14T17:26:31Z</time></trkpt>
<trkpt lat="46.8269877" lon="7.5334495"><ele>586.4</ele><time>2016-06-14T17:26:51Z</time></trkpt>
<trkpt lat="46.8269736" lon="7.5335645"><ele>587.5</ele><time>2016-06-14T17:26:58Z</time></trkpt>
<trkpt lat="46.8269228" lon="7.5335692"><ele>588.0</ele><time>2016-06-14T17:27:01Z</time></trkpt>
<trkpt lat="46.8269141" lon="7.5337959"><ele>588.5</ele><time>2016-06-14T17:27:04Z</time></trkpt>
<trkpt lat="46.8269207" lon="7.5338688"><ele>589.3</ele><time>2016-06-14T17:27:09Z</time></trkpt>
<trkpt lat="46.8268643" lon="7.5341293"><ele>589.7</ele><time>2016-06-14T17:27:12Z</time></trkpt>
<trkpt lat="46.8269034" lon="7.5342810"><ele>590.4</ele><time>2016-06-14T17:27:16Z</time></trkpt>
<trkpt lat="46.8270434" lon="7.5345471"><ele>590.6</ele><time>2016-06-14T17:27:17Z</time></trkpt>
<trkpt lat="46.8271049" lon="7.5344255"><ele>590.7</ele><time>2016-06-14T17:27:19Z</time></trkpt>
<trkpt lat="46.8271310" lon="7.5344995"><ele>590.7</ele><time>2016-06-14T17:27:20Z</time></trkpt>
<trkpt lat="46.8271783" lon="7.5344990"><ele>590.8</ele><time>2016-06-14T17:27:21Z</time></trkpt>
<trkpt lat="46.8272091" lon="7.5344270"><ele>590.8</ele><time>2016-06-14T17:27:22Z</time></trkpt>
<trkpt lat="46.8273011" lon="7.5343964"><ele>591.7</ele><time>2016-06-14T17:27:26Z</time></trkpt>
<trkpt lat="46.8277111" lon="7.5347032"><ele>593.6</ele><time>2016-06-14T17:27:42Z</time></trkpt>
<trkpt lat="46.8280372" lon="7.5349175"><ele>594.4</ele><time>2016-06-14T17:27:51Z</time></trkpt>
<trkpt lat="46.8282391" lon="7.5349058"><ele>594.7</ele><time>2016-06-14T17:27:55Z</time></trkpt>
<trkpt lat="46.8283462" lon="7.5350108"><ele>595.0</ele><time>2016-06-14T17:27:59Z</time></trkpt>
<trkpt lat="46.8283802" lon="7.5349931"><ele>595.1</ele><time>2016-06-14T17:28:00Z</time></trkpt>
<trkpt lat="46.8283921" lon="7.5350238"><ele>595.2</ele><time>2016-06-14T17:28:01Z</time></trkpt>
<trkpt lat="46.8288001" lon="7.5352999"><ele>597.5</ele><time>2016-06-14T17:28:20Z</time></trkpt>
<trkpt lat="46.8291319" lon="7.5357458"><ele>599.4</ele><time>2016-06-14T17:28:36Z</time></trkpt>
<trkpt lat="46.8293535" lon="7.5363530"><ele>598.7</ele><time>2016-06-14T17:28:49Z</time></trkpt>
<trkpt lat="46.8294543" lon="7.5365576"><ele>597.2</ele><time>2016-06-14T17:28:54Z</time></trkpt>
<trkpt lat="46.8295544" lon="7.5368078"><ele>596.7</ele><time>2016-06-14T17:28:56Z</time></trkpt>
<trkpt lat="46.8294837" lon="7.5370121"><ele>594.4</ele><time>2016-06-14T17:29:04Z</time></trkpt>
<trkpt lat="46.8292858" lon="7.5370371"><ele>594.9</ele><time>2016-06-14T17:29:05Z</time></trkpt>
<trkpt lat="46.8293120" lon="7.5370550"><ele>595.4</ele><time>2016-06-14T17:29:06Z</time></trkpt>
<trkpt lat="46.8294395" lon="7.5372124"><ele>596.5</ele><time>2016-06-14T17:29:08Z</time></trkpt>
<trkpt lat="46.8294129" lon="7.5372963"><ele>597.0</ele><time>2016-06-14T17:29:11Z</time></trkpt>
<trkpt lat="46.8293795" lon="7.5373271"><ele>597.1</ele><time>2016-06-14T17:29:12Z</time></trkpt>
<trkpt lat="46.8294864" lon="7.5372612"><ele>597.1</ele><time>2016-06-14T17:29:15Z</time></trkpt>
<trkpt lat="46.8294704" lon="7.5372217"><ele>597.2</ele><time>2016-06-14T17:29:17Z</time></trkpt>
<trkpt lat="46.8296045" lon="7.5369556"><ele>599.0</ele><time>2016-06-14T17:29:24Z</time></trkpt>
</trkseg>
<trkseg>
<trkpt lat="46.8296045" lon="7.5369556"><ele>599.0</ele><time>2016-06-14T17:30:16Z</time></trkpt>
<trkpt lat="46.8297514" lon="7.5366715"><ele>600.9</ele><time>2016-06-14T17:30:16Z</time></trkpt>
<trkpt lat="46.8294541" lon="7.5367990"><ele>598.1</ele><time>2016-06-14T17:34:22Z</time></trkpt>
</trkseg>
<trkseg>
<trkpt lat="46.8294541" lon="7.5367990"><ele>598.1</ele><time>2016-06-14T17:34:56Z</time></trkpt>
<trkpt lat="46.8293956" lon="7.5368931"><ele>599.7</ele><time>2016-06-14T17:35:07Z</time></trkpt>
</trkseg>
<trkseg>
<trkpt lat="46.8293956" lon="7.5368931"><ele>599.7</ele><time>2016-06-14T17:40:44Z</time></trkpt>
<trkpt lat="46.8293322" lon="7.5371994"><ele>601.5</ele><time>2016-06-14T17:40:46Z</time></trkpt>
<trkpt lat="46.8292694" lon="7.5373018"><ele>601.5</ele><time>2016-06-14T17:40:47Z</time></trkpt>
<trkpt lat="46.8292593" lon="7.5374227"><ele>601.5</ele><time>2016-06-14T17:40:48Z</time></trkpt>
<trkpt lat="46.8292015" lon="7.5375770"><ele>601.6</ele><time>2016-06-14T17:40:49Z</time></trkpt>
<trkpt lat="46.8291937" lon="7.5378542"><ele>601.6</ele><time>2016-06-14T17:40:52Z</time></trkpt>
<trkpt lat="46.8290653" lon="7.5381103"><ele>601.7</ele><time>2016-06-14T17:40:55Z</time></trkpt>
<trkpt lat="46.8290906" lon="7.5382132"><ele>601.7</ele><time>2016-06-14T17:40:56Z</time></trkpt>
<trkpt lat="46.8291345" lon="7.5381736"><ele>601.7</ele><time>2016-06-14T17:40:57Z</time></trkpt>
<trkpt lat="46.8291213" lon="7.5381245"><ele>601.7</ele><time>2016-06-14T17:40:58Z</time></trkpt>
<trkpt lat="46.8291795" lon="7.5381561"><ele>601.6</ele><time>2016-06-14T17:40:59Z</time></trkpt>
<trkpt lat="46.8291516" lon="7.5383130"><ele>601.6</ele><time>2016-06-14T17:41:00Z</time></trkpt>
<trkpt lat="46.8290519" lon="7.5385356"><ele>601.7</ele><time>2016-06-14T17:41:05Z</time></trkpt>
<trkpt lat="46.8290766" lon="7.5385157"><ele>601.8</ele><time>2016-06-14T17:41:06Z</time></trkpt>
<trkpt lat="46.8290189" lon="7.5387186"><ele>601.7</ele><time>2016-06-14T17:41:08Z</time></trkpt>
<trkpt lat="46.8289389" lon="7.5387462"><ele>601.5</ele><time>2016-06-14T17:41:10Z</time></trkpt>
<trkpt lat="46.8289714" lon="7.5387581"><ele>601.3</ele><time>2016-06-14T17:41:11Z</time></trkpt>
<trkpt lat="46.8289288" lon="7.5389043"><ele>600.8</ele><time>2016-06-14T17:41:16Z</time></trkpt>
<trkpt lat="46.8289840" lon="7.5389769"><ele>600.5</ele><time>2016-06-14T17:41:18Z</time></trkpt>
<trkpt lat="46.8294597" lon="7.5389093"><ele>600.6</ele><time>2016-06-14T17:41:28Z</time></trkpt>
<trkpt lat="46.8297742" lon="7.5384153"><ele>605.4</ele><time>2016-06-14T17:41:40Z</time></trkpt>
<trkpt lat="46.8300989" lon="7.5379193"><ele>607.2</ele><time>2016-06-14T17:42:01Z</time></trkpt>
<trkpt lat="46.8302283" lon="7.5377229"><ele>607.9</ele><time>2016-06-14T17:42:08Z</time></trkpt>
<trkpt lat="46.8303005" lon="7.5374728"><ele>607.9</ele><time>2016-06-14T17:42:18Z</time></trkpt>
<trkpt lat="46.8306636" lon="7.5370240"><ele>610.1</ele><time>2016-06-14T17:42:31Z</time></trkpt>
<trkpt lat="46.8308009" lon="7.5368214"><ele>610.4</ele><time>2016-06-14T17:42:34Z</time></trkpt>
<trkpt lat="46.8309816" lon="7.5366348"><ele>610.7</ele><time>2016-06-14T17:42:39Z</time></trkpt>
<trkpt lat="46.8312409" lon="7.5362716"><ele>611.3</ele><time>2016-06-14T17:42:46Z</time></trkpt>
<trkpt lat="46.8313985" lon="7.5362942"><ele>611.9</ele><time>2016-06-14T17:42:50Z</time></trkpt>
<trkpt lat="46.8315453" lon="7.5363300"><ele>612.4</ele><time>2016-06-14T17:42:53Z</time></trkpt>
<trkpt lat="46.8315424" lon="7.5363510"><ele>612.5</ele><time>2016-06-14T17:42:54Z</time></trkpt>
<trkpt lat="46.8319935" lon="7.5362675"><ele>615.2</ele><time>2016-06-14T17:43:08Z</time></trkpt>
<trkpt lat="46.8324562" lon="7.5364247"><ele>617.7</ele><time>2016-06-14T17:43:26Z</time></trkpt>
<trkpt lat="46.8329162" lon="7.5365595"><ele>622.4</ele><time>2016-06-14T17:43:46Z</time></trkpt>
<trkpt lat="46.8329670" lon="7.5372170"><ele>623.2</ele><time>2016-06-14T17:43:59Z</time></trkpt>
<trkpt lat="46.8330162" lon="7.5378815"><ele>621.7</ele><time>2016-06-14T17:44:11Z</time></trkpt>
<trkpt lat="46.8329233" lon="7.5384522"><ele>621.8</ele><time>2016-06-14T17:44:26Z</time></trkpt>
<trkpt lat="46.8329517" lon="7.5385142"><ele>622.2</ele><time>2016-06-14T17:44:27Z</time></trkpt>
<trkpt lat="46.8331551" lon="7.5386553"><ele>622.7</ele><time>2016-06-14T17:44:28Z</time></trkpt>
<trkpt lat="46.8332198" lon="7.5387482"><ele>623.5</ele><time>2016-06-14T17:44:30Z</time></trkpt>
<trkpt lat="46.8334726" lon="7.5391457"><ele>625.3</ele><time>2016-06-14T17:44:34Z</time></trkpt>
<trkpt lat="46.8335010" lon="7.5391366"><ele>625.7</ele><time>2016-06-14T17:44:35Z</time></trkpt>
<trkpt lat="46.8337360" lon="7.5397315"><ele>629.2</ele><time>2016-06-14T17:44:43Z</time></trkpt>
<trkpt lat="46.8337675" lon="7.5398475"><ele>629.5</ele><time>2016-06-14T17:44:46Z</time></trkpt>
<trkpt lat="46.8337059" lon="7.5398734"><ele>629.7</ele><time>2016-06-14T17:44:48Z</time></trkpt>
<trkpt lat="46.8339115" lon="7.5404633"><ele>631.3</ele><time>2016-06-14T17:44:57Z</time></trkpt>
<trkpt lat="46.8339240" lon="7.5405073"><ele>631.6</ele><time>2016-06-14T17:44:58Z</time></trkpt>
<trkpt lat="46.8337647" lon="7.5403693"><ele>630.6</ele><time>2016-06-14T17:45:04Z</time></trkpt>
<trkpt lat="46.8337658" lon="7.5403966"><ele>630.6</ele><time>2016-06-14T17:45:05Z</time></trkpt>
<trkpt lat="46.8341954" lon="7.5409086"><ele>630.7</ele><time>2016-06-14T17:45:08Z</time></trkpt>
<trkpt lat="46.8342118" lon="7.5409270"><ele>630.8</ele><time>2016-06-14T17:45:12Z</time></trkpt>
<trkpt lat="46.8341703" lon="7.5409821"><ele>630.9</ele><time>2016-06-14T17:45:15Z</time></trkpt>
<trkpt lat="46.8342033" lon="7.5410942"><ele>631.0</ele><time>2016-06-14T17:45:18Z</time></trkpt>
<trkpt lat="46.8343117" lon="7.5412492"><ele>630.9</ele><time>2016-06-14T17:45:20Z</time></trkpt>
<trkpt lat="46.8345083" lon="7.5414197"><ele>630.3</ele><time>2016-06-14T17:45:24Z</time></trkpt>
<trkpt lat="46.8345632" lon="7.5413996"><ele>630.2</ele><time>2016-06-14T17:45:25Z</time></trkpt>
<trkpt lat="46.8345988" lon="7.5414255"><ele>630.0</ele><time>2016-06-14T17:45:26Z</time></trkpt>
<trkpt lat="46.8347186" lon="7.5416551"><ele>629.7</ele><time>2016-06-14T17:45:28Z</time></trkpt>
<trkpt lat="46.8347222" lon="7.5417508"><ele>629.6</ele><time>2016-06-14T17:45:29Z</time></trkpt>
<trkpt lat="46.8347883" lon="7.5416883"><ele>629.4</ele><time>2016-06-14T17:45:30Z</time></trkpt>
<trkpt lat="46.8348957" lon="7.5417319"><ele>629.3</ele><time>2016-06-14T17:45:31Z</time></trkpt>
<trkpt lat="46.8349844" lon="7.5418473"><ele>629.1</ele><time>2016-06-14T17:45:32Z</time></trkpt>
<trkpt lat="46.8350714" lon="7.5418703"><ele>629.0</ele><time>2016-06-14T17:45:33Z</time></trkpt>
<trkpt lat="46.8351392" lon="7.5417603"><ele>628.9</ele><time>2016-06-14T17:45:35Z</time></trkpt>
<trkpt lat="46.8352038" lon="7.5418051"><ele>629.0</ele><time>2016-06-14T17:45:36Z</time></trkpt>
<trkpt lat="46.8351899" lon="7.5418817"><ele>629.1</ele><time>2016-06-14T17:45:37Z</time></trkpt>
<trkpt lat="46.8352654" lon="7.5420510"><ele>629.4</ele><time>2016-06-14T17:45:40Z</time></trkpt>
<trkpt lat="46.8353279" lon="7.5420803"><ele>629.5</ele><time>2016-06-14T17:45:41Z</time></trkpt>
<trkpt lat="46.8355121" lon="7.5423251"><ele>629.9</ele><time>2016-06-14T17:45:46Z</time></trkpt>
<trkpt lat="46.8357862" lon="7.5423459"><ele>630.1</ele><time>2016-06-14T17:45:52Z</time></trkpt>
<trkpt lat="46.8361245" lon="7.5422821"><ele>631.7</ele><time>2016-06-14T17:46:01Z</time></trkpt>
<trkpt lat="46.8361540" lon="7.5422524"><ele>632.1</ele><time>2016-06-14T17:46:02Z</time></trkpt>
<trkpt lat="46.8366083" lon="7.5423058"><ele>632.6</ele><time>2016-06-14T17:46:15Z</time></trkpt>
<trkpt lat="46.8370124" lon="7.5426577"><ele>633.8</ele><time>2016-06-14T17:46:27Z</time></trkpt>
<trkpt lat="46.8372532" lon="7.5428178"><ele>634.6</ele><time>2016-06-14T17:46:33Z</time></trkpt>
<trkpt lat="46.8374065" lon="7.5430085"><ele>635.0</ele><time>2016-06-14T17:46:36Z</time></trkpt>
<trkpt lat="46.8375780" lon="7.5430966"><ele>635.6</ele><time>2016-06-14T17:46:40Z</time></trkpt>
<trkpt lat="46.8376000" lon="7.5431325"><ele>635.6</ele><time>2016-06-14T17:46:41Z</time></trkpt>
<trkpt lat="46.8376282" lon="7.5432037"><ele>635.7</ele><time>2016-06-14T17:46:42Z</time></trkpt>
<trkpt lat="46.8376820" lon="7.5432775"><ele>636.0</ele><time>2016-06-14T17:46:45Z</time></trkpt>
<trkpt lat="46.8378044" lon="7.5433517"><ele>636.5</ele><time>2016-06-14T17:46:47Z</time></trkpt>
<trkpt lat="46.8379360" lon="7.5434475"><ele>637.8</ele><time>2016-06-14T17:46:50Z</time></trkpt>
<trkpt lat="46.8379429" lon="7.5434280"><ele>638.3</ele><time>2016-06-14T17:46:51Z</time></trkpt>
<trkpt lat="46.8380043" lon="7.5434912"><ele>639.2</ele><time>2016-06-14T17:46:53Z</time></trkpt>
<trkpt lat="46.8380293" lon="7.5434722"><ele>639.6</ele><time>2016-06-14T17:46:54Z</time></trkpt>
<trkpt lat="46.8384105" lon="7.5438274"><ele>643.2</ele><time>2016-06-14T17:47:11Z</time></trkpt>
<trkpt lat="46.8387154" lon="7.5441234"><ele>644.2</ele><time>2016-06-14T17:47:29Z</time></trkpt>
<trkpt lat="46.8388974" lon="7.5443935"><ele>643.2</ele><time>2016-06-14T17:47:36Z</time></trkpt>
<trkpt lat="46.8389730" lon="7.5446977"><ele>643.0</ele><time>2016-06-14T17:47:37Z</time></trkpt>
<trkpt lat="46.8390335" lon="7.5447660"><ele>642.7</ele><time>2016-06-14T17:47:39Z</time></trkpt>
<trkpt lat="46.8389415" lon="7.5447811"><ele>642.6</ele><time>2016-06-14T17:47:40Z</time></trkpt>
<trkpt lat="46.8391920" lon="7.5451695"><ele>642.0</ele><time>2016-06-14T17:47:42Z</time></trkpt>
<trkpt lat="46.8391656" lon="7.5452017"><ele>641.3</ele><time>2016-06-14T17:47:44Z</time></trkpt>
<trkpt lat="46.8392334" lon="7.5453623"><ele>641.0</ele><time>2016-06-14T17:47:45Z</time></trkpt>
<trkpt lat="46.8393392" lon="7.5455317"><ele>641.3</ele><time>2016-06-14T17:47:48Z</time></trkpt>
<trkpt lat="46.8394322" lon="7.5456127"><ele>641.9</ele><time>2016-06-14T17:47:50Z</time></trkpt>
<trkpt lat="46.8394713" lon="7.5456901"><ele>642.2</ele><time>2016-06-14T17:47:51Z</time></trkpt>
<trkpt lat="46.8394608" lon="7.5457607"><ele>641.9</ele><time>2016-06-14T17:47:52Z</time></trkpt>
<trkpt lat="46.8395247" lon="7.5457916"><ele>641.7</ele><time>2016-06-14T17:47:53Z</time></trkpt>
<trkpt lat="46.8395926" lon="7.5459455"><ele>640.9</ele><time>2016-06-14T17:47:56Z</time></trkpt>
<trkpt lat="46.8394955" lon="7.5460529"><ele>640.5</ele><time>2016-06-14T17:47:58Z</time></trkpt>
<trkpt lat="46.8394843" lon="7.5461529"><ele>640.2</ele><time>2016-06-14T17:47:59Z</time></trkpt>
<trkpt lat="46.8395517" lon="7.5461751"><ele>640.0</ele><time>2016-06-14T17:48:00Z</time></trkpt>
<trkpt lat="46.8397859" lon="7.5468831"><ele>639.1</ele><time>2016-06-14T17:48:04Z</time></trkpt>
<trkpt lat="46.8400134" lon="7.5471589"><ele>638.4</ele><time>2016-06-14T17:48:09Z</time></trkpt>
<trkpt lat="46.8401758" lon="7.5471071"><ele>638.9</ele><time>2016-06-14T17:48:12Z</time></trkpt>
<trkpt lat="46.8405711" lon="7.5474285"><ele>639.0</ele><time>2016-06-14T17:48:18Z</time></trkpt>
<trkpt lat="46.8406975" lon="7.5475187"><ele>639.0</ele><time>2016-06-14T17:48:20Z</time></trkpt>
<trkpt lat="46.8408507" lon="7.5475335"><ele>639.0</ele><time>2016-06-14T17:48:23Z</time></trkpt>
<trkpt lat="46.8409776" lon="7.5475989"><ele>639.0</ele><time>2016-06-14T17:48:26Z</time></trkpt>
<trkpt lat="46.8410803" lon="7.5475739"><ele>639.0</ele><time>2016-06-14T17:48:28Z</time></trkpt>
<trkpt lat="46.8415366" lon="7.5475475"><ele>639.0</ele><time>2016-06-14T17:48:37Z</time></trkpt>
<trkpt lat="46.8417120" lon="7.5475751"><ele>639.0</ele><time>2016-06-14T17:48:40Z</time></trkpt>
<trkpt lat="46.8418653" lon="7.5478048"><ele>639.0</ele><time>2016-06-14T17:48:45Z</time></trkpt>
<trkpt lat="46.8418749" lon="7.5478779"><ele>638.9</ele><time>2016-06-14T17:48:46Z</time></trkpt>
<trkpt lat="46.8419427" lon="7.5478373"><ele>638.9</ele><time>2016-06-14T17:48:47Z</time></trkpt>
<trkpt lat="46.8420990" lon="7.5479317"><ele>638.9</ele><time>2016-06-14T17:48:49Z</time></trkpt>
<trkpt lat="46.8421399" lon="7.5479953"><ele>638.9</ele><time>2016-06-14T17:48:50Z</time></trkpt>
<trkpt lat="46.8421083" lon="7.5480201"><ele>638.9</ele><time>2016-06-14T17:48:51Z</time></trkpt>
<trkpt lat="46.8421944" lon="7.5481622"><ele>638.9</ele><time>2016-06-14T17:48:53Z</time></trkpt>
<trkpt lat="46.8421825" lon="7.5482361"><ele>638.9</ele><time>2016-06-14T17:48:54Z</time></trkpt>
<trkpt lat="46.8422765" lon="7.5489016"><ele>638.7</ele><time>2016-06-14T17:48:57Z</time></trkpt>
<trkpt lat="46.8422520" lon="7.5492399"><ele>637.6</ele><time>2016-06-14T17:49:02Z</time></trkpt>
<trkpt lat="46.8423699" lon="7.5495939"><ele>637.1</ele><time>2016-06-14T17:49:05Z</time></trkpt>
<trkpt lat="46.8424079" lon="7.5496182"><ele>636.4</ele><time>2016-06-14T17:49:10Z</time></trkpt>
<trkpt lat="46.8425046" lon="7.5495625"><ele>636.1</ele><time>2016-06-14T17:49:12Z</time></trkpt>
<trkpt lat="46.8428850" lon="7.5496427"><ele>635.5</ele><time>2016-06-14T17:49:17Z</time></trkpt>
<trkpt lat="46.8429479" lon="7.5496186"><ele>635.4</ele><time>2016-06-14T17:49:18Z</time></trkpt>
<trkpt lat="46.8430356" lon="7.5496415"><ele>635.3</ele><time>2016-06-14T17:49:19Z</time></trkpt>
<trkpt lat="46.8430618" lon="7.5496895"><ele>635.2</ele><time>2016-06-14T17:49:20Z</time></trkpt>
<trkpt lat="46.8431698" lon="7.5496988"><ele>635.0</ele><time>2016-06-14T17:49:21Z</time></trkpt>
<trkpt lat="46.8432377" lon="7.5497459"><ele>634.9</ele><time>2016-06-14T17:49:22Z</time></trkpt>
<trkpt lat="46.8434320" lon="7.5497498"><ele>634.7</ele><time>2016-06-14T17:49:24Z</time></trkpt>
<trkpt lat="46.8436005" lon="7.5498456"><ele>634.2</ele><time>2016-06-14T17:49:26Z</time></trkpt>
<trkpt lat="46.8437136" lon="7.5498398"><ele>633.8</ele><time>2016-06-14T17:49:27Z</time></trkpt>
<trkpt lat="46.8437879" lon="7.5498701"><ele>633.5</ele><time>2016-06-14T17:49:28Z</time></trkpt>
<trkpt lat="46.8439375" lon="7.5498844"><ele>632.7</ele><time>2016-06-14T17:49:30Z</time></trkpt>
<trkpt lat="46.8442361" lon="7.5499851"><ele>632.5</ele><time>2016-06-14T17:49:34Z</time></trkpt>
<trkpt lat="46.8447193" lon="7.5500476"><ele>632.1</ele><time>2016-06-14T17:49:40Z</time></trkpt>
<trkpt lat="46.8448454" lon="7.5501121"><ele>631.6</ele><time>2016-06-14T17:49:42Z</time></trkpt>
<trkpt lat="46.8449843" lon="7.5502139"><ele>630.3</ele><time>2016-06-14T17:49:45Z</time></trkpt>
<trkpt lat="46.8450412" lon="7.5501819"><ele>629.9</ele><time>2016-06-14T17:49:46Z</time></trkpt>
<trkpt lat="46.8451059" lon="7.5502173"><ele>629.9</ele><time>2016-06-14T17:49:47Z</time></trkpt>
<trkpt lat="46.8454910" lon="7.5502088"><ele>629.8</ele><time>2016-06-14T17:49:52Z</time></trkpt>
<trkpt lat="46.8456235" lon="7.5502600"><ele>629.5</ele><time>2016-06-14T17:49:54Z</time></trkpt>
<trkpt lat="46.8458594" lon="7.5504587"><ele>628.9</ele><time>2016-06-14T17:49:58Z</time></trkpt>
<trkpt lat="46.8459402" lon="7.5504782"><ele>628.7</ele><time>2016-06-14T17:49:59Z</time></trkpt>
<trkpt lat="46.8460653" lon="7.5505935"><ele>628.2</ele><time>2016-06-14T17:50:01Z</time></trkpt>
<trkpt lat="46.8462233" lon="7.5506650"><ele>627.8</ele><time>2016-06-14T17:50:03Z</time></trkpt>
<trkpt lat="46.8466364" lon="7.5510131"><ele>627.3</ele><time>2016-06-14T17:50:09Z</time></trkpt>
<trkpt lat="46.8468809" lon="7.5510660"><ele>627.1</ele><time>2016-06-14T17:50:12Z</time></trkpt>
<trkpt lat="46.8470758" lon="7.5510144"><ele>626.9</ele><time>2016-06-14T17:50:14Z</time></trkpt>
<trkpt lat="46.8472003" lon="7.5510433"><ele>626.7</ele><time>2016-06-14T17:50:16Z</time></trkpt>
<trkpt lat="46.8473246" lon="7.5511074"><ele>626.5</ele><time>2016-06-14T17:50:18Z</time></trkpt>
<trkpt lat="46.8475313" lon="7.5510641"><ele>626.2</ele><time>2016-06-14T17:50:21Z</time></trkpt>
<trkpt lat="46.8480048" lon="7.5510738"><ele>625.3</ele><time>2016-06-14T17:50:29Z</time></trkpt>
<trkpt lat="46.8485070" lon="7.5510369"><ele>624.1</ele><time>2016-06-14T17:50:36Z</time></trkpt>
<trkpt lat="46.8489451" lon="7.5509928"><ele>622.7</ele><time>2016-06-14T17:50:42Z</time></trkpt>
<trkpt lat="46.8490993" lon="7.5510111"><ele>622.2</ele><time>2016-06-14T17:50:44Z</time></trkpt>
<trkpt lat="46.8491373" lon="7.5509734"><ele>622.1</ele><time>2016-06-14T17:50:46Z</time></trkpt>
<trkpt lat="46.8495955" lon="7.5508288"><ele>622.2</ele><time>2016-06-14T17:50:52Z</time></trkpt>
<trkpt lat="46.8499027" lon="7.5506086"><ele>622.3</ele><time>2016-06-14T17:50:57Z</time></trkpt>
<trkpt lat="46.8500941" lon="7.5504244"><ele>621.9</ele><time>2016-06-14T17:51:01Z</time></trkpt>
<trkpt lat="46.8504021" lon="7.5503739"><ele>621.4</ele><time>2016-06-14T17:51:06Z</time></trkpt>
<trkpt lat="46.8508256" lon="7.5501728"><ele>620.7</ele><time>2016-06-14T17:51:12Z</time></trkpt>
<trkpt lat="46.8509055" lon="7.5501821"><ele>620.4</ele><time>2016-06-14T17:51:13Z</time></trkpt>
<trkpt lat="46.8512375" lon="7.5500544"><ele>619.5</ele><time>2016-06-14T17:51:17Z</time></trkpt>
<trkpt lat="46.8515656" lon="7.5500255"><ele>620.1</ele><time>2016-06-14T17:51:23Z</time></trkpt>
<trkpt lat="46.8517370" lon="7.5499655"><ele>620.6</ele><time>2016-06-14T17:51:26Z</time></trkpt>
<trkpt lat="46.8517746" lon="7.5499745"><ele>621.0</ele><time>2016-06-14T17:51:28Z</time></trkpt>
<trkpt lat="46.8518541" lon="7.5499290"><ele>621.7</ele><time>2016-06-14T17:51:31Z</time></trkpt>
<trkpt lat="46.8519767" lon="7.5499321"><ele>622.3</ele><time>2016-06-14T17:51:34Z</time></trkpt>
<trkpt lat="46.8522727" lon="7.5498541"><ele>624.0</ele><time>2016-06-14T17:51:42Z</time></trkpt>
<trkpt lat="46.8524644" lon="7.5494488"><ele>628.6</ele><time>2016-06-14T17:51:53Z</time></trkpt>
<trkpt lat="46.8525166" lon="7.5491520"><ele>630.8</ele><time>2016-06-14T17:52:00Z</time></trkpt>
<trkpt lat="46.8528723" lon="7.5487324"><ele>633.8</ele><time>2016-06-14T17:52:17Z</time></trkpt>
<trkpt lat="46.8532987" lon="7.5484049"><ele>632.2</ele><time>2016-06-14T17:52:38Z</time></trkpt>
<trkpt lat="46.8536281" lon="7.5483159"><ele>631.5</ele><time>2016-06-14T17:52:49Z</time></trkpt>
<trkpt lat="46.8540984" lon="7.5483929"><ele>633.2</ele><time>2016-06-14T17:52:58Z</time></trkpt>
<trkpt lat="46.8543131" lon="7.5483642"><ele>633.2</ele><time>2016-06-14T17:53:02Z</time></trkpt>
<trkpt lat="46.8543699" lon="7.5483077"><ele>633.3</ele><time>2016-06-14T17:53:03Z</time></trkpt>
<trkpt lat="46.8543951" lon="7.5483350"><ele>633.3</ele><time>2016-06-14T17:53:04Z</time></trkpt>
<trkpt lat="46.8545576" lon="7.5483261"><ele>633.6</ele><time>2016-06-14T17:53:07Z</time></trkpt>
<trkpt lat="46.8550010" lon="7.5481304"><ele>635.3</ele><time>2016-06-14T17:53:18Z</time></trkpt>
<trkpt lat="46.8554412" lon="7.5479202"><ele>637.9</ele><time>2016-06-14T17:53:31Z</time></trkpt>
<trkpt lat="46.8558822" lon="7.5477039"><ele>638.9</ele><time>2016-06-14T17:53:48Z</time></trkpt>
<trkpt lat="46.8563169" lon="7.5473941"><ele>640.5</ele><time>2016-06-14T17:54:04Z</time></trkpt>
<trkpt lat="46.8567493" lon="7.5472079"><ele>644.3</ele><time>2016-06-14T17:54:19Z</time></trkpt>
<trkpt lat="46.8573137" lon="7.5472166"><ele>643.5</ele><time>2016-06-14T17:54:32Z</time></trkpt>
<trkpt lat="46.8575443" lon="7.5470856"><ele>643.3</ele><time>2016-06-14T17:54:37Z</time></trkpt>
<trkpt lat="46.8575966" lon="7.5471171"><ele>643.2</ele><time>2016-06-14T17:54:38Z</time></trkpt>
<trkpt lat="46.8576869" lon="7.5470931"><ele>643.2</ele><time>2016-06-14T17:54:40Z</time></trkpt>
<trkpt lat="46.8578192" lon="7.5470123"><ele>643.1</ele><time>2016-06-14T17:54:42Z</time></trkpt>
<trkpt lat="46.8579910" lon="7.5469630"><ele>643.0</ele><time>2016-06-14T17:54:45Z</time></trkpt>
<trkpt lat="46.8582958" lon="7.5467038"><ele>643.8</ele><time>2016-06-14T17:54:51Z</time></trkpt>
<trkpt lat="46.8584046" lon="7.5465596"><ele>643.5</ele><time>2016-06-14T17:54:53Z</time></trkpt>
<trkpt lat="46.8585610" lon="7.5462946"><ele>643.0</ele><time>2016-06-14T17:54:56Z</time></trkpt>
<trkpt lat="46.8587465" lon="7.5462329"><ele>642.7</ele><time>2016-06-14T17:54:58Z</time></trkpt>
<trkpt lat="46.8590154" lon="7.5463383"><ele>641.8</ele><time>2016-06-14T17:55:03Z</time></trkpt>
<trkpt lat="46.8590870" lon="7.5463090"><ele>641.5</ele><time>2016-06-14T17:55:04Z</time></trkpt>
<trkpt lat="46.8591433" lon="7.5463223"><ele>641.3</ele><time>2016-06-14T17:55:05Z</time></trkpt>
<trkpt lat="46.8594032" lon="7.5462347"><ele>640.0</ele><time>2016-06-14T17:55:10Z</time></trkpt>
<trkpt lat="46.8596363" lon="7.5462781"><ele>639.2</ele><time>2016-06-14T17:55:13Z</time></trkpt>
<trkpt lat="46.8600410" lon="7.5462200"><ele>636.3</ele><time>2016-06-14T17:55:17Z</time></trkpt>
<trkpt lat="46.8602974" lon="7.5460672"><ele>634.2</ele><time>2016-06-14T17:55:20Z</time></trkpt>
<trkpt lat="46.8604031" lon="7.5460393"><ele>633.5</ele><time>2016-06-14T17:55:21Z</time></trkpt>
<trkpt lat="46.8606796" lon="7.5460874"><ele>632.3</ele><time>2016-06-14T17:55:24Z</time></trkpt>
<trkpt lat="46.8610449" lon="7.5460105"><ele>633.2</ele><time>2016-06-14T17:55:29Z</time></trkpt>
<trkpt lat="46.8612530" lon="7.5459008"><ele>633.8</ele><time>2016-06-14T17:55:32Z</time></trkpt>
<trkpt lat="46.8612716" lon="7.5458349"><ele>634.0</ele><time>2016-06-14T17:55:33Z</time></trkpt>
<trkpt lat="46.8615563" lon="7.5455945"><ele>633.0</ele><time>2016-06-14T17:55:38Z</time></trkpt>
<trkpt lat="46.8617462" lon="7.5455245"><ele>632.2</ele><time>2016-06-14T17:55:41Z</time></trkpt>
<trkpt lat="46.8619418" lon="7.5453424"><ele>631.7</ele><time>2016-06-14T17:55:43Z</time></trkpt>
<trkpt lat="46.8621014" lon="7.5453008"><ele>630.9</ele><time>2016-06-14T17:55:45Z</time></trkpt>
<trkpt lat="46.8621474" lon="7.5452581"><ele>630.5</ele><time>2016-06-14T17:55:46Z</time></trkpt>
<trkpt lat="46.8623770" lon="7.5451886"><ele>629.1</ele><time>2016-06-14T17:55:49Z</time></trkpt>
<trkpt lat="46.8625280" lon="7.5451965"><ele>628.2</ele><time>2016-06-14T17:55:51Z</time></trkpt>
<trkpt lat="46.8627829" lon="7.5451042"><ele>626.9</ele><time>2016-06-14T17:55:54Z</time></trkpt>
<trkpt lat="46.8628486" lon="7.5451125"><ele>626.4</ele><time>2016-06-14T17:55:55Z</time></trkpt>
<trkpt lat="46.8630057" lon="7.5450274"><ele>625.4</ele><time>2016-06-14T17:55:57Z</time></trkpt>
<trkpt lat="46.8632160" lon="7.5446417"><ele>623.1</ele><time>2016-06-14T17:56:01Z</time></trkpt>
<trkpt lat="46.8633689" lon="7.5444666"><ele>621.4</ele><time>2016-06-14T17:56:04Z</time></trkpt>
<trkpt lat="46.8634634" lon="7.5446119"><ele>620.9</ele><time>2016-06-14T17:56:05Z</time></trkpt>
<trkpt lat="46.8636772" lon="7.5446738"><ele>619.7</ele><time>2016-06-14T17:56:07Z</time></trkpt>
<trkpt lat="46.8638681" lon="7.5446845"><ele>618.6</ele><time>2016-06-14T17:56:09Z</time></trkpt>
<trkpt lat="46.8639629" lon="7.5445622"><ele>616.9</ele><time>2016-06-14T17:56:12Z</time></trkpt>
<trkpt lat="46.8641179" lon="7.5445965"><ele>615.3</ele><time>2016-06-14T17:56:15Z</time></trkpt>
<trkpt lat="46.8641410" lon="7.5447194"><ele>614.1</ele><time>2016-06-14T17:56:17Z</time></trkpt>
<trkpt lat="46.8639379" lon="7.5453163"><ele>612.2</ele><time>2016-06-14T17:56:24Z</time></trkpt>
<trkpt lat="46.8640757" lon="7.5455844"><ele>612.0</ele><time>2016-06-14T17:56:25Z</time></trkpt>
<trkpt lat="46.8640923" lon="7.5457121"><ele>611.8</ele><time>2016-06-14T17:56:26Z</time></trkpt>
<trkpt lat="46.8640661" lon="7.5458156"><ele>611.6</ele><time>2016-06-14T17:56:27Z</time></trkpt>
<trkpt lat="46.8641065" lon="7.5465305"><ele>612.6</ele><time>2016-06-14T17:56:33Z</time></trkpt>
<trkpt lat="46.8638502" lon="7.5466847"><ele>613.6</ele><time>2016-06-14T17:56:35Z</time></trkpt>
<trkpt lat="46.8637810" lon="7.5467640"><ele>614.1</ele><time>2016-06-14T17:56:36Z</time></trkpt>
<trkpt lat="46.8637267" lon="7.5469108"><ele>614.6</ele><time>2016-06-14T17:56:37Z</time></trkpt>
<trkpt lat="46.8636311" lon="7.5469116"><ele>615.1</ele><time>2016-06-14T17:56:38Z</time></trkpt>
<trkpt lat="46.8633045" lon="7.5472514"><ele>616.5</ele><time>2016-06-14T17:56:42Z</time></trkpt>
<trkpt lat="46.8631723" lon="7.5473271"><ele>616.3</ele><time>2016-06-14T17:56:45Z</time></trkpt>
<trkpt lat="46.8631800" lon="7.5472716"><ele>616.2</ele><time>2016-06-14T17:56:46Z</time></trkpt>
<trkpt lat="46.8631596" lon="7.5473491"><ele>616.2</ele><time>2016-06-14T17:56:47Z</time></trkpt>
<trkpt lat="46.8631016" lon="7.5473850"><ele>616.0</ele><time>2016-06-14T17:56:49Z</time></trkpt>
<trkpt lat="46.8633687" lon="7.5475912"><ele>615.8</ele><time>2016-06-14T17:56:52Z</time></trkpt>
<trkpt lat="46.8633848" lon="7.5475009"><ele>616.3</ele><time>2016-06-14T17:56:56Z</time></trkpt>
<trkpt lat="46.8635539" lon="7.5475254"><ele>616.6</ele><time>2016-06-14T17:56:59Z</time></trkpt>
<trkpt lat="46.8638411" lon="7.5473596"><ele>617.0</ele><time>2016-06-14T17:57:02Z</time></trkpt>
<trkpt lat="46.8638880" lon="7.5473819"><ele>617.1</ele><time>2016-06-14T17:57:03Z</time></trkpt>
<trkpt lat="46.8641330" lon="7.5471737"><ele>617.4</ele><time>2016-06-14T17:57:06Z</time></trkpt>
<trkpt lat="46.8642178" lon="7.5471705"><ele>617.5</ele><time>2016-06-14T17:57:07Z</time></trkpt>
<trkpt lat="46.8644249" lon="7.5470503"><ele>617.7</ele><time>2016-06-14T17:57:09Z</time></trkpt>
<trkpt lat="46.8645945" lon="7.5468905"><ele>617.5</ele><time>2016-06-14T17:57:11Z</time></trkpt>
<trkpt lat="46.8646016" lon="7.5468362"><ele>617.1</ele><time>2016-06-14T17:57:12Z</time></trkpt>
<trkpt lat="46.8647440" lon="7.5467322"><ele>616.4</ele><time>2016-06-14T17:57:14Z</time></trkpt>
<trkpt lat="46.8650200" lon="7.5462997"><ele>615.6</ele><time>2016-06-14T17:57:18Z</time></trkpt>
<trkpt lat="46.8652506" lon="7.5461042"><ele>615.4</ele><time>2016-06-14T17:57:21Z</time></trkpt>
<trkpt lat="46.8653125" lon="7.5460185"><ele>615.3</ele><time>2016-06-14T17:57:22Z</time></trkpt>
<trkpt lat="46.8657887" lon="7.5457728"><ele>614.8</ele><time>2016-06-14T17:57:25Z</time></trkpt>
<trkpt lat="46.8660340" lon="7.5454980"><ele>612.9</ele><time>2016-06-14T17:57:29Z</time></trkpt>
<trkpt lat="46.8664585" lon="7.5452603"><ele>610.1</ele><time>2016-06-14T17:57:35Z</time></trkpt>
<trkpt lat="46.8666780" lon="7.5449931"><ele>609.1</ele><time>2016-06-14T17:57:38Z</time></trkpt>
<trkpt lat="46.8667443" lon="7.5449613"><ele>608.7</ele><time>2016-06-14T17:57:39Z</time></trkpt>
<trkpt lat="46.8667634" lon="7.5449085"><ele>608.3</ele><time>2016-06-14T17:57:40Z</time></trkpt>
<trkpt lat="46.8669167" lon="7.5449104"><ele>608.0</ele><time>2016-06-14T17:57:41Z</time></trkpt>
<trkpt lat="46.8671559" lon="7.5449482"><ele>606.6</ele><time>2016-06-14T17:57:48Z</time></trkpt>
<trkpt lat="46.8673284" lon="7.5448955"><ele>595.6</ele><time>2016-06-14T17:57:51Z</time></trkpt>
<trkpt lat="46.8674294" lon="7.5447974"><ele>591.9</ele><time>2016-06-14T17:57:52Z</time></trkpt>
<trkpt lat="46.8676713" lon="7.5447541"><ele>577.2</ele><time>2016-06-14T17:57:56Z</time></trkpt>
<trkpt lat="46.8677993" lon="7.5446186"><ele>569.8</ele><time>2016-06-14T17:57:58Z</time></trkpt>
<trkpt lat="46.8678306" lon="7.5446198"><ele>566.1</ele><time>2016-06-14T17:57:59Z</time></trkpt>
<trkpt lat="46.8677510" lon="7.5445375"><ele>562.4</ele><time>2016-06-14T17:58:00Z</time></trkpt>
<trkpt lat="46.8677185" lon="7.5444458"><ele>558.8</ele><time>2016-06-14T17:58:01Z</time></trkpt>
<trkpt lat="46.8675960" lon="7.5444930"><ele>555.1</ele><time>2016-06-14T17:58:02Z</time></trkpt>
<trkpt lat="46.8676464" lon="7.5444338"><ele>547.7</ele><time>2016-06-14T17:58:04Z</time></trkpt>
<trkpt lat="46.8674014" lon="7.5442617"><ele>544.8</ele><time>2016-06-14T17:58:06Z</time></trkpt>
<trkpt lat="46.8672500" lon="7.5445930"><ele>545.6</ele><time>2016-06-14T17:58:07Z</time></trkpt>
<trkpt lat="46.8671745" lon="7.5446867"><ele>546.3</ele><time>2016-06-14T17:58:08Z</time></trkpt>
<trkpt lat="46.8670338" lon="7.5449710"><ele>548.6</ele><time>2016-06-14T17:58:11Z</time></trkpt>
<trkpt lat="46.8668133" lon="7.5452233"><ele>545.8</ele><time>2016-06-14T17:58:13Z</time></trkpt>
<trkpt lat="46.8666875" lon="7.5455570"><ele>541.7</ele><time>2016-06-14T17:58:16Z</time></trkpt>
<trkpt lat="46.8666584" lon="7.5455570"><ele>540.3</ele><time>2016-06-14T17:58:17Z</time></trkpt>
<trkpt lat="46.8666738" lon="7.5458073"><ele>535.7</ele><time>2016-06-14T17:58:20Z</time></trkpt>
<trkpt lat="46.8666520" lon="7.5458577"><ele>534.1</ele><time>2016-06-14T17:58:21Z</time></trkpt>
<trkpt lat="46.8667440" lon="7.5460352"><ele>530.2</ele><time>2016-06-14T17:58:24Z</time></trkpt>
<trkpt lat="46.8667219" lon="7.5460662"><ele>529.4</ele><time>2016-06-14T17:58:25Z</time></trkpt>
<trkpt lat="46.8667713" lon="7.5463094"><ele>528.5</ele><time>2016-06-14T17:58:26Z</time></trkpt>
<trkpt lat="46.8668785" lon="7.5464728"><ele>526.0</ele><time>2016-06-14T17:58:29Z</time></trkpt>
<trkpt lat="46.8668382" lon="7.5465434"><ele>526.2</ele><time>2016-06-14T17:58:30Z</time></trkpt>
<trkpt lat="46.8668215" lon="7.5466767"><ele>526.6</ele><time>2016-06-14T17:58:32Z</time></trkpt>
<trkpt lat="46.8667778" lon="7.5468887"><ele>528.3</ele><time>2016-06-14T17:58:40Z</time></trkpt>
<trkpt lat="46.8666220" lon="7.5469070"><ele>528.4</ele><time>2016-06-14T17:58:43Z</time></trkpt>
<trkpt lat="46.8665765" lon="7.5469816"><ele>528.4</ele><time>2016-06-14T17:58:44Z</time></trkpt>
<trkpt lat="46.8664624" lon="7.5475692"><ele>529.6</ele><time>2016-06-14T17:58:56Z</time></trkpt>
<trkpt lat="46.8664665" lon="7.5476642"><ele>529.7</ele><time>2016-06-14T17:58:57Z</time></trkpt>
<trkpt lat="46.8664457" lon="7.5476935"><ele>529.6</ele><time>2016-06-14T17:58:58Z</time></trkpt>
<trkpt lat="46.8663411" lon="7.5477779"><ele>528.7</ele><time>2016-06-14T17:59:04Z</time></trkpt>
<trkpt lat="46.8662807" lon="7.5479817"><ele>528.8</ele><time>2016-06-14T17:59:09Z</time></trkpt>
<trkpt lat="46.8664035" lon="7.5486490"><ele>529.7</ele><time>2016-06-14T17:59:19Z</time></trkpt>
<trkpt lat="46.8665229" lon="7.5493209"><ele>530.4</ele><time>2016-06-14T17:59:27Z</time></trkpt>
<trkpt lat="46.8665241" lon="7.5495519"><ele>530.7</ele><time>2016-06-14T17:59:30Z</time></trkpt>
<trkpt lat="46.8664230" lon="7.5496382"><ele>530.4</ele><time>2016-06-14T17:59:32Z</time></trkpt>
<trkpt lat="46.8664778" lon="7.5497877"><ele>530.0</ele><time>2016-06-14T17:59:33Z</time></trkpt>
<trkpt lat="46.8664603" lon="7.5499210"><ele>528.9</ele><time>2016-06-14T17:59:36Z</time></trkpt>
<trkpt lat="46.8665822" lon="7.5501553"><ele>528.5</ele><time>2016-06-14T17:59:37Z</time></trkpt>
<trkpt lat="46.8669749" lon="7.5504629"><ele>527.1</ele><time>2016-06-14T17:59:40Z</time></trkpt>
<trkpt lat="46.8670333" lon="7.5504726"><ele>526.6</ele><time>2016-06-14T17:59:41Z</time></trkpt>
<trkpt lat="46.8671305" lon="7.5504353"><ele>526.1</ele><time>2016-06-14T17:59:43Z</time></trkpt>
<trkpt lat="46.8671833" lon="7.5504607"><ele>526.0</ele><time>2016-06-14T17:59:44Z</time></trkpt>
<trkpt lat="46.8673693" lon="7.5507463"><ele>525.6</ele><time>2016-06-14T17:59:48Z</time></trkpt>
<trkpt lat="46.8674784" lon="7.5507352"><ele>525.5</ele><time>2016-06-14T17:59:50Z</time></trkpt>
<trkpt lat="46.8675674" lon="7.5506805"><ele>525.4</ele><time>2016-06-14T17:59:51Z</time></trkpt>
<trkpt lat="46.8677259" lon="7.5506415"><ele>525.3</ele><time>2016-06-14T17:59:52Z</time></trkpt>
<trkpt lat="46.8677485" lon="7.5506625"><ele>525.1</ele><time>2016-06-14T17:59:54Z</time></trkpt>
<trkpt lat="46.8678656" lon="7.5506129"><ele>524.8</ele><time>2016-06-14T17:59:56Z</time></trkpt>
<trkpt lat="46.8679500" lon="7.5504902"><ele>524.5</ele><time>2016-06-14T17:59:58Z</time></trkpt>
<trkpt lat="46.8683659" lon="7.5503222"><ele>523.7</ele><time>2016-06-14T18:00:03Z</time></trkpt>
<trkpt lat="46.8683703" lon="7.5503609"><ele>523.6</ele><time>2016-06-14T18:00:04Z</time></trkpt>
<trkpt lat="46.8684474" lon="7.5503421"><ele>523.7</ele><time>2016-06-14T18:00:05Z</time></trkpt>
<trkpt lat="46.8685597" lon="7.5502949"><ele>523.8</ele><time>2016-06-14T18:00:06Z</time></trkpt>
<trkpt lat="46.8688361" lon="7.5500294"><ele>524.6</ele><time>2016-06-14T18:00:15Z</time></trkpt>
<trkpt lat="46.8690257" lon="7.5496635"><ele>525.3</ele><time>2016-06-14T18:00:21Z</time></trkpt>
<trkpt lat="46.8692494" lon="7.5493364"><ele>524.0</ele><time>2016-06-14T18:00:26Z</time></trkpt>
<trkpt lat="46.8692103" lon="7.5492197"><ele>523.9</ele><time>2016-06-14T18:00:30Z</time></trkpt>
<trkpt lat="46.8692162" lon="7.5491648"><ele>523.9</ele><time>2016-06-14T18:00:31Z</time></trkpt>
<trkpt lat="46.8695706" lon="7.5487485"><ele>524.1</ele><time>2016-06-14T18:00:40Z</time></trkpt>
<trkpt lat="46.8700022" lon="7.5483009"><ele>524.7</ele><time>2016-06-14T18:00:46Z</time></trkpt>
<trkpt lat="46.8701058" lon="7.5481103"><ele>525.1</ele><time>2016-06-14T18:00:51Z</time></trkpt>
<trkpt lat="46.8703078" lon="7.5479516"><ele>525.0</ele><time>2016-06-14T18:00:54Z</time></trkpt>
<trkpt lat="46.8703502" lon="7.5478718"><ele>524.6</ele><time>2016-06-14T18:00:55Z</time></trkpt>
<trkpt lat="46.8707759" lon="7.5476157"><ele>523.3</ele><time>2016-06-14T18:01:01Z</time></trkpt>
<trkpt lat="46.8710174" lon="7.5474713"><ele>522.9</ele><time>2016-06-14T18:01:08Z</time></trkpt>
<trkpt lat="46.8710973" lon="7.5474858"><ele>522.9</ele><time>2016-06-14T18:01:09Z</time></trkpt>
<trkpt lat="46.8714326" lon="7.5472865"><ele>522.4</ele><time>2016-06-14T18:01:16Z</time></trkpt>
<trkpt lat="46.8714721" lon="7.5473073"><ele>522.3</ele><time>2016-06-14T18:01:17Z</time></trkpt>
<trkpt lat="46.8717861" lon="7.5472324"><ele>522.0</ele><time>2016-06-14T18:01:22Z</time></trkpt>
<trkpt lat="46.8718109" lon="7.5471929"><ele>521.9</ele><time>2016-06-14T18:01:23Z</time></trkpt>
<trkpt lat="46.8722908" lon="7.5470352"><ele>521.4</ele><time>2016-06-14T18:01:31Z</time></trkpt>
<trkpt lat="46.8723656" lon="7.5470437"><ele>521.4</ele><time>2016-06-14T18:01:32Z</time></trkpt>
<trkpt lat="46.8724325" lon="7.5470059"><ele>521.4</ele><time>2016-06-14T18:01:33Z</time></trkpt>
<trkpt lat="46.8727975" lon="7.5470674"><ele>521.5</ele><time>2016-06-14T18:01:40Z</time></trkpt>
<trkpt lat="46.8730554" lon="7.5470317"><ele>521.5</ele><time>2016-06-14T18:01:45Z</time></trkpt>
<trkpt lat="46.8735396" lon="7.5471098"><ele>521.6</ele><time>2016-06-14T18:01:54Z</time></trkpt>
<trkpt lat="46.8735170" lon="7.5471493"><ele>521.7</ele><time>2016-06-14T18:01:55Z</time></trkpt>
<trkpt lat="46.8737742" lon="7.5472001"><ele>521.7</ele><time>2016-06-14T18:02:00Z</time></trkpt>
<trkpt lat="46.8739608" lon="7.5471627"><ele>521.8</ele><time>2016-06-14T18:02:03Z</time></trkpt>
<trkpt lat="46.8744403" lon="7.5470852"><ele>521.9</ele><time>2016-06-14T18:02:12Z</time></trkpt>
<trkpt lat="46.8745687" lon="7.5470588"><ele>521.9</ele><time>2016-06-14T18:02:14Z</time></trkpt>
<trkpt lat="46.8747419" lon="7.5469946"><ele>521.9</ele><time>2016-06-14T18:02:17Z</time></trkpt>
<trkpt lat="46.8747974" lon="7.5469447"><ele>522.0</ele><time>2016-06-14T18:02:18Z</time></trkpt>
<trkpt lat="46.8748871" lon="7.5469470"><ele>522.0</ele><time>2016-06-14T18:02:19Z</time></trkpt>
<trkpt lat="46.8751360" lon="7.5468756"><ele>522.0</ele><time>2016-06-14T18:02:23Z</time></trkpt>
<trkpt lat="46.8753210" lon="7.5467875"><ele>522.1</ele><time>2016-06-14T18:02:26Z</time></trkpt>
<trkpt lat="46.8756580" lon="7.5467337"><ele>522.1</ele><time>2016-06-14T18:02:32Z</time></trkpt>
<trkpt lat="46.8757198" lon="7.5466933"><ele>522.2</ele><time>2016-06-14T18:02:33Z</time></trkpt>
<trkpt lat="46.8759576" lon="7.5467052"><ele>522.2</ele><time>2016-06-14T18:02:37Z</time></trkpt>
<trkpt lat="46.8760201" lon="7.5466680"><ele>522.2</ele><time>2016-06-14T18:02:38Z</time></trkpt>
<trkpt lat="46.8761962" lon="7.5466841"><ele>522.3</ele><time>2016-06-14T18:02:41Z</time></trkpt>
<trkpt lat="46.8766563" lon="7.5463683"><ele>522.4</ele><time>2016-06-14T18:02:50Z</time></trkpt>
<trkpt lat="46.8767570" lon="7.5462742"><ele>522.4</ele><time>2016-06-14T18:02:52Z</time></trkpt>
<trkpt lat="46.8769794" lon="7.5462476"><ele>522.5</ele><time>2016-06-14T18:02:58Z</time></trkpt>
<trkpt lat="46.8772920" lon="7.5458096"><ele>522.6</ele><time>2016-06-14T18:03:06Z</time></trkpt>
<trkpt lat="46.8772946" lon="7.5456927"><ele>522.6</ele><time>2016-06-14T18:03:08Z</time></trkpt>
<trkpt lat="46.8776693" lon="7.5453197"><ele>522.7</ele><time>2016-06-14T18:03:16Z</time></trkpt>
<trkpt lat="46.8777135" lon="7.5452816"><ele>522.7</ele><time>2016-06-14T18:03:17Z</time></trkpt>
<trkpt lat="46.8777277" lon="7.5453384"><ele>522.7</ele><time>2016-06-14T18:03:18Z</time></trkpt>
<trkpt lat="46.8778887" lon="7.5452689"><ele>522.8</ele><time>2016-06-14T18:03:23Z</time></trkpt>
<trkpt lat="46.8780107" lon="7.5450661"><ele>522.8</ele><time>2016-06-14T18:03:25Z</time></trkpt>
<trkpt lat="46.8780271" lon="7.5451192"><ele>522.8</ele><time>2016-06-14T18:03:26Z</time></trkpt>
<trkpt lat="46.8781732" lon="7.5450768"><ele>522.9</ele><time>2016-06-14T18:03:29Z</time></trkpt>
<trkpt lat="46.8782224" lon="7.5450912"><ele>522.9</ele><time>2016-06-14T18:03:30Z</time></trkpt>
<trkpt lat="46.8783048" lon="7.5450399"><ele>522.9</ele><time>2016-06-14T18:03:31Z</time></trkpt>
<trkpt lat="46.8783687" lon="7.5450497"><ele>522.9</ele><time>2016-06-14T18:03:32Z</time></trkpt>
<trkpt lat="46.8783279" lon="7.5451530"><ele>522.9</ele><time>2016-06-14T18:03:33Z</time></trkpt>
<trkpt lat="46.8784648" lon="7.5451867"><ele>523.0</ele><time>2016-06-14T18:03:35Z</time></trkpt>
<trkpt lat="46.8785922" lon="7.5452585"><ele>523.0</ele><time>2016-06-14T18:03:38Z</time></trkpt>
<trkpt lat="46.8786638" lon="7.5452491"><ele>523.0</ele><time>2016-06-14T18:03:39Z</time></trkpt>
<trkpt lat="46.8786655" lon="7.5453037"><ele>523.0</ele><time>2016-06-14T18:03:40Z</time></trkpt>
<trkpt lat="46.8787698" lon="7.5452125"><ele>523.0</ele><time>2016-06-14T18:03:41Z</time></trkpt>
<trkpt lat="46.8787946" lon="7.5453326"><ele>523.1</ele><time>2016-06-14T18:03:43Z</time></trkpt>
<trkpt lat="46.8789281" lon="7.5457165"><ele>523.1</ele><time>2016-06-14T18:03:45Z</time></trkpt>
<trkpt lat="46.8790805" lon="7.5456975"><ele>523.2</ele><time>2016-06-14T18:03:50Z</time></trkpt>
<trkpt lat="46.8791631" lon="7.5456471"><ele>523.2</ele><time>2016-06-14T18:03:51Z</time></trkpt>
<trkpt lat="46.8792426" lon="7.5456677"><ele>523.2</ele><time>2016-06-14T18:03:52Z</time></trkpt>
<trkpt lat="46.8792971" lon="7.5457385"><ele>523.2</ele><time>2016-06-14T18:03:53Z</time></trkpt>
<trkpt lat="46.8794187" lon="7.5457658"><ele>523.2</ele><time>2016-06-14T18:03:55Z</time></trkpt>
<trkpt lat="46.8795233" lon="7.5459462"><ele>523.3</ele><time>2016-06-14T18:03:58Z</time></trkpt>
<trkpt lat="46.8799325" lon="7.5461137"><ele>523.4</ele><time>2016-06-14T18:04:06Z</time></trkpt>
<trkpt lat="46.8799126" lon="7.5461787"><ele>523.4</ele><time>2016-06-14T18:04:07Z</time></trkpt>
<trkpt lat="46.8799978" lon="7.5464273"><ele>523.4</ele><time>2016-06-14T18:04:11Z</time></trkpt>
<trkpt lat="46.8799712" lon="7.5465302"><ele>523.4</ele><time>2016-06-14T18:04:12Z</time></trkpt>
<trkpt lat="46.8799901" lon="7.5465864"><ele>523.5</ele><time>2016-06-14T18:04:13Z</time></trkpt>
<trkpt lat="46.8800268" lon="7.5465844"><ele>523.5</ele><time>2016-06-14T18:04:14Z</time></trkpt>
<trkpt lat="46.8800545" lon="7.5466429"><ele>523.5</ele><time>2016-06-14T18:04:15Z</time></trkpt>
<trkpt lat="46.8800761" lon="7.5469007"><ele>523.5</ele><time>2016-06-14T18:04:18Z</time></trkpt>
<trkpt lat="46.8800415" lon="7.5470716"><ele>523.5</ele><time>2016-06-14T18:04:19Z</time></trkpt>
<trkpt lat="46.8800704" lon="7.5472685"><ele>523.6</ele><time>2016-06-14T18:04:21Z</time></trkpt>
<trkpt lat="46.8801422" lon="7.5474451"><ele>523.6</ele><time>2016-06-14T18:04:24Z</time></trkpt>
<trkpt lat="46.8802342" lon="7.5479565"><ele>523.7</ele><time>2016-06-14T18:04:30Z</time></trkpt>
<trkpt lat="46.8802991" lon="7.5480488"><ele>523.7</ele><time>2016-06-14T18:04:32Z</time></trkpt>
<trkpt lat="46.8803816" lon="7.5483261"><ele>523.8</ele><time>2016-06-14T18:04:36Z</time></trkpt>
<trkpt lat="46.8805067" lon="7.5485428"><ele>523.8</ele><time>2016-06-14T18:04:42Z</time></trkpt>
<trkpt lat="46.8805083" lon="7.5486588"><ele>524.0</ele><time>2016-06-14T18:04:44Z</time></trkpt>
<trkpt lat="46.8804871" lon="7.5486670"><ele>524.1</ele><time>2016-06-14T18:04:45Z</time></trkpt>
<trkpt lat="46.8805217" lon="7.5490471"><ele>524.9</ele><time>2016-06-14T18:04:53Z</time></trkpt>
<trkpt lat="46.8807205" lon="7.5496616"><ele>526.9</ele><time>2016-06-14T18:05:07Z</time></trkpt>
<trkpt lat="46.8808553" lon="7.5497242"><ele>526.5</ele><time>2016-06-14T18:05:14Z</time></trkpt>
<trkpt lat="46.8811253" lon="7.5496038"><ele>527.1</ele><time>2016-06-14T18:05:22Z</time></trkpt>
<trkpt lat="46.8812329" lon="7.5496402"><ele>527.3</ele><time>2016-06-14T18:05:24Z</time></trkpt>
<trkpt lat="46.8813074" lon="7.5497847"><ele>527.3</ele><time>2016-06-14T18:05:25Z</time></trkpt>
<trkpt lat="46.8813560" lon="7.5498073"><ele>527.4</ele><time>2016-06-14T18:05:26Z</time></trkpt>
<trkpt lat="46.8813605" lon="7.5499200"><ele>527.6</ele><time>2016-06-14T18:05:29Z</time></trkpt>
<trkpt lat="46.8814395" lon="7.5500336"><ele>527.7</ele><time>2016-06-14T18:05:30Z</time></trkpt>
<trkpt lat="46.8816863" lon="7.5502185"><ele>528.0</ele><time>2016-06-14T18:05:35Z</time></trkpt>
<trkpt lat="46.8817369" lon="7.5501913"><ele>528.1</ele><time>2016-06-14T18:05:36Z</time></trkpt>
<trkpt lat="46.8818402" lon="7.5504656"><ele>528.2</ele><time>2016-06-14T18:05:40Z</time></trkpt>
<trkpt lat="46.8820385" lon="7.5506353"><ele>527.9</ele><time>2016-06-14T18:05:44Z</time></trkpt>
<trkpt lat="46.8820710" lon="7.5507506"><ele>527.7</ele><time>2016-06-14T18:05:45Z</time></trkpt>
<trkpt lat="46.8821451" lon="7.5508542"><ele>527.5</ele><time>2016-06-14T18:05:46Z</time></trkpt>
<trkpt lat="46.8821611" lon="7.5509960"><ele>527.4</ele><time>2016-06-14T18:05:47Z</time></trkpt>
<trkpt lat="46.8821022" lon="7.5510324"><ele>527.2</ele><time>2016-06-14T18:05:48Z</time></trkpt>
<trkpt lat="46.8821770" lon="7.5511890"><ele>527.0</ele><time>2016-06-14T18:05:51Z</time></trkpt>
<trkpt lat="46.8822407" lon="7.5511992"><ele>527.2</ele><time>2016-06-14T18:05:52Z</time></trkpt>
<trkpt lat="46.8822818" lon="7.5512454"><ele>527.4</ele><time>2016-06-14T18:05:53Z</time></trkpt>
<trkpt lat="46.8822938" lon="7.5513344"><ele>527.6</ele><time>2016-06-14T18:05:54Z</time></trkpt>
<trkpt lat="46.8823737" lon="7.5513416"><ele>527.8</ele><time>2016-06-14T18:05:55Z</time></trkpt>
<trkpt lat="46.8823865" lon="7.5514190"><ele>528.0</ele><time>2016-06-14T18:05:56Z</time></trkpt>
<trkpt lat="46.8824512" lon="7.5514706"><ele>528.4</ele><time>2016-06-14T18:05:58Z</time></trkpt>
<trkpt lat="46.8824554" lon="7.5515775"><ele>528.6</ele><time>2016-06-14T18:05:59Z</time></trkpt>
<trkpt lat="46.8825639" lon="7.5516546"><ele>528.8</ele><time>2016-06-14T18:06:02Z</time></trkpt>
<trkpt lat="46.8826234" lon="7.5517628"><ele>528.5</ele><time>2016-06-14T18:06:04Z</time></trkpt>
<trkpt lat="46.8826569" lon="7.5517717"><ele>528.4</ele><time>2016-06-14T18:06:05Z</time></trkpt>
<trkpt lat="46.8826633" lon="7.5518275"><ele>528.2</ele><time>2016-06-14T18:06:06Z</time></trkpt>
<trkpt lat="46.8829010" lon="7.5521981"><ele>527.4</ele><time>2016-06-14T18:06:11Z</time></trkpt>
<trkpt lat="46.8830045" lon="7.5522287"><ele>527.2</ele><time>2016-06-14T18:06:13Z</time></trkpt>
<trkpt lat="46.8830668" lon="7.5523525"><ele>527.1</ele><time>2016-06-14T18:06:15Z</time></trkpt>
<trkpt lat="46.8831523" lon="7.5523173"><ele>527.1</ele><time>2016-06-14T18:06:18Z</time></trkpt>
<trkpt lat="46.8831488" lon="7.5523677"><ele>527.1</ele><time>2016-06-14T18:06:19Z</time></trkpt>
<trkpt lat="46.8831930" lon="7.5524117"><ele>527.1</ele><time>2016-06-14T18:06:20Z</time></trkpt>
<trkpt lat="46.8832632" lon="7.5524145"><ele>527.1</ele><time>2016-06-14T18:06:21Z</time></trkpt>
<trkpt lat="46.8836092" lon="7.5526534"><ele>527.1</ele><time>2016-06-14T18:06:32Z</time></trkpt>
<trkpt lat="46.8838322" lon="7.5524814"><ele>527.1</ele><time>2016-06-14T18:06:38Z</time></trkpt>
<trkpt lat="46.8841679" lon="7.5520357"><ele>527.1</ele><time>2016-06-14T18:06:46Z</time></trkpt>
<trkpt lat="46.8844959" lon="7.5515500"><ele>527.1</ele><time>2016-06-14T18:06:55Z</time></trkpt>
<trkpt lat="46.8846413" lon="7.5513551"><ele>527.1</ele><time>2016-06-14T18:06:59Z</time></trkpt>
<trkpt lat="46.8849507" lon="7.5511681"><ele>527.1</ele><time>2016-06-14T18:07:06Z</time></trkpt>
<trkpt lat="46.8850910" lon="7.5511231"><ele>527.1</ele><time>2016-06-14T18:07:09Z</time></trkpt>
<trkpt lat="46.8851070" lon="7.5510650"><ele>527.1</ele><time>2016-06-14T18:07:10Z</time></trkpt>
<trkpt lat="46.8853463" lon="7.5508662"><ele>527.1</ele><time>2016-06-14T18:07:16Z</time></trkpt>
<trkpt lat="46.8855015" lon="7.5506159"><ele>527.3</ele><time>2016-06-14T18:07:20Z</time></trkpt>
<trkpt lat="46.8858041" lon="7.5504052"><ele>527.5</ele><time>2016-06-14T18:07:25Z</time></trkpt>
<trkpt lat="46.8858100" lon="7.5503665"><ele>527.5</ele><time>2016-06-14T18:07:26Z</time></trkpt>
<trkpt lat="46.8861150" lon="7.5499579"><ele>527.4</ele><time>2016-06-14T18:07:33Z</time></trkpt>
<trkpt lat="46.8861161" lon="7.5499110"><ele>527.4</ele><time>2016-06-14T18:07:34Z</time></trkpt>
<trkpt lat="46.8863967" lon="7.5495443"><ele>527.3</ele><time>2016-06-14T18:07:40Z</time></trkpt>
<trkpt lat="46.8864592" lon="7.5492641"><ele>527.3</ele><time>2016-06-14T18:07:44Z</time></trkpt>
<trkpt lat="46.8866662" lon="7.5488893"><ele>527.2</ele><time>2016-06-14T18:07:49Z</time></trkpt>
<trkpt lat="46.8866854" lon="7.5487828"><ele>527.2</ele><time>2016-06-14T18:07:50Z</time></trkpt>
<trkpt lat="46.8867787" lon="7.5486277"><ele>527.2</ele><time>2016-06-14T18:07:54Z</time></trkpt>
<trkpt lat="46.8868697" lon="7.5486055"><ele>527.2</ele><time>2016-06-14T18:07:56Z</time></trkpt>
<trkpt lat="46.8869336" lon="7.5485480"><ele>527.2</ele><time>2016-06-14T18:07:57Z</time></trkpt>
<trkpt lat="46.8869112" lon="7.5486070"><ele>527.1</ele><time>2016-06-14T18:07:58Z</time></trkpt>
<trkpt lat="46.8869829" lon="7.5486020"><ele>527.1</ele><time>2016-06-14T18:07:59Z</time></trkpt>
<trkpt lat="46.8871200" lon="7.5484801"><ele>527.1</ele><time>2016-06-14T18:08:01Z</time></trkpt>
<trkpt lat="46.8871830" lon="7.5484734"><ele>527.1</ele><time>2016-06-14T18:08:02Z</time></trkpt>
<trkpt lat="46.8876079" lon="7.5481380"><ele>527.0</ele><time>2016-06-14T18:08:09Z</time></trkpt>
<trkpt lat="46.8878649" lon="7.5479248"><ele>526.9</ele><time>2016-06-14T18:08:15Z</time></trkpt>
<trkpt lat="46.8880908" lon="7.5478725"><ele>526.9</ele><time>2016-06-14T18:08:20Z</time></trkpt>
<trkpt lat="46.8881663" lon="7.5477856"><ele>526.9</ele><time>2016-06-14T18:08:22Z</time></trkpt>
<trkpt lat="46.8882905" lon="7.5475643"><ele>526.8</ele><time>2016-06-14T18:08:26Z</time></trkpt>
<trkpt lat="46.8886829" lon="7.5473089"><ele>526.8</ele><time>2016-06-14T18:08:32Z</time></trkpt>
<trkpt lat="46.8887248" lon="7.5472526"><ele>526.7</ele><time>2016-06-14T18:08:33Z</time></trkpt>
<trkpt lat="46.8890161" lon="7.5469714"><ele>526.7</ele><time>2016-06-14T18:08:39Z</time></trkpt>
<trkpt lat="46.8892337" lon="7.5468959"><ele>526.6</ele><time>2016-06-14T18:08:43Z</time></trkpt>
<trkpt lat="46.8894597" lon="7.5468909"><ele>526.6</ele><time>2016-06-14T18:08:48Z</time></trkpt>
<trkpt lat="46.8896431" lon="7.5467683"><ele>526.5</ele><time>2016-06-14T18:08:52Z</time></trkpt>
<trkpt lat="46.8898542" lon="7.5463790"><ele>526.5</ele><time>2016-06-14T18:08:57Z</time></trkpt>
<trkpt lat="46.8902629" lon="7.5459374"><ele>526.4</ele><time>2016-06-14T18:09:06Z</time></trkpt>
<trkpt lat="46.8903666" lon="7.5458462"><ele>526.4</ele><time>2016-06-14T18:09:08Z</time></trkpt>
<trkpt lat="46.8904359" lon="7.5456975"><ele>526.3</ele><time>2016-06-14T18:09:10Z</time></trkpt>
<trkpt lat="46.8904140" lon="7.5456869"><ele>526.3</ele><time>2016-06-14T18:09:11Z</time></trkpt>
<trkpt lat="46.8908136" lon="7.5452351"><ele>526.2</ele><time>2016-06-14T18:09:18Z</time></trkpt>
<trkpt lat="46.8908105" lon="7.5451866"><ele>526.2</ele><time>2016-06-14T18:09:19Z</time></trkpt>
<trkpt lat="46.8910278" lon="7.5448363"><ele>526.6</ele><time>2016-06-14T18:09:27Z</time></trkpt>
<trkpt lat="46.8910390" lon="7.5447692"><ele>526.5</ele><time>2016-06-14T18:09:28Z</time></trkpt>
<trkpt lat="46.8910915" lon="7.5447100"><ele>526.4</ele><time>2016-06-14T18:09:29Z</time></trkpt>
<trkpt lat="46.8910497" lon="7.5444908"><ele>525.8</ele><time>2016-06-14T18:09:33Z</time></trkpt>
<trkpt lat="46.8910805" lon="7.5443916"><ele>525.7</ele><time>2016-06-14T18:09:34Z</time></trkpt>
<trkpt lat="46.8910070" lon="7.5441141"><ele>525.1</ele><time>2016-06-14T18:09:38Z</time></trkpt>
<trkpt lat="46.8908707" lon="7.5438994"><ele>524.6</ele><time>2016-06-14T18:09:42Z</time></trkpt>
<trkpt lat="46.8908693" lon="7.5438539"><ele>524.5</ele><time>2016-06-14T18:09:43Z</time></trkpt>
<trkpt lat="46.8908216" lon="7.5438078"><ele>524.3</ele><time>2016-06-14T18:09:44Z</time></trkpt>
<trkpt lat="46.8908003" lon="7.5436529"><ele>524.1</ele><time>2016-06-14T18:09:46Z</time></trkpt>
<trkpt lat="46.8907401" lon="7.5434900"><ele>523.9</ele><time>2016-06-14T18:09:47Z</time></trkpt>
<trkpt lat="46.8906835" lon="7.5434374"><ele>523.8</ele><time>2016-06-14T18:09:48Z</time></trkpt>
<trkpt lat="46.8905693" lon="7.5431834"><ele>523.4</ele><time>2016-06-14T18:09:51Z</time></trkpt>
<trkpt lat="46.8905158" lon="7.5431362"><ele>523.2</ele><time>2016-06-14T18:09:52Z</time></trkpt>
<trkpt lat="46.8905068" lon="7.5429131"><ele>522.7</ele><time>2016-06-14T18:09:56Z</time></trkpt>
<trkpt lat="46.8905773" lon="7.5427121"><ele>522.1</ele><time>2016-06-14T18:10:00Z</time></trkpt>
<trkpt lat="46.8907432" lon="7.5425927"><ele>521.7</ele><time>2016-06-14T18:10:05Z</time></trkpt>
<trkpt lat="46.8908786" lon="7.5425854"><ele>521.8</ele><time>2016-06-14T18:10:08Z</time></trkpt>
<trkpt lat="46.8909881" lon="7.5425154"><ele>522.0</ele><time>2016-06-14T18:10:10Z</time></trkpt>
<trkpt lat="46.8909246" lon="7.5421873"><ele>522.2</ele><time>2016-06-14T18:10:11Z</time></trkpt>
<trkpt lat="46.8909719" lon="7.5421029"><ele>522.6</ele><time>2016-06-14T18:10:14Z</time></trkpt>
<trkpt lat="46.8909483" lon="7.5419193"><ele>522.9</ele><time>2016-06-14T18:10:17Z</time></trkpt>
<trkpt lat="46.8909704" lon="7.5418609"><ele>523.0</ele><time>2016-06-14T18:10:18Z</time></trkpt>
<trkpt lat="46.8909636" lon="7.5418092"><ele>523.1</ele><time>2016-06-14T18:10:19Z</time></trkpt>
<trkpt lat="46.8910019" lon="7.5417127"><ele>523.4</ele><time>2016-06-14T18:10:21Z</time></trkpt>
<trkpt lat="46.8910504" lon="7.5416824"><ele>523.9</ele><time>2016-06-14T18:10:23Z</time></trkpt>
<trkpt lat="46.8911291" lon="7.5417356"><ele>524.4</ele><time>2016-06-14T18:10:25Z</time></trkpt>
<trkpt lat="46.8913087" lon="7.5417708"><ele>524.9</ele><time>2016-06-14T18:10:28Z</time></trkpt>
<trkpt lat="46.8915369" lon="7.5419139"><ele>525.7</ele><time>2016-06-14T18:10:34Z</time></trkpt>
<trkpt lat="46.8915588" lon="7.5419559"><ele>525.8</ele><time>2016-06-14T18:10:35Z</time></trkpt>
<trkpt lat="46.8916201" lon="7.5419685"><ele>525.9</ele><time>2016-06-14T18:10:36Z</time></trkpt>
<trkpt lat="46.8917138" lon="7.5421316"><ele>526.6</ele><time>2016-06-14T18:10:39Z</time></trkpt>
<trkpt lat="46.8918680" lon="7.5422219"><ele>527.3</ele><time>2016-06-14T18:10:43Z</time></trkpt>
<trkpt lat="46.8919637" lon="7.5420784"><ele>527.2</ele><time>2016-06-14T18:10:45Z</time></trkpt>
<trkpt lat="46.8919079" lon="7.5417751"><ele>527.2</ele><time>2016-06-14T18:10:50Z</time></trkpt>
<trkpt lat="46.8919551" lon="7.5415539"><ele>527.6</ele><time>2016-06-14T18:10:53Z</time></trkpt>
<trkpt lat="46.8923705" lon="7.5412525"><ele>528.5</ele><time>2016-06-14T18:11:02Z</time></trkpt>
<trkpt lat="46.8927891" lon="7.5409191"><ele>528.8</ele><time>2016-06-14T18:11:15Z</time></trkpt>
<trkpt lat="46.8929824" lon="7.5407986"><ele>529.0</ele><time>2016-06-14T18:11:20Z</time></trkpt>
<trkpt lat="46.8932034" lon="7.5407364"><ele>529.1</ele><time>2016-06-14T18:11:23Z</time></trkpt>
<trkpt lat="46.8936357" lon="7.5405178"><ele>529.3</ele><time>2016-06-14T18:11:30Z</time></trkpt>
<trkpt lat="46.8936875" lon="7.5404056"><ele>529.5</ele><time>2016-06-14T18:11:34Z</time></trkpt>
<trkpt lat="46.8938709" lon="7.5402162"><ele>529.6</ele><time>2016-06-14T18:11:38Z</time></trkpt>
<trkpt lat="46.8938716" lon="7.5401735"><ele>529.6</ele><time>2016-06-14T18:11:39Z</time></trkpt>
<trkpt lat="46.8939364" lon="7.5400386"><ele>529.7</ele><time>2016-06-14T18:11:41Z</time></trkpt>
<trkpt lat="46.8941521" lon="7.5398418"><ele>529.8</ele><time>2016-06-14T18:11:44Z</time></trkpt>
<trkpt lat="46.8942664" lon="7.5397888"><ele>529.8</ele><time>2016-06-14T18:11:45Z</time></trkpt>
<trkpt lat="46.8944027" lon="7.5396313"><ele>530.0</ele><time>2016-06-14T18:11:49Z</time></trkpt>
<trkpt lat="46.8944225" lon="7.5395761"><ele>530.1</ele><time>2016-06-14T18:11:51Z</time></trkpt>
<trkpt lat="46.8945810" lon="7.5394423"><ele>530.1</ele><time>2016-06-14T18:11:53Z</time></trkpt>
<trkpt lat="46.8945540" lon="7.5394183"><ele>530.2</ele><time>2016-06-14T18:11:55Z</time></trkpt>
<trkpt lat="46.8945620" lon="7.5393600"><ele>530.2</ele><time>2016-06-14T18:11:56Z</time></trkpt>
<trkpt lat="46.8946061" lon="7.5393525"><ele>530.3</ele><time>2016-06-14T18:11:57Z</time></trkpt>
<trkpt lat="46.8946052" lon="7.5392932"><ele>530.3</ele><time>2016-06-14T18:11:58Z</time></trkpt>
<trkpt lat="46.8950128" lon="7.5390000"><ele>530.8</ele><time>2016-06-14T18:12:13Z</time></trkpt>
<trkpt lat="46.8954366" lon="7.5386830"><ele>531.2</ele><time>2016-06-14T18:12:24Z</time></trkpt>
<trkpt lat="46.8956278" lon="7.5385359"><ele>531.3</ele><time>2016-06-14T18:12:28Z</time></trkpt>
<trkpt lat="46.8958812" lon="7.5385554"><ele>532.1</ele><time>2016-06-14T18:12:33Z</time></trkpt>
<trkpt lat="46.8959232" lon="7.5385269"><ele>532.3</ele><time>2016-06-14T18:12:34Z</time></trkpt>
<trkpt lat="46.8959816" lon="7.5385528"><ele>532.5</ele><time>2016-06-14T18:12:35Z</time></trkpt>
<trkpt lat="46.8960300" lon="7.5385269"><ele>532.5</ele><time>2016-06-14T18:12:36Z</time></trkpt>
<trkpt lat="46.8961066" lon="7.5386022"><ele>532.5</ele><time>2016-06-14T18:12:38Z</time></trkpt>
<trkpt lat="46.8962509" lon="7.5385751"><ele>533.0</ele><time>2016-06-14T18:12:41Z</time></trkpt>
<trkpt lat="46.8963550" lon="7.5386322"><ele>534.1</ele><time>2016-06-14T18:12:43Z</time></trkpt>
<trkpt lat="46.8964206" lon="7.5386334"><ele>534.6</ele><time>2016-06-14T18:12:44Z</time></trkpt>
<trkpt lat="46.8964674" lon="7.5386755"><ele>535.2</ele><time>2016-06-14T18:12:45Z</time></trkpt>
<trkpt lat="46.8968514" lon="7.5387379"><ele>535.2</ele><time>2016-06-14T18:12:53Z</time></trkpt>
<trkpt lat="46.8969508" lon="7.5387101"><ele>535.2</ele><time>2016-06-14T18:12:55Z</time></trkpt>
<trkpt lat="46.8970706" lon="7.5387687"><ele>535.3</ele><time>2016-06-14T18:12:58Z</time></trkpt>
<trkpt lat="46.8971173" lon="7.5387372"><ele>535.4</ele><time>2016-06-14T18:12:59Z</time></trkpt>
<trkpt lat="46.8972048" lon="7.5387920"><ele>535.5</ele><time>2016-06-14T18:13:02Z</time></trkpt>
<trkpt lat="46.8974023" lon="7.5387743"><ele>535.8</ele><time>2016-06-14T18:13:06Z</time></trkpt>
<trkpt lat="46.8975154" lon="7.5388302"><ele>535.9</ele><time>2016-06-14T18:13:09Z</time></trkpt>
<trkpt lat="46.8979909" lon="7.5386958"><ele>536.5</ele><time>2016-06-14T18:13:19Z</time></trkpt>
<trkpt lat="46.8982595" lon="7.5385264"><ele>536.9</ele><time>2016-06-14T18:13:26Z</time></trkpt>
<trkpt lat="46.8985959" lon="7.5383309"><ele>537.4</ele><time>2016-06-14T18:13:34Z</time></trkpt>
<trkpt lat="46.8987445" lon="7.5383473"><ele>537.6</ele><time>2016-06-14T18:13:39Z</time></trkpt>
<trkpt lat="46.8990014" lon="7.5382556"><ele>538.0</ele><time>2016-06-14T18:13:45Z</time></trkpt>
<trkpt lat="46.8991186" lon="7.5382621"><ele>538.2</ele><time>2016-06-14T18:13:48Z</time></trkpt>
<trkpt lat="46.8995795" lon="7.5381818"><ele>538.4</ele><time>2016-06-14T18:13:59Z</time></trkpt>
<trkpt lat="46.9000502" lon="7.5381602"><ele>538.5</ele><time>2016-06-14T18:14:10Z</time></trkpt>
<trkpt lat="46.9003018" lon="7.5381657"><ele>538.6</ele><time>2016-06-14T18:14:16Z</time></trkpt>
<trkpt lat="46.9003847" lon="7.5382208"><ele>538.6</ele><time>2016-06-14T18:14:18Z</time></trkpt>
<trkpt lat="46.9004678" lon="7.5383693"><ele>538.6</ele><time>2016-06-14T18:14:19Z</time></trkpt>
<trkpt lat="46.9005558" lon="7.5383346"><ele>538.6</ele><time>2016-06-14T18:14:21Z</time></trkpt>
<trkpt lat="46.9005863" lon="7.5383779"><ele>538.6</ele><time>2016-06-14T18:14:22Z</time></trkpt>
<trkpt lat="46.9005880" lon="7.5383161"><ele>538.6</ele><time>2016-06-14T18:14:23Z</time></trkpt>
<trkpt lat="46.9006211" lon="7.5383716"><ele>538.6</ele><time>2016-06-14T18:14:25Z</time></trkpt>
<trkpt lat="46.9006851" lon="7.5383800"><ele>538.6</ele><time>2016-06-14T18:14:26Z</time></trkpt>
<trkpt lat="46.9007106" lon="7.5384266"><ele>538.6</ele><time>2016-06-14T18:14:27Z</time></trkpt>
<trkpt lat="46.9007612" lon="7.5384328"><ele>538.6</ele><time>2016-06-14T18:14:28Z</time></trkpt>
<trkpt lat="46.9007322" lon="7.5386305"><ele>538.7</ele><time>2016-06-14T18:14:30Z</time></trkpt>
<trkpt lat="46.9011755" lon="7.5384078"><ele>538.8</ele><time>2016-06-14T18:14:43Z</time></trkpt>
<trkpt lat="46.9012747" lon="7.5383448"><ele>538.8</ele><time>2016-06-14T18:14:45Z</time></trkpt>
<trkpt lat="46.9013776" lon="7.5382241"><ele>538.8</ele><time>2016-06-14T18:14:46Z</time></trkpt>
<trkpt lat="46.9014069" lon="7.5383354"><ele>538.8</ele><time>2016-06-14T18:14:47Z</time></trkpt>
<trkpt lat="46.9015897" lon="7.5382158"><ele>538.8</ele><time>2016-06-14T18:14:53Z</time></trkpt>
<trkpt lat="46.9016932" lon="7.5381950"><ele>538.8</ele><time>2016-06-14T18:14:56Z</time></trkpt>
<trkpt lat="46.9021117" lon="7.5384482"><ele>538.5</ele><time>2016-06-14T18:15:11Z</time></trkpt>
<trkpt lat="46.9022927" lon="7.5389560"><ele>541.4</ele><time>2016-06-14T18:15:27Z</time></trkpt>
<trkpt lat="46.9022952" lon="7.5390512"><ele>542.2</ele><time>2016-06-14T18:15:32Z</time></trkpt>
<trkpt lat="46.9026457" lon="7.5387151"><ele>544.7</ele><time>2016-06-14T18:15:44Z</time></trkpt>
<trkpt lat="46.9029692" lon="7.5381907"><ele>547.5</ele><time>2016-06-14T18:15:57Z</time></trkpt>
<trkpt lat="46.9032904" lon="7.5378932"><ele>550.5</ele><time>2016-06-14T18:16:05Z</time></trkpt>
<trkpt lat="46.9034825" lon="7.5377485"><ele>550.8</ele><time>2016-06-14T18:16:10Z</time></trkpt>
<trkpt lat="46.9036499" lon="7.5374929"><ele>548.8</ele><time>2016-06-14T18:16:15Z</time></trkpt>
<trkpt lat="46.9036377" lon="7.5374802"><ele>548.3</ele><time>2016-06-14T18:16:16Z</time></trkpt>
<trkpt lat="46.9038867" lon="7.5368966"><ele>548.0</ele><time>2016-06-14T18:16:28Z</time></trkpt>
<trkpt lat="46.9040256" lon="7.5362425"><ele>551.4</ele><time>2016-06-14T18:16:39Z</time></trkpt>
<trkpt lat="46.9043459" lon="7.5358049"><ele>553.9</ele><time>2016-06-14T18:16:50Z</time></trkpt>
<trkpt lat="46.9047768" lon="7.5355872"><ele>555.9</ele><time>2016-06-14T18:17:00Z</time></trkpt>
<trkpt lat="46.9052174" lon="7.5353175"><ele>557.7</ele><time>2016-06-14T18:17:11Z</time></trkpt>
<trkpt lat="46.9056542" lon="7.5350218"><ele>560.2</ele><time>2016-06-14T18:17:23Z</time></trkpt>
<trkpt lat="46.9059476" lon="7.5347629"><ele>560.9</ele><time>2016-06-14T18:17:32Z</time></trkpt>
<trkpt lat="46.9062749" lon="7.5344437"><ele>563.5</ele><time>2016-06-14T18:17:41Z</time></trkpt>
<trkpt lat="46.9063220" lon="7.5343379"><ele>564.1</ele><time>2016-06-14T18:17:44Z</time></trkpt>
<trkpt lat="46.9067099" lon="7.5338956"><ele>565.6</ele><time>2016-06-14T18:17:57Z</time></trkpt>
<trkpt lat="46.9070681" lon="7.5334331"><ele>564.1</ele><time>2016-06-14T18:18:14Z</time></trkpt>
<trkpt lat="46.9074505" lon="7.5330771"><ele>563.0</ele><time>2016-06-14T18:18:27Z</time></trkpt>
<trkpt lat="46.9078209" lon="7.5326799"><ele>569.7</ele><time>2016-06-14T18:18:41Z</time></trkpt>
<trkpt lat="46.9082134" lon="7.5323398"><ele>579.3</ele><time>2016-06-14T18:18:59Z</time></trkpt>
<trkpt lat="46.9085721" lon="7.5319227"><ele>579.0</ele><time>2016-06-14T18:19:11Z</time></trkpt>
<trkpt lat="46.9089785" lon="7.5315827"><ele>578.3</ele><time>2016-06-14T18:19:26Z</time></trkpt>
<trkpt lat="46.9094058" lon="7.5313057"><ele>576.2</ele><time>2016-06-14T18:19:42Z</time></trkpt>
<trkpt lat="46.9097411" lon="7.5308646"><ele>574.7</ele><time>2016-06-14T18:20:00Z</time></trkpt>
<trkpt lat="46.9098700" lon="7.5305663"><ele>576.2</ele><time>2016-06-14T18:20:10Z</time></trkpt>
<trkpt lat="46.9099272" lon="7.5303253"><ele>576.8</ele><time>2016-06-14T18:20:14Z</time></trkpt>
<trkpt lat="46.9103239" lon="7.5299462"><ele>579.4</ele><time>2016-06-14T18:20:31Z</time></trkpt>
<trkpt lat="46.9106873" lon="7.5294956"><ele>581.7</ele><time>2016-06-14T18:20:45Z</time></trkpt>
<trkpt lat="46.9110707" lon="7.5291141"><ele>583.4</ele><time>2016-06-14T18:20:59Z</time></trkpt>
<trkpt lat="46.9114583" lon="7.5287155"><ele>585.3</ele><time>2016-06-14T18:21:13Z</time></trkpt>
<trkpt lat="46.9118852" lon="7.5284004"><ele>587.1</ele><time>2016-06-14T18:21:27Z</time></trkpt>
<trkpt lat="46.9122712" lon="7.5279992"><ele>588.9</ele><time>2016-06-14T18:21:41Z</time></trkpt>
<trkpt lat="46.9126599" lon="7.5275612"><ele>590.2</ele><time>2016-06-14T18:21:54Z</time></trkpt>
<trkpt lat="46.9128028" lon="7.5273022"><ele>590.3</ele><time>2016-06-14T18:21:56Z</time></trkpt>
<trkpt lat="46.9129106" lon="7.5271920"><ele>590.6</ele><time>2016-06-14T18:22:00Z</time></trkpt>
<trkpt lat="46.9129125" lon="7.5271200"><ele>590.7</ele><time>2016-06-14T18:22:01Z</time></trkpt>
<trkpt lat="46.9130425" lon="7.5268983"><ele>591.0</ele><time>2016-06-14T18:22:05Z</time></trkpt>
<trkpt lat="46.9133175" lon="7.5263388"><ele>590.3</ele><time>2016-06-14T18:22:13Z</time></trkpt>
<trkpt lat="46.9133410" lon="7.5262892"><ele>590.1</ele><time>2016-06-14T18:22:14Z</time></trkpt>
<trkpt lat="46.9133161" lon="7.5262167"><ele>590.2</ele><time>2016-06-14T18:22:15Z</time></trkpt>
<trkpt lat="46.9132698" lon="7.5261815"><ele>590.3</ele><time>2016-06-14T18:22:16Z</time></trkpt>
<trkpt lat="46.9133074" lon="7.5260397"><ele>590.5</ele><time>2016-06-14T18:22:18Z</time></trkpt>
<trkpt lat="46.9135030" lon="7.5257339"><ele>591.0</ele><time>2016-06-14T18:22:23Z</time></trkpt>
<trkpt lat="46.9135756" lon="7.5256609"><ele>591.1</ele><time>2016-06-14T18:22:24Z</time></trkpt>
<trkpt lat="46.9136017" lon="7.5256773"><ele>591.2</ele><time>2016-06-14T18:22:25Z</time></trkpt>
<trkpt lat="46.9138900" lon="7.5253396"><ele>592.1</ele><time>2016-06-14T18:22:34Z</time></trkpt>
<trkpt lat="46.9138787" lon="7.5252732"><ele>592.2</ele><time>2016-06-14T18:22:35Z</time></trkpt>
<trkpt lat="46.9140187" lon="7.5251834"><ele>592.2</ele><time>2016-06-14T18:22:39Z</time></trkpt>
<trkpt lat="46.9140474" lon="7.5251376"><ele>592.1</ele><time>2016-06-14T18:22:40Z</time></trkpt>
<trkpt lat="46.9142026" lon="7.5250633"><ele>592.0</ele><time>2016-06-14T18:22:42Z</time></trkpt>
<trkpt lat="46.9143601" lon="7.5248985"><ele>591.8</ele><time>2016-06-14T18:22:45Z</time></trkpt>
<trkpt lat="46.9144867" lon="7.5248537"><ele>591.6</ele><time>2016-06-14T18:22:47Z</time></trkpt>
<trkpt lat="46.9147673" lon="7.5245677"><ele>590.9</ele><time>2016-06-14T18:22:56Z</time></trkpt>
<trkpt lat="46.9150023" lon="7.5242577"><ele>591.3</ele><time>2016-06-14T18:23:02Z</time></trkpt>
<trkpt lat="46.9150881" lon="7.5242357"><ele>591.4</ele><time>2016-06-14T18:23:04Z</time></trkpt>
<trkpt lat="46.9152609" lon="7.5240632"><ele>591.6</ele><time>2016-06-14T18:23:07Z</time></trkpt>
<trkpt lat="46.9155262" lon="7.5236658"><ele>591.8</ele><time>2016-06-14T18:23:12Z</time></trkpt>
<trkpt lat="46.9155180" lon="7.5236270"><ele>591.9</ele><time>2016-06-14T18:23:13Z</time></trkpt>
<trkpt lat="46.9156725" lon="7.5235670"><ele>592.0</ele><time>2016-06-14T18:23:17Z</time></trkpt>
<trkpt lat="46.9159061" lon="7.5236882"><ele>592.2</ele><time>2016-06-14T18:23:21Z</time></trkpt>
<trkpt lat="46.9161795" lon="7.5235544"><ele>592.5</ele><time>2016-06-14T18:23:27Z</time></trkpt>
<trkpt lat="46.9163012" lon="7.5234889"><ele>592.7</ele><time>2016-06-14T18:23:31Z</time></trkpt>
<trkpt lat="46.9163102" lon="7.5235146"><ele>592.7</ele><time>2016-06-14T18:23:32Z</time></trkpt>
<trkpt lat="46.9167441" lon="7.5232084"><ele>593.4</ele><time>2016-06-14T18:23:46Z</time></trkpt>
<trkpt lat="46.9171244" lon="7.5228034"><ele>594.0</ele><time>2016-06-14T18:23:59Z</time></trkpt>
<trkpt lat="46.9174506" lon="7.5225802"><ele>594.4</ele><time>2016-06-14T18:24:08Z</time></trkpt>
<trkpt lat="46.9175321" lon="7.5223845"><ele>594.5</ele><time>2016-06-14T18:24:10Z</time></trkpt>
<trkpt lat="46.9177378" lon="7.5221139"><ele>594.9</ele><time>2016-06-14T18:24:17Z</time></trkpt>
<trkpt lat="46.9178271" lon="7.5219271"><ele>595.0</ele><time>2016-06-14T18:24:20Z</time></trkpt>
<trkpt lat="46.9182068" lon="7.5215155"><ele>595.8</ele><time>2016-06-14T18:24:31Z</time></trkpt>
<trkpt lat="46.9185337" lon="7.5213160"><ele>597.6</ele><time>2016-06-14T18:24:41Z</time></trkpt>
<trkpt lat="46.9187272" lon="7.5214558"><ele>596.3</ele><time>2016-06-14T18:24:47Z</time></trkpt>
<trkpt lat="46.9188626" lon="7.5220936"><ele>596.3</ele><time>2016-06-14T18:24:58Z</time></trkpt>
<trkpt lat="46.9189335" lon="7.5225403"><ele>596.4</ele><time>2016-06-14T18:25:05Z</time></trkpt>
<trkpt lat="46.9189745" lon="7.5225584"><ele>596.4</ele><time>2016-06-14T18:25:06Z</time></trkpt>
<trkpt lat="46.9189832" lon="7.5226210"><ele>596.4</ele><time>2016-06-14T18:25:07Z</time></trkpt>
<trkpt lat="46.9192236" lon="7.5226093"><ele>596.4</ele><time>2016-06-14T18:25:11Z</time></trkpt>
<trkpt lat="46.9196785" lon="7.5225244"><ele>595.4</ele><time>2016-06-14T18:25:19Z</time></trkpt>
<trkpt lat="46.9198957" lon="7.5224553"><ele>594.5</ele><time>2016-06-14T18:25:22Z</time></trkpt>
<trkpt lat="46.9203263" lon="7.5222120"><ele>592.9</ele><time>2016-06-14T18:25:28Z</time></trkpt>
<trkpt lat="46.9207845" lon="7.5220058"><ele>592.8</ele><time>2016-06-14T18:25:34Z</time></trkpt>
<trkpt lat="46.9211781" lon="7.5218325"><ele>593.4</ele><time>2016-06-14T18:25:40Z</time></trkpt>
<trkpt lat="46.9212819" lon="7.5217363"><ele>593.3</ele><time>2016-06-14T18:25:42Z</time></trkpt>
<trkpt lat="46.9217195" lon="7.5215324"><ele>592.8</ele><time>2016-06-14T18:25:49Z</time></trkpt>
<trkpt lat="46.9218741" lon="7.5214271"><ele>592.5</ele><time>2016-06-14T18:25:52Z</time></trkpt>
<trkpt lat="46.9220074" lon="7.5214184"><ele>592.3</ele><time>2016-06-14T18:25:55Z</time></trkpt>
<trkpt lat="46.9222505" lon="7.5212056"><ele>591.9</ele><time>2016-06-14T18:26:00Z</time></trkpt>
<trkpt lat="46.9222969" lon="7.5211919"><ele>591.9</ele><time>2016-06-14T18:26:01Z</time></trkpt>
<trkpt lat="46.9222942" lon="7.5212532"><ele>591.8</ele><time>2016-06-14T18:26:02Z</time></trkpt>
<trkpt lat="46.9224125" lon="7.5210878"><ele>591.5</ele><time>2016-06-14T18:26:06Z</time></trkpt>
<trkpt lat="46.9224585" lon="7.5210888"><ele>591.4</ele><time>2016-06-14T18:26:07Z</time></trkpt>
<trkpt lat="46.9225046" lon="7.5210274"><ele>591.3</ele><time>2016-06-14T18:26:08Z</time></trkpt>
<trkpt lat="46.9229308" lon="7.5207899"><ele>590.7</ele><time>2016-06-14T18:26:16Z</time></trkpt>
<trkpt lat="46.9230541" lon="7.5207691"><ele>590.5</ele><time>2016-06-14T18:26:19Z</time></trkpt>
<trkpt lat="46.9231545" lon="7.5206447"><ele>590.4</ele><time>2016-06-14T18:26:20Z</time></trkpt>
<trkpt lat="46.9233093" lon="7.5205691"><ele>590.1</ele><time>2016-06-14T18:26:23Z</time></trkpt>
<trkpt lat="46.9234876" lon="7.5204273"><ele>590.0</ele><time>2016-06-14T18:26:24Z</time></trkpt>
<trkpt lat="46.9235137" lon="7.5205117"><ele>589.8</ele><time>2016-06-14T18:26:25Z</time></trkpt>
<trkpt lat="46.9236614" lon="7.5204541"><ele>589.5</ele><time>2016-06-14T18:26:27Z</time></trkpt>
<trkpt lat="46.9237808" lon="7.5203294"><ele>589.4</ele><time>2016-06-14T18:26:28Z</time></trkpt>
<trkpt lat="46.9238445" lon="7.5202222"><ele>589.3</ele><time>2016-06-14T18:26:29Z</time></trkpt>
<trkpt lat="46.9238741" lon="7.5202895"><ele>589.1</ele><time>2016-06-14T18:26:30Z</time></trkpt>
<trkpt lat="46.9241917" lon="7.5198185"><ele>588.3</ele><time>2016-06-14T18:26:36Z</time></trkpt>
<trkpt lat="46.9242121" lon="7.5197132"><ele>588.1</ele><time>2016-06-14T18:26:37Z</time></trkpt>
<trkpt lat="46.9242018" lon="7.5194251"><ele>587.7</ele><time>2016-06-14T18:26:39Z</time></trkpt>
<trkpt lat="46.9242945" lon="7.5193483"><ele>587.5</ele><time>2016-06-14T18:26:40Z</time></trkpt>
<trkpt lat="46.9243260" lon="7.5193795"><ele>587.2</ele><time>2016-06-14T18:26:41Z</time></trkpt>
<trkpt lat="46.9244548" lon="7.5192257"><ele>587.0</ele><time>2016-06-14T18:26:42Z</time></trkpt>
<trkpt lat="46.9244791" lon="7.5192573"><ele>586.8</ele><time>2016-06-14T18:26:43Z</time></trkpt>
<trkpt lat="46.9247678" lon="7.5189525"><ele>586.2</ele><time>2016-06-14T18:26:46Z</time></trkpt>
<trkpt lat="46.9248688" lon="7.5187891"><ele>586.0</ele><time>2016-06-14T18:26:47Z</time></trkpt>
<trkpt lat="46.9251363" lon="7.5185072"><ele>585.5</ele><time>2016-06-14T18:26:49Z</time></trkpt>
<trkpt lat="46.9255200" lon="7.5180600"><ele>584.9</ele><time>2016-06-14T18:26:57Z</time></trkpt>
<trkpt lat="46.9258098" lon="7.5176115"><ele>578.6</ele><time>2016-06-14T18:27:01Z</time></trkpt>
<trkpt lat="46.9259415" lon="7.5173411"><ele>577.0</ele><time>2016-06-14T18:27:02Z</time></trkpt>
<trkpt lat="46.9260280" lon="7.5172283"><ele>575.5</ele><time>2016-06-14T18:27:03Z</time></trkpt>
<trkpt lat="46.9261952" lon="7.5171283"><ele>574.8</ele><time>2016-06-14T18:27:04Z</time></trkpt>
<trkpt lat="46.9261844" lon="7.5170613"><ele>574.0</ele><time>2016-06-14T18:27:05Z</time></trkpt>
<trkpt lat="46.9263783" lon="7.5169756"><ele>573.3</ele><time>2016-06-14T18:27:06Z</time></trkpt>
<trkpt lat="46.9264032" lon="7.5169156"><ele>572.6</ele><time>2016-06-14T18:27:07Z</time></trkpt>
<trkpt lat="46.9265623" lon="7.5168502"><ele>571.9</ele><time>2016-06-14T18:27:08Z</time></trkpt>
<trkpt lat="46.9268340" lon="7.5164874"><ele>571.4</ele><time>2016-06-14T18:27:11Z</time></trkpt>
<trkpt lat="46.9272524" lon="7.5161318"><ele>570.7</ele><time>2016-06-14T18:27:15Z</time></trkpt>
<trkpt lat="46.9274439" lon="7.5160930"><ele>570.5</ele><time>2016-06-14T18:27:16Z</time></trkpt>
<trkpt lat="46.9274706" lon="7.5160210"><ele>570.3</ele><time>2016-06-14T18:27:17Z</time></trkpt>
<trkpt lat="46.9277353" lon="7.5157302"><ele>569.7</ele><time>2016-06-14T18:27:20Z</time></trkpt>
<trkpt lat="46.9278406" lon="7.5156585"><ele>569.3</ele><time>2016-06-14T18:27:21Z</time></trkpt>
<trkpt lat="46.9278752" lon="7.5155465"><ele>568.9</ele><time>2016-06-14T18:27:22Z</time></trkpt>
<trkpt lat="46.9280858" lon="7.5152941"><ele>568.5</ele><time>2016-06-14T18:27:23Z</time></trkpt>
<trkpt lat="46.9282394" lon="7.5151904"><ele>567.4</ele><time>2016-06-14T18:27:27Z</time></trkpt>
<trkpt lat="46.9282278" lon="7.5151246"><ele>567.7</ele><time>2016-06-14T18:27:28Z</time></trkpt>
<trkpt lat="46.9283983" lon="7.5149613"><ele>568.2</ele><time>2016-06-14T18:27:30Z</time></trkpt>
<trkpt lat="46.9288081" lon="7.5146402"><ele>570.1</ele><time>2016-06-14T18:27:36Z</time></trkpt>
<trkpt lat="46.9291151" lon="7.5143366"><ele>570.7</ele><time>2016-06-14T18:27:43Z</time></trkpt>
<trkpt lat="46.9292062" lon="7.5141894"><ele>570.6</ele><time>2016-06-14T18:27:45Z</time></trkpt>
<trkpt lat="46.9292251" lon="7.5140546"><ele>570.6</ele><time>2016-06-14T18:27:46Z</time></trkpt>
<trkpt lat="46.9292859" lon="7.5138979"><ele>570.5</ele><time>2016-06-14T18:27:47Z</time></trkpt>
<trkpt lat="46.9292425" lon="7.5137169"><ele>570.4</ele><time>2016-06-14T18:27:49Z</time></trkpt>
<trkpt lat="46.9293400" lon="7.5135435"><ele>570.4</ele><time>2016-06-14T18:27:51Z</time></trkpt>
<trkpt lat="46.9293280" lon="7.5132870"><ele>570.3</ele><time>2016-06-14T18:27:53Z</time></trkpt>
<trkpt lat="46.9293020" lon="7.5131954"><ele>570.2</ele><time>2016-06-14T18:27:54Z</time></trkpt>
<trkpt lat="46.9293116" lon="7.5130607"><ele>570.2</ele><time>2016-06-14T18:27:55Z</time></trkpt>
<trkpt lat="46.9292924" lon="7.5130082"><ele>570.1</ele><time>2016-06-14T18:27:56Z</time></trkpt>
<trkpt lat="46.9293756" lon="7.5128524"><ele>570.0</ele><time>2016-06-14T18:27:58Z</time></trkpt>
<trkpt lat="46.9294298" lon="7.5126021"><ele>569.9</ele><time>2016-06-14T18:28:02Z</time></trkpt>
<trkpt lat="46.9294004" lon="7.5125483"><ele>569.8</ele><time>2016-06-14T18:28:03Z</time></trkpt>
<trkpt lat="46.9293923" lon="7.5122497"><ele>569.6</ele><time>2016-06-14T18:28:08Z</time></trkpt>
<trkpt lat="46.9293466" lon="7.5120908"><ele>569.5</ele><time>2016-06-14T18:28:10Z</time></trkpt>
<trkpt lat="46.9293235" lon="7.5118757"><ele>569.4</ele><time>2016-06-14T18:28:13Z</time></trkpt>
<trkpt lat="46.9293354" lon="7.5117995"><ele>569.4</ele><time>2016-06-14T18:28:14Z</time></trkpt>
<trkpt lat="46.9292966" lon="7.5116380"><ele>569.3</ele><time>2016-06-14T18:28:16Z</time></trkpt>
<trkpt lat="46.9293178" lon="7.5115663"><ele>569.2</ele><time>2016-06-14T18:28:17Z</time></trkpt>
<trkpt lat="46.9293358" lon="7.5110615"><ele>569.0</ele><time>2016-06-14T18:28:23Z</time></trkpt>
<trkpt lat="46.9293867" lon="7.5108980"><ele>568.9</ele><time>2016-06-14T18:28:25Z</time></trkpt>
<trkpt lat="46.9294508" lon="7.5103822"><ele>568.6</ele><time>2016-06-14T18:28:31Z</time></trkpt>
<trkpt lat="46.9299385" lon="7.5101592"><ele>567.8</ele><time>2016-06-14T18:28:38Z</time></trkpt>
<trkpt lat="46.9301302" lon="7.5099850"><ele>567.1</ele><time>2016-06-14T18:28:42Z</time></trkpt>
<trkpt lat="46.9302731" lon="7.5099214"><ele>566.8</ele><time>2016-06-14T18:28:44Z</time></trkpt>
<trkpt lat="46.9305095" lon="7.5097481"><ele>566.6</ele><time>2016-06-14T18:28:47Z</time></trkpt>
<trkpt lat="46.9305201" lon="7.5097797"><ele>566.6</ele><time>2016-06-14T18:28:49Z</time></trkpt>
<trkpt lat="46.9307074" lon="7.5096037"><ele>566.5</ele><time>2016-06-14T18:28:52Z</time></trkpt>
<trkpt lat="46.9309551" lon="7.5096001"><ele>565.8</ele><time>2016-06-14T18:28:56Z</time></trkpt>
<trkpt lat="46.9309843" lon="7.5093323"><ele>565.7</ele><time>2016-06-14T18:28:57Z</time></trkpt>
<trkpt lat="46.9312692" lon="7.5091301"><ele>564.8</ele><time>2016-06-14T18:29:02Z</time></trkpt>
<trkpt lat="46.9317094" lon="7.5087301"><ele>565.7</ele><time>2016-06-14T18:29:10Z</time></trkpt>
<trkpt lat="46.9318148" lon="7.5086690"><ele>565.4</ele><time>2016-06-14T18:29:12Z</time></trkpt>
<trkpt lat="46.9318926" lon="7.5085605"><ele>565.0</ele><time>2016-06-14T18:29:14Z</time></trkpt>
<trkpt lat="46.9319843" lon="7.5085552"><ele>564.9</ele><time>2016-06-14T18:29:15Z</time></trkpt>
<trkpt lat="46.9322268" lon="7.5083656"><ele>564.4</ele><time>2016-06-14T18:29:18Z</time></trkpt>
<trkpt lat="46.9324014" lon="7.5083074"><ele>564.1</ele><time>2016-06-14T18:29:21Z</time></trkpt>
<trkpt lat="46.9324784" lon="7.5077830"><ele>563.4</ele><time>2016-06-14T18:29:30Z</time></trkpt>
<trkpt lat="46.9327114" lon="7.5074139"><ele>563.8</ele><time>2016-06-14T18:29:34Z</time></trkpt>
<trkpt lat="46.9328553" lon="7.5073165"><ele>564.2</ele><time>2016-06-14T18:29:37Z</time></trkpt>
<trkpt lat="46.9328467" lon="7.5071561"><ele>564.0</ele><time>2016-06-14T18:29:39Z</time></trkpt>
<trkpt lat="46.9329639" lon="7.5070838"><ele>563.9</ele><time>2016-06-14T18:29:40Z</time></trkpt>
<trkpt lat="46.9330088" lon="7.5069881"><ele>563.7</ele><time>2016-06-14T18:29:42Z</time></trkpt>
<trkpt lat="46.9330195" lon="7.5067195"><ele>563.4</ele><time>2016-06-14T18:29:45Z</time></trkpt>
<trkpt lat="46.9330482" lon="7.5066459"><ele>563.3</ele><time>2016-06-14T18:29:46Z</time></trkpt>
<trkpt lat="46.9331210" lon="7.5065886"><ele>563.1</ele><time>2016-06-14T18:29:48Z</time></trkpt>
<trkpt lat="46.9332177" lon="7.5063298"><ele>562.6</ele><time>2016-06-14T18:29:53Z</time></trkpt>
<trkpt lat="46.9334042" lon="7.5061091"><ele>562.0</ele><time>2016-06-14T18:29:59Z</time></trkpt>
<trkpt lat="46.9336184" lon="7.5055473"><ele>561.5</ele><time>2016-06-14T18:30:05Z</time></trkpt>
<trkpt lat="46.9336669" lon="7.5055637"><ele>561.4</ele><time>2016-06-14T18:30:06Z</time></trkpt>
<trkpt lat="46.9337972" lon="7.5048507"><ele>560.8</ele><time>2016-06-14T18:30:12Z</time></trkpt>
<trkpt lat="46.9338109" lon="7.5047074"><ele>560.8</ele><time>2016-06-14T18:30:14Z</time></trkpt>
<trkpt lat="46.9338895" lon="7.5044824"><ele>560.6</ele><time>2016-06-14T18:30:17Z</time></trkpt>
<trkpt lat="46.9339110" lon="7.5043041"><ele>560.5</ele><time>2016-06-14T18:30:19Z</time></trkpt>
<trkpt lat="46.9339644" lon="7.5042485"><ele>560.5</ele><time>2016-06-14T18:30:20Z</time></trkpt>
<trkpt lat="46.9339669" lon="7.5040977"><ele>560.4</ele><time>2016-06-14T18:30:22Z</time></trkpt>
<trkpt lat="46.9340136" lon="7.5040325"><ele>560.3</ele><time>2016-06-14T18:30:23Z</time></trkpt>
<trkpt lat="46.9340229" lon="7.5037873"><ele>560.1</ele><time>2016-06-14T18:30:26Z</time></trkpt>
<trkpt lat="46.9341422" lon="7.5034734"><ele>559.8</ele><time>2016-06-14T18:30:30Z</time></trkpt>
<trkpt lat="46.9342044" lon="7.5033945"><ele>559.7</ele><time>2016-06-14T18:30:31Z</time></trkpt>
<trkpt lat="46.9343610" lon="7.5027557"><ele>559.2</ele><time>2016-06-14T18:30:38Z</time></trkpt>
<trkpt lat="46.9343973" lon="7.5026590"><ele>559.1</ele><time>2016-06-14T18:30:40Z</time></trkpt>
<trkpt lat="46.9344354" lon="7.5023586"><ele>558.9</ele><time>2016-06-14T18:30:43Z</time></trkpt>
<trkpt lat="46.9344972" lon="7.5016685"><ele>559.2</ele><time>2016-06-14T18:30:52Z</time></trkpt>
<trkpt lat="46.9344976" lon="7.5015892"><ele>559.2</ele><time>2016-06-14T18:30:53Z</time></trkpt>
<trkpt lat="46.9345989" lon="7.5014589"><ele>559.2</ele><time>2016-06-14T18:30:55Z</time></trkpt>
<trkpt lat="46.9347042" lon="7.5009827"><ele>559.1</ele><time>2016-06-14T18:31:01Z</time></trkpt>
<trkpt lat="46.9349435" lon="7.5003561"><ele>559.0</ele><time>2016-06-14T18:31:08Z</time></trkpt>
<trkpt lat="46.9350781" lon="7.4997248"><ele>558.9</ele><time>2016-06-14T18:31:16Z</time></trkpt>
<trkpt lat="46.9350100" lon="7.4996036"><ele>558.8</ele><time>2016-06-14T18:31:17Z</time></trkpt>
<trkpt lat="46.9351548" lon="7.4989606"><ele>558.7</ele><time>2016-06-14T18:31:26Z</time></trkpt>
<trkpt lat="46.9353017" lon="7.4983190"><ele>558.6</ele><time>2016-06-14T18:31:35Z</time></trkpt>
<trkpt lat="46.9354217" lon="7.4976646"><ele>558.7</ele><time>2016-06-14T18:31:42Z</time></trkpt>
<trkpt lat="46.9355341" lon="7.4969799"><ele>559.0</ele><time>2016-06-14T18:31:50Z</time></trkpt>
<trkpt lat="46.9355961" lon="7.4962717"><ele>559.5</ele><time>2016-06-14T18:32:00Z</time></trkpt>
<trkpt lat="46.9356101" lon="7.4955850"><ele>559.7</ele><time>2016-06-14T18:32:08Z</time></trkpt>
<trkpt lat="46.9356138" lon="7.4948780"><ele>559.0</ele><time>2016-06-14T18:32:16Z</time></trkpt>
<trkpt lat="46.9356099" lon="7.4941871"><ele>558.5</ele><time>2016-06-14T18:32:24Z</time></trkpt>
<trkpt lat="46.9356015" lon="7.4934724"><ele>558.1</ele><time>2016-06-14T18:32:34Z</time></trkpt>
<trkpt lat="46.9356091" lon="7.4930188"><ele>558.0</ele><time>2016-06-14T18:32:40Z</time></trkpt>
<trkpt lat="46.9358710" lon="7.4925337"><ele>557.9</ele><time>2016-06-14T18:32:47Z</time></trkpt>
<trkpt lat="46.9365384" lon="7.4925550"><ele>557.9</ele><time>2016-06-14T18:32:48Z</time></trkpt>
<trkpt lat="46.9369051" lon="7.4923334"><ele>557.8</ele><time>2016-06-14T18:32:55Z</time></trkpt>
<trkpt lat="46.9370096" lon="7.4920475"><ele>557.7</ele><time>2016-06-14T18:32:57Z</time></trkpt>
<trkpt lat="46.9371527" lon="7.4919686"><ele>557.6</ele><time>2016-06-14T18:33:08Z</time></trkpt>
<trkpt lat="46.9376153" lon="7.4912387"><ele>557.5</ele><time>2016-06-14T18:33:13Z</time></trkpt>
<trkpt lat="46.9377462" lon="7.4909926"><ele>557.4</ele><time>2016-06-14T18:33:17Z</time></trkpt>
<trkpt lat="46.9378268" lon="7.4909266"><ele>557.4</ele><time>2016-06-14T18:33:18Z</time></trkpt>
<trkpt lat="46.9379041" lon="7.4906591"><ele>557.3</ele><time>2016-06-14T18:33:22Z</time></trkpt>
<trkpt lat="46.9379474" lon="7.4905988"><ele>557.3</ele><time>2016-06-14T18:33:23Z</time></trkpt>
<trkpt lat="46.9379168" lon="7.4905610"><ele>557.3</ele><time>2016-06-14T18:33:24Z</time></trkpt>
<trkpt lat="46.9380453" lon="7.4903889"><ele>557.3</ele><time>2016-06-14T18:33:26Z</time></trkpt>
<trkpt lat="46.9380595" lon="7.4901823"><ele>557.2</ele><time>2016-06-14T18:33:29Z</time></trkpt>
<trkpt lat="46.9381131" lon="7.4901278"><ele>557.2</ele><time>2016-06-14T18:33:30Z</time></trkpt>
<trkpt lat="46.9380481" lon="7.4900253"><ele>557.2</ele><time>2016-06-14T18:33:31Z</time></trkpt>
<trkpt lat="46.9383692" lon="7.4894602"><ele>557.0</ele><time>2016-06-14T18:33:40Z</time></trkpt>
<trkpt lat="46.9385075" lon="7.4892038"><ele>557.0</ele><time>2016-06-14T18:33:43Z</time></trkpt>
<trkpt lat="46.9387021" lon="7.4891168"><ele>557.0</ele><time>2016-06-14T18:33:44Z</time></trkpt>
<trkpt lat="46.9388322" lon="7.4889681"><ele>556.9</ele><time>2016-06-14T18:33:47Z</time></trkpt>
<trkpt lat="46.9388990" lon="7.4888303"><ele>556.9</ele><time>2016-06-14T18:33:49Z</time></trkpt>
<trkpt lat="46.9390483" lon="7.4887513"><ele>556.8</ele><time>2016-06-14T18:33:51Z</time></trkpt>
<trkpt lat="46.9392197" lon="7.4885154"><ele>556.8</ele><time>2016-06-14T18:33:55Z</time></trkpt>
<trkpt lat="46.9393208" lon="7.4884420"><ele>556.7</ele><time>2016-06-14T18:33:57Z</time></trkpt>
<trkpt lat="46.9393236" lon="7.4883245"><ele>556.7</ele><time>2016-06-14T18:33:59Z</time></trkpt>
<trkpt lat="46.9394408" lon="7.4882345"><ele>556.7</ele><time>2016-06-14T18:34:01Z</time></trkpt>
<trkpt lat="46.9395830" lon="7.4880404"><ele>556.6</ele><time>2016-06-14T18:34:05Z</time></trkpt>
<trkpt lat="46.9396495" lon="7.4879869"><ele>556.6</ele><time>2016-06-14T18:34:06Z</time></trkpt>
<trkpt lat="46.9396681" lon="7.4878937"><ele>556.6</ele><time>2016-06-14T18:34:07Z</time></trkpt>
<trkpt lat="46.9398317" lon="7.4876975"><ele>556.5</ele><time>2016-06-14T18:34:10Z</time></trkpt>
<trkpt lat="46.9398203" lon="7.4876256"><ele>556.5</ele><time>2016-06-14T18:34:11Z</time></trkpt>
<trkpt lat="46.9398586" lon="7.4875732"><ele>556.5</ele><time>2016-06-14T18:34:12Z</time></trkpt>
<trkpt lat="46.9398996" lon="7.4874227"><ele>556.5</ele><time>2016-06-14T18:34:14Z</time></trkpt>
<trkpt lat="46.9400646" lon="7.4872536"><ele>556.4</ele><time>2016-06-14T18:34:16Z</time></trkpt>
<trkpt lat="46.9401904" lon="7.4870808"><ele>556.4</ele><time>2016-06-14T18:34:18Z</time></trkpt>
<trkpt lat="46.9401328" lon="7.4870227"><ele>556.4</ele><time>2016-06-14T18:34:19Z</time></trkpt>
<trkpt lat="46.9401646" lon="7.4869938"><ele>556.4</ele><time>2016-06-14T18:34:20Z</time></trkpt>
<trkpt lat="46.9402450" lon="7.4866460"><ele>556.3</ele><time>2016-06-14T18:34:25Z</time></trkpt>
<trkpt lat="46.9403822" lon="7.4863308"><ele>556.2</ele><time>2016-06-14T18:34:30Z</time></trkpt>
<trkpt lat="46.9404946" lon="7.4861843"><ele>556.1</ele><time>2016-06-14T18:34:33Z</time></trkpt>
<trkpt lat="46.9406159" lon="7.4857425"><ele>556.1</ele><time>2016-06-14T18:34:38Z</time></trkpt>
<trkpt lat="46.9406932" lon="7.4856572"><ele>556.0</ele><time>2016-06-14T18:34:41Z</time></trkpt>
<trkpt lat="46.9406331" lon="7.4855450"><ele>556.0</ele><time>2016-06-14T18:34:44Z</time></trkpt>
<trkpt lat="46.9406502" lon="7.4854631"><ele>555.9</ele><time>2016-06-14T18:34:45Z</time></trkpt>
<trkpt lat="46.9407153" lon="7.4853560"><ele>555.9</ele><time>2016-06-14T18:34:47Z</time></trkpt>
<trkpt lat="46.9406980" lon="7.4852974"><ele>555.9</ele><time>2016-06-14T18:34:48Z</time></trkpt>
<trkpt lat="46.9407068" lon="7.4852213"><ele>555.9</ele><time>2016-06-14T18:34:49Z</time></trkpt>
<trkpt lat="46.9409902" lon="7.4850120"><ele>555.8</ele><time>2016-06-14T18:34:52Z</time></trkpt>
<trkpt lat="46.9409994" lon="7.4848888"><ele>555.8</ele><time>2016-06-14T18:34:54Z</time></trkpt>
<trkpt lat="46.9410828" lon="7.4848214"><ele>555.8</ele><time>2016-06-14T18:34:55Z</time></trkpt>
<trkpt lat="46.9410630" lon="7.4847825"><ele>555.8</ele><time>2016-06-14T18:34:56Z</time></trkpt>
<trkpt lat="46.9411243" lon="7.4846761"><ele>555.7</ele><time>2016-06-14T18:34:58Z</time></trkpt>
<trkpt lat="46.9411293" lon="7.4846022"><ele>555.7</ele><time>2016-06-14T18:34:59Z</time></trkpt>
<trkpt lat="46.9412754" lon="7.4843480"><ele>555.6</ele><time>2016-06-14T18:35:04Z</time></trkpt>
<trkpt lat="46.9413584" lon="7.4843049"><ele>555.6</ele><time>2016-06-14T18:35:05Z</time></trkpt>
<trkpt lat="46.9413507" lon="7.4842775"><ele>555.6</ele><time>2016-06-14T18:35:06Z</time></trkpt>
<trkpt lat="46.9414713" lon="7.4841196"><ele>555.5</ele><time>2016-06-14T18:35:09Z</time></trkpt>
<trkpt lat="46.9414976" lon="7.4840120"><ele>555.5</ele><time>2016-06-14T18:35:10Z</time></trkpt>
<trkpt lat="46.9415424" lon="7.4839377"><ele>555.5</ele><time>2016-06-14T18:35:11Z</time></trkpt>
<trkpt lat="46.9416781" lon="7.4838164"><ele>555.5</ele><time>2016-06-14T18:35:13Z</time></trkpt>
<trkpt lat="46.9416714" lon="7.4837245"><ele>555.5</ele><time>2016-06-14T18:35:14Z</time></trkpt>
<trkpt lat="46.9417821" lon="7.4834414"><ele>555.4</ele><time>2016-06-14T18:35:16Z</time></trkpt>
<trkpt lat="46.9421790" lon="7.4829396"><ele>555.1</ele><time>2016-06-14T18:35:22Z</time></trkpt>
<trkpt lat="46.9423507" lon="7.4829114"><ele>555.0</ele><time>2016-06-14T18:35:24Z</time></trkpt>
<trkpt lat="46.9426329" lon="7.4825745"><ele>555.1</ele><time>2016-06-14T18:35:29Z</time></trkpt>
<trkpt lat="46.9426948" lon="7.4825609"><ele>555.2</ele><time>2016-06-14T18:35:31Z</time></trkpt>
<trkpt lat="46.9427043" lon="7.4825898"><ele>555.3</ele><time>2016-06-14T18:35:32Z</time></trkpt>
<trkpt lat="46.9427412" lon="7.4825176"><ele>555.3</ele><time>2016-06-14T18:35:33Z</time></trkpt>
<trkpt lat="46.9428297" lon="7.4824310"><ele>555.5</ele><time>2016-06-14T18:35:35Z</time></trkpt>
<trkpt lat="46.9428751" lon="7.4824449"><ele>555.5</ele><time>2016-06-14T18:35:36Z</time></trkpt>
<trkpt lat="46.9429021" lon="7.4823394"><ele>555.6</ele><time>2016-06-14T18:35:37Z</time></trkpt>
<trkpt lat="46.9430546" lon="7.4821997"><ele>555.8</ele><time>2016-06-14T18:35:42Z</time></trkpt>
<trkpt lat="46.9431417" lon="7.4820048"><ele>555.7</ele><time>2016-06-14T18:35:43Z</time></trkpt>
<trkpt lat="46.9433086" lon="7.4817768"><ele>554.9</ele><time>2016-06-14T18:35:48Z</time></trkpt>
<trkpt lat="46.9435756" lon="7.4811977"><ele>554.1</ele><time>2016-06-14T18:35:58Z</time></trkpt>
<trkpt lat="46.9438422" lon="7.4806310"><ele>556.2</ele><time>2016-06-14T18:36:11Z</time></trkpt>
<trkpt lat="46.9440113" lon="7.4801696"><ele>559.5</ele><time>2016-06-14T18:36:23Z</time></trkpt>
<trkpt lat="46.9443352" lon="7.4799425"><ele>560.2</ele><time>2016-06-14T18:36:30Z</time></trkpt>
<trkpt lat="46.9443654" lon="7.4800056"><ele>560.3</ele><time>2016-06-14T18:36:31Z</time></trkpt>
<trkpt lat="46.9445459" lon="7.4799385"><ele>562.7</ele><time>2016-06-14T18:36:39Z</time></trkpt>
<trkpt lat="46.9445180" lon="7.4798185"><ele>564.3</ele><time>2016-06-14T18:36:44Z</time></trkpt>
<trkpt lat="46.9449815" lon="7.4796744"><ele>569.4</ele><time>2016-06-14T18:37:01Z</time></trkpt>
<trkpt lat="46.9454061" lon="7.4793783"><ele>571.2</ele><time>2016-06-14T18:37:18Z</time></trkpt>
<trkpt lat="46.9455325" lon="7.4793846"><ele>572.2</ele><time>2016-06-14T18:37:26Z</time></trkpt>
<trkpt lat="46.9457834" lon="7.4792893"><ele>573.3</ele><time>2016-06-14T18:37:38Z</time></trkpt>
<trkpt lat="46.9458871" lon="7.4793747"><ele>573.1</ele><time>2016-06-14T18:37:43Z</time></trkpt>
<trkpt lat="46.9459832" lon="7.4793457"><ele>573.8</ele><time>2016-06-14T18:37:52Z</time></trkpt>
<trkpt lat="46.9462200" lon="7.4794110"><ele>574.0</ele><time>2016-06-14T18:37:55Z</time></trkpt>
<trkpt lat="46.9466517" lon="7.4792460"><ele>574.5</ele><time>2016-06-14T18:38:18Z</time></trkpt>
<trkpt lat="46.9468062" lon="7.4789794"><ele>574.2</ele><time>2016-06-14T18:38:21Z</time></trkpt>
<trkpt lat="46.9469661" lon="7.4787464"><ele>573.9</ele><time>2016-06-14T18:38:24Z</time></trkpt>
<trkpt lat="46.9469533" lon="7.4786910"><ele>573.7</ele><time>2016-06-14T18:38:26Z</time></trkpt>
<trkpt lat="46.9471904" lon="7.4785223"><ele>575.3</ele><time>2016-06-14T18:38:30Z</time></trkpt>
<trkpt lat="46.9472756" lon="7.4783950"><ele>576.1</ele><time>2016-06-14T18:38:32Z</time></trkpt>
<trkpt lat="46.9474783" lon="7.4782965"><ele>576.2</ele><time>2016-06-14T18:38:36Z</time></trkpt>
<trkpt lat="46.9475935" lon="7.4782957"><ele>576.3</ele><time>2016-06-14T18:38:38Z</time></trkpt>
<trkpt lat="46.9476083" lon="7.4782530"><ele>576.4</ele><time>2016-06-14T18:38:39Z</time></trkpt>
<trkpt lat="46.9476726" lon="7.4782519"><ele>576.6</ele><time>2016-06-14T18:38:40Z</time></trkpt>
<trkpt lat="46.9477463" lon="7.4781291"><ele>577.0</ele><time>2016-06-14T18:38:43Z</time></trkpt>
<trkpt lat="46.9479633" lon="7.4780225"><ele>577.6</ele><time>2016-06-14T18:38:47Z</time></trkpt>
<trkpt lat="46.9480104" lon="7.4778817"><ele>577.7</ele><time>2016-06-14T18:38:49Z</time></trkpt>
<trkpt lat="46.9481882" lon="7.4776773"><ele>578.1</ele><time>2016-06-14T18:38:57Z</time></trkpt>
<trkpt lat="46.9485832" lon="7.4772848"><ele>579.2</ele><time>2016-06-14T18:39:10Z</time></trkpt>
<trkpt lat="46.9487471" lon="7.4772095"><ele>579.5</ele><time>2016-06-14T18:39:13Z</time></trkpt>
<trkpt lat="46.9487919" lon="7.4772191"><ele>579.6</ele><time>2016-06-14T18:39:14Z</time></trkpt>
<trkpt lat="46.9489158" lon="7.4770371"><ele>579.8</ele><time>2016-06-14T18:39:17Z</time></trkpt>
<trkpt lat="46.9489422" lon="7.4769590"><ele>579.9</ele><time>2016-06-14T18:39:18Z</time></trkpt>
<trkpt lat="46.9491887" lon="7.4768183"><ele>580.4</ele><time>2016-06-14T18:39:23Z</time></trkpt>
<trkpt lat="46.9493684" lon="7.4768010"><ele>580.6</ele><time>2016-06-14T18:39:26Z</time></trkpt>
<trkpt lat="46.9497331" lon="7.4764872"><ele>581.6</ele><time>2016-06-14T18:39:34Z</time></trkpt>
<trkpt lat="46.9499279" lon="7.4764260"><ele>582.4</ele><time>2016-06-14T18:39:38Z</time></trkpt>
<trkpt lat="46.9499493" lon="7.4763914"><ele>582.6</ele><time>2016-06-14T18:39:39Z</time></trkpt>
<trkpt lat="46.9499860" lon="7.4764120"><ele>582.8</ele><time>2016-06-14T18:39:40Z</time></trkpt>
<trkpt lat="46.9501974" lon="7.4762873"><ele>584.0</ele><time>2016-06-14T18:39:46Z</time></trkpt>
<trkpt lat="46.9504880" lon="7.4760339"><ele>584.7</ele><time>2016-06-14T18:39:57Z</time></trkpt>
<trkpt lat="46.9505501" lon="7.4758685"><ele>584.7</ele><time>2016-06-14T18:40:01Z</time></trkpt>
<trkpt lat="46.9505715" lon="7.4756845"><ele>584.6</ele><time>2016-06-14T18:40:05Z</time></trkpt>
<trkpt lat="46.9507204" lon="7.4754916"><ele>584.3</ele><time>2016-06-14T18:40:11Z</time></trkpt>
<trkpt lat="46.9507826" lon="7.4753431"><ele>584.2</ele><time>2016-06-14T18:40:13Z</time></trkpt>
<trkpt lat="46.9507941" lon="7.4752484"><ele>584.2</ele><time>2016-06-14T18:40:14Z</time></trkpt>
<trkpt lat="46.9508782" lon="7.4750766"><ele>583.8</ele><time>2016-06-14T18:40:17Z</time></trkpt>
<trkpt lat="46.9508472" lon="7.4748170"><ele>583.6</ele><time>2016-06-14T18:40:18Z</time></trkpt>
<trkpt lat="46.9509970" lon="7.4746064"><ele>582.8</ele><time>2016-06-14T18:40:21Z</time></trkpt>
<trkpt lat="46.9508902" lon="7.4744449"><ele>582.3</ele><time>2016-06-14T18:40:23Z</time></trkpt>
<trkpt lat="46.9509889" lon="7.4744327"><ele>582.0</ele><time>2016-06-14T18:40:24Z</time></trkpt>
<trkpt lat="46.9509300" lon="7.4742984"><ele>581.8</ele><time>2016-06-14T18:40:25Z</time></trkpt>
<trkpt lat="46.9508213" lon="7.4736584"><ele>580.9</ele><time>2016-06-14T18:40:31Z</time></trkpt>
<trkpt lat="46.9507564" lon="7.4731196"><ele>579.3</ele><time>2016-06-14T18:40:36Z</time></trkpt>
<trkpt lat="46.9507171" lon="7.4731330"><ele>578.9</ele><time>2016-06-14T18:40:37Z</time></trkpt>
<trkpt lat="46.9507052" lon="7.4730366"><ele>578.4</ele><time>2016-06-14T18:40:38Z</time></trkpt>
<trkpt lat="46.9508239" lon="7.4728998"><ele>577.4</ele><time>2016-06-14T18:40:39Z</time></trkpt>
<trkpt lat="46.9507357" lon="7.4724591"><ele>576.5</ele><time>2016-06-14T18:40:40Z</time></trkpt>
<trkpt lat="46.9511299" lon="7.4721214"><ele>572.2</ele><time>2016-06-14T18:40:47Z</time></trkpt>
<trkpt lat="46.9518135" lon="7.4715629"><ele>571.3</ele><time>2016-06-14T18:40:53Z</time></trkpt>
<trkpt lat="46.9522098" lon="7.4712252"><ele>569.3</ele><time>2016-06-14T18:41:01Z</time></trkpt>
<trkpt lat="46.9526625" lon="7.4708392"><ele>569.0</ele><time>2016-06-14T18:41:06Z</time></trkpt>
<trkpt lat="46.9530703" lon="7.4704887"><ele>568.6</ele><time>2016-06-14T18:41:13Z</time></trkpt>
<trkpt lat="46.9533946" lon="7.4704020"><ele>567.3</ele><time>2016-06-14T18:41:25Z</time></trkpt>
</trkseg>
<trkseg>
<trkpt lat="46.9533946" lon="7.4704020"><ele>567.3</ele><time>2016-06-14T18:42:10Z</time></trkpt>
<trkpt lat="46.9536405" lon="7.4703712"><ele>566.4</ele><time>2016-06-14T18:42:15Z</time></trkpt>
<trkpt lat="46.9538511" lon="7.4702418"><ele>566.3</ele><time>2016-06-14T18:42:19Z</time></trkpt>
<trkpt lat="46.9539081" lon="7.4701517"><ele>566.2</ele><time>2016-06-14T18:42:21Z</time></trkpt>
<trkpt lat="46.9540292" lon="7.4701048"><ele>566.2</ele><time>2016-06-14T18:42:22Z</time></trkpt>
<trkpt lat="46.9541308" lon="7.4700196"><ele>565.7</ele><time>2016-06-14T18:42:24Z</time></trkpt>
<trkpt lat="46.9542316" lon="7.4698115"><ele>565.0</ele><time>2016-06-14T18:42:27Z</time></trkpt>
<trkpt lat="46.9543650" lon="7.4696938"><ele>564.8</ele><time>2016-06-14T18:42:29Z</time></trkpt>
<trkpt lat="46.9546516" lon="7.4695577"><ele>564.5</ele><time>2016-06-14T18:42:33Z</time></trkpt>
<trkpt lat="46.9547146" lon="7.4694606"><ele>564.4</ele><time>2016-06-14T18:42:34Z</time></trkpt>
<trkpt lat="46.9548065" lon="7.4694339"><ele>564.3</ele><time>2016-06-14T18:42:35Z</time></trkpt>
<trkpt lat="46.9549375" lon="7.4693312"><ele>564.1</ele><time>2016-06-14T18:42:37Z</time></trkpt>
<trkpt lat="46.9549717" lon="7.4691845"><ele>564.1</ele><time>2016-06-14T18:42:38Z</time></trkpt>
<trkpt lat="46.9550729" lon="7.4692430"><ele>564.0</ele><time>2016-06-14T18:42:39Z</time></trkpt>
<trkpt lat="46.9553324" lon="7.4690458"><ele>563.6</ele><time>2016-06-14T18:42:43Z</time></trkpt>
<trkpt lat="46.9556932" lon="7.4686214"><ele>562.7</ele><time>2016-06-14T18:42:50Z</time></trkpt>
<trkpt lat="46.9556796" lon="7.4685578"><ele>562.6</ele><time>2016-06-14T18:42:51Z</time></trkpt>
<trkpt lat="46.9557394" lon="7.4684683"><ele>562.5</ele><time>2016-06-14T18:42:52Z</time></trkpt>
<trkpt lat="46.9559118" lon="7.4684263"><ele>562.3</ele><time>2016-06-14T18:42:53Z</time></trkpt>
<trkpt lat="46.9559235" lon="7.4683230"><ele>562.2</ele><time>2016-06-14T18:42:54Z</time></trkpt>
<trkpt lat="46.9559618" lon="7.4682396"><ele>562.1</ele><time>2016-06-14T18:42:55Z</time></trkpt>
<trkpt lat="46.9560579" lon="7.4681759"><ele>561.9</ele><time>2016-06-14T18:42:56Z</time></trkpt>
<trkpt lat="46.9561070" lon="7.4681057"><ele>562.6</ele><time>2016-06-14T18:42:57Z</time></trkpt>
<trkpt lat="46.9560898" lon="7.4680429"><ele>563.2</ele><time>2016-06-14T18:42:58Z</time></trkpt>
<trkpt lat="46.9562959" lon="7.4678248"><ele>565.1</ele><time>2016-06-14T18:43:01Z</time></trkpt>
<trkpt lat="46.9563868" lon="7.4678529"><ele>565.8</ele><time>2016-06-14T18:43:02Z</time></trkpt>
<trkpt lat="46.9565750" lon="7.4675393"><ele>564.7</ele><time>2016-06-14T18:43:06Z</time></trkpt>
<trkpt lat="46.9569918" lon="7.4671039"><ele>562.7</ele><time>2016-06-14T18:43:13Z</time></trkpt>
<trkpt lat="46.9574875" lon="7.4665362"><ele>563.1</ele><time>2016-06-14T18:43:18Z</time></trkpt>
<trkpt lat="46.9578678" lon="7.4660812"><ele>563.1</ele><time>2016-06-14T18:43:26Z</time></trkpt>
<trkpt lat="46.9582434" lon="7.4656032"><ele>561.9</ele><time>2016-06-14T18:43:32Z</time></trkpt>
<trkpt lat="46.9585878" lon="7.4651449"><ele>560.7</ele><time>2016-06-14T18:43:40Z</time></trkpt>
<trkpt lat="46.9589216" lon="7.4646220"><ele>559.6</ele><time>2016-06-14T18:43:51Z</time></trkpt>
<trkpt lat="46.9591550" lon="7.4642218"><ele>559.1</ele><time>2016-06-14T18:43:58Z</time></trkpt>
<trkpt lat="46.9593820" lon="7.4639696"><ele>558.8</ele><time>2016-06-14T18:44:02Z</time></trkpt>
<trkpt lat="46.9594651" lon="7.4636638"><ele>558.6</ele><time>2016-06-14T18:44:05Z</time></trkpt>
<trkpt lat="46.9594027" lon="7.4635275"><ele>558.5</ele><time>2016-06-14T18:44:06Z</time></trkpt>
<trkpt lat="46.9596019" lon="7.4629186"><ele>558.3</ele><time>2016-06-14T18:44:12Z</time></trkpt>
<trkpt lat="46.9596195" lon="7.4627839"><ele>558.2</ele><time>2016-06-14T18:44:14Z</time></trkpt>
<trkpt lat="46.9597439" lon="7.4623928"><ele>558.3</ele><time>2016-06-14T18:44:20Z</time></trkpt>
<trkpt lat="46.9595996" lon="7.4622259"><ele>558.3</ele><time>2016-06-14T18:44:21Z</time></trkpt>
<trkpt lat="46.9596473" lon="7.4623273"><ele>558.3</ele><time>2016-06-14T18:44:23Z</time></trkpt>
<trkpt lat="46.9597390" lon="7.4623755"><ele>558.3</ele><time>2016-06-14T18:44:24Z</time></trkpt>
<trkpt lat="46.9595888" lon="7.4621889"><ele>558.3</ele><time>2016-06-14T18:44:26Z</time></trkpt>
<trkpt lat="46.9594578" lon="7.4615578"><ele>558.3</ele><time>2016-06-14T18:44:36Z</time></trkpt>
<trkpt lat="46.9596008" lon="7.4614363"><ele>558.3</ele><time>2016-06-14T18:44:37Z</time></trkpt>
<trkpt lat="46.9595447" lon="7.4612342"><ele>558.4</ele><time>2016-06-14T18:44:40Z</time></trkpt>
<trkpt lat="46.9595559" lon="7.4610539"><ele>558.4</ele><time>2016-06-14T18:44:42Z</time></trkpt>
<trkpt lat="46.9595844" lon="7.4612778"><ele>558.4</ele><time>2016-06-14T18:44:43Z</time></trkpt>
<trkpt lat="46.9594194" lon="7.4606111"><ele>558.4</ele><time>2016-06-14T18:44:48Z</time></trkpt>
<trkpt lat="46.9593628" lon="7.4600926"><ele>558.4</ele><time>2016-06-14T18:44:55Z</time></trkpt>
<trkpt lat="46.9592550" lon="7.4598392"><ele>558.5</ele><time>2016-06-14T18:44:59Z</time></trkpt>
<trkpt lat="46.9592727" lon="7.4598001"><ele>558.5</ele><time>2016-06-14T18:45:00Z</time></trkpt>
<trkpt lat="46.9592258" lon="7.4597951"><ele>558.5</ele><time>2016-06-14T18:45:03Z</time></trkpt>
<trkpt lat="46.9591791" lon="7.4592933"><ele>558.5</ele><time>2016-06-14T18:45:06Z</time></trkpt>
<trkpt lat="46.9591137" lon="7.4590249"><ele>558.5</ele><time>2016-06-14T18:45:11Z</time></trkpt>
<trkpt lat="46.9589626" lon="7.4589005"><ele>558.5</ele><time>2016-06-14T18:45:12Z</time></trkpt>
<trkpt lat="46.9589493" lon="7.4586934"><ele>558.5</ele><time>2016-06-14T18:45:16Z</time></trkpt>
<trkpt lat="46.9591338" lon="7.4588432"><ele>558.5</ele><time>2016-06-14T18:45:17Z</time></trkpt>
<trkpt lat="46.9590513" lon="7.4583235"><ele>558.6</ele><time>2016-06-14T18:45:18Z</time></trkpt>
<trkpt lat="46.9589699" lon="7.4581925"><ele>558.6</ele><time>2016-06-14T18:45:20Z</time></trkpt>
<trkpt lat="46.9588182" lon="7.4581980"><ele>558.6</ele><time>2016-06-14T18:45:21Z</time></trkpt>
<trkpt lat="46.9586869" lon="7.4574854"><ele>558.6</ele><time>2016-06-14T18:45:30Z</time></trkpt>
<trkpt lat="46.9586338" lon="7.4571471"><ele>558.6</ele><time>2016-06-14T18:45:35Z</time></trkpt>
<trkpt lat="46.9588130" lon="7.4570431"><ele>558.6</ele><time>2016-06-14T18:45:36Z</time></trkpt>
<trkpt lat="46.9586247" lon="7.4571015"><ele>558.7</ele><time>2016-06-14T18:45:39Z</time></trkpt>
<trkpt lat="46.9586886" lon="7.4570367"><ele>558.7</ele><time>2016-06-14T18:45:43Z</time></trkpt>
<trkpt lat="46.9586286" lon="7.4570507"><ele>558.7</ele><time>2016-06-14T18:45:44Z</time></trkpt>
<trkpt lat="46.9584006" lon="7.4568366"><ele>558.7</ele><time>2016-06-14T18:45:45Z</time></trkpt>
<trkpt lat="46.9584219" lon="7.4566765"><ele>558.7</ele><time>2016-06-14T18:45:48Z</time></trkpt>
<trkpt lat="46.9582302" lon="7.4566883"><ele>558.7</ele><time>2016-06-14T18:45:49Z</time></trkpt>
<trkpt lat="46.9577605" lon="7.4563178"><ele>558.7</ele><time>2016-06-14T18:45:57Z</time></trkpt>
<trkpt lat="46.9572184" lon="7.4559396"><ele>558.8</ele><time>2016-06-14T18:46:06Z</time></trkpt>
<trkpt lat="46.9570730" lon="7.4557806"><ele>558.8</ele><time>2016-06-14T18:46:14Z</time></trkpt>
<trkpt lat="46.9567786" lon="7.4551876"><ele>558.9</ele><time>2016-06-14T18:46:24Z</time></trkpt>
<trkpt lat="46.9564861" lon="7.4545563"><ele>558.9</ele><time>2016-06-14T18:46:34Z</time></trkpt>
<trkpt lat="46.9562288" lon="7.4539890"><ele>559.0</ele><time>2016-06-14T18:46:46Z</time></trkpt>
<trkpt lat="46.9559806" lon="7.4534388"><ele>559.0</ele><time>2016-06-14T18:46:57Z</time></trkpt>
<trkpt lat="46.9556743" lon="7.4527648"><ele>559.5</ele><time>2016-06-14T18:47:08Z</time></trkpt>
<trkpt lat="46.9554224" lon="7.4522193"><ele>560.8</ele><time>2016-06-14T18:47:17Z</time></trkpt>
<trkpt lat="46.9551832" lon="7.4516283"><ele>559.9</ele><time>2016-06-14T18:47:26Z</time></trkpt>
<trkpt lat="46.9551530" lon="7.4514484"><ele>559.1</ele><time>2016-06-14T18:47:30Z</time></trkpt>
<trkpt lat="46.9549954" lon="7.4512516"><ele>559.1</ele><time>2016-06-14T18:47:35Z</time></trkpt>
<trkpt lat="46.9547413" lon="7.4506986"><ele>559.0</ele><time>2016-06-14T18:47:40Z</time></trkpt>
<trkpt lat="46.9547047" lon="7.4507823"><ele>558.5</ele><time>2016-06-14T18:47:42Z</time></trkpt>
<trkpt lat="46.9547648" lon="7.4504471"><ele>558.3</ele><time>2016-06-14T18:47:43Z</time></trkpt>
<trkpt lat="46.9552487" lon="7.4501351"><ele>557.7</ele><time>2016-06-14T18:47:46Z</time></trkpt>
<trkpt lat="46.9551520" lon="7.4499348"><ele>557.0</ele><time>2016-06-14T18:47:49Z</time></trkpt>
<trkpt lat="46.9550929" lon="7.4498768"><ele>556.6</ele><time>2016-06-14T18:47:51Z</time></trkpt>
<trkpt lat="46.9550222" lon="7.4493857"><ele>556.0</ele><time>2016-06-14T18:47:52Z</time></trkpt>
<trkpt lat="46.9551781" lon="7.4487403"><ele>552.8</ele><time>2016-06-14T18:47:58Z</time></trkpt>
<trkpt lat="46.9551924" lon="7.4486879"><ele>552.3</ele><time>2016-06-14T18:47:59Z</time></trkpt>
<trkpt lat="46.9549297" lon="7.4485240"><ele>550.2</ele><time>2016-06-14T18:48:03Z</time></trkpt>
<trkpt lat="46.9546968" lon="7.4484367"><ele>549.7</ele><time>2016-06-14T18:48:04Z</time></trkpt>
<trkpt lat="46.9547772" lon="7.4484834"><ele>549.1</ele><time>2016-06-14T18:48:05Z</time></trkpt>
<trkpt lat="46.9545925" lon="7.4481655"><ele>548.0</ele><time>2016-06-14T18:48:07Z</time></trkpt>
<trkpt lat="46.9545282" lon="7.4474706"><ele>545.6</ele><time>2016-06-14T18:48:11Z</time></trkpt>
<trkpt lat="46.9544935" lon="7.4468004"><ele>543.4</ele><time>2016-06-14T18:48:15Z</time></trkpt>
<trkpt lat="46.9544731" lon="7.4463722"><ele>542.1</ele><time>2016-06-14T18:48:19Z</time></trkpt>
<trkpt lat="46.9546994" lon="7.4461701"><ele>541.7</ele><time>2016-06-14T18:48:20Z</time></trkpt>
<trkpt lat="46.9544718" lon="7.4463456"><ele>541.1</ele><time>2016-06-14T18:48:22Z</time></trkpt>
<trkpt lat="46.9543026" lon="7.4456672"><ele>537.1</ele><time>2016-06-14T18:48:24Z</time></trkpt>
</trkseg>
<trkseg>
<trkpt lat="46.9543026" lon="7.4456672"><ele>537.1</ele><time>2016-06-14T18:49:05Z</time></trkpt>
<trkpt lat="46.9541406" lon="7.4452093"><ele>533.5</ele><time>2016-06-14T18:49:09Z</time></trkpt>
<trkpt lat="46.9540071" lon="7.4450902"><ele>531.9</ele><time>2016-06-14T18:49:11Z</time></trkpt>
<trkpt lat="46.9536682" lon="7.4445591"><ele>529.6</ele><time>2016-06-14T18:49:17Z</time></trkpt>
<trkpt lat="46.9533122" lon="7.4439858"><ele>527.1</ele><time>2016-06-14T18:49:23Z</time></trkpt>
<trkpt lat="46.9529842" lon="7.4434570"><ele>523.4</ele><time>2016-06-14T18:49:29Z</time></trkpt>
<trkpt lat="46.9526369" lon="7.4428984"><ele>521.1</ele><time>2016-06-14T18:49:36Z</time></trkpt>
<trkpt lat="46.9523033" lon="7.4423514"><ele>525.6</ele><time>2016-06-14T18:49:59Z</time></trkpt>
<trkpt lat="46.9521803" lon="7.4421422"><ele>526.5</ele><time>2016-06-14T18:50:03Z</time></trkpt>
<trkpt lat="46.9524548" lon="7.4419050"><ele>526.9</ele><time>2016-06-14T18:50:04Z</time></trkpt>
<trkpt lat="46.9526693" lon="7.4415934"><ele>528.1</ele><time>2016-06-14T18:50:07Z</time></trkpt>
<trkpt lat="46.9531304" lon="7.4410659"><ele>531.3</ele><time>2016-06-14T18:50:18Z</time></trkpt>
<trkpt lat="46.9533387" lon="7.4407735"><ele>531.8</ele><time>2016-06-14T18:50:25Z</time></trkpt>
<trkpt lat="46.9533900" lon="7.4405401"><ele>532.6</ele><time>2016-06-14T18:50:28Z</time></trkpt>
<trkpt lat="46.9532278" lon="7.4397310"><ele>534.8</ele><time>2016-06-14T18:50:40Z</time></trkpt>
<trkpt lat="46.9532675" lon="7.4395422"><ele>534.4</ele><time>2016-06-14T18:50:45Z</time></trkpt>
</trkseg>
<trkseg>
<trkpt lat="46.9532675" lon="7.4395422"><ele>534.4</ele><time>2016-06-14T18:51:07Z</time></trkpt>
<trkpt lat="46.9532438" lon="7.4394691"><ele>534.0</ele><time>2016-06-14T18:51:07Z</time></trkpt>
<trkpt lat="46.9532881" lon="7.4394523"><ele>533.9</ele><time>2016-06-14T18:51:10Z</time></trkpt>
<trkpt lat="46.9533883" lon="7.4395683"><ele>533.8</ele><time>2016-06-14T18:51:11Z</time></trkpt>
<trkpt lat="46.9536254" lon="7.4391992"><ele>533.6</ele><time>2016-06-14T18:51:18Z</time></trkpt>
<trkpt lat="46.9541092" lon="7.4391296"><ele>533.9</ele><time>2016-06-14T18:51:29Z</time></trkpt>
<trkpt lat="46.9545589" lon="7.4390124"><ele>536.3</ele><time>2016-06-14T18:51:43Z</time></trkpt>
<trkpt lat="46.9550159" lon="7.4389230"><ele>542.8</ele><time>2016-06-14T18:52:00Z</time></trkpt>
<trkpt lat="46.9552799" lon="7.4387946"><ele>546.0</ele><time>2016-06-14T18:52:13Z</time></trkpt>
<trkpt lat="46.9555790" lon="7.4385362"><ele>549.3</ele><time>2016-06-14T18:52:23Z</time></trkpt>
<trkpt lat="46.9558469" lon="7.4384575"><ele>550.9</ele><time>2016-06-14T18:52:31Z</time></trkpt>
<trkpt lat="46.9562392" lon="7.4380932"><ele>554.4</ele><time>2016-06-14T18:52:49Z</time></trkpt>
<trkpt lat="46.9566794" lon="7.4378659"><ele>556.2</ele><time>2016-06-14T18:53:06Z</time></trkpt>
<trkpt lat="46.9569674" lon="7.4377252"><ele>557.1</ele><time>2016-06-14T18:53:15Z</time></trkpt>
<trkpt lat="46.9570803" lon="7.4375867"><ele>557.2</ele><time>2016-06-14T18:53:18Z</time></trkpt>
<trkpt lat="46.9571269" lon="7.4374433"><ele>557.3</ele><time>2016-06-14T18:53:19Z</time></trkpt>
<trkpt lat="46.9573022" lon="7.4372354"><ele>557.6</ele><time>2016-06-14T18:53:24Z</time></trkpt>
<trkpt lat="46.9573672" lon="7.4371807"><ele>557.8</ele><time>2016-06-14T18:53:27Z</time></trkpt>
<trkpt lat="46.9574374" lon="7.4370413"><ele>557.9</ele><time>2016-06-14T18:53:29Z</time></trkpt>
<trkpt lat="46.9575165" lon="7.4369770"><ele>558.1</ele><time>2016-06-14T18:53:32Z</time></trkpt>
<trkpt lat="46.9577015" lon="7.4368324"><ele>558.4</ele><time>2016-06-14T18:53:37Z</time></trkpt>
<trkpt lat="46.9578185" lon="7.4367873"><ele>558.6</ele><time>2016-06-14T18:53:39Z</time></trkpt>
<trkpt lat="46.9578428" lon="7.4367019"><ele>558.6</ele><time>2016-06-14T18:53:40Z</time></trkpt>
<trkpt lat="46.9579926" lon="7.4367824"><ele>558.7</ele><time>2016-06-14T18:53:42Z</time></trkpt>
<trkpt lat="46.9581367" lon="7.4364986"><ele>558.8</ele><time>2016-06-14T18:53:43Z</time></trkpt>
<trkpt lat="46.9581385" lon="7.4365356"><ele>558.9</ele><time>2016-06-14T18:53:50Z</time></trkpt>
<trkpt lat="46.9582565" lon="7.4364765"><ele>559.2</ele><time>2016-06-14T18:53:52Z</time></trkpt>
<trkpt lat="46.9583540" lon="7.4363405"><ele>559.5</ele><time>2016-06-14T18:53:54Z</time></trkpt>
<trkpt lat="46.9585342" lon="7.4361809"><ele>560.2</ele><time>2016-06-14T18:53:58Z</time></trkpt>
<trkpt lat="46.9585694" lon="7.4361923"><ele>560.3</ele><time>2016-06-14T18:53:59Z</time></trkpt>
<trkpt lat="46.9585686" lon="7.4361133"><ele>560.5</ele><time>2016-06-14T18:54:00Z</time></trkpt>
<trkpt lat="46.9585724" lon="7.4358414"><ele>560.8</ele><time>2016-06-14T18:54:02Z</time></trkpt>
<trkpt lat="46.9585215" lon="7.4358510"><ele>561.2</ele><time>2016-06-14T18:54:05Z</time></trkpt>
<trkpt lat="46.9585609" lon="7.4357372"><ele>561.7</ele><time>2016-06-14T18:54:08Z</time></trkpt>
<trkpt lat="46.9585297" lon="7.4356731"><ele>562.0</ele><time>2016-06-14T18:54:10Z</time></trkpt>
<trkpt lat="46.9585252" lon="7.4355070"><ele>562.2</ele><time>2016-06-14T18:54:12Z</time></trkpt>
<trkpt lat="46.9584292" lon="7.4353582"><ele>562.4</ele><time>2016-06-14T18:54:15Z</time></trkpt>
<trkpt lat="46.9582611" lon="7.4351258"><ele>562.7</ele><time>2016-06-14T18:54:19Z</time></trkpt>
<trkpt lat="46.9582309" lon="7.4349943"><ele>562.9</ele><time>2016-06-14T18:54:22Z</time></trkpt>
<trkpt lat="46.9581441" lon="7.4348287"><ele>563.1</ele><time>2016-06-14T18:54:25Z</time></trkpt>
<trkpt lat="46.9581282" lon="7.4346999"><ele>563.1</ele><time>2016-06-14T18:54:27Z</time></trkpt>
<trkpt lat="46.9580464" lon="7.4346603"><ele>563.2</ele><time>2016-06-14T18:54:28Z</time></trkpt>
<trkpt lat="46.9578425" lon="7.4341186"><ele>563.6</ele><time>2016-06-14T18:54:38Z</time></trkpt>
<trkpt lat="46.9577072" lon="7.4340195"><ele>563.6</ele><time>2016-06-14T18:54:40Z</time></trkpt>
<trkpt lat="46.9570579" lon="7.4332901"><ele>563.6</ele><time>2016-06-14T18:54:56Z</time></trkpt>
</trkseg>
<trkseg>
<trkpt lat="46.9570579" lon="7.4332901"><ele>563.6</ele><time>2016-06-14T18:56:42Z</time></trkpt>
<trkpt lat="46.9567567" lon="7.4331882"><ele>563.2</ele><time>2016-06-14T18:58:17Z</time></trkpt>
</trkseg>
</trk>
<extensions>
<abvio:xmlVersion>1</abvio:xmlVersion>
<abvio:appInstanceID>805f4ad54ed0cb5c</abvio:appInstanceID>
<abvio:runID>790</abvio:runID>
<abvio:routeID>0</abvio:routeID>
<abvio:activityName><![CDATA[Tandem]]></abvio:activityName>
<abvio:activityTypeID>3</abvio:activityTypeID>
<abvio:activitySpeedBased>0</abvio:activitySpeedBased>
<abvio:startTime>2016-06-14 15:52:08.180</abvio:startTime>
<abvio:startTimeZone>Europe/Zurich</abvio:startTimeZone>
<abvio:runTime>9137.541</abvio:runTime>
<abvio:stoppedTime>2031.880</abvio:stoppedTime>
<abvio:badGPSTime>323.139</abvio:badGPSTime>
<abvio:distance>54021.2</abvio:distance>
<abvio:ascent>410.0</abvio:ascent>
<abvio:descent>408.4</abvio:descent>
<abvio:calories>1407.942</abvio:calories>
<abvio:maxSpeed>17.8</abvio:maxSpeed>
<abvio:minPace>0.056</abvio:minPace>
<abvio:avgHeartRate>0</abvio:avgHeartRate>
<abvio:maxHeartRate>0</abvio:maxHeartRate>
<abvio:avgWheelRPM>0</abvio:avgWheelRPM>
<abvio:maxWheelRPM>0</abvio:maxWheelRPM>
<abvio:avgCrankRPM>-1</abvio:avgCrankRPM>
<abvio:maxCrankRPM>-1</abvio:maxCrankRPM>
<abvio:avgPower>-1</abvio:avgPower>
<abvio:maxPower>-1</abvio:maxPower>
<abvio:thresholdPower>0</abvio:thresholdPower>
<abvio:adjustedPower>-1</abvio:adjustedPower>
<abvio:powerIntensity>0.000</abvio:powerIntensity>
<abvio:powerScore>-1</abvio:powerScore>
<abvio:peakPower20Sec>-1</abvio:peakPower20Sec>
<abvio:peakPower1Min>-1</abvio:peakPower1Min>
<abvio:peakPower5Min>-1</abvio:peakPower5Min>
<abvio:peakPower10Min>-1</abvio:peakPower10Min>
<abvio:peakPower20Min>-1</abvio:peakPower20Min>
<abvio:peakPower1Hr>-1</abvio:peakPower1Hr>
<abvio:weight>68.0</abvio:weight>
<abvio:age>57</abvio:age>
<abvio:genderMale>1</abvio:genderMale>
<abvio:vo2Max>0.0</abvio:vo2Max>
<abvio:wheelSize>0.00</abvio:wheelSize>
<abvio:official>0</abvio:official>
<abvio:runEditFlags>128</abvio:runEditFlags>
<abvio:dontLoadRunData>0</abvio:dontLoadRunData>
<abvio:batteryUsage>0.15</abvio:batteryUsage>
<abvio:pathOnly>0</abvio:pathOnly>
<abvio:competitorInitials><![CDATA[]]></abvio:competitorInitials>
<abvio:stopDetection>1</abvio:stopDetection>
<abvio:caloriesUseElevation>1</abvio:caloriesUseElevation>
<abvio:notes><![CDATA[Rund um den Belpberg ]]></abvio:notes>
<abvio:coordinateHasSpeed>1</abvio:coordinateHasSpeed>
<abvio:altitudeHasDistanceDelta>0</abvio:altitudeHasDistanceDelta>
<abvio:altitudeHasClimbSpeed>1</abvio:altitudeHasClimbSpeed>
<abvio:altitudeHasLongAltitude>1</abvio:altitudeHasLongAltitude>
<abvio:useIndoors>0</abvio:useIndoors>
<abvio:bikeID>1</abvio:bikeID>
<abvio:bikeName><![CDATA[Neues Fahrrad]]></abvio:bikeName>
<abvio:shoesID>0</abvio:shoesID>
<abvio:useSteps>0</abvio:useSteps>
<abvio:useStepDistance>0</abvio:useStepDistance>
<abvio:stepLength>-1.000</abvio:stepLength>
<abvio:steps>-1</abvio:steps>
<abvio:grossSteps>0</abvio:grossSteps>
<abvio:maxStepsPM>-1</abvio:maxStepsPM>
<abvio:avgStepsPM>-1</abvio:avgStepsPM>
<abvio:minTemperature>-200.0</abvio:minTemperature>
<abvio:avgTemperature>-200.0</abvio:avgTemperature>
<abvio:maxTemperature>-200.0</abvio:maxTemperature>
<abvio:pathname><![CDATA[]]></abvio:pathname>
<abvio:runStateTable>
0.000,1,0
11169.421,2,0
</abvio:runStateTable>
<abvio:stopDetectionTable>
0.000,0
0.871,3
359.912,2
501.911,3
536.905,2
569.893,3
618.895,2
1301.913,3
1343.915,2
1344.908,3
1471.911,2
2731.903,3
2754.907,2
4022.913,3
4046.905,2
4301.916,3
4324.917,2
4324.917,3
4341.912,2
4472.913,3
4878.909,2
5155.916,3
5210.920,2
5210.920,3
5235.912,2
5235.912,3
5256.920,2
5256.920,3
5281.907,2
5281.907,3
5298.911,2
5298.911,3
5311.916,2
5311.916,3
5364.916,2
5369.908,3
5397.911,2
5401.913,3
5454.903,2
5835.919,3
5887.834,2
6133.908,3
6167.897,2
6178.910,3
6515.926,2
10156.909,3
10201.916,2
10575.905,3
10616.921,2
10716.922,3
10738.915,2
10967.916,3
11073.835,2
11169.421,1
</abvio:stopDetectionTable>
<abvio:coordinateTable>
0.643,46.9569260,7.4327848,0.0,0.5,0.1
352.913,46.9569690,7.4328160,5.3,0.5,0.1
363.907,46.9572774,7.4333637,54.0,5.2,1.0
373.918,46.9575937,7.4338414,50.6,5.1,1.8
384.906,46.9578825,7.4343957,53.0,4.8,2.7
391.909,46.9580915,7.4347485,35.5,5.0,3.3
394.905,46.9581989,7.4348875,16.0,5.2,3.6
397.919,46.9582821,7.4351695,23.4,6.0,3.9
398.924,46.9583517,7.4352639,10.6,6.8,4.2
400.915,46.9583419,7.4353682,8.0,6.0,4.2
404.914,46.9584708,7.4355550,20.2,6.0,4.6
405.908,46.9584743,7.4355973,3.2,6.0,4.7
411.905,46.9586886,7.4359423,35.5,5.5,5.3
415.918,46.9587509,7.4362030,21.0,5.6,5.4
419.908,46.9584712,7.4364262,35.4,6.3,5.6
421.909,46.9584064,7.4364241,7.2,6.3,5.6
422.908,46.9583266,7.4363594,10.1,7.1,5.7
430.908,46.9579182,7.4367114,52.7,7.0,5.9
438.916,46.9575222,7.4370445,50.8,6.3,6.0
445.917,46.9570978,7.4374360,55.8,7.1,6.4
451.916,46.9567878,7.4377350,41.3,7.0,6.6
455.926,46.9566927,7.4376132,14.1,5.6,6.5
457.920,46.9565580,7.4378888,25.8,7.5,6.5
473.913,46.9560833,7.4382018,57.9,5.1,6.2
480.914,46.9556482,7.4385260,54.3,7.7,6.3
486.913,46.9552419,7.4388226,50.5,8.1,6.4
491.913,46.9548166,7.4389990,49.2,9.1,6.7
498.910,46.9543201,7.4390604,55.4,8.5,6.9
506.912,46.9540853,7.4390856,26.2,4.2,6.5
508.912,46.9535408,7.4390716,60.5,3.8,6.5
509.904,46.9534367,7.4387781,25.2,3.8,6.5
510.901,46.9540379,7.4388418,67.0,4.2,6.2
520.906,46.9540060,7.4389493,8.9,1.2,5.4
525.903,46.9540306,7.4389656,3.0,1.2,5.4
528.898,46.9540144,7.4388972,5.5,1.6,5.3
534.900,46.9539551,7.4389659,8.4,1.5,4.8
538.905,46.9537070,7.4389832,27.6,3.6,4.7
543.909,46.9534099,7.4391494,35.4,6.5,4.7
544.909,46.9534354,7.4392938,11.4,7.6,4.8
548.914,46.9531629,7.4398023,49.1,7.1,4.7
553.911,46.9527496,7.4402980,59.5,12.0,5.1
556.908,46.9526516,7.4403974,13.3,10.1,4.9
557.908,46.9525037,7.4404833,17.7,11.2,5.1
559.906,46.9523951,7.4406901,19.8,11.5,5.2
564.898,46.9519384,7.4408526,52.3,9.5,5.7
569.893,46.9515486,7.4409487,43.9,9.7,6.2
570.898,46.9515185,7.4408975,5.1,6.0,6.2
582.892,46.9515771,7.4409171,6.7,2.1,6.3
583.893,46.9516241,7.4412250,24.0,2.1,6.3
586.896,46.9516509,7.4408393,29.5,1.9,6.3
616.906,46.9516840,7.4410069,13.3,1.2,3.1
617.904,46.9517858,7.4410500,11.8,2.5,3.3
618.895,46.9516971,7.4413069,21.9,4.7,3.4
629.896,46.9519784,7.4418343,50.9,4.6,2.5
649.905,46.9523093,7.4423615,54.4,4.1,2.6
652.904,46.9524297,7.4425590,20.1,5.8,2.9
653.907,46.9525073,7.4425759,8.7,6.1,3.1
654.903,46.9525617,7.4426426,7.9,6.5,3.1
658.912,46.9526564,7.4429146,23.2,6.8,3.6
665.911,46.9529939,7.4433883,52.0,7.0,4.4
672.922,46.9532956,7.4439023,51.5,7.1,5.2
680.921,46.9535962,7.4444118,51.2,6.3,5.1
689.923,46.9539076,7.4449410,53.1,6.0,5.4
702.914,46.9541895,7.4454636,50.6,3.4,6.0
715.897,46.9544454,7.4460597,53.6,4.2,5.6
717.916,46.9544414,7.4461277,5.2,3.9,5.4
720.903,46.9543698,7.4460697,9.1,3.7,5.2
724.915,46.9542549,7.4456991,31.0,5.0,5.3
725.914,46.9541929,7.4456334,8.5,5.3,5.3
731.920,46.9537287,7.4456341,51.6,8.3,5.4
734.909,46.9534653,7.4456826,29.5,8.6,5.6
737.908,46.9531688,7.4458266,34.7,9.2,5.7
744.906,46.9527434,7.4457644,47.5,9.0,6.0
749.911,46.9524428,7.4458275,33.8,8.1,6.1
751.919,46.9522813,7.4458080,18.0,8.1,6.2
753.905,46.9520926,7.4459898,25.1,8.6,6.4
756.910,46.9518932,7.4460736,23.1,8.7,6.5
758.914,46.9518516,7.4462513,14.3,8.7,6.7
759.916,46.9517775,7.4462605,8.3,8.9,6.8
763.903,46.9513998,7.4468176,59.7,10.1,7.6
766.913,46.9512274,7.4471276,30.4,11.3,7.9
768.915,46.9511268,7.4474782,28.9,12.3,8.3
769.908,46.9510161,7.4475332,13.0,12.8,8.4
772.913,46.9508854,7.4479553,35.3,13.8,8.8
773.910,46.9509018,7.4480417,6.8,13.2,8.8
775.909,46.9508301,7.4483022,21.4,11.6,9.0
776.901,46.9508299,7.4484733,13.0,11.7,9.2
777.881,46.9507926,7.4485497,7.1,10.8,9.2
780.889,46.9507606,7.4491939,49.2,9.9,9.8
783.902,46.9507624,7.4494765,21.5,10.6,9.9
787.909,46.9508440,7.4495283,9.9,9.3,9.9
789.906,46.9507982,7.4498127,22.2,10.5,9.9
790.909,46.9507354,7.4499604,13.2,11.1,10.0
792.917,46.9506451,7.4503037,28.0,9.0,9.8
797.908,46.9506154,7.4505528,19.2,8.1,9.7
800.908,46.9506572,7.4508233,21.1,7.6,9.6
801.902,46.9507025,7.4508554,5.6,6.9,9.6
802.906,46.9507073,7.4509289,5.6,6.9,9.5
803.908,46.9506749,7.4510490,9.8,7.1,9.5
807.904,46.9507239,7.4513968,27.0,6.9,9.4
808.912,46.9507027,7.4514851,7.1,6.7,9.5
810.903,46.9507220,7.4516954,16.2,7.2,9.5
813.910,46.9506422,7.4521799,37.9,7.4,9.2
818.938,46.9506704,7.4524494,20.8,7.5,9.3
819.902,46.9506468,7.4525467,7.9,7.6,9.3
822.896,46.9506293,7.4527824,18.0,7.1,9.2
824.904,46.9506725,7.4530399,20.2,7.6,8.8
827.903,46.9506527,7.4533465,23.4,7.8,8.5
829.914,46.9505843,7.4534994,13.9,7.7,8.4
831.917,46.9506370,7.4536900,15.6,8.1,8.3
834.902,46.9505674,7.4539177,19.0,7.3,8.0
835.906,46.9505240,7.4539708,6.3,7.2,8.0
842.904,46.9505165,7.4546821,54.2,7.3,7.9
845.898,46.9505010,7.4549824,22.9,7.7,7.5
846.899,46.9504366,7.4550612,9.3,7.9,7.6
847.905,46.9504573,7.4554214,27.5,7.4,7.5
851.920,46.9504434,7.4555339,8.7,7.7,7.4
852.914,46.9504686,7.4556735,11.0,8.1,7.5
853.913,46.9505169,7.4557429,7.5,8.0,7.5
855.918,46.9505101,7.4559809,18.1,8.3,7.5
857.911,46.9505798,7.4562162,19.5,8.5,7.6
862.919,46.9505858,7.4567033,37.1,8.5,7.7
864.918,46.9506371,7.4568733,14.1,8.1,7.7
867.906,46.9505934,7.4571011,18.0,6.9,7.6
870.902,46.9506374,7.4573850,22.2,7.0,7.6
873.921,46.9506228,7.4576501,20.2,6.9,7.6
874.918,46.9505930,7.4577426,7.8,6.9,7.6
875.921,46.9506060,7.4578217,6.2,6.8,7.6
878.925,46.9505729,7.4580729,19.5,6.7,7.5
879.919,46.9505339,7.4581270,6.0,6.6,7.5
881.923,46.9505236,7.4582663,10.7,6.3,7.5
883.915,46.9504633,7.4583561,9.6,6.0,7.4
884.918,46.9505154,7.4586329,21.9,6.9,7.5
886.905,46.9504482,7.4586406,7.5,6.9,7.5
887.903,46.9504576,7.4586987,4.5,6.7,7.4
888.914,46.9503890,7.4586973,7.6,6.9,7.4
889.912,46.9502265,7.4585538,21.1,8.2,7.6
890.911,46.9501315,7.4585751,10.7,8.9,7.7
892.909,46.9501377,7.4586084,2.6,8.4,7.6
895.911,46.9499048,7.4587285,27.5,8.8,7.7
897.919,46.9497194,7.4588749,23.4,9.9,7.8
898.917,46.9497353,7.4589834,8.4,8.5,7.9
902.907,46.9497473,7.4589565,2.4,8.7,7.8
907.914,46.9495585,7.4590037,21.3,5.6,7.4
910.900,46.9494946,7.4588777,11.9,5.1,7.4
912.904,46.9494100,7.4586164,22.0,6.0,7.5
913.909,46.9494611,7.4585849,6.2,6.4,7.4
915.905,46.9494673,7.4584049,13.7,6.8,7.3
917.903,46.9494151,7.4582052,16.3,7.7,7.3
918.906,46.9494553,7.4581336,7.0,7.7,7.3
919.911,46.9494014,7.4580594,8.2,7.9,7.3
923.917,46.9494034,7.4578179,18.4,6.4,7.1
930.912,46.9491803,7.4576113,29.4,4.4,6.8
931.906,46.9490895,7.4577675,15.6,5.4,7.0
935.912,46.9488976,7.4578425,22.1,5.9,6.9
943.914,46.9484990,7.4578049,44.4,5.6,6.8
948.905,46.9484897,7.4576178,14.3,3.8,6.5
949.906,46.9484414,7.4575514,7.4,4.1,6.3
951.918,46.9483098,7.4574865,15.4,4.1,6.3
952.915,46.9484703,7.4575309,18.2,6.2,6.5
954.896,46.9485322,7.4573175,17.6,6.5,6.5
955.904,46.9484640,7.4573003,7.7,7.4,6.5
956.922,46.9484717,7.4573585,4.5,7.2,6.2
957.914,46.9483918,7.4573081,9.7,7.9,6.3
958.908,46.9483628,7.4574208,9.2,9.2,6.3
959.908,46.9483427,7.4573138,8.4,9.1,6.3
960.901,46.9483133,7.4573477,4.2,8.8,6.3
962.913,46.9482743,7.4572381,9.4,8.3,6.3
963.922,46.9476476,7.4567965,77.4,8.3,6.3
971.920,46.9473202,7.4562834,53.4,12.6,7.7
976.920,46.9471228,7.4559026,36.4,11.9,7.6
977.923,46.9471481,7.4559004,2.8,6.8,7.5
985.907,46.9468758,7.4553595,51.1,5.9,7.6
990.901,46.9466280,7.4549648,40.8,7.3,8.0
991.902,46.9465574,7.4549050,9.1,7.8,7.9
993.902,46.9465223,7.4547592,11.8,7.3,7.9
996.895,46.9464365,7.4545421,19.1,6.9,7.8
997.904,46.9463948,7.4544887,6.2,6.9,7.8
998.903,46.9464163,7.4544142,6.2,6.7,7.7
1003.904,46.9462871,7.4540475,31.4,6.2,8.0
1005.904,46.9462445,7.4537059,26.4,6.6,8.1
1009.916,46.9462322,7.4534952,16.1,6.9,8.3
1012.912,46.9461034,7.4532206,25.3,7.6,8.3
1014.907,46.9460889,7.4530308,14.5,7.7,8.2
1018.913,46.9460059,7.4526892,27.6,7.7,8.0
1024.902,46.9460085,7.4522375,34.4,6.3,8.0
1025.910,46.9460491,7.4522080,5.0,6.2,7.9
1028.910,46.9460391,7.4519961,16.2,5.8,6.8
1029.904,46.9460552,7.4519797,2.2,5.3,6.7
1034.910,46.9460262,7.4515574,32.3,5.6,6.6
1036.914,46.9459756,7.4514316,11.1,5.1,6.5
1044.912,46.9460912,7.4507630,52.5,6.2,6.6
1048.911,46.9461087,7.4504290,25.5,6.6,6.5
1049.908,46.9460940,7.4504011,2.7,6.0,6.5
1051.918,46.9461190,7.4502221,13.9,5.8,6.5
1054.908,46.9460692,7.4499992,17.8,6.0,6.4
1056.904,46.9460850,7.4498112,14.4,6.3,6.4
1057.907,46.9460273,7.4496509,13.8,7.0,6.6
1062.907,46.9460255,7.4492751,28.6,6.9,6.5
1064.900,46.9461209,7.4491917,12.4,6.9,6.5
1065.901,46.9460244,7.4490576,14.8,7.6,6.6
1072.909,46.9460201,7.4483633,52.9,7.7,6.6
1080.919,46.9459629,7.4476675,53.3,7.4,6.5
1087.915,46.9458610,7.4470108,51.3,7.1,6.7
1096.931,46.9457040,7.4463283,54.8,6.6,6.9
1103.918,46.9454587,7.4457291,53.1,6.9,7.1
1111.913,46.9451548,7.4452353,50.5,7.1,7.1
1120.909,46.9447437,7.4448467,54.4,6.1,6.9
1124.910,46.9447043,7.4449410,8.4,4.8,6.7
1125.910,46.9447333,7.4450156,6.5,4.9,6.7
1133.914,46.9445214,7.4456860,56.2,6.3,6.5
1137.923,46.9444277,7.4459654,23.7,5.9,6.5
1143.909,46.9442615,7.4462857,30.6,5.5,6.3
1145.903,46.9441327,7.4462764,14.3,5.7,6.2
1146.907,46.9440560,7.4463107,8.9,5.8,6.3
1153.928,46.9435809,7.4461092,55.0,7.7,6.3
1160.929,46.9431265,7.4460089,51.1,7.6,6.5
1167.911,46.9426778,7.4459097,50.4,7.3,6.4
1174.916,46.9422296,7.4458116,50.4,7.4,6.6
1182.914,46.9417676,7.4457074,52.0,6.5,6.7
1188.920,46.9413135,7.4455978,51.2,7.6,6.9
1193.926,46.9410771,7.4455407,26.6,7.1,7.0
1194.913,46.9410440,7.4454684,6.6,6.9,6.9
1196.917,46.9409594,7.4455128,10.0,6.3,6.9
1205.920,46.9404817,7.4454036,53.8,6.2,7.0
1214.907,46.9399856,7.4452946,55.8,6.3,6.7
1223.923,46.9395212,7.4451954,52.2,5.8,6.5
1229.903,46.9392683,7.4451424,28.4,5.3,6.3
1230.894,46.9392061,7.4452514,10.8,5.8,6.3
1231.892,46.9391245,7.4451130,13.9,6.9,6.5
1237.907,46.9386415,7.4450130,54.2,8.2,6.6
1246.918,46.9381847,7.4449175,51.3,7.0,6.5
1254.915,46.9377028,7.4448444,53.9,6.5,6.5
1260.922,46.9371826,7.4448280,57.8,8.8,6.9
1267.925,46.9367271,7.4448707,50.7,8.3,7.0
1274.917,46.9362781,7.4450204,51.2,7.2,7.2
1282.916,46.9358318,7.4452441,52.5,6.6,7.2
1289.908,46.9354002,7.4455010,51.8,7.1,7.4
1295.899,46.9350955,7.4456924,36.9,6.6,7.2
1302.912,46.9347286,7.4460996,51.2,6.7,7.2
1335.916,46.9347139,7.4461123,1.9,1.7,4.0
1340.918,46.9347620,7.4460176,9.0,2.0,3.7
1360.913,46.9343896,7.4456327,50.7,1.3,2.2
1386.915,46.9342345,7.4455806,17.7,1.2,1.7
1410.919,46.9343214,7.4456696,11.8,1.2,1.1
1415.912,46.9342998,7.4457041,3.6,0.9,1.0
1421.905,46.9343470,7.4457264,5.5,0.9,1.0
1466.908,46.9342751,7.4456531,9.8,1.0,0.4
1469.909,46.9342176,7.4454003,20.3,3.1,0.7
1475.909,46.9341732,7.4452042,15.7,3.9,0.9
1491.901,46.9338137,7.4452133,40.0,2.7,1.5
1499.918,46.9335336,7.4454013,34.3,4.1,2.1
1509.902,46.9332271,7.4458131,46.3,4.6,2.8
1510.903,46.9331530,7.4458292,8.3,5.1,2.9
1511.900,46.9331272,7.4457976,3.7,5.0,3.0
1512.902,46.9331471,7.4458772,6.4,5.2,3.1
1527.917,46.9329145,7.4464416,50.2,3.5,3.8
1546.907,46.9327474,7.4471029,53.7,2.9,3.7
1558.906,46.9325131,7.4477043,52.7,4.3,3.8
1565.903,46.9324161,7.4482016,39.4,4.4,3.9
1576.897,46.9323116,7.4487083,40.3,4.8,3.8
1577.896,46.9322447,7.4487442,7.9,4.9,3.9
1579.891,46.9322236,7.4488824,10.8,5.0,3.9
1582.898,46.9321452,7.4490445,15.1,5.4,4.0
1583.908,46.9320995,7.4490951,6.4,4.2,3.9
1589.905,46.9321868,7.4493289,20.3,4.5,4.1
1603.911,46.9319761,7.4499220,50.9,3.9,4.3
1608.911,46.9318687,7.4503902,37.6,5.8,4.6
1626.906,46.9317892,7.4512502,66.1,3.8,4.1
1638.907,46.9317562,7.4516653,31.8,6.1,4.3
1649.910,46.9317973,7.4522768,46.8,6.7,4.7
1651.906,46.9317684,7.4524051,10.3,5.8,4.6
1654.897,46.9318382,7.4525027,10.7,5.6,4.6
1655.900,46.9319055,7.4525276,7.7,6.1,4.6
1658.901,46.9316353,7.4525878,30.4,7.6,5.0
1659.908,46.9315701,7.4526456,8.5,6.9,5.0
1660.898,46.9315634,7.4526860,3.2,6.7,5.0
1661.917,46.9315308,7.4527091,4.0,6.5,5.0
1666.911,46.9313746,7.4529554,25.6,5.7,5.0
1674.910,46.9310483,7.4533849,48.8,6.3,5.3
1675.908,46.9309850,7.4534123,7.3,6.5,5.3
1676.907,46.9309505,7.4534991,7.6,6.6,5.4
1677.898,46.9308939,7.4535389,7.0,6.6,5.5
1679.917,46.9308692,7.4536274,7.3,6.0,5.6
1684.917,46.9306683,7.4537765,25.1,5.5,5.7
1686.907,46.9306671,7.4538848,8.2,4.8,5.7
1692.909,46.9304665,7.4540184,24.5,4.2,5.7
1695.909,46.9303904,7.4542726,21.1,5.0,5.8
1697.916,46.9303966,7.4544277,11.8,5.4,5.9
1700.906,46.9303055,7.4545230,12.5,5.3,5.6
1703.908,46.9302481,7.4547872,21.1,6.1,5.8
1704.904,46.9302454,7.4549454,12.0,6.3,6.0
1705.903,46.9301873,7.4549954,7.5,6.5,6.0
1707.895,46.9301265,7.4551585,14.1,6.4,6.1
1709.896,46.9301494,7.4552462,7.2,6.2,5.8
1710.896,46.9300459,7.4553533,14.1,7.7,6.0
1711.899,46.9301682,7.4556672,27.5,7.7,6.0
1713.903,46.9300516,7.4558553,19.3,9.7,6.4
1714.899,46.9300357,7.4559408,6.7,9.4,6.5
1715.899,46.9298173,7.4559976,24.7,9.7,6.5
1718.904,46.9297975,7.4561012,8.2,10.6,6.5
1719.907,46.9297712,7.4559998,8.3,10.4,6.5
1720.902,46.9297874,7.4561196,9.3,10.9,6.6
1722.909,46.9297186,7.4563211,17.1,9.2,6.8
1723.920,46.9297518,7.4565822,20.2,10.2,7.0
1725.910,46.9295952,7.4567351,20.9,8.7,7.0
1730.905,46.9295460,7.4568652,11.3,8.2,7.0
1731.904,46.9295315,7.4569794,8.8,8.2,7.0
1732.917,46.9294717,7.4570164,7.2,8.3,7.0
1733.911,46.9294507,7.4570830,5.6,6.5,7.0
1737.906,46.9292671,7.4573202,27.3,5.6,7.0
1740.917,46.9292032,7.4573479,7.4,5.8,7.0
1741.907,46.9291610,7.4573181,5.2,5.4,7.0
1743.908,46.9291262,7.4574543,11.1,5.3,7.0
1744.915,46.9290672,7.4574566,6.6,5.6,7.0
1747.913,46.9289412,7.4575392,15.4,5.5,7.1
1748.935,46.9289109,7.4574882,5.1,5.5,7.1
1753.911,46.9289023,7.4573048,14.0,4.4,7.0
1766.917,46.9286189,7.4569057,43.8,3.2,6.3
1778.907,46.9282141,7.4566405,49.3,4.1,5.2
1789.904,46.9278674,7.4571809,56.4,5.2,4.5
1791.907,46.9278532,7.4572700,7.0,5.6,4.5
1792.931,46.9278166,7.4573224,5.7,5.6,4.5
1793.907,46.9278325,7.4573580,3.2,5.5,4.4
1802.907,46.9275383,7.4576738,40.6,4.4,4.3
1803.918,46.9274970,7.4576652,4.6,4.6,4.3
1805.910,46.9273766,7.4578727,20.7,6.0,4.4
1808.906,46.9273853,7.4581221,19.0,6.6,4.5
1809.906,46.9273413,7.4581024,5.1,6.5,4.5
1811.901,46.9272879,7.4582840,15.0,7.0,4.7
1812.907,46.9272984,7.4584771,14.8,7.7,4.9
1813.907,46.9271886,7.4586320,17.0,7.4,5.0
1816.905,46.9271489,7.4587409,9.4,7.6,5.1
1818.898,46.9270460,7.4588604,14.6,7.7,5.2
1820.895,46.9269912,7.4589885,11.5,7.8,5.3
1821.899,46.9269425,7.4590043,5.5,7.4,5.4
1823.898,46.9268995,7.4590785,7.4,6.0,5.3
1824.895,46.9268742,7.4590715,2.9,5.7,5.3
1825.898,46.9268670,7.4591275,4.3,5.5,5.4
1826.901,46.9268198,7.4591174,5.3,5.2,5.4
1827.901,46.9267709,7.4590414,7.9,5.4,5.4
1828.902,46.9267452,7.4591432,8.3,5.3,5.5
1830.906,46.9266368,7.4592556,14.8,5.2,5.6
1832.903,46.9266345,7.4593907,10.3,5.9,5.7
1834.907,46.9264967,7.4595036,17.6,6.6,5.8
1836.912,46.9265082,7.4595606,4.5,6.4,5.8
1837.909,46.9264562,7.4596273,7.7,6.5,5.9
1838.907,46.9264639,7.4596870,4.6,6.1,5.9
1844.923,46.9263417,7.4599786,26.0,4.8,5.9
1845.917,46.9262974,7.4600017,5.2,4.9,5.9
1848.916,46.9261800,7.4601707,18.3,5.0,6.0
1850.905,46.9261337,7.4603214,12.6,5.4,6.0
1858.907,46.9257365,7.4607843,56.5,7.0,6.3
1861.917,46.9255749,7.4609376,21.4,7.1,6.4
1864.908,46.9254450,7.4611215,20.1,7.0,6.5
1871.909,46.9251259,7.4614880,45.1,6.6,6.3
1875.911,46.9249840,7.4617560,25.8,5.7,6.1
1877.894,46.9249819,7.4618174,4.7,5.7,6.0
1878.908,46.9248769,7.4619556,15.7,5.6,6.0
1881.918,46.9248402,7.4619688,4.2,5.4,6.0
1882.909,46.9248193,7.4620489,6.5,5.6,6.0
1883.915,46.9247726,7.4621004,6.5,5.8,6.1
1886.920,46.9248002,7.4622431,11.3,5.3,6.1
1891.908,46.9247290,7.4624665,18.8,4.4,5.9
1903.905,46.9242831,7.4622599,52.0,4.6,5.6
1914.912,46.9238392,7.4620372,52.2,4.8,5.3
1926.911,46.9234555,7.4616608,51.4,4.1,4.8
1940.913,46.9231867,7.4615336,31.4,2.0,4.0
1955.915,46.9228992,7.4620498,50.7,3.7,3.8
1957.900,46.9228615,7.4622196,13.6,4.3,3.9
1959.907,46.9227935,7.4623134,10.4,4.9,4.0
1961.907,46.9227772,7.4624703,12.1,5.4,4.0
1962.906,46.9227433,7.4625185,5.3,5.4,3.9
1963.916,46.9226966,7.4625172,5.2,5.7,3.9
1964.915,46.9227083,7.4625683,4.1,5.6,3.9
1966.915,46.9226687,7.4626912,10.3,5.6,3.9
1970.914,46.9225700,7.4628877,18.6,4.9,4.0
1971.912,46.9225165,7.4629234,6.5,5.0,4.0
1972.913,46.9225193,7.4629589,2.7,4.8,4.0
1976.917,46.9223860,7.4630528,16.5,4.6,3.9
1979.915,46.9223757,7.4632595,15.8,4.7,3.9
1980.923,46.9223552,7.4632984,3.7,4.6,3.9
1981.908,46.9222848,7.4632740,8.0,4.9,4.0
1984.917,46.9221803,7.4633828,14.3,5.0,4.0
1985.907,46.9221675,7.4634601,6.1,5.1,4.1
1989.897,46.9220204,7.4635428,17.5,5.1,4.1
1995.894,46.9218642,7.4638977,32.1,5.0,4.4
1996.896,46.9218611,7.4639658,5.2,5.1,4.5
1999.895,46.9217637,7.4641169,15.8,4.9,4.6
2003.908,46.9217465,7.4644261,23.6,5.5,4.9
2007.915,46.9218676,7.4647300,26.8,6.2,5.1
2015.897,46.9219285,7.4654111,52.3,6.7,5.5
2021.897,46.9219331,7.4658669,34.7,6.2,5.5
2022.897,46.9219951,7.4659291,8.4,6.2,5.5
2028.897,46.9220639,7.4662218,23.6,5.0,5.5
2031.901,46.9219675,7.4664061,17.7,5.1,5.5
2032.908,46.9220098,7.4666995,22.8,5.8,5.7
2035.909,46.9220123,7.4668271,9.7,6.5,5.9
2036.906,46.9219699,7.4669956,13.7,7.6,6.0
2037.911,46.9219750,7.4671474,11.6,8.2,6.1
2040.915,46.9218772,7.4675736,34.2,10.1,6.4
2041.910,46.9217883,7.4676139,10.4,10.1,6.5
2042.907,46.9217744,7.4680024,29.6,11.7,6.7
2045.910,46.9217963,7.4681103,8.6,10.8,6.8
2047.907,46.9219449,7.4683413,24.1,10.8,7.0
2048.906,46.9219644,7.4684895,11.5,10.9,7.1
2049.906,46.9220488,7.4686134,13.3,11.0,7.3
2052.913,46.9221156,7.4690908,37.1,11.4,7.6
2055.907,46.9221076,7.4697076,47.0,12.9,8.1
2056.912,46.9220849,7.4699016,15.0,13.3,8.3
2060.911,46.9219284,7.4706460,59.3,14.6,9.0
2061.910,46.9218687,7.4708090,14.1,14.5,9.1
2063.916,46.9218147,7.4711582,27.3,14.8,9.3
2064.915,46.9217606,7.4713583,16.4,14.7,9.5
2065.916,46.9217785,7.4715750,16.6,14.9,9.6
2068.915,46.9217250,7.4720664,37.9,14.1,9.9
2069.907,46.9216243,7.4721845,14.4,14.2,10.1
2070.897,46.9216230,7.4723631,13.6,14.0,10.2
2073.903,46.9215521,7.4728130,35.2,13.4,10.4
2075.899,46.9216038,7.4733190,39.0,14.3,10.8
2076.910,46.9215781,7.4734840,12.9,13.9,11.0
2077.908,46.9214715,7.4734982,11.9,14.0,11.1
2080.903,46.9214076,7.4740250,40.8,14.0,11.5
2081.911,46.9213600,7.4741035,8.0,13.9,11.5
2083.904,46.9213182,7.4743843,21.9,13.3,11.6
2084.917,46.9212218,7.4743083,12.2,13.3,11.8
2086.906,46.9210916,7.4746825,32.0,12.1,12.2
2089.914,46.9208682,7.4746912,24.8,12.0,12.5
2091.908,46.9208130,7.4749672,21.9,11.6,12.6
2092.906,46.9207390,7.4750449,10.1,11.8,12.6
2095.912,46.9206036,7.4756666,49.7,12.1,12.9
2098.910,46.9205770,7.4759970,25.3,12.2,12.9
2099.910,46.9205046,7.4760634,9.5,12.0,12.9
2102.904,46.9204313,7.4764968,34.0,12.1,12.9
2103.905,46.9204592,7.4767959,23.0,12.1,12.9
2104.908,46.9204163,7.4769323,11.4,13.1,13.2
2107.905,46.9203459,7.4774070,37.0,12.7,13.2
2108.909,46.9203701,7.4776040,15.2,12.9,13.3
2112.914,46.9202362,7.4781866,46.8,13.3,13.2
2113.907,46.9201520,7.4783108,13.3,13.3,13.2
2116.911,46.9200332,7.4787867,38.6,12.5,13.1
2117.915,46.9199811,7.4789117,11.1,12.5,13.0
2118.920,46.9199960,7.4791425,17.7,12.8,13.0
2119.918,46.9199211,7.4792501,11.7,12.7,13.0
2120.914,46.9198437,7.4793022,9.5,12.6,12.9
2122.911,46.9198000,7.4796040,23.5,11.4,12.6
2124.916,46.9198248,7.4797174,9.1,11.2,12.5
2125.916,46.9196740,7.4795411,21.5,12.1,12.6
2126.917,46.9197715,7.4796095,12.0,12.1,12.6
2127.914,46.9197859,7.4796946,6.7,11.3,12.5
2128.899,46.9198515,7.4797635,9.0,11.1,12.4
2129.910,46.9200203,7.4798318,19.5,11.2,12.5
2130.913,46.9201108,7.4801007,22.8,10.9,12.3
2134.911,46.9202037,7.4802448,15.1,10.6,12.1
2135.916,46.9202860,7.4803079,10.3,10.7,11.9
2136.918,46.9203130,7.4803929,7.1,9.4,11.8
2138.915,46.9204545,7.4804541,16.4,9.2,11.6
2141.904,46.9206074,7.4806760,24.0,8.0,11.4
2144.914,46.9206373,7.4810772,30.7,8.9,11.4
2145.914,46.9205833,7.4812347,13.4,9.3,11.4
2150.909,46.9206201,7.4818512,47.1,9.8,11.2
2151.909,46.9206054,7.4819995,11.4,10.3,11.2
2156.906,46.9204306,7.4827375,59.5,11.1,11.1
2157.920,46.9202826,7.4828986,20.5,12.0,11.2
2159.912,46.9201381,7.4831201,23.3,12.4,11.3
2160.904,46.9201315,7.4832000,6.1,12.1,11.2
2161.913,46.9200817,7.4833091,10.0,11.9,11.2
2162.909,46.9200170,7.4833785,8.9,11.7,11.1
2167.911,46.9197134,7.4837967,46.4,10.6,10.7
2168.903,46.9196799,7.4839236,10.4,9.6,10.6
2170.905,46.9195362,7.4840320,18.0,9.4,10.6
2172.917,46.9194506,7.4841995,15.9,9.2,10.4
2173.903,46.9193822,7.4842197,7.8,8.8,10.4
2174.907,46.9193372,7.4843116,8.6,8.7,10.3
2175.914,46.9192632,7.4843514,8.8,8.7,10.2
2177.908,46.9191626,7.4845341,17.9,8.7,10.1
2178.906,46.9191094,7.4845869,7.2,8.6,10.0
2179.905,46.9190373,7.4848093,18.7,9.4,10.0
2180.906,46.9189783,7.4847650,7.4,9.2,10.0
2182.905,46.9190043,7.4848090,4.4,8.4,9.9
2184.911,46.9190258,7.4848181,2.5,6.8,9.3
2190.920,46.9192168,7.4850044,25.5,5.2,9.0
2191.925,46.9191841,7.4851332,10.5,5.6,9.0
2197.907,46.9195643,7.4854265,47.8,7.6,9.0
2204.921,46.9199860,7.4858045,55.0,7.9,8.9
2213.931,46.9204401,7.4862337,60.1,7.0,8.3
2214.933,46.9204674,7.4862915,5.3,6.6,8.2
2215.928,46.9204701,7.4862619,2.3,6.2,8.1
2217.938,46.9205607,7.4863228,11.1,6.3,7.7
2223.917,46.9207059,7.4866685,30.9,5.2,7.2
2224.925,46.9207178,7.4867764,8.3,5.5,7.2
2227.904,46.9209291,7.4874392,55.7,9.2,7.7
2230.906,46.9209972,7.4878617,33.1,11.0,7.8
2231.906,46.9202318,7.4873765,92.8,11.0,7.8
2235.907,46.9200365,7.4877279,34.5,17.8,8.9
2237.905,46.9199457,7.4878240,12.5,15.9,8.8
2238.909,46.9199148,7.4879278,8.6,14.7,8.8
2239.912,46.9198445,7.4879693,8.4,15.2,8.8
2240.913,46.9198308,7.4880718,7.9,14.5,8.7
2242.909,46.9196779,7.4881428,17.8,13.6,8.8
2245.919,46.9195126,7.4883208,22.8,7.8,9.0
2246.908,46.9194572,7.4883478,6.5,7.7,9.0
2248.920,46.9194084,7.4885712,17.9,8.2,9.1
2250.917,46.9193241,7.4887038,13.8,7.9,9.1
2252.919,46.9191493,7.4886914,19.4,8.1,9.1
2258.917,46.9189235,7.4891512,43.1,7.7,9.1
2261.904,46.9188470,7.4894393,23.5,7.9,9.1
2264.919,46.9187014,7.4895972,20.2,7.4,9.0
2267.905,46.9185947,7.4898198,20.7,7.3,9.1
2272.909,46.9182624,7.4900314,40.3,7.5,9.2
2274.906,46.9181922,7.4901981,14.9,7.6,9.1
2278.907,46.9179359,7.4903561,30.9,7.8,9.4
2280.924,46.9178346,7.4904707,14.3,7.7,9.5
2281.923,46.9177976,7.4905528,7.5,7.5,9.6
2283.910,46.9176809,7.4906182,13.9,7.4,9.4
2284.914,46.9175983,7.4906235,9.2,7.6,9.5
2285.920,46.9175426,7.4906701,7.1,7.5,9.5
2286.928,46.9175382,7.4907991,9.8,7.9,9.4
2288.916,46.9174006,7.4908904,16.8,8.0,9.0
2290.908,46.9172645,7.4909485,15.8,8.0,8.9
2291.908,46.9172788,7.4911100,12.4,8.5,8.9
2292.905,46.9172507,7.4911970,7.3,8.7,8.9
2297.919,46.9169337,7.4914068,38.7,8.3,7.9
2298.910,46.9169329,7.4915033,7.3,8.2,7.8
2300.912,46.9168432,7.4916105,12.9,7.9,7.8
2301.918,46.9167560,7.4916127,9.7,8.1,7.8
2302.914,46.9167115,7.4916458,5.5,7.4,7.8
2304.901,46.9166397,7.4917905,13.6,7.4,7.7
2307.910,46.9164878,7.4919109,19.2,7.0,7.7
2309.900,46.9163345,7.4919787,17.8,7.2,7.7
2310.906,46.9162896,7.4920385,6.8,7.2,7.7
2311.905,46.9162100,7.4920667,9.1,7.5,7.7
2313.902,46.9161389,7.4921700,11.2,7.1,7.6
2317.901,46.9159221,7.4923284,26.9,7.2,7.6
2318.902,46.9158339,7.4923374,9.8,7.4,7.6
2319.907,46.9157899,7.4923962,6.6,7.1,7.6
2321.915,46.9156257,7.4924513,18.7,7.3,7.6
2322.906,46.9155886,7.4925091,6.0,7.5,7.6
2326.908,46.9153418,7.4925991,28.3,7.5,7.6
2327.909,46.9153067,7.4926525,5.6,7.3,7.6
2330.913,46.9151148,7.4927204,21.9,7.3,7.5
2332.906,46.9150259,7.4928795,15.6,7.1,7.5
2340.912,46.9145686,7.4930811,53.1,6.9,7.4
2344.915,46.9143939,7.4932091,21.7,6.0,7.3
2346.914,46.9142923,7.4933255,14.4,6.1,7.3
2352.920,46.9139653,7.4935350,39.7,6.5,7.1
2357.915,46.9135882,7.4936227,42.5,7.8,7.1
2358.916,46.9134199,7.4935633,19.2,9.1,7.3
2361.915,46.9133101,7.4937194,17.0,8.7,7.3
2365.922,46.9129893,7.4937975,36.2,8.9,7.4
2366.916,46.9129486,7.4938597,6.5,8.5,7.4
2371.907,46.9126692,7.4940456,34.1,7.5,7.3
2373.919,46.9125255,7.4940453,16.0,7.8,7.4
2378.913,46.9122338,7.4942362,35.5,7.4,7.4
2384.915,46.9118594,7.4943183,42.1,7.1,7.3
2387.909,46.9116690,7.4944797,24.5,7.5,7.4
2388.911,46.9115959,7.4944942,8.2,7.6,7.4
2389.906,46.9115702,7.4946049,8.9,7.7,7.4
2390.914,46.9114792,7.4946133,10.1,8.0,7.5
2392.914,46.9113624,7.4946806,14.0,8.0,7.4
2393.912,46.9113485,7.4947316,4.2,7.7,7.4
2394.906,46.9112971,7.4947317,5.7,7.6,7.3
2395.914,46.9112605,7.4947844,5.7,7.4,7.3
2396.920,46.9111916,7.4947903,7.7,7.4,7.3
2397.915,46.9111541,7.4948745,7.6,7.3,7.4
2405.903,46.9106936,7.4951415,55.1,7.1,7.5
2406.913,46.9106482,7.4951790,5.8,6.9,7.5
2407.918,46.9105457,7.4951876,11.4,7.3,7.6
2410.904,46.9104033,7.4953007,18.0,7.1,7.5
2414.912,46.9101594,7.4953401,27.3,7.0,7.5
2418.910,46.9099297,7.4954227,26.3,6.6,7.4
2422.916,46.9096992,7.4955493,27.4,6.8,7.2
2423.922,46.9096621,7.4956001,5.7,6.6,7.2
2427.910,46.9094268,7.4956890,27.0,6.7,7.1
2428.910,46.9093644,7.4956711,7.1,6.7,7.1
2430.914,46.9093043,7.4958036,12.1,6.6,7.1
2439.896,46.9088464,7.4960733,54.9,6.2,6.9
2445.897,46.9085018,7.4961782,39.1,6.4,6.8
2446.906,46.9083863,7.4961585,12.9,7.0,6.9
2452.906,46.9081119,7.4963456,33.7,6.9,6.6
2453.907,46.9080351,7.4963605,8.6,7.2,6.7
2454.910,46.9079916,7.4964121,6.2,7.0,6.7
2457.907,46.9078387,7.4964598,17.4,6.1,6.7
2465.907,46.9074014,7.4967625,53.8,6.5,6.6
2472.914,46.9069535,7.4969429,51.6,7.6,6.7
2476.914,46.9067263,7.4970224,26.0,7.2,6.6
2477.916,46.9066197,7.4971701,16.3,8.3,6.8
2480.915,46.9065852,7.4971488,4.2,6.5,6.6
2486.927,46.9061111,7.4973803,55.6,7.7,6.8
2495.928,46.9056349,7.4976236,56.1,6.4,6.8
2504.904,46.9051730,7.4978616,54.5,6.2,6.8
2512.901,46.9047373,7.4981002,51.7,6.1,6.7
2520.915,46.9042573,7.4983673,57.1,7.1,6.8
2533.923,46.9038023,7.4985890,53.3,4.3,6.2
2542.923,46.9033694,7.4988018,50.8,5.7,5.9
2549.926,46.9029220,7.4990226,52.5,7.0,6.0
2558.912,46.9024537,7.4992610,55.1,6.3,5.9
2567.919,46.9019889,7.4995015,54.8,6.4,6.0
2576.910,46.9015347,7.4997348,53.5,5.9,5.8
2587.910,46.9010902,7.4999602,52.3,4.8,5.7
2596.917,46.9006267,7.5001876,54.4,5.7,6.0
2606.909,46.9001853,7.5004056,51.8,5.2,5.7
2617.921,46.8997488,7.5006286,51.4,4.7,5.5
2627.914,46.8992833,7.5008094,53.5,5.3,5.3
2639.911,46.8989933,7.5007696,32.4,2.1,4.7
2640.908,46.8985050,7.5009888,56.8,2.1,4.7
2645.909,46.8982547,7.5010112,27.9,8.6,5.6
2647.910,46.8981876,7.5010727,8.8,9.9,5.6
2648.915,46.8981533,7.5010168,5.7,9.5,5.6
2652.910,46.8979909,7.5009762,18.3,9.1,5.5
2654.907,46.8978926,7.5009160,11.8,5.0,5.5
2657.902,46.8977174,7.5008588,20.0,5.5,5.6
2658.912,46.8977090,7.5009321,5.7,5.7,5.6
2660.907,46.8976112,7.5009725,11.3,5.5,5.7
2665.907,46.8973901,7.5009178,24.9,5.5,5.6
2669.908,46.8971144,7.5008443,31.2,5.6,5.7
2674.902,46.8968579,7.5008062,28.7,6.2,5.9
2678.908,46.8966504,7.5007098,24.2,6.9,6.0
2680.922,46.8965910,7.5006203,9.5,6.3,6.2
2684.904,46.8963736,7.5005912,24.3,5.8,6.0
2685.910,46.8963224,7.5005347,7.1,5.9,6.0
2686.906,46.8962600,7.5005145,7.1,6.0,6.1
2687.900,46.8962325,7.5004364,6.7,5.9,6.1
2692.900,46.8959349,7.5002229,36.9,7.0,6.3
2696.917,46.8957196,7.4999902,29.8,7.4,6.8
2698.904,46.8956433,7.4999544,8.9,6.9,6.8
2700.905,46.8955559,7.4998431,12.9,7.0,6.9
2701.912,46.8954562,7.4997691,12.4,7.3,7.0
2702.909,46.8954213,7.4997033,6.3,7.1,7.0
2713.902,46.8950340,7.4993584,50.4,5.4,6.4
2717.907,46.8949035,7.4992234,17.8,4.6,6.2
2728.912,46.8944078,7.4990971,55.9,5.7,6.2
2738.905,46.8941473,7.4992149,30.3,3.1,5.6
2748.915,46.8942305,7.4991388,10.9,3.2,5.1
2755.899,46.8938625,7.4991604,40.9,6.4,4.9
2758.904,46.8937902,7.4992802,12.2,5.4,4.8
2759.902,46.8937906,7.4994033,9.4,5.8,4.9
2768.907,46.8935119,7.4999562,52.3,6.1,4.6
2775.905,46.8933387,7.5002769,31.1,5.0,4.6
2776.909,46.8932743,7.5002876,7.2,5.3,4.6
2783.908,46.8930451,7.5007427,43.0,5.9,4.8
2786.903,46.8929957,7.5009743,18.5,6.2,4.9
2787.914,46.8930102,7.5009898,2.0,5.9,4.8
2793.897,46.8928132,7.5015751,49.7,7.1,5.2
2801.896,46.8924880,7.5020825,52.9,6.6,5.7
2809.903,46.8921886,7.5026307,53.4,6.8,6.2
2812.906,46.8921074,7.5028827,21.2,6.8,6.5
2813.912,46.8920483,7.5028933,6.6,6.8,6.6
2817.913,46.8920773,7.5029371,4.6,4.7,6.0
2818.907,46.8920542,7.5029163,3.0,4.3,6.0
2820.910,46.8918729,7.5030945,24.3,3.7,5.8
2821.908,46.8919144,7.5029541,11.7,4.2,5.9
2823.908,46.8917628,7.5028270,19.4,4.6,6.0
2824.908,46.8915554,7.5025738,30.1,6.5,6.2
2831.912,46.8913229,7.5023702,30.1,8.1,6.3
2836.915,46.8910042,7.5020014,45.2,7.9,6.7
2838.909,46.8909782,7.5018944,8.7,7.9,6.6
2840.901,46.8910034,7.5018683,3.4,6.6,6.7
2841.913,46.8908678,7.5016736,21.2,7.9,6.7
2847.899,46.8906149,7.5014474,33.0,6.1,6.6
2850.907,46.8904544,7.5014380,17.9,6.7,6.5
2851.904,46.8904298,7.5013854,4.8,5.6,6.5
2854.897,46.8902252,7.5013001,23.6,5.1,6.4
2859.906,46.8899890,7.5012258,26.9,6.3,6.5
2860.907,46.8899222,7.5012565,7.8,6.5,6.5
2864.904,46.8896872,7.5012662,26.1,7.0,6.4
2866.898,46.8895657,7.5013580,15.2,7.2,6.5
2867.910,46.8895102,7.5014416,8.9,7.1,6.5
2868.908,46.8895069,7.5015572,8.8,7.4,6.6
2870.907,46.8894171,7.5016983,14.7,7.4,6.6
2871.912,46.8893407,7.5017168,8.6,7.3,6.6
2872.902,46.8892940,7.5018190,9.4,7.8,6.6
2873.905,46.8891125,7.5015858,26.9,7.8,6.6
2874.907,46.8890676,7.5016473,6.8,9.0,6.9
2876.906,46.8889843,7.5018494,18.0,9.7,7.3
2877.909,46.8889701,7.5019566,8.3,9.6,7.4
2878.903,46.8889975,7.5021915,18.2,10.4,7.5
2879.900,46.8889269,7.5022413,8.7,10.4,7.7
2881.894,46.8888540,7.5023972,14.4,10.5,7.7
2883.896,46.8887468,7.5024578,12.8,9.9,7.6
2884.896,46.8886491,7.5024607,10.9,10.0,7.7
2885.896,46.8885215,7.5026774,21.8,8.9,7.7
2889.897,46.8884295,7.5027877,13.2,7.7,7.7
2896.911,46.8879271,7.5029423,57.1,7.8,7.6
2897.903,46.8879141,7.5030225,6.3,7.7,7.6
2898.920,46.8879298,7.5031941,13.2,8.2,7.7
2904.912,46.8875176,7.5033185,46.8,8.2,7.8
2906.919,46.8873764,7.5033289,15.7,8.3,7.9
2907.923,46.8873197,7.5033718,7.1,8.2,7.9
2912.907,46.8870145,7.5034457,34.4,7.0,8.1
2919.906,46.8866416,7.5035967,43.0,6.6,8.0
2920.908,46.8865872,7.5035869,6.1,6.5,8.0
2926.906,46.8863030,7.5037042,32.8,5.6,7.9
2930.912,46.8861659,7.5036016,17.1,5.2,7.6
2932.907,46.8860833,7.5034542,14.5,5.6,7.6
2933.909,46.8859741,7.5032630,19.0,5.8,7.3
2937.922,46.8859039,7.5031418,12.1,5.9,7.2
2938.911,46.8858365,7.5030796,8.9,6.6,7.2
2940.917,46.8857475,7.5029160,15.9,7.2,7.0
2945.911,46.8855882,7.5024953,36.6,7.4,7.0
2946.906,46.8855952,7.5024517,3.4,7.3,6.9
2948.909,46.8855009,7.5023727,12.1,7.1,6.9
2949.905,46.8854693,7.5022997,6.6,6.8,6.9
2959.914,46.8850794,7.5019462,51.0,5.2,6.3
2969.917,46.8845303,7.5017036,63.8,6.3,6.2
2972.917,46.8843225,7.5015488,25.9,7.3,6.2
2975.907,46.8841929,7.5014775,15.4,8.1,6.2
2976.906,46.8841730,7.5015043,3.0,7.6,6.1
2981.917,46.8839619,7.5015107,23.5,5.6,6.1
2982.909,46.8839271,7.5015349,4.3,5.5,6.1
2986.916,46.8837016,7.5014371,26.2,5.5,6.1
2988.918,46.8835946,7.5013392,14.0,5.7,6.2
2996.922,46.8832371,7.5012337,40.6,5.5,6.1
2997.914,46.8831980,7.5012734,5.3,5.6,6.1
3000.917,46.8830892,7.5012387,12.4,5.0,5.9
3004.915,46.8829064,7.5011489,21.4,5.6,5.8
3007.908,46.8827891,7.5011968,13.5,4.9,5.7
3008.908,46.8827302,7.5011288,8.3,5.3,5.7
3011.911,46.8825717,7.5011159,17.7,5.6,5.8
3012.921,46.8824854,7.5010315,11.5,6.0,5.8
3014.908,46.8823607,7.5009547,15.0,6.6,5.8
3015.915,46.8823699,7.5011421,14.3,7.4,6.0
3018.918,46.8821547,7.5010205,25.7,8.5,6.2
3020.905,46.8820552,7.5009452,12.5,8.4,6.3
3021.910,46.8820213,7.5009832,4.8,8.5,6.3
3022.914,46.8819430,7.5009070,10.5,8.6,6.4
3026.908,46.8817016,7.5008225,27.6,7.4,6.5
3031.900,46.8814311,7.5008064,30.1,6.8,6.4
3034.913,46.8812146,7.5007135,25.1,6.9,6.4
3036.916,46.8811458,7.5007304,7.8,6.3,6.2
3039.905,46.8809722,7.5006093,21.4,6.4,6.3
3040.908,46.8809516,7.5006829,6.1,6.5,6.4
3045.914,46.8807236,7.5006578,25.4,5.7,6.4
3050.913,46.8804369,7.5005383,33.2,5.9,6.4
3051.918,46.8803611,7.5004604,10.3,6.3,6.5
3055.910,46.8801956,7.5004347,18.5,6.1,6.5
3062.898,46.8798170,7.5002498,44.4,5.8,6.6
3063.909,46.8798035,7.5002189,2.8,5.7,6.5
3065.914,46.8797139,7.5002311,10.0,5.8,6.5
3066.916,46.8796699,7.5002807,6.2,5.6,6.6
3067.914,46.8796246,7.5002791,5.0,5.6,6.6
3073.917,46.8793066,7.5000618,39.0,6.1,6.5
3076.913,46.8791512,7.5000688,17.3,6.2,6.2
3078.915,46.8790369,7.4999511,15.6,6.2,6.3
3086.905,46.8787140,7.4999366,35.9,5.3,6.0
3088.908,46.8785981,7.4998450,14.7,5.2,6.0
3094.900,46.8783222,7.4999143,31.1,5.7,5.9
3097.915,46.8781496,7.4998819,19.3,5.7,5.9
3098.916,46.8781569,7.4999837,7.8,5.8,5.9
3099.909,46.8780994,7.4999747,6.4,5.9,5.9
3105.918,46.8778297,7.4997955,32.9,6.0,5.9
3107.916,46.8777646,7.4998101,7.3,5.5,5.8
3110.908,46.8776062,7.4996973,19.6,5.5,5.8
3111.913,46.8775552,7.4997065,5.7,5.4,5.8
3112.908,46.8775176,7.4998079,8.8,5.9,5.8
3114.909,46.8774285,7.4998079,9.9,5.7,5.8
3115.922,46.8773940,7.4998671,5.9,5.9,5.8
3124.905,46.8769064,7.4997257,55.3,6.1,5.9
3125.913,46.8768685,7.4997015,4.6,6.0,5.8
3126.914,46.8768426,7.4998053,8.4,6.2,5.9
3132.914,46.8765744,7.4996862,31.2,5.4,5.8
3136.904,46.8763996,7.4996863,19.4,5.2,5.7
3137.902,46.8763438,7.4996333,7.4,5.3,5.8
3139.904,46.8762586,7.4996740,10.0,5.0,5.7
3144.904,46.8759510,7.4995385,35.7,6.5,5.9
3145.905,46.8759246,7.4994915,4.6,6.4,5.9
3149.900,46.8757162,7.4994592,23.3,6.4,5.9
3151.909,46.8756063,7.4994208,12.6,6.1,5.9
3152.914,46.8755555,7.4994515,6.1,5.8,5.9
3153.908,46.8754754,7.4994240,9.2,6.2,6.0
3158.908,46.8752544,7.4994515,24.7,5.9,5.9
3161.907,46.8751358,7.4994044,13.7,5.5,5.8
3166.903,46.8748880,7.4992940,28.8,5.3,5.8
3167.900,46.8748605,7.4993176,3.5,5.2,5.9
3168.909,46.8748492,7.4992908,2.4,5.0,5.8
3173.912,46.8746121,7.4992601,26.5,4.9,5.7
3182.900,46.8741526,7.4990244,54.1,6.0,5.7
3189.896,46.8737237,7.4988236,50.1,6.6,5.8
3191.904,46.8736124,7.4987929,12.6,6.9,5.9
3192.898,46.8735769,7.4988273,4.7,6.8,5.9
3193.903,46.8735209,7.4987744,7.4,6.9,6.0
3200.904,46.8731270,7.4987644,43.8,6.3,6.0
3202.909,46.8730059,7.4985864,19.1,6.9,6.0
3205.903,46.8728536,7.4985287,17.5,6.8,6.1
3207.897,46.8727452,7.4985260,12.0,6.7,6.1
3213.907,46.8724711,7.4984175,31.6,5.6,6.0
3217.907,46.8722834,7.4983069,22.5,5.5,6.0
3218.902,46.8722097,7.4982323,10.0,5.8,6.1
3219.910,46.8721231,7.4982623,9.9,6.1,6.2
3224.900,46.8718343,7.4981042,34.3,7.1,6.3
3225.906,46.8718171,7.4981427,3.5,6.9,6.3
3228.906,46.8716696,7.4980909,16.9,6.8,6.3
3229.907,46.8716123,7.4981148,6.6,6.2,6.3
3239.900,46.8711176,7.4980482,55.2,5.6,6.3
3249.907,46.8706329,7.4979124,54.9,5.7,6.2
3251.898,46.8705414,7.4979212,10.2,5.9,6.1
3252.898,46.8705243,7.4979617,3.6,5.6,6.1
3253.910,46.8704644,7.4979480,6.7,5.9,6.0
3254.906,46.8704669,7.4979984,3.9,5.7,6.0
3255.916,46.8703748,7.4978808,13.6,6.1,6.1
3256.897,46.8703300,7.4978724,5.0,6.0,6.1
3258.906,46.8701720,7.4977328,20.5,6.9,6.2
3262.908,46.8699791,7.4976878,21.7,7.2,6.1
3263.901,46.8699431,7.4977276,5.0,7.0,6.0
3265.897,46.8697568,7.4975732,23.8,7.6,6.3
3266.887,46.8697149,7.4974971,7.4,7.9,6.3
3267.895,46.8696659,7.4975198,5.7,7.0,6.3
3268.887,46.8696011,7.4974072,11.2,7.5,6.3
3271.894,46.8694326,7.4974530,19.1,7.6,6.4
3272.894,46.8693225,7.4972539,19.5,8.9,6.6
3273.892,46.8691766,7.4969027,31.3,8.9,6.6
3274.896,46.8691389,7.4969711,6.7,10.6,6.9
3275.906,46.8690758,7.4969500,7.2,9.7,6.9
3276.902,46.8690516,7.4970713,9.6,10.2,7.1
3277.914,46.8689978,7.4971108,6.7,9.9,7.0
3278.907,46.8689329,7.4970698,7.9,10.1,7.0
3280.923,46.8687227,7.4969215,26.0,9.5,7.1
3283.908,46.8686586,7.4968291,10.0,9.5,7.2
3284.908,46.8686120,7.4968245,5.2,8.0,7.1
3286.915,46.8685801,7.4970886,20.4,8.5,7.3
3287.915,46.8684227,7.4971786,18.8,8.2,7.3
3293.910,46.8682468,7.4969714,25.1,7.1,7.4
3297.915,46.8680328,7.4969715,23.8,6.3,7.4
3298.913,46.8678296,7.4969651,22.6,6.6,7.5
3302.915,46.8676944,7.4969789,15.1,6.8,7.7
3309.907,46.8673995,7.4969702,32.8,6.2,7.6
3312.916,46.8671170,7.4968712,32.3,6.5,7.8
3314.914,46.8670850,7.4969483,6.9,6.6,7.8
3316.913,46.8669970,7.4969659,9.9,6.3,7.7
3317.914,46.8669761,7.4968705,7.6,6.5,7.6
3318.914,46.8669414,7.4968785,3.9,6.6,7.6
3319.919,46.8668360,7.4970220,16.0,5.8,7.5
3322.915,46.8667622,7.4970036,8.3,6.0,7.6
3325.913,46.8665687,7.4968697,23.8,6.5,7.5
3326.916,46.8665379,7.4968076,5.8,6.7,7.5
3327.918,46.8664470,7.4967459,11.1,7.1,7.6
3328.913,46.8663763,7.4966460,11.0,7.4,7.7
3329.915,46.8663216,7.4966411,6.1,7.7,7.6
3332.912,46.8661356,7.4964919,23.6,8.2,7.6
3333.917,46.8661476,7.4967581,20.3,9.2,7.7
3336.911,46.8658931,7.4967449,28.3,8.1,7.3
3339.916,46.8658426,7.4967794,6.2,7.9,7.2
3344.919,46.8655956,7.4967129,27.9,5.8,7.0
3348.910,46.8653400,7.4965134,32.2,6.7,7.0
3353.913,46.8650255,7.4965097,35.0,7.4,7.1
3355.911,46.8647900,7.4964788,26.3,7.4,7.1
3360.910,46.8646300,7.4964164,18.4,6.7,7.0
3362.903,46.8645109,7.4963195,15.2,6.8,7.0
3364.905,46.8644460,7.4964331,11.3,6.6,7.0
3365.905,46.8644109,7.4964383,3.9,6.2,7.0
3368.914,46.8642180,7.4962875,24.3,6.7,7.1
3369.907,46.8641472,7.4962621,8.1,6.8,7.1
3370.908,46.8640702,7.4961461,12.3,7.5,7.3
3371.912,46.8640411,7.4961745,3.9,7.3,7.1
3376.905,46.8637178,7.4960642,36.9,7.4,7.2
3377.901,46.8637020,7.4960949,2.9,7.0,7.2
3379.910,46.8635720,7.4960595,14.7,7.1,7.2
3381.907,46.8634487,7.4960659,13.7,6.6,7.3
3385.897,46.8632013,7.4959036,30.2,7.0,7.3
3386.901,46.8631515,7.4959342,6.0,6.9,7.2
3387.902,46.8631130,7.4958761,6.2,7.1,7.2
3392.913,46.8628494,7.4959306,29.6,5.7,6.6
3395.905,46.8627999,7.4959227,5.5,5.1,6.6
3396.906,46.8627523,7.4959961,7.7,5.1,6.6
3399.903,46.8625689,7.4959813,20.4,5.6,6.6
3400.907,46.8625265,7.4960278,5.9,5.8,6.7
3405.909,46.8622457,7.4959065,32.6,6.3,6.6
3409.911,46.8620198,7.4959458,25.3,6.6,6.6
3410.911,46.8619325,7.4959550,9.7,6.4,6.5
3413.917,46.8619022,7.4960152,5.7,7.0,6.5
3422.920,46.8614108,7.4959700,54.7,5.8,6.4
3427.903,46.8611322,7.4960135,31.1,6.2,6.4
3428.906,46.8610570,7.4959172,11.1,6.6,6.4
3435.905,46.8607544,7.4958372,34.2,5.5,6.1
3436.908,46.8607856,7.4961576,24.7,5.5,6.1
3440.903,46.8606046,7.4961981,20.4,6.0,6.2
3441.915,46.8605738,7.4962378,4.6,6.0,6.2
3442.912,46.8605203,7.4962414,6.0,5.7,6.2
3444.902,46.8602820,7.4961187,28.1,7.8,6.4
3446.916,46.8601757,7.4961386,11.9,8.1,6.3
3447.916,46.8601389,7.4961823,5.3,7.0,6.3
3448.921,46.8601208,7.4961573,2.8,6.8,6.3
3450.913,46.8600157,7.4962291,12.9,7.2,6.3
3453.915,46.8598745,7.4962072,15.8,6.9,6.4
3454.915,46.8597999,7.4962437,8.7,5.8,6.5
3455.923,46.8597905,7.4962901,3.7,5.6,6.4
3456.917,46.8596900,7.4962506,11.6,6.1,6.5
3459.924,46.8595514,7.4963611,17.6,6.4,6.4
3462.914,46.8594320,7.4963183,13.7,5.8,6.4
3464.914,46.8593935,7.4961730,11.9,6.1,6.4
3465.912,46.8594316,7.4961683,4.3,5.7,6.4
3473.911,46.8595349,7.4957448,34.3,4.3,6.1
3476.913,46.8594796,7.4956353,10.4,4.3,6.0
3485.914,46.8589820,7.4957488,56.0,5.8,5.9
3488.914,46.8587968,7.4957661,20.6,6.7,6.0
3490.915,46.8587104,7.4957375,9.9,6.6,5.9
3495.915,46.8584565,7.4959052,31.0,6.2,6.0
3496.921,46.8583911,7.4959071,7.3,5.9,6.0
3497.909,46.8583818,7.4959897,6.4,6.0,6.0
3500.916,46.8582653,7.4960958,15.3,5.9,5.9
3501.907,46.8581578,7.4961332,12.3,6.6,6.0
3503.919,46.8580903,7.4962145,9.7,6.3,5.9
3505.917,46.8579666,7.4962531,14.1,6.5,5.7
3506.920,46.8579143,7.4962379,5.9,6.4,5.7
3511.915,46.8577091,7.4963255,23.8,6.0,5.7
3513.919,46.8575685,7.4963348,15.6,5.8,5.8
3514.918,46.8575274,7.4963766,5.6,5.8,5.8
3515.915,46.8574761,7.4963402,6.3,5.9,5.7
3523.912,46.8570982,7.4964482,42.8,5.6,5.7
3524.916,46.8570325,7.4963891,8.6,5.8,5.7
3534.908,46.8565684,7.4964812,52.1,5.6,5.9
3541.913,46.8561771,7.4965335,43.7,6.0,6.1
3542.910,46.8561214,7.4965937,7.7,6.3,6.1
3545.913,46.8559224,7.4966472,22.5,6.5,6.1
3546.911,46.8558717,7.4966912,6.6,6.5,6.1
3553.912,46.8554408,7.4967172,47.9,7.1,6.1
3554.913,46.8553785,7.4967518,7.4,7.1,6.2
3557.913,46.8552126,7.4967670,18.5,6.8,6.2
3558.915,46.8551642,7.4967459,5.6,6.4,6.2
3562.915,46.8549404,7.4967631,24.9,6.3,6.1
3563.914,46.8549054,7.4967424,4.2,6.1,6.1
3564.913,46.8548686,7.4968176,7.0,6.1,6.1
3565.908,46.8548493,7.4967964,2.7,5.7,6.0
3566.911,46.8548226,7.4968832,7.3,5.9,6.1
3570.917,46.8546069,7.4969040,24.0,5.9,6.1
3573.918,46.8545186,7.4966392,22.5,6.2,6.2
3574.917,46.8545813,7.4965325,10.7,6.7,6.3
3583.922,46.8544787,7.4958910,50.2,6.2,6.3
3585.917,46.8544495,7.4957643,10.2,5.4,6.2
3586.916,46.8545052,7.4956649,9.8,5.8,6.2
3589.917,46.8545036,7.4954452,16.8,5.8,6.3
3590.914,46.8544526,7.4953871,7.2,5.9,6.4
3592.915,46.8544021,7.4951972,15.5,6.5,6.4
3593.916,46.8544063,7.4951162,6.2,6.6,6.5
3594.916,46.8543803,7.4950429,6.3,6.6,6.5
3596.909,46.8544168,7.4949179,10.4,6.3,6.4
3598.915,46.8544348,7.4947594,12.3,6.3,6.4
3599.921,46.8544703,7.4946646,8.2,6.6,6.4
3602.909,46.8544847,7.4944445,16.9,6.1,6.4
3603.910,46.8544254,7.4943828,8.1,6.3,6.4
3607.919,46.8543905,7.4940414,26.3,6.7,6.4
3608.910,46.8544107,7.4939462,7.6,6.8,6.4
3612.907,46.8543035,7.4936579,25.0,6.8,6.4
3615.914,46.8542935,7.4934391,16.7,6.4,6.3
3619.908,46.8544184,7.4931805,24.1,6.1,6.3
3620.911,46.8544682,7.4931306,6.7,6.2,6.3
3625.913,46.8545135,7.4929208,16.8,4.9,6.2
3644.912,46.8549535,7.4927052,51.6,2.5,5.0
3656.915,46.8552047,7.4924400,34.5,2.8,4.3
3661.911,46.8551517,7.4923217,10.8,2.6,4.0
3669.914,46.8548521,7.4922782,33.5,3.9,3.7
3670.909,46.8547412,7.4923381,13.1,5.0,3.8
3673.902,46.8546027,7.4923648,15.5,5.6,3.8
3681.910,46.8541555,7.4925316,51.3,6.2,3.8
3684.907,46.8538969,7.4924332,29.7,7.7,4.1
3686.920,46.8537654,7.4925898,18.9,8.2,4.3
3693.917,46.8533944,7.4927131,42.3,7.0,4.6
3695.915,46.8533101,7.4926593,10.2,6.4,4.7
3699.908,46.8531094,7.4927162,22.7,5.4,5.0
3701.911,46.8530313,7.4926762,9.2,5.3,5.1
3702.907,46.8529873,7.4927345,6.6,5.4,5.1
3703.906,46.8529367,7.4927473,5.7,5.5,5.2
3704.916,46.8528832,7.4926839,7.7,5.7,5.2
3705.910,46.8528022,7.4927024,9.1,6.1,5.3
3712.910,46.8523519,7.4926186,50.5,7.3,5.9
3714.915,46.8522356,7.4925507,13.9,7.4,6.0
3715.907,46.8522929,7.4928067,20.5,8.5,6.3
3716.916,46.8522352,7.4928885,8.9,8.6,6.4
3718.910,46.8521312,7.4928142,12.9,8.6,6.5
3723.908,46.8517683,7.4928693,40.6,8.9,7.0
3724.914,46.8517310,7.4927982,6.8,8.7,7.0
3725.913,46.8516792,7.4927842,5.9,7.6,7.0
3726.913,46.8516440,7.4928402,5.8,7.3,7.1
3729.916,46.8515015,7.4929394,17.6,7.0,7.1
3734.917,46.8511263,7.4929025,41.8,7.1,7.3
3741.920,46.8507245,7.4930314,45.7,7.2,7.3
3746.917,46.8504181,7.4932272,37.2,6.9,7.1
3748.910,46.8502729,7.4932472,16.2,7.1,7.1
3754.921,46.8499173,7.4934959,43.8,7.4,7.3
3755.911,46.8498639,7.4934858,6.0,7.3,7.3
3757.910,46.8497643,7.4935924,13.7,7.2,7.3
3758.911,46.8497046,7.4936062,6.7,7.2,7.3
3760.917,46.8496384,7.4937534,13.4,6.7,7.4
3766.906,46.8493346,7.4941051,43.1,7.0,7.5
3769.913,46.8492208,7.4943321,21.4,7.2,7.5
3770.914,46.8491614,7.4943541,6.8,7.2,7.5
3771.910,46.8491272,7.4944302,6.9,7.2,7.5
3772.906,46.8490564,7.4944047,8.1,7.2,7.5
3774.918,46.8489167,7.4944748,16.4,7.4,7.5
3777.917,46.8486738,7.4944626,27.0,8.0,7.4
3782.912,46.8483905,7.4945799,32.7,7.7,7.3
3783.915,46.8483495,7.4946339,6.1,7.5,7.2
3785.917,46.8482020,7.4947004,17.2,7.3,7.3
3786.916,46.8481627,7.4947861,7.9,7.3,7.3
3790.916,46.8479361,7.4949308,27.5,7.3,7.3
3797.922,46.8475884,7.4952868,47.2,6.8,7.2
3802.914,46.8474054,7.4955963,31.2,6.6,7.2
3804.913,46.8472948,7.4956539,13.1,6.7,7.2
3805.928,46.8472604,7.4957376,7.4,6.8,7.2
3809.921,46.8470431,7.4958604,25.9,6.5,7.1
3810.918,46.8470026,7.4959219,6.5,6.5,7.1
3811.904,46.8469388,7.4959065,7.2,6.6,7.0
3820.914,46.8465256,7.4963236,55.9,6.4,7.0
3821.917,46.8464640,7.4963612,7.4,6.4,7.0
3822.917,46.8464522,7.4964631,7.9,6.5,7.0
3830.912,46.8460529,7.4967133,48.3,6.4,6.8
3831.912,46.8459874,7.4966956,7.4,6.4,6.8
3834.917,46.8458380,7.4967147,16.7,6.1,6.7
3835.919,46.8458026,7.4967627,5.4,6.3,6.7
3842.911,46.8453695,7.4967871,48.2,6.6,6.6
3843.913,46.8453021,7.4967621,7.7,6.7,6.6
3844.913,46.8452644,7.4968318,6.8,6.7,6.6
3847.910,46.8450884,7.4968448,19.6,6.8,6.6
3850.913,46.8449275,7.4969018,18.4,6.6,6.5
3853.917,46.8447613,7.4968858,18.5,6.4,6.5
3855.914,46.8446566,7.4969446,12.5,6.3,6.5
3857.912,46.8445450,7.4969226,12.5,6.3,6.5
3863.917,46.8441926,7.4970103,39.7,6.4,6.5
3867.913,46.8439644,7.4970035,25.4,6.7,6.5
3870.913,46.8438084,7.4970633,17.9,6.1,6.4
3871.914,46.8437575,7.4970467,5.8,6.1,6.4
3875.914,46.8435377,7.4970885,24.6,6.1,6.4
3876.909,46.8435157,7.4971246,3.7,5.9,6.4
3877.920,46.8434514,7.4971005,7.4,6.0,6.4
3878.924,46.8434091,7.4971525,6.1,6.1,6.4
3879.917,46.8433385,7.4971775,8.1,6.2,6.4
3880.914,46.8432854,7.4971350,6.7,6.3,6.4
3883.914,46.8431379,7.4971567,16.5,6.3,6.4
3885.920,46.8430360,7.4971140,11.8,6.1,6.4
3886.915,46.8429846,7.4971554,6.5,6.1,6.4
3887.912,46.8429454,7.4972370,7.6,6.4,6.4
3889.920,46.8428278,7.4972282,13.1,6.5,6.4
3891.916,46.8427504,7.4973732,14.0,6.4,6.4
3895.911,46.8425420,7.4974707,24.3,6.5,6.4
3896.916,46.8424948,7.4975190,6.4,6.6,6.4
3900.911,46.8422671,7.4976214,26.5,6.5,6.4
3907.909,46.8418679,7.4976967,44.7,6.6,6.4
3908.905,46.8418249,7.4977504,6.3,6.5,6.4
3913.917,46.8415392,7.4978664,33.0,6.7,6.4
3914.917,46.8415110,7.4979095,4.5,6.4,6.4
3917.910,46.8413317,7.4979373,20.0,6.4,6.4
3919.917,46.8412073,7.4979766,14.1,6.6,6.4
3921.914,46.8410583,7.4979363,16.8,6.9,6.4
3922.914,46.8410223,7.4980081,6.8,6.9,6.5
3924.916,46.8409303,7.4980810,11.6,7.0,6.5
3927.908,46.8407651,7.4981000,18.4,6.9,6.4
3928.911,46.8407001,7.4980724,7.5,6.9,6.5
3929.921,46.8406676,7.4981450,6.6,6.8,6.5
3936.914,46.8402723,7.4981689,44.0,6.5,6.5
3938.918,46.8401686,7.4981218,12.1,6.4,6.5
3941.910,46.8400422,7.4981476,14.2,5.9,6.4
3947.906,46.8397721,7.4981115,30.2,5.2,6.3
3948.911,46.8397315,7.4981291,4.7,5.0,6.3
3955.911,46.8394444,7.4980866,32.1,5.0,6.1
3957.908,46.8393529,7.4981182,10.5,4.8,6.1
3964.913,46.8390032,7.4983663,43.2,5.9,6.0
3969.927,46.8387507,7.4984626,29.0,6.0,5.9
3974.908,46.8385326,7.4986481,28.1,5.8,5.9
3978.913,46.8383556,7.4986911,19.9,5.5,5.8
3979.900,46.8383425,7.4986377,4.3,5.4,5.7
3985.908,46.8381344,7.4987326,24.2,4.2,5.5
3987.910,46.8380401,7.4986592,11.9,4.5,5.5
4001.910,46.8376565,7.4987299,43.0,2.9,4.8
4013.922,46.8374242,7.4983958,36.3,3.1,4.4
4015.917,46.8374158,7.4982922,8.0,2.7,4.3
4030.909,46.8370328,7.4980935,45.2,3.3,3.7
4046.906,46.8369857,7.4984204,25.5,1.5,2.9
4069.907,46.8365516,7.4986429,51.2,2.2,2.4
4093.909,46.8361588,7.4985935,43.8,1.6,2.0
4112.912,46.8357550,7.4989604,52.9,3.6,2.3
4127.909,46.8353149,7.4992080,52.4,3.2,2.7
4139.915,46.8350209,7.4993023,33.5,3.0,2.8
4158.911,46.8345540,7.4992657,52.0,2.6,3.1
4177.914,46.8341059,7.4993435,50.2,2.5,2.8
4193.912,46.8336571,7.4993660,49.9,3.2,2.9
4202.918,46.8334119,7.4991505,31.8,3.6,2.9
4222.917,46.8329525,7.4991035,51.2,2.7,2.9
4243.915,46.8325025,7.4990102,50.5,2.5,2.8
4267.915,46.8320596,7.4988631,50.5,1.8,2.4
4282.917,46.8318170,7.4988407,27.0,2.0,2.2
4304.929,46.8314111,7.4985008,52.0,1.7,2.2
4310.908,46.8313927,7.4985395,3.6,1.2,2.0
4323.917,46.8312456,7.4982216,29.3,1.8,2.1
4330.915,46.8312516,7.4980850,10.4,1.4,2.0
4349.909,46.8307843,7.4982534,53.5,3.3,2.2
4360.919,46.8303601,7.4985369,51.9,4.9,2.7
4367.900,46.8300930,7.4987327,33.2,4.9,3.0
4368.922,46.8301035,7.4988689,10.5,5.4,3.2
4372.913,46.8299166,7.4989416,21.5,5.5,3.5
4373.914,46.8298554,7.4988729,8.6,5.9,3.5
4379.914,46.8295440,7.4989845,35.6,6.0,3.8
4383.902,46.8293015,7.4990427,27.3,6.6,4.2
4384.950,46.8292505,7.4990060,6.3,6.4,4.3
4389.899,46.8289221,7.4992716,41.8,7.6,4.9
4390.904,46.8288528,7.4992236,8.5,7.6,5.1
4395.907,46.8285886,7.4993653,31.3,7.5,5.3
4396.908,46.8285155,7.4993583,8.1,7.4,5.4
4397.908,46.8284439,7.4994314,9.7,7.6,5.5
4399.904,46.8283071,7.4994214,15.2,7.2,5.7
4400.911,46.8282818,7.4994875,5.8,7.2,5.8
4408.904,46.8277960,7.4995516,54.2,6.7,6.3
4417.904,46.8273449,7.4996611,50.8,5.7,6.4
4419.915,46.8272069,7.4996921,15.5,6.0,6.5
4420.915,46.8269699,7.4997537,26.8,7.1,6.7
4425.917,46.8268219,7.4997211,16.6,7.3,6.7
4428.910,46.8266384,7.4998048,21.4,7.5,6.9
4429.907,46.8265789,7.4997874,6.7,7.3,6.8
4432.911,46.8264162,7.4998830,19.5,6.5,6.8
4434.911,46.8262604,7.4999048,17.4,7.1,6.9
4437.920,46.8260670,7.5000294,23.5,7.5,7.0
4440.919,46.8258626,7.5000187,22.7,7.6,7.1
4448.907,46.8254207,7.5001627,50.3,6.7,6.9
4451.914,46.8252904,7.5002441,15.8,6.1,6.8
4452.914,46.8252792,7.5002862,3.4,5.9,6.7
4455.910,46.8250164,7.5003510,29.6,6.9,6.9
4461.910,46.8246952,7.5006312,41.6,7.1,6.9
4462.912,46.8246480,7.5006999,7.4,7.9,6.9
4463.916,46.8245808,7.5007188,7.6,7.9,6.9
4471.914,46.8243174,7.5011756,45.5,6.1,6.8
4472.914,46.8243125,7.5012623,6.6,6.1,6.9
4473.910,46.8242753,7.5012647,4.1,5.7,6.8
4475.917,46.8241857,7.5013662,12.6,5.9,6.8
4476.910,46.8241831,7.5014045,2.9,5.5,6.8
4477.911,46.8241478,7.5014299,4.4,5.4,6.8
4479.908,46.8241578,7.5014783,3.9,4.4,6.6
4483.910,46.8242109,7.5015250,6.9,3.1,6.1
4506.914,46.8241876,7.5014612,5.5,0.5,3.6
4874.904,46.8241377,7.5014500,5.6,0.5,0.1
4875.896,46.8240977,7.5015287,7.5,1.2,0.2
4876.901,46.8240459,7.5015417,5.8,1.9,0.3
4881.898,46.8238539,7.5017912,28.6,4.4,0.8
4882.902,46.8238782,7.5020293,18.4,6.0,1.1
4883.902,46.8238048,7.5019809,9.0,7.5,1.3
4884.907,46.8238223,7.5020473,5.4,7.3,1.3
4886.905,46.8237907,7.5022739,17.6,7.8,1.6
4890.915,46.8236695,7.5025514,25.1,7.8,2.0
4891.906,46.8235077,7.5026667,20.0,9.2,2.4
4893.907,46.8233755,7.5028386,19.7,8.9,2.7
4894.907,46.8232186,7.5028743,17.7,9.7,3.0
4896.905,46.8229958,7.5030600,28.5,11.2,3.4
4898.908,46.8228937,7.5032404,17.8,11.2,3.7
4899.915,46.8228313,7.5034084,14.6,12.2,4.0
4900.917,46.8228066,7.5036215,16.5,12.6,4.2
4902.909,46.8226868,7.5038598,22.5,12.8,4.6
4903.906,46.8226325,7.5040364,14.8,13.2,4.9
4905.913,46.8224956,7.5043255,26.8,12.6,5.3
4909.913,46.8222550,7.5050206,59.4,14.0,6.3
4914.906,46.8219628,7.5057163,62.2,13.5,7.3
4915.914,46.8219634,7.5058518,10.3,13.4,7.5
4917.920,46.8221218,7.5060349,22.5,12.5,7.8
4920.915,46.8223547,7.5061203,26.7,11.1,8.3
4922.911,46.8225716,7.5060831,24.3,11.1,8.7
4925.927,46.8229715,7.5061219,44.6,11.8,9.4
4926.924,46.8230802,7.5061680,12.6,11.6,9.6
4930.922,46.8235871,7.5062399,56.6,13.8,10.5
4934.941,46.8241037,7.5062879,57.5,14.2,11.5
4937.917,46.8244244,7.5063943,36.6,13.7,11.8
4939.914,46.8246025,7.5065621,23.6,13.1,11.9
4942.906,46.8246993,7.5070199,36.6,12.7,12.3
4947.912,46.8245406,7.5077632,59.4,12.0,12.5
4948.915,46.8244964,7.5079552,15.5,12.3,12.6
4952.907,46.8242614,7.5085654,53.4,12.9,12.9
4953.899,46.8242243,7.5087277,13.1,13.1,12.9
4954.909,46.8241470,7.5089060,16.1,13.5,13.0
4957.912,46.8239688,7.5095063,49.9,14.8,13.0
4959.930,46.8238004,7.5098949,35.1,15.5,13.3
4962.922,46.8237573,7.5105506,50.3,16.2,13.5
4963.923,46.8237264,7.5107771,17.6,16.6,13.6
4965.921,46.8237112,7.5113075,40.5,17.6,13.8
4966.920,46.8237298,7.5115221,16.5,17.7,13.8
4967.920,46.8237868,7.5118029,22.4,17.7,13.8
4968.917,46.8238468,7.5116989,10.4,16.2,13.6
4969.912,46.8238879,7.5116963,4.6,15.1,13.4
4970.905,46.8239685,7.5119314,20.0,15.3,13.6
4972.921,46.8239530,7.5122238,22.4,14.1,13.5
4973.954,46.8239687,7.5123675,11.1,13.4,13.5
4976.904,46.8241596,7.5129118,46.6,10.4,13.4
4979.919,46.8241811,7.5130012,7.2,10.9,13.3
4980.915,46.8242356,7.5130904,9.1,9.8,13.4
4981.912,46.8242460,7.5132150,9.6,9.8,13.3
4982.912,46.8242921,7.5133751,13.3,9.9,13.4
4983.915,46.8242707,7.5134510,6.3,9.4,13.2
4984.917,46.8243317,7.5136320,15.4,8.9,13.2
4986.918,46.8243850,7.5139299,23.5,9.4,13.1
4988.912,46.8244810,7.5141824,22.0,10.6,13.0
4990.916,46.8245321,7.5144583,21.8,11.0,12.9
4991.914,46.8245827,7.5145826,11.0,11.4,12.9
4993.914,46.8246198,7.5147784,15.5,10.5,12.6
4994.912,46.8246738,7.5148586,8.6,10.7,12.6
4995.913,46.8246780,7.5149754,8.9,10.2,12.5
4996.913,46.8247306,7.5151156,12.2,10.6,12.5
5001.906,46.8248195,7.5156496,41.9,8.7,12.2
5004.913,46.8249351,7.5160289,31.7,9.4,12.2
5005.917,46.8249431,7.5161490,9.2,9.5,12.1
5011.911,46.8251283,7.5168085,54.4,9.6,11.7
5012.913,46.8251420,7.5169478,10.7,9.7,11.6
5015.906,46.8252797,7.5171753,23.1,8.9,11.3
5018.910,46.8253332,7.5174674,23.1,8.7,10.9
5019.913,46.8253196,7.5175653,7.6,8.4,10.8
5020.914,46.8253598,7.5176681,9.0,8.4,10.5
5021.917,46.8253464,7.5177817,8.8,8.5,10.5
5022.914,46.8254519,7.5179564,17.8,9.0,10.4
5025.914,46.8254974,7.5182428,22.4,8.6,9.8
5027.917,46.8255729,7.5184335,16.8,8.8,9.6
5030.912,46.8255873,7.5187153,21.6,8.8,9.6
5034.915,46.8257256,7.5190744,31.4,7.6,9.2
5035.912,46.8257320,7.5191606,6.6,7.5,9.0
5037.914,46.8258396,7.5194020,22.0,8.2,9.1
5042.911,46.8258986,7.5198165,32.3,7.6,9.0
5044.911,46.8259536,7.5199653,12.9,7.4,8.9
5052.913,46.8260758,7.5206794,56.2,6.9,8.3
5060.916,46.8262289,7.5213356,52.9,6.6,8.1
5064.909,46.8262993,7.5216677,26.5,6.6,7.8
5069.913,46.8264576,7.5220714,35.5,6.7,7.6
5072.915,46.8264828,7.5223264,19.7,6.8,7.5
5075.915,46.8265795,7.5226349,25.9,7.4,7.5
5080.901,46.8266639,7.5230936,36.2,7.5,7.5
5082.908,46.8266543,7.5232903,15.0,7.6,7.4
5088.917,46.8268107,7.5239384,52.4,8.1,7.4
5092.913,46.8268505,7.5243005,28.0,8.1,7.3
5096.917,46.8269878,7.5246907,33.5,7.9,7.4
5099.915,46.8270978,7.5248838,19.1,7.5,7.2
5104.914,46.8272358,7.5253500,38.7,7.2,7.4
5105.914,46.8272384,7.5254446,7.2,7.2,7.3
5112.916,46.8274594,7.5259891,48.3,6.8,7.4
5113.914,46.8275040,7.5260437,6.5,6.8,7.4
5114.915,46.8275875,7.5260067,9.7,7.0,7.4
5116.913,46.8276664,7.5261301,12.9,7.1,7.4
5117.912,46.8276522,7.5262232,7.3,7.1,7.4
5119.919,46.8277583,7.5263588,15.7,7.2,7.4
5122.914,46.8278565,7.5266174,22.6,7.3,7.5
5123.913,46.8279179,7.5266843,8.5,7.7,7.5
5127.917,46.8280430,7.5270408,30.6,7.8,7.6
5128.916,46.8281068,7.5270811,7.7,7.7,7.6
5129.912,46.8281427,7.5271722,8.0,7.8,7.6
5130.921,46.8281947,7.5272002,6.2,7.6,7.6
5137.916,46.8284928,7.5277219,51.8,7.4,7.5
5141.917,46.8287023,7.5279193,27.7,7.2,7.5
5145.923,46.8288438,7.5281484,23.5,6.5,7.4
5146.922,46.8289063,7.5281688,7.1,6.6,7.3
5153.912,46.8291701,7.5285521,41.4,5.9,7.1
5154.916,46.8292053,7.5285629,4.0,5.7,7.0
5155.916,46.8292144,7.5286266,5.0,5.7,7.0
5159.913,46.8293194,7.5287636,15.7,4.9,6.8
5168.913,46.8292860,7.5288356,6.6,1.9,5.9
5172.915,46.8293574,7.5288895,8.9,1.7,5.6
5178.929,46.8292786,7.5289003,8.8,1.7,4.9
5188.914,46.8292797,7.5289910,6.9,1.7,4.0
5199.916,46.8292455,7.5289377,5.6,1.0,2.8
5221.910,46.8290953,7.5289506,16.7,1.6,1.6
5223.913,46.8291151,7.5289992,4.3,1.7,1.6
5226.913,46.8290865,7.5290231,3.7,1.9,1.6
5237.914,46.8292598,7.5290321,19.3,1.8,1.7
5245.917,46.8291597,7.5287869,21.8,2.3,1.8
5254.916,46.8290654,7.5286945,12.6,1.7,1.9
5263.913,46.8290122,7.5285057,15.6,2.3,2.0
5268.913,46.8289833,7.5286345,10.3,2.4,2.0
5282.898,46.8290146,7.5288564,17.3,1.5,1.9
5294.889,46.8292002,7.5290708,26.3,1.9,1.6
5309.907,46.8292233,7.5290858,2.8,1.6,1.7
5310.907,46.8291593,7.5288012,22.8,1.6,1.7
5311.916,46.8291802,7.5287679,3.4,3.5,2.0
5314.912,46.8292252,7.5288942,10.9,4.0,2.1
5320.906,46.8292302,7.5289543,4.6,3.8,2.0
5336.906,46.8291112,7.5286818,24.6,1.3,2.0
5352.909,46.8290847,7.5287303,4.7,1.4,2.1
5355.903,46.8287279,7.5288543,40.8,4.6,2.5
5368.910,46.8289462,7.5287983,24.6,7.0,2.6
5375.907,46.8289933,7.5288570,6.9,4.5,2.6
5381.898,46.8289786,7.5287770,6.3,1.4,2.6
5385.899,46.8288179,7.5286706,19.6,3.0,2.8
5387.896,46.8288539,7.5286403,4.6,3.2,2.8
5390.896,46.8288715,7.5285893,4.4,3.4,2.8
5392.912,46.8290285,7.5287387,20.8,5.6,3.1
5395.905,46.8289963,7.5287268,3.7,3.9,3.2
5399.911,46.8292662,7.5288771,32.1,6.2,3.6
5405.912,46.8293060,7.5289132,5.2,4.0,3.6
5411.910,46.8292485,7.5286362,22.1,2.3,3.8
5442.911,46.8291558,7.5287819,15.2,1.7,2.7
5450.907,46.8293036,7.5288303,16.8,2.5,2.4
5455.914,46.8293456,7.5289286,8.8,2.1,2.1
5461.911,46.8295486,7.5292905,35.7,3.5,2.0
5477.919,46.8297809,7.5299010,53.3,4.9,2.6
5501.912,46.8296681,7.5305518,51.2,2.5,3.0
5517.922,46.8294068,7.5308334,36.1,2.6,3.1
5523.924,46.8292878,7.5308230,13.3,2.3,2.9
5544.919,46.8290326,7.5313909,51.8,2.5,2.5
5569.918,46.8286006,7.5316199,51.1,2.1,2.4
5585.919,46.8283722,7.5318722,31.9,1.9,2.3
5589.908,46.8282789,7.5318848,10.4,2.1,2.3
5608.921,46.8280269,7.5321555,34.8,1.5,2.1
5619.907,46.8277817,7.5322202,27.7,2.6,2.2
5623.912,46.8277487,7.5323402,9.9,2.5,2.3
5639.910,46.8274955,7.5325990,34.4,2.2,2.2
5662.920,46.8270859,7.5327940,47.9,2.0,2.2
5682.917,46.8269877,7.5334495,51.2,2.1,2.4
5689.921,46.8269736,7.5335645,8.9,1.5,2.2
5692.916,46.8269228,7.5335692,5.7,1.5,2.2
5695.922,46.8269141,7.5337959,17.3,2.8,2.4
5700.922,46.8269207,7.5338688,5.6,2.9,2.4
5703.920,46.8268643,7.5341293,20.8,3.6,2.5
5707.922,46.8269034,7.5342810,12.4,4.1,2.6
5708.922,46.8270434,7.5345471,25.6,4.1,2.6
5710.919,46.8271049,7.5344255,11.5,6.0,3.0
5711.921,46.8271310,7.5344995,6.3,6.3,3.0
5712.915,46.8271783,7.5344990,5.3,6.2,3.1
5713.919,46.8272091,7.5344270,6.5,6.6,3.1
5717.917,46.8273011,7.5343964,10.5,5.5,3.2
5733.921,46.8277111,7.5347032,51.2,3.6,3.4
5742.911,46.8280372,7.5349175,39.8,4.4,3.7
5746.916,46.8282391,7.5349058,22.5,4.9,3.9
5750.890,46.8283462,7.5350108,14.3,4.6,4.1
5751.896,46.8283802,7.5349931,4.0,4.6,4.2
5752.907,46.8283921,7.5350238,2.7,4.4,4.2
5771.918,46.8288001,7.5352999,50.0,2.6,3.5
5787.915,46.8291319,7.5357458,50.2,3.1,3.5
5800.910,46.8293535,7.5363530,52.5,4.1,3.5
5805.909,46.8294543,7.5365576,19.2,4.4,3.3
5807.905,46.8295544,7.5368078,22.1,3.9,3.4
5815.897,46.8294837,7.5370121,17.5,4.1,3.5
5816.945,46.8292858,7.5370371,22.1,6.0,3.8
5817.902,46.8293120,7.5370550,3.2,5.8,3.8
5819.904,46.8294395,7.5372124,18.6,8.8,4.3
5822.916,46.8294129,7.5372963,7.0,9.3,4.4
5823.917,46.8293795,7.5373271,4.4,8.9,4.4
5826.917,46.8294864,7.5372612,12.9,7.4,4.5
5828.918,46.8294704,7.5372217,3.5,6.9,4.5
5829.924,46.8294577,7.5372397,2.0,6.5,4.5
5852.916,46.8294649,7.5366699,43.5,1.0,4.1
5879.917,46.8296519,7.5366426,20.9,2.1,2.2
5887.834,46.8297514,7.5366715,11.3,3.2,1.4
6132.900,46.8294494,7.5370112,42.4,0.2,0.2
6168.901,46.8294589,7.5365868,32.4,0.5,2.2
6517.922,46.8293322,7.5371994,48.8,4.9,0.8
6518.926,46.8292694,7.5373018,10.5,5.9,1.0
6519.917,46.8292593,7.5374227,9.3,6.9,1.1
6520.914,46.8292015,7.5375770,13.4,8.2,1.4
6523.917,46.8291937,7.5378542,21.2,9.4,1.7
6526.925,46.8290653,7.5381103,24.2,9.0,2.1
6527.926,46.8290906,7.5382132,8.3,9.0,2.3
6528.929,46.8291345,7.5381736,5.7,8.3,2.4
6529.924,46.8291213,7.5381245,4.0,7.9,2.4
6530.923,46.8291795,7.5381561,6.9,7.7,2.5
6531.933,46.8291516,7.5383130,12.4,7.9,2.7
6536.933,46.8290519,7.5385356,20.3,6.2,3.1
6537.923,46.8290766,7.5385157,3.1,5.7,3.2
6539.923,46.8290189,7.5387186,16.8,6.4,3.5
6541.924,46.8289389,7.5387462,9.1,6.0,3.6
6542.917,46.8289714,7.5387581,3.7,4.4,3.7
6547.922,46.8289288,7.5389043,12.1,4.2,3.9
6549.907,46.8289840,7.5389769,8.3,3.4,4.1
6559.919,46.8294597,7.5389093,53.1,5.3,5.0
6571.919,46.8297742,7.5384153,51.4,4.3,5.8
6592.919,46.8300989,7.5379193,52.3,2.5,3.9
6599.924,46.8302283,7.5377229,20.8,2.9,3.7
6609.923,46.8303005,7.5374728,20.7,2.3,3.4
6622.920,46.8306636,7.5370240,52.9,4.3,3.2
6625.914,46.8308009,7.5368214,21.7,5.5,3.3
6630.912,46.8309816,7.5366348,24.6,5.6,3.3
6637.910,46.8312409,7.5362716,40.0,5.6,3.7
6641.912,46.8313985,7.5362942,17.6,5.6,3.8
6644.916,46.8315453,7.5363300,16.5,5.2,4.0
6645.915,46.8315424,7.5363510,1.6,4.8,4.0
6659.921,46.8319935,7.5362675,50.6,3.5,4.2
6677.919,46.8324562,7.5364247,52.8,3.1,4.2
6697.930,46.8329162,7.5365595,52.2,2.6,3.3
6710.918,46.8329670,7.5372170,50.5,4.2,3.1
6722.921,46.8330162,7.5378815,51.0,4.2,3.4
6737.923,46.8329233,7.5384522,44.8,2.9,3.3
6738.919,46.8329517,7.5385142,5.7,3.1,3.4
6739.921,46.8331551,7.5386553,25.0,3.1,3.4
6741.919,46.8332198,7.5387482,10.1,6.0,3.8
6745.909,46.8334726,7.5391457,41.3,8.6,4.4
6746.919,46.8335010,7.5391366,3.2,8.5,4.4
6754.920,46.8337360,7.5397315,52.4,5.7,4.9
6757.915,46.8337675,7.5398475,9.5,5.4,4.9
6759.918,46.8337059,7.5398734,7.1,4.9,5.0
6768.919,46.8339115,7.5404633,50.5,5.4,5.2
6769.914,46.8339240,7.5405073,3.6,5.2,5.2
6775.919,46.8337647,7.5403693,20.6,5.2,5.3
6776.919,46.8337658,7.5403966,2.1,4.9,5.3
6779.932,46.8341954,7.5409086,61.7,6.8,5.9
6783.929,46.8342118,7.5409270,2.3,6.8,5.8
6786.929,46.8341703,7.5409821,6.2,7.1,5.8
6789.931,46.8342033,7.5410942,9.3,6.2,5.7
6791.929,46.8343117,7.5412492,16.9,3.7,6.0
6795.927,46.8345083,7.5414197,25.4,6.3,6.3
6796.924,46.8345632,7.5413996,6.3,6.3,6.4
6797.935,46.8345988,7.5414255,4.4,6.7,6.4
6799.930,46.8347186,7.5416551,22.0,8.3,6.6
6800.914,46.8347222,7.5417508,7.3,7.7,6.6
6801.907,46.8347883,7.5416883,8.8,8.2,6.4
6802.916,46.8348957,7.5417319,12.4,8.6,6.5
6803.929,46.8349844,7.5418473,13.2,8.6,6.3
6804.934,46.8350714,7.5418703,9.8,8.8,6.3
6806.923,46.8351392,7.5417603,11.3,9.4,6.4
6807.918,46.8352038,7.5418051,8.0,9.8,6.4
6808.916,46.8351899,7.5418817,6.0,9.4,6.4
6811.917,46.8352654,7.5420510,15.4,8.2,6.3
6812.926,46.8353279,7.5420803,7.3,7.6,6.4
6817.914,46.8355121,7.5423251,27.7,5.9,6.5
6823.923,46.8357862,7.5423459,30.5,5.4,6.5
6832.915,46.8361245,7.5422821,37.9,4.6,6.2
6833.929,46.8361540,7.5422524,4.0,4.3,6.2
6846.921,46.8366083,7.5423058,50.7,3.9,5.8
6858.912,46.8370124,7.5426577,52.3,4.5,5.4
6864.910,46.8372532,7.5428178,29.4,4.7,4.9
6867.914,46.8374065,7.5430085,22.4,5.7,4.8
6871.927,46.8375780,7.5430966,20.2,5.8,4.8
6872.914,46.8376000,7.5431325,3.7,5.6,4.7
6873.919,46.8376282,7.5432037,6.3,4.8,4.6
6876.915,46.8376820,7.5432775,8.2,5.1,4.7
6878.928,46.8378044,7.5433517,14.7,5.5,4.8
6881.917,46.8379360,7.5434475,16.4,5.6,4.8
6882.926,46.8379429,7.5434280,1.7,5.3,4.8
6884.925,46.8380043,7.5434912,8.4,5.5,4.7
6885.920,46.8380293,7.5434722,3.1,5.2,4.6
6902.929,46.8384105,7.5438274,50.3,2.9,4.4
6920.920,46.8387154,7.5441234,40.7,3.0,3.8
6927.924,46.8388974,7.5443935,28.9,3.7,3.6
6928.911,46.8389730,7.5446977,24.7,5.8,3.8
6930.927,46.8390335,7.5447660,8.5,6.0,3.9
6931.930,46.8389415,7.5447811,10.3,6.6,4.0
6933.929,46.8391920,7.5451695,40.7,10.1,4.5
6935.928,46.8391656,7.5452017,3.8,9.5,4.4
6936.924,46.8392334,7.5453623,14.4,10.3,4.6
6939.930,46.8393392,7.5455317,17.5,10.0,4.5
6941.916,46.8394322,7.5456127,12.1,8.9,4.5
6942.919,46.8394713,7.5456901,7.3,8.5,4.6
6943.927,46.8394608,7.5457607,5.5,7.3,4.6
6944.922,46.8395247,7.5457916,7.5,7.3,4.7
6947.924,46.8395926,7.5459455,14.0,5.6,4.8
6949.920,46.8394955,7.5460529,13.6,6.2,4.9
6950.921,46.8394843,7.5461529,7.7,6.2,5.0
6951.920,46.8395517,7.5461751,7.7,6.8,5.1
6955.922,46.8397859,7.5468831,60.0,8.8,5.7
6960.916,46.8400134,7.5471589,32.9,10.1,6.2
6963.920,46.8401758,7.5471071,18.5,9.0,6.3
6969.901,46.8405711,7.5474285,50.3,8.6,7.1
6971.910,46.8406975,7.5475187,15.6,7.7,7.2
6974.907,46.8408507,7.5475335,17.1,7.1,7.3
6977.915,46.8409776,7.5475989,15.0,6.5,7.4
6979.929,46.8410803,7.5475739,11.6,6.0,7.6
6988.905,46.8415366,7.5475475,50.8,5.9,7.8
6991.907,46.8417120,7.5475751,19.6,6.0,7.6
6996.912,46.8418653,7.5478048,24.4,5.5,6.9
6997.912,46.8418749,7.5478779,5.7,5.8,6.8
6998.914,46.8419427,7.5478373,8.1,6.0,6.9
7000.913,46.8420990,7.5479317,18.8,6.4,7.1
7001.911,46.8421399,7.5479953,6.7,6.4,7.1
7002.905,46.8421083,7.5480201,4.0,6.2,7.0
7004.911,46.8421944,7.5481622,14.5,6.8,7.1
7005.909,46.8421825,7.5482361,5.8,6.8,7.0
7008.902,46.8422765,7.5489016,51.8,8.3,7.4
7013.898,46.8422520,7.5492399,25.9,9.0,7.3
7016.912,46.8423699,7.5495939,30.0,9.9,7.3
7021.909,46.8424079,7.5496182,4.6,7.5,6.9
7023.913,46.8425046,7.5495625,11.6,7.0,6.9
7028.906,46.8428850,7.5496427,42.7,7.0,6.9
7029.907,46.8429479,7.5496186,7.2,7.6,6.9
7030.913,46.8430356,7.5496415,9.9,8.0,6.9
7031.931,46.8430618,7.5496895,4.7,7.7,6.9
7032.911,46.8431698,7.5496988,12.0,8.1,7.0
7033.912,46.8432377,7.5497459,8.4,8.5,7.1
7035.903,46.8434320,7.5497498,21.6,9.2,7.2
7037.901,46.8436005,7.5498456,20.1,9.4,7.4
7038.905,46.8437136,7.5498398,12.6,9.7,7.6
7039.918,46.8437879,7.5498701,8.6,9.6,7.6
7041.921,46.8439375,7.5498844,16.7,10.0,7.7
7045.910,46.8442361,7.5499851,34.1,9.2,7.8
7051.911,46.8447193,7.5500476,53.9,8.5,8.1
7053.908,46.8448454,7.5501121,14.9,8.3,8.2
7056.927,46.8449843,7.5502139,17.3,7.9,8.3
7057.920,46.8450412,7.5501819,6.8,7.6,8.3
7058.920,46.8451059,7.5502173,7.7,7.4,8.3
7063.906,46.8454910,7.5502088,42.8,7.6,8.4
7065.912,46.8456235,7.5502600,15.2,7.6,8.4
7069.920,46.8458594,7.5504587,30.3,8.0,8.2
7070.922,46.8459402,7.5504782,9.1,8.1,8.2
7072.917,46.8460653,7.5505935,16.4,8.0,8.2
7074.920,46.8462233,7.5506650,18.4,8.2,8.2
7080.916,46.8466364,7.5510131,53.1,8.8,8.4
7083.934,46.8468809,7.5510660,27.5,9.0,8.6
7085.916,46.8470758,7.5510144,22.0,9.3,8.7
7087.929,46.8472003,7.5510433,14.0,9.0,8.6
7089.920,46.8473246,7.5511074,14.7,8.8,8.6
7092.927,46.8475313,7.5510641,23.2,8.5,8.5
7100.921,46.8480048,7.5510738,52.6,7.0,8.0
7107.920,46.8485070,7.5510369,55.9,7.7,8.0
7113.927,46.8489451,7.5509928,48.8,8.1,8.0
7115.922,46.8490993,7.5510111,17.2,8.3,8.0
7117.919,46.8491373,7.5509734,5.1,7.5,7.9
7123.913,46.8495955,7.5508288,52.1,7.7,8.0
7128.914,46.8499027,7.5506086,38.1,8.2,8.0
7132.901,46.8500941,7.5504244,25.5,7.1,7.9
7137.919,46.8504021,7.5503739,34.5,6.9,7.7
7143.913,46.8508256,7.5501728,49.5,7.7,7.7
7144.959,46.8509055,7.5501821,8.9,8.1,7.7
7148.911,46.8512375,7.5500544,38.2,8.8,7.7
7154.902,46.8515656,7.5500255,36.5,7.5,7.7
7157.902,46.8517370,7.5499655,19.6,6.8,7.6
7159.893,46.8517746,7.5499745,4.2,5.6,7.5
7162.941,46.8518541,7.5499290,9.5,5.7,7.4
7165.898,46.8519767,7.5499321,13.6,4.8,7.2
7173.919,46.8522727,7.5498541,33.4,4.2,6.7
7184.920,46.8524644,7.5494488,37.5,3.4,5.9
7191.904,46.8525166,7.5491520,23.4,3.3,5.5
7208.917,46.8528723,7.5487324,50.9,2.4,4.1
7229.915,46.8532987,7.5484049,53.6,3.3,3.1
7240.916,46.8536281,7.5483159,37.2,3.3,3.0
7249.926,46.8540984,7.5483929,52.6,5.3,3.4
7253.926,46.8543131,7.5483642,24.0,5.8,3.5
7254.924,46.8543699,7.5483077,7.6,6.0,3.6
7255.924,46.8543951,7.5483350,3.5,6.1,3.6
7258.915,46.8545576,7.5483261,18.1,6.0,3.7
7269.925,46.8550010,7.5481304,51.5,5.0,4.2
7282.921,46.8554412,7.5479202,51.5,3.8,4.6
7299.917,46.8558822,7.5477039,51.7,3.0,4.5
7315.922,46.8563169,7.5473941,53.8,3.1,3.9
7330.918,46.8567493,7.5472079,50.1,3.4,3.4
7343.923,46.8573137,7.5472166,62.7,4.8,3.6
7348.925,46.8575443,7.5470856,27.5,6.2,3.8
7349.926,46.8575966,7.5471171,6.3,6.2,3.9
7351.921,46.8576869,7.5470931,10.2,6.4,4.0
7353.920,46.8578192,7.5470123,15.9,6.8,4.1
7356.919,46.8579910,7.5469630,19.5,6.8,4.3
7362.926,46.8582958,7.5467038,39.2,6.7,4.6
7364.916,46.8584046,7.5465596,16.3,6.9,4.8
7367.920,46.8585610,7.5462946,26.7,7.6,5.0
7369.918,46.8587465,7.5462329,21.2,8.1,5.2
7374.925,46.8590154,7.5463383,31.0,7.8,5.5
7375.931,46.8590870,7.5463090,8.3,7.8,5.6
7376.921,46.8591433,7.5463223,6.3,7.7,5.7
7381.920,46.8594032,7.5462347,29.7,6.0,5.9
7384.930,46.8596363,7.5462781,26.1,7.1,6.1
7388.921,46.8600410,7.5462200,45.2,8.9,6.7
7391.921,46.8602974,7.5460672,30.8,9.8,7.0
7392.928,46.8604031,7.5460393,11.9,10.8,7.1
7395.930,46.8606796,7.5460874,31.0,10.6,7.4
7400.927,46.8610449,7.5460105,41.0,9.6,7.9
7403.921,46.8612530,7.5459008,24.6,8.8,8.0
7404.924,46.8612716,7.5458349,5.4,8.3,7.9
7409.925,46.8615563,7.5455945,36.6,7.6,8.0
7412.926,46.8617462,7.5455245,21.8,7.4,8.1
7414.927,46.8619418,7.5453424,25.8,8.5,8.3
7416.926,46.8621014,7.5453008,18.0,9.0,8.3
7417.928,46.8621474,7.5452581,6.1,8.7,8.3
7420.924,46.8623770,7.5451886,26.1,8.9,8.4
7422.921,46.8625280,7.5451965,16.8,9.3,8.5
7425.923,46.8627829,7.5451042,29.2,8.8,8.5
7426.926,46.8628486,7.5451125,7.3,8.7,8.5
7428.919,46.8630057,7.5450274,18.6,9.0,8.5
7432.926,46.8632160,7.5446417,37.6,9.4,8.6
7435.923,46.8633689,7.5444666,21.6,8.8,8.7
7436.925,46.8634634,7.5446119,15.3,9.3,8.8
7438.917,46.8636772,7.5446738,24.2,9.8,9.0
7440.916,46.8638681,7.5446845,21.2,10.0,9.2
7443.926,46.8639629,7.5445622,14.1,8.8,9.1
7446.909,46.8641179,7.5445965,17.4,8.5,8.8
7448.915,46.8641410,7.5447194,9.7,6.3,8.6
7455.918,46.8639379,7.5453163,50.8,6.5,8.2
7456.920,46.8640757,7.5455844,25.6,6.5,8.2
7457.916,46.8640923,7.5457121,9.9,8.7,8.5
7458.916,46.8640661,7.5458156,8.4,9.5,8.5
7464.919,46.8641065,7.5465305,54.7,10.5,8.7
7466.910,46.8638502,7.5466847,30.8,10.0,8.6
7467.920,46.8637810,7.5467640,9.8,10.4,9.0
7468.916,46.8637267,7.5469108,12.7,10.6,9.0
7469.917,46.8636311,7.5469116,10.6,10.8,9.1
7473.907,46.8633045,7.5472514,44.6,10.8,9.0
7476.906,46.8631723,7.5473271,15.8,10.8,9.0
7477.911,46.8631800,7.5472716,4.3,10.2,8.9
7478.906,46.8631596,7.5473491,6.3,8.2,8.9
7480.907,46.8631016,7.5473850,7.0,7.1,8.8
7483.910,46.8633687,7.5475912,33.6,7.8,8.9
7487.922,46.8633848,7.5475009,7.1,7.1,8.7
7490.917,46.8635539,7.5475254,18.9,7.5,8.6
7493.923,46.8638411,7.5473596,34.3,7.2,8.7
7494.918,46.8638880,7.5473819,5.5,8.0,8.6
7497.909,46.8641330,7.5471737,31.5,9.1,8.7
7498.916,46.8642178,7.5471705,9.4,9.6,8.6
7500.915,46.8644249,7.5470503,24.8,10.5,8.7
7502.908,46.8645945,7.5468905,22.4,10.4,8.8
7503.915,46.8646016,7.5468362,4.2,10.1,8.8
7505.907,46.8647440,7.5467322,17.7,10.1,8.9
7509.915,46.8650200,7.5462997,45.0,10.4,9.3
7512.916,46.8652506,7.5461042,29.7,9.7,9.4
7513.914,46.8653125,7.5460185,9.5,10.2,9.4
7516.919,46.8657887,7.5457728,56.2,12.8,10.0
7520.917,46.8660340,7.5454980,34.4,12.4,9.7
7526.904,46.8664585,7.5452603,50.5,8.7,9.7
7529.904,46.8666780,7.5449931,31.8,9.3,9.5
7530.903,46.8667443,7.5449613,7.8,9.0,9.4
7531.903,46.8667634,7.5449085,4.5,8.4,9.3
7532.902,46.8669167,7.5449104,17.0,8.7,9.4
7539.920,46.8671559,7.5449482,26.7,6.9,9.3
7542.917,46.8673284,7.5448955,19.6,7.0,9.3
7543.917,46.8674294,7.5447974,13.5,7.6,9.1
7547.913,46.8676713,7.5447541,27.1,6.8,9.3
7549.913,46.8677993,7.5446186,17.6,7.6,9.4
7550.914,46.8678306,7.5446198,3.5,7.6,9.4
7551.917,46.8677510,7.5445375,10.9,7.8,9.4
7552.915,46.8677185,7.5444458,7.9,8.1,9.3
7553.915,46.8675960,7.5444930,14.1,8.1,9.4
7555.917,46.8676464,7.5444338,7.2,7.5,9.2
7557.915,46.8674014,7.5442617,30.2,7.2,9.1
7558.910,46.8672500,7.5445930,30.3,10.0,9.4
7559.915,46.8671745,7.5446867,11.0,10.1,9.5
7562.913,46.8670338,7.5449710,26.7,10.6,9.3
7564.912,46.8668133,7.5452233,31.2,11.2,9.6
7567.917,46.8666875,7.5455570,29.0,12.8,9.6
7568.915,46.8666584,7.5455570,3.2,12.0,9.4
7571.918,46.8666738,7.5458073,19.2,9.5,9.3
7572.917,46.8666520,7.5458577,4.5,8.9,9.1
7575.924,46.8667440,7.5460352,17.0,6.7,9.0
7576.924,46.8667219,7.5460662,3.4,5.7,8.4
7577.922,46.8667713,7.5463094,19.3,6.0,8.4
7580.909,46.8668785,7.5464728,17.2,6.7,8.5
7581.912,46.8668382,7.5465434,7.0,7.1,8.4
7583.920,46.8668215,7.5466767,10.3,7.1,8.1
7591.917,46.8667778,7.5468887,16.9,5.1,7.8
7594.917,46.8666220,7.5469070,17.4,4.9,7.7
7595.916,46.8665765,7.5469816,7.6,5.4,7.6
7607.914,46.8664624,7.5475692,46.6,4.2,7.0
7608.912,46.8664665,7.5476642,7.3,4.3,7.1
7609.919,46.8664457,7.5476935,3.2,3.9,6.9
7615.917,46.8663411,7.5477779,13.3,3.3,6.5
7620.917,46.8662807,7.5479817,16.9,3.0,5.7
7630.919,46.8664035,7.5486490,52.7,5.1,4.9
7638.917,46.8665229,7.5493209,52.9,6.7,5.1
7641.919,46.8665241,7.5495519,17.6,6.5,4.9
7643.915,46.8664230,7.5496382,13.0,6.6,4.8
7644.913,46.8664778,7.5497877,12.9,7.2,5.0
7647.911,46.8664603,7.5499210,10.3,6.7,4.9
7648.916,46.8665822,7.5501553,22.4,7.1,5.2
7651.920,46.8669749,7.5504629,49.6,7.1,5.2
7652.923,46.8670333,7.5504726,6.5,10.6,5.9
7654.923,46.8671305,7.5504353,11.2,10.2,5.8
7655.918,46.8671833,7.5504607,6.2,10.5,5.8
7659.926,46.8673693,7.5507463,30.0,10.4,6.0
7661.916,46.8674784,7.5507352,12.2,9.6,6.0
7662.919,46.8675674,7.5506805,10.7,7.1,6.2
7663.917,46.8677259,7.5506415,17.9,7.8,6.4
7665.915,46.8677485,7.5506625,3.0,7.3,6.3
7667.926,46.8678656,7.5506129,13.6,7.4,6.5
7669.913,46.8679500,7.5504902,13.3,7.1,6.5
7674.922,46.8683659,7.5503222,48.0,8.0,7.1
7675.917,46.8683703,7.5503609,3.0,7.4,7.1
7676.923,46.8684474,7.5503421,8.7,8.6,7.2
7677.923,46.8685597,7.5502949,13.0,7.3,7.2
7686.921,46.8688361,7.5500294,36.8,5.6,7.4
7692.919,46.8690257,7.5496635,35.0,5.9,7.4
7697.907,46.8692494,7.5493364,35.2,6.1,7.3
7701.923,46.8692103,7.5492197,9.9,6.2,7.3
7702.922,46.8692162,7.5491648,4.2,6.0,7.2
7711.915,46.8695706,7.5487485,50.6,5.3,6.9
7717.919,46.8700022,7.5483009,58.9,7.9,6.6
7722.922,46.8701058,7.5481103,18.5,6.8,6.4
7725.915,46.8703078,7.5479516,25.5,7.2,6.4
7726.917,46.8703502,7.5478718,7.7,6.9,6.5
7732.919,46.8707759,7.5476157,51.2,8.3,6.6
7739.924,46.8710174,7.5474713,29.0,5.7,6.2
7740.920,46.8710973,7.5474858,8.9,5.5,6.3
7747.919,46.8714326,7.5472865,40.3,5.5,6.3
7748.917,46.8714721,7.5473073,4.7,5.3,6.3
7753.917,46.8717861,7.5472324,35.4,5.5,6.4
7754.915,46.8718109,7.5471929,4.1,5.6,6.4
7762.917,46.8722908,7.5470352,54.7,6.7,6.6
7763.922,46.8723656,7.5470437,8.3,6.8,6.6
7764.920,46.8724325,7.5470059,8.0,7.1,6.5
7771.921,46.8727975,7.5470674,40.9,6.5,6.7
7776.923,46.8730554,7.5470317,28.8,5.9,6.4
7785.920,46.8735396,7.5471098,54.2,5.8,6.3
7786.921,46.8735170,7.5471493,3.9,5.8,6.3
7791.919,46.8737742,7.5472001,28.9,5.8,6.1
7794.911,46.8739608,7.5471627,20.9,6.3,6.1
7803.920,46.8744403,7.5470852,53.6,6.3,6.1
7805.916,46.8745687,7.5470588,14.4,6.3,6.2
7808.915,46.8747419,7.5469946,19.9,6.3,6.3
7809.914,46.8747974,7.5469447,7.2,6.7,6.3
7810.918,46.8748871,7.5469470,10.0,7.0,6.4
7814.923,46.8751360,7.5468756,28.2,7.3,6.4
7817.920,46.8753210,7.5467875,21.6,7.3,6.4
7823.913,46.8756580,7.5467337,37.7,6.7,6.4
7824.911,46.8757198,7.5466933,7.5,6.7,6.4
7828.925,46.8759576,7.5467052,26.5,6.6,6.4
7829.925,46.8760201,7.5466680,7.5,6.6,6.4
7832.904,46.8761962,7.5466841,19.6,6.9,6.5
7841.901,46.8766563,7.5463683,56.5,6.5,6.6
7843.899,46.8767570,7.5462742,13.3,6.4,6.6
7849.898,46.8769794,7.5462476,24.8,6.0,6.5
7857.898,46.8772920,7.5458096,48.2,5.7,6.4
7859.904,46.8772946,7.5456927,8.9,5.6,6.4
7867.903,46.8776693,7.5453197,50.4,6.2,6.4
7868.899,46.8777135,7.5452816,5.7,6.4,6.4
7869.901,46.8777277,7.5453384,4.6,6.2,6.4
7874.905,46.8778887,7.5452689,18.7,4.8,6.0
7876.901,46.8780107,7.5450661,20.6,5.6,6.1
7877.898,46.8780271,7.5451192,4.4,5.4,6.1
7880.899,46.8781732,7.5450768,16.5,5.8,6.1
7881.897,46.8782224,7.5450912,5.6,5.8,6.0
7882.896,46.8783048,7.5450399,10.0,6.5,6.1
7883.900,46.8783687,7.5450497,7.1,6.7,6.1
7884.900,46.8783279,7.5451530,9.1,7.4,6.1
7886.900,46.8784648,7.5451867,15.4,6.8,6.2
7889.897,46.8785922,7.5452585,15.2,6.9,6.1
7890.902,46.8786638,7.5452491,8.0,7.1,6.1
7891.898,46.8786655,7.5453037,4.2,6.9,6.1
7892.901,46.8787698,7.5452125,13.5,7.5,6.2
7894.899,46.8787946,7.5453326,9.6,6.9,6.1
7896.898,46.8789281,7.5457165,32.8,7.3,6.3
7901.906,46.8790805,7.5456975,17.0,7.2,6.2
7902.912,46.8791631,7.5456471,10.0,7.7,6.3
7903.904,46.8792426,7.5456677,9.0,7.5,6.3
7904.904,46.8792971,7.5457385,8.1,7.6,6.4
7906.901,46.8794187,7.5457658,13.7,7.7,6.4
7909.901,46.8795233,7.5459462,18.0,6.9,6.4
7917.904,46.8799325,7.5461137,47.2,6.0,6.5
7918.912,46.8799126,7.5461787,5.4,6.0,6.5
7922.899,46.8799978,7.5464273,21.2,5.5,6.4
7923.899,46.8799712,7.5465302,8.4,5.7,6.4
7924.903,46.8799901,7.5465864,4.8,5.7,6.5
7925.903,46.8800268,7.5465844,4.1,5.6,6.4
7926.902,46.8800545,7.5466429,5.4,5.6,6.4
7929.906,46.8800761,7.5469007,19.8,5.9,6.5
7930.898,46.8800415,7.5470716,13.6,6.6,6.6
7932.899,46.8800704,7.5472685,15.4,7.2,6.8
7935.909,46.8801422,7.5474451,15.7,6.7,6.7
7941.902,46.8802342,7.5479565,40.3,6.4,6.8
7943.902,46.8802991,7.5480488,10.1,6.2,6.7
7947.898,46.8803816,7.5483261,23.0,6.2,6.5
7953.897,46.8805067,7.5485428,21.6,4.7,6.2
7955.894,46.8805083,7.5486588,8.8,4.4,6.2
7956.896,46.8804871,7.5486670,2.4,4.1,6.1
7964.900,46.8805217,7.5490471,29.2,3.7,5.5
7978.900,46.8807205,7.5496616,51.8,3.6,5.0
7985.895,46.8808553,7.5497242,15.7,2.8,4.6
7993.917,46.8811253,7.5496038,31.4,3.4,4.2
7995.905,46.8812329,7.5496402,12.3,4.4,4.2
7996.903,46.8813074,7.5497847,13.8,5.5,4.3
7997.904,46.8813560,7.5498073,5.7,5.5,4.3
8000.907,46.8813605,7.5499200,8.6,5.4,4.1
8001.911,46.8814395,7.5500336,12.3,6.3,4.2
8006.909,46.8816863,7.5502185,30.8,5.9,4.3
8007.904,46.8817369,7.5501913,6.0,5.9,4.3
8011.896,46.8818402,7.5504656,23.9,6.7,4.4
8015.900,46.8820385,7.5506353,25.6,6.6,4.6
8016.901,46.8820710,7.5507506,9.5,6.8,4.7
8017.904,46.8821451,7.5508542,11.4,7.1,4.8
8018.904,46.8821611,7.5509960,11.0,7.5,4.9
8019.911,46.8821022,7.5510324,7.1,7.5,5.0
8022.905,46.8821770,7.5511890,14.6,8.3,5.2
8023.904,46.8822407,7.5511992,7.1,8.5,5.3
8024.896,46.8822818,7.5512454,5.8,8.6,5.3
8025.905,46.8822938,7.5513344,6.9,8.5,5.4
8026.900,46.8823737,7.5513416,8.9,8.4,5.5
8027.899,46.8823865,7.5514190,6.1,7.9,5.5
8029.901,46.8824512,7.5514706,8.2,7.0,5.5
8030.905,46.8824554,7.5515775,8.2,7.1,5.5
8033.896,46.8825639,7.5516546,13.4,5.9,5.6
8035.900,46.8826234,7.5517628,10.6,5.6,5.7
8036.902,46.8826569,7.5517717,3.8,5.4,5.7
8037.904,46.8826633,7.5518275,4.3,5.0,5.7
8042.907,46.8829010,7.5521981,38.7,6.3,6.1
8044.899,46.8830045,7.5522287,11.7,6.3,6.2
8046.900,46.8830668,7.5523525,11.7,6.7,6.4
8049.896,46.8831523,7.5523173,9.9,6.4,6.3
8050.896,46.8831488,7.5523677,3.9,5.8,6.4
8051.901,46.8831930,7.5524117,6.0,5.7,6.4
8052.897,46.8832632,7.5524145,7.8,5.4,6.4
8063.898,46.8836092,7.5526534,42.6,4.0,6.0
8069.898,46.8838322,7.5524814,28.0,4.4,5.8
8077.896,46.8841679,7.5520357,50.5,5.9,5.7
8086.903,46.8844959,7.5515500,52.0,6.1,5.4
8090.896,46.8846413,7.5513551,22.0,5.8,5.4
8097.896,46.8849507,7.5511681,37.2,5.4,5.4
8100.896,46.8850910,7.5511231,16.0,5.4,5.4
8101.895,46.8851070,7.5510650,4.8,5.4,5.3
8107.897,46.8853463,7.5508662,30.6,5.2,5.2
8111.904,46.8855015,7.5506159,25.7,5.7,5.4
8116.898,46.8858041,7.5504052,37.3,7.1,5.6
8117.898,46.8858100,7.5503665,3.0,6.7,5.5
8124.902,46.8861150,7.5499579,46.0,6.6,5.9
8125.897,46.8861161,7.5499110,3.6,6.1,5.8
8131.902,46.8863967,7.5495443,41.9,6.7,5.9
8135.903,46.8864592,7.5492641,22.5,6.5,6.0
8140.901,46.8866662,7.5488893,36.7,6.8,6.1
8141.901,46.8866854,7.5487828,8.4,6.8,6.2
8145.897,46.8867787,7.5486277,15.7,6.2,6.1
8147.913,46.8868697,7.5486055,10.3,6.0,6.0
8148.899,46.8869336,7.5485480,8.3,5.9,6.1
8149.926,46.8869112,7.5486070,5.1,5.8,6.1
8150.918,46.8869829,7.5486020,8.0,5.9,6.1
8152.903,46.8871200,7.5484801,17.9,6.2,6.2
8153.901,46.8871830,7.5484734,7.0,6.5,6.3
8160.897,46.8876079,7.5481380,53.7,7.9,6.5
8166.901,46.8878649,7.5479248,32.9,6.3,6.6
8171.896,46.8880908,7.5478725,25.4,5.3,6.5
8173.891,46.8881663,7.5477856,10.7,5.3,6.4
8177.905,46.8882905,7.5475643,21.8,5.1,6.4
8183.908,46.8886829,7.5473089,47.8,6.8,6.5
8184.899,46.8887248,7.5472526,6.3,7.0,6.5
8190.903,46.8890161,7.5469714,38.8,7.0,6.5
8194.903,46.8892337,7.5468959,24.9,6.5,6.5
8199.906,46.8894597,7.5468909,25.1,5.4,6.4
8203.897,46.8896431,7.5467683,22.4,5.4,6.3
8208.903,46.8898542,7.5463790,37.8,6.3,6.5
8217.902,46.8902629,7.5459374,56.5,6.4,6.3
8219.901,46.8903666,7.5458462,13.5,6.3,6.3
8221.904,46.8904359,7.5456975,13.7,6.3,6.3
8222.903,46.8904140,7.5456869,2.6,6.1,6.2
8229.901,46.8908136,7.5452351,56.2,7.3,6.5
8230.903,46.8908105,7.5451866,3.7,6.9,6.5
8238.904,46.8910278,7.5448363,36.0,4.7,6.4
8239.900,46.8910390,7.5447692,5.3,4.5,6.3
8240.900,46.8910915,7.5447100,7.4,4.8,6.3
8244.925,46.8910497,7.5444908,17.3,4.5,6.1
8245.900,46.8910805,7.5443916,8.3,4.4,6.1
8249.897,46.8910070,7.5441141,22.7,5.6,6.0
8253.896,46.8908707,7.5438994,22.3,5.8,6.0
8254.896,46.8908693,7.5438539,3.5,5.7,6.0
8255.904,46.8908216,7.5438078,6.4,5.5,6.0
8257.907,46.8908003,7.5436529,12.0,5.6,6.0
8258.894,46.8907401,7.5434900,14.1,6.3,6.1
8259.910,46.8906835,7.5434374,7.5,6.5,6.1
8262.904,46.8905693,7.5431834,23.2,7.1,6.3
8263.904,46.8905158,7.5431362,7.0,7.4,6.3
8267.898,46.8905068,7.5429131,17.0,7.3,6.2
8271.901,46.8905773,7.5427121,17.2,5.4,6.0
8276.900,46.8907432,7.5425927,20.6,4.3,5.9
8279.899,46.8908786,7.5425854,15.1,4.5,5.8
8281.896,46.8909881,7.5425154,13.3,4.8,5.8
8282.900,46.8909246,7.5421873,26.0,6.1,6.0
8285.905,46.8909719,7.5421029,8.3,6.5,6.0
8288.896,46.8909483,7.5419193,14.2,6.9,5.7
8289.897,46.8909704,7.5418609,5.1,6.7,5.7
8290.901,46.8909636,7.5418092,4.0,6.2,5.7
8292.909,46.8910019,7.5417127,8.5,6.2,5.7
8294.896,46.8910504,7.5416824,5.9,4.7,5.5
8296.898,46.8911291,7.5417356,9.6,4.4,5.6
8299.900,46.8913087,7.5417708,20.1,4.9,5.8
8305.905,46.8915369,7.5419139,27.6,5.3,5.7
8306.904,46.8915588,7.5419559,4.0,5.2,5.6
8307.901,46.8916201,7.5419685,6.9,4.9,5.7
8310.903,46.8917138,7.5421316,16.2,5.0,5.6
8314.900,46.8918680,7.5422219,18.5,5.0,5.6
8316.903,46.8919637,7.5420784,15.3,5.7,5.7
8321.907,46.8919079,7.5417751,23.9,5.3,5.4
8324.903,46.8919551,7.5415539,17.7,5.6,5.3
8333.903,46.8923705,7.5412525,51.6,5.9,5.5
8346.897,46.8927891,7.5409191,53.0,3.9,5.0
8351.896,46.8929824,7.5407986,23.4,4.5,5.0
8354.900,46.8932034,7.5407364,25.0,5.7,5.2
8361.897,46.8936357,7.5405178,50.9,7.6,5.4
8365.901,46.8936875,7.5404056,10.3,5.7,5.3
8369.894,46.8938709,7.5402162,25.0,5.6,5.4
8370.898,46.8938716,7.5401735,3.3,5.4,5.4
8372.896,46.8939364,7.5400386,12.6,4.9,5.4
8375.900,46.8941521,7.5398418,28.3,6.6,5.7
8376.896,46.8942664,7.5397888,13.3,7.9,5.8
8380.899,46.8944027,7.5396313,19.3,7.1,5.7
8382.900,46.8944225,7.5395761,4.7,6.7,5.6
8384.898,46.8945810,7.5394423,20.4,5.9,5.7
8386.898,46.8945540,7.5394183,3.5,5.7,5.6
8387.897,46.8945620,7.5393600,4.5,4.8,5.6
8388.898,46.8946061,7.5393525,4.9,4.8,5.6
8389.898,46.8946052,7.5392932,4.5,4.6,5.5
8404.898,46.8950128,7.5390000,50.5,2.8,5.3
8415.897,46.8954366,7.5386830,52.9,4.8,5.2
8419.908,46.8956278,7.5385359,24.0,5.5,5.1
8424.898,46.8958812,7.5385554,28.2,5.8,5.1
8425.899,46.8959232,7.5385269,5.1,5.8,5.1
8426.900,46.8959816,7.5385528,6.8,6.0,5.2
8427.896,46.8960300,7.5385269,5.7,6.0,5.1
8429.908,46.8961066,7.5386022,10.3,5.7,5.1
8432.900,46.8962509,7.5385751,16.2,5.5,5.1
8434.899,46.8963550,7.5386322,12.4,5.9,5.1
8435.902,46.8964206,7.5386334,7.3,5.9,5.0
8436.899,46.8964674,7.5386755,6.1,5.9,4.9
8444.903,46.8968514,7.5387379,43.0,5.7,5.0
8446.907,46.8969508,7.5387101,11.2,5.6,5.0
8449.907,46.8970706,7.5387687,14.1,5.4,5.0
8450.907,46.8971173,7.5387372,5.7,5.4,5.0
8453.906,46.8972048,7.5387920,10.6,5.0,4.9
8457.907,46.8974023,7.5387743,22.0,4.8,5.0
8460.903,46.8975154,7.5388302,13.3,4.8,5.0
8470.903,46.8979909,7.5386958,53.8,5.4,5.4
8477.903,46.8982595,7.5385264,32.5,5.1,5.4
8485.902,46.8985959,7.5383309,40.3,4.8,5.3
8490.899,46.8987445,7.5383473,16.6,4.4,5.1
8496.896,46.8990014,7.5382556,29.4,4.3,5.0
8499.900,46.8991186,7.5382621,13.0,4.8,4.9
8510.896,46.8995795,7.5381818,51.6,4.8,4.8
8521.898,46.9000502,7.5381602,52.4,4.8,4.8
8527.915,46.9003018,7.5381657,28.0,4.7,4.8
8529.901,46.9003847,7.5382208,10.1,4.6,4.7
8530.904,46.9004678,7.5383693,14.6,5.7,4.9
8532.904,46.9005558,7.5383346,10.1,5.8,4.8
8533.902,46.9005863,7.5383779,4.7,5.8,4.8
8534.902,46.9005880,7.5383161,4.7,5.8,4.8
8536.900,46.9006211,7.5383716,5.6,5.5,4.8
8537.902,46.9006851,7.5383800,7.1,5.8,4.9
8538.903,46.9007106,7.5384266,4.5,5.7,4.9
8539.901,46.9007612,7.5384328,5.6,5.7,4.9
8541.908,46.9007322,7.5386305,15.4,5.2,5.0
8554.907,46.9011755,7.5384078,52.1,4.0,4.9
8556.907,46.9012747,7.5383448,12.0,4.4,4.9
8557.909,46.9013776,7.5382241,14.7,5.3,5.1
8558.908,46.9014069,7.5383354,9.1,5.8,5.2
8564.904,46.9015897,7.5382158,22.3,5.8,5.0
8567.905,46.9016932,7.5381950,11.6,4.4,5.0
8582.895,46.9021117,7.5384482,50.4,3.4,4.7
8598.902,46.9022927,7.5389560,43.6,2.4,4.0
8603.895,46.9022952,7.5390512,7.3,1.8,3.6
8615.898,46.9026457,7.5387151,46.6,4.1,3.6
8628.896,46.9029692,7.5381907,53.8,4.2,3.4
8636.897,46.9032904,7.5378932,42.3,5.4,3.6
8641.893,46.9034825,7.5377485,24.0,5.1,3.8
8646.894,46.9036499,7.5374929,26.9,5.2,3.9
8647.895,46.9036377,7.5374802,1.7,4.9,3.9
8659.896,46.9038867,7.5368966,52.4,4.2,4.3
8670.900,46.9040256,7.5362425,52.2,4.8,4.6
8681.896,46.9043459,7.5358049,48.8,4.6,4.7
8691.896,46.9047768,7.5355872,50.7,5.1,4.8
8702.895,46.9052174,7.5353175,53.1,4.9,4.8
8714.897,46.9056542,7.5350218,53.5,4.5,4.7
8723.896,46.9059476,7.5347629,38.1,4.2,4.7
8732.893,46.9062749,7.5344437,43.8,4.9,4.7
8735.898,46.9063220,7.5343379,9.6,4.2,4.6
8748.896,46.9067099,7.5338956,54.7,4.1,4.6
8765.892,46.9070681,7.5334331,53.2,2.8,4.0
8778.895,46.9074505,7.5330771,50.4,3.8,3.9
8792.895,46.9078209,7.5326799,51.1,3.8,3.7
8810.896,46.9082134,7.5323398,50.8,2.9,3.3
8822.896,46.9085721,7.5319227,51.0,4.5,3.6
8837.891,46.9089785,7.5315827,52.1,3.8,3.5
8853.891,46.9094058,7.5313057,52.0,3.6,3.4
8871.912,46.9097411,7.5308646,50.2,2.6,3.4
8881.914,46.9098700,7.5305663,26.9,2.5,3.1
8885.914,46.9099272,7.5303253,19.4,3.5,3.2
8902.908,46.9103239,7.5299462,52.7,3.7,3.2
8916.916,46.9106873,7.5294956,53.0,3.9,3.3
8930.910,46.9110707,7.5291141,51.6,4.0,3.5
8944.917,46.9114583,7.5287155,52.7,3.7,3.8
8958.924,46.9118852,7.5284004,53.2,4.0,3.8
8972.915,46.9122712,7.5279992,52.7,3.6,3.8
8985.923,46.9126599,7.5275612,54.6,4.6,3.9
8987.918,46.9128028,7.5273022,25.3,5.5,4.1
8991.912,46.9129106,7.5271920,14.6,6.3,4.2
8992.920,46.9129125,7.5271200,5.5,6.4,4.2
8996.913,46.9130425,7.5268983,22.2,6.3,4.3
9004.924,46.9133175,7.5263388,52.4,6.3,4.7
9005.917,46.9133410,7.5262892,4.6,6.1,4.7
9006.918,46.9133161,7.5262167,6.2,6.1,4.8
9007.925,46.9132698,7.5261815,5.8,6.3,4.8
9009.926,46.9133074,7.5260397,11.6,5.9,4.9
9014.924,46.9135030,7.5257339,31.9,5.9,5.1
9015.920,46.9135756,7.5256609,9.8,6.4,5.2
9016.920,46.9136017,7.5256773,3.2,6.3,5.2
9025.917,46.9138900,7.5253396,41.1,4.6,5.2
9026.919,46.9138787,7.5252732,5.2,4.8,5.3
9030.918,46.9140187,7.5251834,17.0,4.9,5.3
9031.917,46.9140474,7.5251376,4.7,4.9,5.4
9033.924,46.9142026,7.5250633,18.2,5.1,5.5
9036.911,46.9143601,7.5248985,21.5,6.2,5.8
9038.923,46.9144867,7.5248537,14.5,7.0,5.9
9047.914,46.9147673,7.5245677,38.1,4.7,5.8
9053.919,46.9150023,7.5242577,35.2,4.8,5.6
9055.912,46.9150881,7.5242357,9.7,5.3,5.7
9058.920,46.9152609,7.5240632,23.3,6.4,5.8
9063.916,46.9155262,7.5236658,42.3,7.8,6.0
9064.925,46.9155180,7.5236270,3.1,7.4,5.9
9068.924,46.9156725,7.5235670,17.8,6.2,5.8
9072.918,46.9159061,7.5236882,27.6,6.1,5.9
9078.919,46.9161795,7.5235544,32.1,6.0,5.8
9082.919,46.9163012,7.5234889,14.4,4.8,5.7
9083.909,46.9163102,7.5235146,2.2,4.5,5.7
9097.918,46.9167441,7.5232084,53.6,4.2,5.2
9110.915,46.9171244,7.5228034,52.3,4.2,5.0
9119.921,46.9174506,7.5225802,40.1,4.4,4.6
9121.919,46.9175321,7.5223845,17.4,5.4,4.7
9128.925,46.9177378,7.5221139,30.8,5.1,4.6
9131.922,46.9178271,7.5219271,17.3,4.9,4.5
9142.917,46.9182068,7.5215155,52.6,4.9,4.5
9152.914,46.9185337,7.5213160,39.4,4.1,4.6
9158.910,46.9187272,7.5214558,24.0,4.0,4.6
9169.926,46.9188626,7.5220936,50.9,4.7,4.7
9176.928,46.9189335,7.5225403,34.9,4.8,4.8
9177.919,46.9189745,7.5225584,4.8,4.9,4.8
9178.926,46.9189832,7.5226210,4.9,4.9,4.7
9182.928,46.9192236,7.5226093,26.7,5.7,4.8
9190.931,46.9196785,7.5225244,51.0,6.3,5.0
9193.924,46.9198957,7.5224553,24.7,6.9,5.2
9199.913,46.9203263,7.5222120,51.3,8.3,5.5
9205.918,46.9207845,7.5220058,53.3,9.0,6.0
9211.909,46.9211781,7.5218325,45.7,8.1,6.3
9213.926,46.9212819,7.5217363,13.7,7.6,6.4
9220.910,46.9217195,7.5215324,51.1,7.2,6.8
9223.916,46.9218741,7.5214271,19.0,7.0,6.9
9226.910,46.9220074,7.5214184,14.8,6.3,6.9
9231.909,46.9222505,7.5212056,31.5,6.0,7.0
9232.914,46.9222969,7.5211919,5.3,6.0,7.0
9233.919,46.9222942,7.5212532,4.7,5.7,7.0
9237.914,46.9224125,7.5210878,18.2,5.5,7.0
9238.915,46.9224585,7.5210888,5.1,5.1,7.0
9239.914,46.9225046,7.5210274,6.9,5.3,7.0
9247.912,46.9229308,7.5207899,50.7,6.3,7.0
9250.912,46.9230541,7.5207691,13.8,5.4,6.9
9251.912,46.9231545,7.5206447,14.6,6.1,7.0
9254.913,46.9233093,7.5205691,18.1,6.2,6.9
9255.916,46.9234876,7.5204273,22.6,6.2,6.9
9256.917,46.9235137,7.5205117,7.1,7.4,7.0
9258.915,46.9236614,7.5204541,17.0,7.9,7.0
9259.915,46.9237808,7.5203294,16.3,9.5,7.1
9260.913,46.9238445,7.5202222,10.8,9.6,7.1
9261.920,46.9238741,7.5202895,6.1,9.7,7.1
9267.892,46.9241917,7.5198185,50.3,9.0,7.1
9268.904,46.9242121,7.5197132,8.3,9.2,7.1
9270.903,46.9242018,7.5194251,22.0,8.7,7.2
9271.903,46.9242945,7.5193483,11.8,9.0,7.3
9272.904,46.9243260,7.5193795,4.2,9.0,7.2
9273.915,46.9244548,7.5192257,18.5,9.9,7.4
9274.907,46.9244791,7.5192573,3.6,9.5,7.3
9277.904,46.9247678,7.5189525,39.6,10.8,7.6
9278.909,46.9248688,7.5187891,16.8,11.4,7.8
9280.907,46.9251363,7.5185072,36.7,10.9,8.0
9288.916,46.9255200,7.5180600,54.6,9.2,8.3
9292.913,46.9258098,7.5176115,47.0,10.2,8.7
9293.913,46.9259415,7.5173411,25.3,10.2,8.7
9294.911,46.9260280,7.5172283,12.9,11.9,9.1
9295.921,46.9261952,7.5171283,20.1,13.1,9.4
9296.922,46.9261844,7.5170613,5.2,12.8,9.5
9297.918,46.9263783,7.5169756,22.5,12.8,9.5
9298.914,46.9264032,7.5169156,5.3,13.3,9.7
9299.922,46.9265623,7.5168502,18.4,14.5,9.9
9302.912,46.9268340,7.5164874,40.9,15.0,10.1
9306.920,46.9272524,7.5161318,53.8,13.2,10.6
9307.918,46.9274439,7.5160930,21.5,14.7,11.0
9308.914,46.9274706,7.5160210,6.2,14.0,10.9
9311.924,46.9277353,7.5157302,36.8,13.7,11.3
9312.913,46.9278406,7.5156585,12.9,13.1,11.3
9313.916,46.9278752,7.5155465,9.4,12.8,11.3
9314.919,46.9280858,7.5152941,30.3,12.2,11.5
9318.916,46.9282394,7.5151904,18.8,11.1,11.5
9319.913,46.9282278,7.5151246,5.2,10.0,11.3
9321.912,46.9283983,7.5149613,22.7,9.3,11.2
9327.924,46.9288081,7.5146402,51.7,9.0,11.5
9334.914,46.9291151,7.5143366,41.2,8.0,11.0
9336.917,46.9292062,7.5141894,15.1,6.7,10.8
9337.921,46.9292251,7.5140546,10.5,6.8,10.8
9338.921,46.9292859,7.5138979,13.7,7.4,10.7
9340.922,46.9292425,7.5137169,14.6,7.6,10.6
9342.921,46.9293400,7.5135435,17.1,8.1,10.5
9344.912,46.9293280,7.5132870,19.6,8.7,10.6
9345.923,46.9293020,7.5131954,7.6,8.8,10.6
9346.919,46.9293116,7.5130607,10.3,9.3,10.6
9347.915,46.9292924,7.5130082,4.5,8.7,10.6
9349.911,46.9293756,7.5128524,15.0,8.2,10.5
9353.915,46.9294298,7.5126021,20.0,7.0,10.0
9354.922,46.9294004,7.5125483,5.2,6.3,9.7
9359.919,46.9293923,7.5122497,22.8,5.1,8.9
9361.914,46.9293466,7.5120908,13.1,5.0,8.7
9364.917,46.9293235,7.5118757,16.6,5.3,8.2
9365.917,46.9293354,7.5117995,6.0,5.4,8.2
9367.922,46.9292966,7.5116380,13.0,5.8,8.0
9368.924,46.9293178,7.5115663,5.9,6.1,7.8
9374.922,46.9293358,7.5110615,38.5,6.3,7.2
9376.914,46.9293867,7.5108980,13.7,6.5,7.1
9382.907,46.9294508,7.5103822,39.9,6.7,7.0
9389.919,46.9299385,7.5101592,56.8,7.5,6.8
9393.915,46.9301302,7.5099850,25.1,7.5,6.9
9395.923,46.9302731,7.5099214,16.6,8.2,6.9
9398.916,46.9305095,7.5097481,29.4,7.2,6.8
9400.915,46.9305201,7.5097797,2.7,6.8,6.7
9403.913,46.9307074,7.5096037,24.8,7.4,6.7
9407.918,46.9309551,7.5096001,27.5,7.1,6.6
9408.921,46.9309843,7.5093323,20.7,8.6,6.8
9413.916,46.9312692,7.5091301,35.2,8.5,6.9
9421.921,46.9317094,7.5087301,57.6,7.3,7.2
9423.919,46.9318148,7.5086690,12.6,7.3,7.2
9425.917,46.9318926,7.5085605,12.0,7.1,7.3
9426.922,46.9319843,7.5085552,10.2,7.4,7.3
9429.922,46.9322268,7.5083656,30.6,8.1,7.5
9432.922,46.9324014,7.5083074,19.9,7.9,7.5
9441.916,46.9324784,7.5077830,40.8,4.9,7.3
9445.915,46.9327114,7.5074139,38.2,6.5,7.4
9448.920,46.9328553,7.5073165,17.6,7.2,7.4
9450.919,46.9328467,7.5071561,12.2,7.4,7.2
9451.919,46.9329639,7.5070838,14.1,8.0,7.3
9453.919,46.9330088,7.5069881,8.8,7.5,7.3
9456.912,46.9330195,7.5067195,20.5,7.4,7.3
9457.919,46.9330482,7.5066459,6.4,7.2,7.3
9459.916,46.9331210,7.5065886,9.2,6.5,7.2
9464.920,46.9332177,7.5063298,22.4,5.3,6.9
9470.911,46.9334042,7.5061091,26.7,4.5,6.5
9476.913,46.9336184,7.5055473,49.0,6.5,6.6
9477.923,46.9336669,7.5055637,5.5,6.6,6.6
9483.917,46.9337972,7.5048507,56.2,9.0,6.8
9485.909,46.9338109,7.5047074,11.0,8.6,6.8
9488.910,46.9338895,7.5044824,19.2,6.9,6.5
9490.898,46.9339110,7.5043041,13.8,6.2,6.5
9491.907,46.9339644,7.5042485,7.3,6.5,6.5
9493.912,46.9339669,7.5040977,11.5,6.4,6.6
9494.909,46.9340136,7.5040325,7.2,6.4,6.6
9497.904,46.9340229,7.5037873,18.7,6.3,6.6
9501.914,46.9341422,7.5034734,27.3,6.6,6.8
9502.907,46.9342044,7.5033945,9.2,6.8,6.8
9509.904,46.9343610,7.5027557,51.7,7.5,6.7
9511.904,46.9343973,7.5026590,8.4,7.0,6.6
9514.912,46.9344354,7.5023586,23.3,6.8,6.7
9523.920,46.9344972,7.5016685,53.0,6.6,6.8
9524.916,46.9344976,7.5015892,6.0,6.3,6.8
9526.923,46.9345989,7.5014589,15.0,6.5,6.9
9532.919,46.9347042,7.5009827,38.1,6.7,7.1
9539.923,46.9349435,7.5003561,54.6,7.4,6.9
9547.907,46.9350781,7.4997248,50.4,6.8,6.7
9548.904,46.9350100,7.4996036,11.9,6.9,6.8
9557.906,46.9351548,7.4989606,51.5,6.3,6.7
9566.907,46.9353017,7.4983190,51.5,5.8,6.5
9573.911,46.9354217,7.4976646,51.6,7.0,6.7
9581.917,46.9355341,7.4969799,53.6,6.8,6.7
9591.925,46.9355961,7.4962717,54.4,5.4,6.5
9599.920,46.9356101,7.4955850,52.3,6.5,6.3
9607.926,46.9356138,7.4948780,53.8,6.8,6.4
9615.921,46.9356099,7.4941871,52.6,6.9,6.4
9625.905,46.9356015,7.4934724,54.4,5.6,6.3
9631.917,46.9356091,7.4930188,34.5,5.5,6.2
9638.910,46.9358710,7.4925337,47.0,6.5,6.2
9639.918,46.9365384,7.4925550,74.2,6.5,6.2
9646.917,46.9369051,7.4923334,44.1,12.4,7.3
9648.914,46.9370096,7.4920475,24.7,14.2,7.5
9659.911,46.9371527,7.4919686,17.0,1.6,6.8
9664.918,46.9376153,7.4912387,75.7,2.5,6.6
9668.915,46.9377462,7.4909926,23.7,10.2,7.4
9669.912,46.9378268,7.4909266,10.3,10.2,7.4
9673.906,46.9379041,7.4906591,22.1,11.2,7.3
9674.911,46.9379474,7.4905988,6.6,11.3,7.4
9675.920,46.9379168,7.4905610,4.5,10.8,7.3
9677.918,46.9380453,7.4903889,19.4,10.6,7.5
9680.920,46.9380595,7.4901823,15.8,6.3,7.4
9681.921,46.9381131,7.4901278,7.3,6.4,7.5
9682.919,46.9380481,7.4900253,10.6,6.8,7.6
9691.911,46.9383692,7.4894602,55.9,6.8,7.7
9694.920,46.9385075,7.4892038,24.8,6.9,7.8
9695.909,46.9387021,7.4891168,22.6,6.9,7.8
9698.907,46.9388322,7.4889681,18.4,8.3,8.0
9700.904,46.9388990,7.4888303,12.9,8.1,8.0
9702.903,46.9390483,7.4887513,17.7,8.9,8.0
9706.896,46.9392197,7.4885154,26.2,8.1,7.0
9708.898,46.9393208,7.4884420,12.6,7.0,7.0
9710.904,46.9393236,7.4883245,9.0,6.6,6.8
9712.912,46.9394408,7.4882345,14.7,6.4,7.1
9716.913,46.9395830,7.4880404,21.6,6.1,7.4
9717.902,46.9396495,7.4879869,8.4,6.3,7.5
9718.909,46.9396681,7.4878937,7.4,6.4,7.6
9721.915,46.9398317,7.4876975,23.5,7.1,7.8
9722.915,46.9398203,7.4876256,5.6,6.8,7.9
9723.918,46.9398586,7.4875732,5.8,6.8,7.8
9725.893,46.9398996,7.4874227,12.3,6.9,7.8
9727.895,46.9400646,7.4872536,22.4,7.7,7.1
9729.898,46.9401904,7.4870808,19.2,8.2,7.2
9730.898,46.9401328,7.4870227,7.8,8.2,7.2
9731.899,46.9401646,7.4869938,4.2,7.8,7.2
9736.904,46.9402450,7.4866460,27.9,6.9,7.1
9741.901,46.9403822,7.4863308,28.4,5.7,7.1
9744.911,46.9404946,7.4861843,16.7,5.8,7.0
9749.912,46.9406159,7.4857425,36.2,5.6,6.9
9752.920,46.9406932,7.4856572,10.8,6.3,7.0
9755.917,46.9406331,7.4855450,10.9,5.6,6.7
9756.924,46.9406502,7.4854631,6.5,6.0,6.5
9758.915,46.9407153,7.4853560,10.9,5.7,6.5
9759.914,46.9406980,7.4852974,4.9,5.6,6.4
9760.922,46.9407068,7.4852213,5.9,5.6,6.4
9763.917,46.9409902,7.4850120,35.3,6.9,6.6
9765.916,46.9409994,7.4848888,9.4,7.4,6.6
9766.916,46.9410828,7.4848214,10.6,7.7,6.6
9767.916,46.9410630,7.4847825,3.7,7.4,6.6
9769.923,46.9411243,7.4846761,10.6,7.4,6.6
9770.927,46.9411293,7.4846022,5.7,7.6,6.6
9775.916,46.9412754,7.4843480,25.3,5.7,6.5
9776.922,46.9413584,7.4843049,9.8,6.0,6.5
9777.917,46.9413507,7.4842775,2.3,5.4,6.4
9780.924,46.9414713,7.4841196,18.0,5.6,6.4
9781.915,46.9414976,7.4840120,8.7,5.9,6.4
9782.914,46.9415424,7.4839377,7.5,6.2,6.4
9784.907,46.9416781,7.4838164,17.7,7.0,6.5
9785.914,46.9416714,7.4837245,7.0,7.1,6.5
9787.921,46.9417821,7.4834414,24.8,7.9,6.6
9793.905,46.9421790,7.4829396,58.4,9.1,6.8
9795.918,46.9423507,7.4829114,19.2,10.0,7.0
9800.913,46.9426329,7.4825745,40.5,8.7,7.0
9802.918,46.9426948,7.4825609,7.0,8.3,7.1
9803.924,46.9427043,7.4825898,2.4,7.8,7.0
9804.925,46.9427412,7.4825176,6.9,7.7,7.1
9806.913,46.9428297,7.4824310,11.8,6.2,7.1
9807.924,46.9428751,7.4824449,5.2,6.1,7.1
9808.916,46.9429021,7.4823394,8.6,6.2,7.1
9813.906,46.9430546,7.4821997,20.0,5.3,6.9
9814.908,46.9431417,7.4820048,17.7,5.4,7.0
9819.923,46.9433086,7.4817768,25.4,5.8,7.1
9829.919,46.9435756,7.4811977,53.1,5.7,6.8
9842.930,46.9438422,7.4806310,52.3,3.6,6.4
9854.927,46.9440113,7.4801696,39.8,3.2,5.3
9861.923,46.9443352,7.4799425,39.9,3.9,5.0
9862.925,46.9443654,7.4800056,5.9,4.3,4.9
9870.923,46.9445459,7.4799385,20.7,2.8,4.5
9875.913,46.9445180,7.4798185,9.6,2.4,4.3
9892.903,46.9449815,7.4796744,52.7,3.4,3.5
9909.917,46.9454061,7.4793783,52.3,2.7,3.1
9917.905,46.9455325,7.4793846,14.1,2.2,3.2
9929.929,46.9457834,7.4792893,28.8,2.4,2.7
9934.908,46.9458871,7.4793747,13.2,2.3,2.9
9943.914,46.9459832,7.4793457,10.9,1.7,2.6
9946.924,46.9462200,7.4794110,26.8,3.5,2.8
9969.918,46.9466517,7.4792460,49.6,3.0,2.6
9972.910,46.9468062,7.4789794,26.6,4.8,3.0
9975.905,46.9469661,7.4787464,25.1,6.7,3.3
9977.908,46.9469533,7.4786910,4.5,6.7,3.3
9981.907,46.9471904,7.4785223,29.3,7.4,3.6
9983.906,46.9472756,7.4783950,13.5,6.7,3.7
9987.898,46.9474783,7.4782965,23.8,6.5,4.0
9989.903,46.9475935,7.4782957,12.8,6.4,4.1
9990.901,46.9476083,7.4782530,3.6,6.0,4.1
9991.900,46.9476726,7.4782519,7.1,6.1,4.2
9994.899,46.9477463,7.4781291,12.4,5.5,4.3
9998.900,46.9479633,7.4780225,25.5,5.5,4.6
10000.902,46.9480104,7.4778817,11.9,5.5,4.8
10008.904,46.9481882,7.4776773,25.2,4.2,4.7
10021.904,46.9485832,7.4772848,53.1,4.2,5.1
10024.902,46.9487471,7.4772095,19.1,4.8,5.2
10025.907,46.9487919,7.4772191,5.0,4.8,5.3
10028.904,46.9489158,7.4770371,19.5,5.7,5.4
10029.903,46.9489422,7.4769590,6.6,6.0,5.5
10034.902,46.9491887,7.4768183,29.4,6.1,5.4
10037.903,46.9493684,7.4768010,20.0,6.3,5.3
10045.899,46.9497331,7.4764872,47.1,6.1,5.2
10049.900,46.9499279,7.4764260,22.2,5.8,5.2
10050.902,46.9499493,7.4763914,3.5,5.6,5.2
10051.907,46.9499860,7.4764120,4.4,5.5,5.2
10057.908,46.9501974,7.4762873,25.3,4.6,5.1
10068.920,46.9504880,7.4760339,37.6,3.6,5.0
10072.917,46.9505501,7.4758685,14.4,3.6,4.9
10076.917,46.9505715,7.4756845,14.2,3.6,4.9
10082.906,46.9507204,7.4754916,22.1,3.7,4.8
10084.906,46.9507826,7.4753431,13.3,4.3,4.8
10085.901,46.9507941,7.4752484,7.3,4.8,4.9
10088.914,46.9508782,7.4750766,16.1,5.2,4.8
10089.914,46.9508472,7.4748170,20.1,6.6,4.9
10092.917,46.9509970,7.4746064,23.1,7.8,5.1
10094.916,46.9508902,7.4744449,17.1,9.0,5.3
10095.919,46.9509889,7.4744327,11.0,9.1,5.4
10096.903,46.9509300,7.4742984,12.1,9.6,5.5
10102.900,46.9508213,7.4736584,50.2,10.3,5.7
10107.898,46.9507564,7.4731196,41.6,8.4,5.9
10108.906,46.9507171,7.4731330,4.5,7.8,5.9
10109.900,46.9507052,7.4730366,7.5,7.8,5.9
10110.915,46.9508239,7.4728998,16.8,8.7,6.1
10111.913,46.9507357,7.4724591,35.0,8.7,6.1
10118.917,46.9511299,7.4721214,50.8,9.9,6.9
10124.910,46.9518135,7.4715629,87.1,9.7,7.8
10132.899,46.9522098,7.4712252,51.0,10.4,8.5
10137.904,46.9526625,7.4708392,58.3,11.2,9.1
10144.908,46.9530703,7.4704887,52.6,8.4,9.4
10152.920,46.9531486,7.4704327,9.7,2.6,8.8
10159.915,46.9533227,7.4706709,26.5,3.8,7.5
10181.918,46.9533540,7.4708402,13.4,1.8,5.2
10192.925,46.9532455,7.4707760,13.0,1.4,3.8
10206.918,46.9536405,7.4703712,53.6,4.4,2.6
10210.901,46.9538511,7.4702418,25.4,5.2,2.9
10212.896,46.9539081,7.4701517,9.3,5.2,3.0
10213.894,46.9540292,7.4701048,13.9,6.1,3.2
10215.896,46.9541308,7.4700196,13.0,6.5,3.4
10218.898,46.9542316,7.4698115,19.4,7.0,3.2
10220.898,46.9543650,7.4696938,17.3,7.2,3.5
10224.925,46.9546516,7.4695577,33.5,7.6,3.9
10225.919,46.9547146,7.4694606,10.2,7.8,4.0
10226.911,46.9548065,7.4694339,10.4,8.3,4.2
10228.919,46.9549375,7.4693312,16.5,8.8,4.4
10229.917,46.9549717,7.4691845,11.8,9.3,4.5
10230.921,46.9550729,7.4692430,12.1,9.6,4.7
10234.903,46.9553324,7.4690458,32.5,9.4,5.1
10241.922,46.9556932,7.4686214,51.5,7.8,5.7
10242.905,46.9556796,7.4685578,5.1,7.5,5.8
10243.911,46.9557394,7.4684683,9.5,7.6,5.9
10244.919,46.9559118,7.4684263,19.4,8.7,6.2
10245.918,46.9559235,7.4683230,8.0,8.5,6.3
10246.923,46.9559618,7.4682396,7.6,8.5,6.4
10247.911,46.9560579,7.4681759,11.7,8.8,6.6
10248.899,46.9561070,7.4681057,7.6,8.7,6.7
10249.908,46.9560898,7.4680429,5.1,8.5,6.8
10252.920,46.9562959,7.4678248,28.3,9.3,7.2
10253.921,46.9563868,7.4678529,10.3,9.8,7.3
10257.907,46.9565750,7.4675393,31.7,8.6,7.7
10264.911,46.9569918,7.4671039,57.0,8.1,8.1
10269.902,46.9574875,7.4665362,70.0,9.8,8.6
10277.914,46.9578678,7.4660812,54.7,9.5,8.8
10283.910,46.9582434,7.4656032,55.4,9.1,8.9
10291.920,46.9585878,7.4651449,51.8,7.6,8.5
10302.919,46.9589216,7.4646220,54.4,5.4,8.0
10309.920,46.9591550,7.4642218,40.0,5.5,7.5
10313.914,46.9593820,7.4639696,31.7,6.6,7.5
10316.927,46.9594651,7.4636638,25.0,7.6,7.5
10317.917,46.9594027,7.4635275,12.5,8.6,7.6
10323.917,46.9596019,7.4629186,51.4,8.9,7.6
10325.918,46.9596195,7.4627839,10.4,8.1,7.5
10331.922,46.9597439,7.4623928,32.8,5.8,7.0
10332.918,46.9595996,7.4622259,20.5,7.1,7.2
10334.916,46.9596473,7.4623273,9.4,6.7,7.1
10335.917,46.9597390,7.4623755,10.8,7.2,7.1
10337.917,46.9595888,7.4621889,21.9,8.6,7.1
10347.924,46.9594578,7.4615578,50.2,5.0,6.6
10348.927,46.9596008,7.4614363,18.4,6.4,6.8
10351.920,46.9595447,7.4612342,16.6,6.6,6.7
10353.923,46.9595559,7.4610539,13.8,6.7,6.9
10354.927,46.9595844,7.4612778,17.3,8.1,7.1
10359.912,46.9594194,7.4606111,54.0,9.6,7.5
10366.926,46.9593628,7.4600926,40.0,5.9,7.6
10370.926,46.9592550,7.4598392,22.7,5.8,7.7
10371.923,46.9592727,7.4598001,3.6,5.5,7.7
10374.916,46.9592258,7.4597951,5.2,4.4,7.2
10377.914,46.9591791,7.4592933,38.5,6.4,7.3
10382.910,46.9591137,7.4590249,21.7,7.1,7.1
10383.902,46.9589626,7.4589005,19.3,8.8,7.3
10387.902,46.9589493,7.4586934,15.8,6.5,7.3
10388.898,46.9591338,7.4588432,23.5,6.5,7.3
10389.906,46.9590513,7.4583235,40.6,7.9,7.4
10391.901,46.9589699,7.4581925,13.5,8.2,7.5
10392.911,46.9588182,7.4581980,16.9,9.0,7.7
10401.920,46.9586869,7.4574854,56.2,7.3,7.4
10406.917,46.9586338,7.4571471,26.4,5.7,7.3
10407.918,46.9588130,7.4570431,21.4,7.1,7.7
10410.907,46.9586247,7.4571015,21.4,7.7,7.5
10414.907,46.9586886,7.4570367,8.7,6.9,7.4
10415.909,46.9586286,7.4570507,6.7,6.9,7.2
10416.904,46.9584006,7.4568366,30.1,6.9,7.2
10419.916,46.9584219,7.4566765,12.4,6.0,7.1
10420.922,46.9582302,7.4566883,21.3,8.6,7.4
10428.919,46.9577605,7.4563178,59.3,8.5,7.6
10437.915,46.9572184,7.4559396,66.8,6.0,7.3
10445.913,46.9570730,7.4557806,20.2,5.8,7.3
10455.903,46.9567786,7.4551876,55.8,5.9,6.8
10465.922,46.9564861,7.4545563,58.0,5.8,6.7
10477.921,46.9562288,7.4539890,51.8,4.5,5.9
10488.927,46.9559806,7.4534388,50.1,4.3,5.2
10499.920,46.9556743,7.4527648,61.6,5.2,5.2
10508.922,46.9554224,7.4522193,50.1,6.2,5.2
10517.916,46.9551832,7.4516283,52.3,5.9,5.3
10521.916,46.9551530,7.4514484,14.1,5.3,5.3
10526.911,46.9549954,7.4512516,23.1,5.5,5.2
10531.914,46.9547413,7.4506986,50.7,6.7,5.6
10533.920,46.9547047,7.4507823,7.6,8.1,5.7
10534.914,46.9547648,7.4504471,26.4,8.1,5.7
10537.912,46.9552487,7.4501351,58.8,11.6,6.5
10540.919,46.9551520,7.4499348,18.7,13.0,6.7
10542.916,46.9550929,7.4498768,7.9,11.3,6.8
10543.910,46.9550222,7.4493857,38.2,11.3,6.8
10549.919,46.9551781,7.4487403,52.1,11.3,7.6
10550.921,46.9551924,7.4486879,4.3,10.8,7.6
10554.914,46.9549297,7.4485240,31.8,10.4,7.8
10555.911,46.9546968,7.4484367,26.7,10.4,7.8
10556.901,46.9547772,7.4484834,9.6,8.4,8.1
10558.896,46.9545925,7.4481655,31.7,9.6,8.3
10562.929,46.9545282,7.4474706,53.4,11.7,8.8
10566.921,46.9544935,7.4468004,51.2,12.8,9.1
10570.908,46.9544731,7.4463722,32.7,10.9,9.3
10571.910,46.9546994,7.4461701,29.5,10.9,9.3
10573.917,46.9544718,7.4463456,28.6,11.9,9.6
10574.948,46.9544647,7.4461252,16.8,11.8,9.8
10612.925,46.9544983,7.4459227,15.9,1.7,4.7
10615.908,46.9544037,7.4455757,28.4,1.6,4.6
10620.921,46.9541406,7.4452093,40.4,8.5,4.6
10622.918,46.9540071,7.4450902,17.4,9.2,4.4
10628.922,46.9536682,7.4445591,55.3,8.8,4.0
10634.930,46.9533122,7.4439858,58.9,9.9,3.8
10640.922,46.9529842,7.4434570,54.3,9.3,4.6
10647.927,46.9526369,7.4428984,57.4,8.3,5.4
10670.918,46.9523033,7.4423514,55.8,2.8,6.5
10674.910,46.9521803,7.4421422,21.0,4.1,6.6
10675.917,46.9524548,7.4419050,35.5,4.1,6.6
10678.910,46.9526693,7.4415934,33.6,9.2,6.7
10689.912,46.9531304,7.4410659,65.1,7.3,6.3
10696.913,46.9533387,7.4407735,32.1,6.9,5.8
10699.909,46.9533900,7.4405401,18.7,6.1,5.6
10711.904,46.9532278,7.4397310,64.2,4.7,5.2
10714.924,46.9532911,7.4396152,11.3,5.3,5.4
10717.926,46.9533163,7.4395109,8.4,4.8,5.5
10719.914,46.9534365,7.4394748,13.6,5.3,5.5
10724.917,46.9534749,7.4393260,12.1,4.3,5.7
10729.923,46.9535024,7.4393666,4.3,1.8,5.6
10733.914,46.9535094,7.4393190,3.7,1.2,5.2
10736.918,46.9533587,7.4396337,29.2,1.0,5.1
10737.917,46.9533926,7.4396099,4.2,3.1,5.4
10738.915,46.9532438,7.4394691,19.7,4.8,5.1
10741.914,46.9532881,7.4394523,5.1,5.3,4.8
10742.919,46.9533883,7.4395683,14.2,6.8,5.0
10749.920,46.9536254,7.4391992,38.5,5.5,4.7
10760.915,46.9541092,7.4391296,54.0,5.0,4.6
10774.916,46.9545589,7.4390124,50.8,3.6,4.4
10791.914,46.9550159,7.4389230,51.3,2.9,4.4
10804.916,46.9552799,7.4387946,30.9,2.5,3.5
10814.921,46.9555790,7.4385362,38.6,3.9,3.5
10822.915,46.9558469,7.4384575,30.4,4.0,3.3
10840.914,46.9562392,7.4380932,51.7,2.5,3.1
10857.921,46.9566794,7.4378659,51.9,3.5,3.3
10866.905,46.9569674,7.4377252,33.8,3.7,3.5
10869.902,46.9570803,7.4375867,16.4,4.3,3.6
10870.901,46.9571269,7.4374433,12.1,5.3,3.7
10875.912,46.9573022,7.4372354,25.1,5.9,3.7
10878.910,46.9573672,7.4371807,8.3,5.2,3.7
10880.920,46.9574374,7.4370413,13.2,5.5,3.8
10883.911,46.9575165,7.4369770,10.1,4.3,3.8
10888.893,46.9577015,7.4368324,23.3,4.2,3.8
10890.918,46.9578185,7.4367873,13.4,5.1,3.9
10891.915,46.9578428,7.4367019,7.0,5.1,4.0
10893.922,46.9579926,7.4367824,17.7,6.1,4.3
10894.917,46.9581367,7.4364986,26.9,6.1,4.6
10901.911,46.9581385,7.4365356,2.8,5.7,4.6
10903.914,46.9582565,7.4364765,13.9,5.3,4.7
10905.923,46.9583540,7.4363405,15.0,5.2,4.9
10909.913,46.9585342,7.4361809,23.4,5.9,5.1
10910.915,46.9585694,7.4361923,4.0,5.7,5.1
10911.904,46.9585686,7.4361133,6.0,6.3,5.2
10913.907,46.9585724,7.4358414,20.7,6.0,5.3
10916.905,46.9585215,7.4358510,5.7,6.0,5.3
10919.912,46.9585609,7.4357372,9.7,5.6,5.3
10921.918,46.9585297,7.4356731,6.0,4.8,5.4
10923.907,46.9585252,7.4355070,12.6,5.2,5.5
10926.905,46.9584292,7.4353582,15.6,4.5,5.5
10930.910,46.9582611,7.4351258,25.7,5.6,5.4
10933.914,46.9582309,7.4349943,10.6,5.4,5.4
10936.920,46.9581441,7.4348287,15.9,5.4,5.5
10938.905,46.9581282,7.4346999,10.0,5.4,5.5
10939.903,46.9580464,7.4346603,9.6,6.0,5.5
10949.912,46.9578425,7.4341186,47.0,5.3,5.6
10951.922,46.9577072,7.4340195,16.8,5.4,5.6
10959.913,46.9573590,7.4333920,61.5,6.2,5.7
10970.906,46.9570792,7.4328608,51.0,5.4,5.6
11004.929,46.9570535,7.4328114,4.7,0.4,3.3
11058.910,46.9570929,7.4327619,5.8,0.5,0.4
11060.916,46.9569976,7.4328515,12.6,1.7,0.6
11061.918,46.9570644,7.4328574,7.4,2.6,0.7
11065.896,46.9570956,7.4329457,7.6,3.0,0.8
11073.835,46.9567567,7.4331882,42.0,4.6,1.3
</abvio:coordinateTable>
<abvio:altitudeTable>
0.643,563.4,0.0,0.000,563.4
444.915,560.3,0.0,-0.034,562.3
455.926,558.9,0.0,-0.149,561.5
467.908,558.3,0.0,-0.015,560.4
484.918,557.1,0.0,-0.138,559.2
495.912,550.5,0.0,-0.565,557.9
506.912,548.5,0.0,-0.238,555.9
512.902,548.2,0.0,-0.102,554.7
539.904,543.8,0.0,-0.433,550.0
545.911,540.7,0.0,-0.647,548.6
557.908,538.3,0.0,-0.193,545.8
563.901,538.8,0.0,-0.035,544.7
573.901,536.1,0.0,-0.270,542.7
579.896,536.0,0.0,-0.118,541.6
619.892,534.9,0.0,-0.190,536.6
630.906,533.8,0.0,-0.103,536.0
641.906,531.6,0.0,-0.204,535.4
652.904,524.5,0.0,-0.705,533.9
658.912,518.3,0.0,-1.097,532.4
670.913,526.2,0.0,0.504,529.6
676.921,524.0,0.0,0.158,528.3
682.909,528.0,0.0,0.519,527.6
694.922,531.2,0.0,0.285,526.6
705.906,534.3,0.0,0.280,526.8
715.897,538.2,0.0,0.392,528.4
721.902,537.7,0.0,0.132,530.2
726.920,535.8,0.0,-0.265,531.4
732.912,532.8,0.0,-0.450,532.5
743.914,530.4,0.0,-0.178,533.5
749.911,525.5,0.0,-0.512,533.4
754.912,522.3,0.0,-0.734,532.8
759.916,517.3,0.0,-0.820,531.7
765.910,509.7,0.0,-1.147,529.5
770.901,506.0,0.0,-1.029,527.3
776.901,507.0,0.0,-0.241,524.2
781.876,508.2,0.0,0.266,521.6
787.909,513.2,0.0,0.560,518.9
793.917,508.8,0.0,0.245,516.6
799.911,509.1,0.0,-0.550,514.4
805.904,506.9,0.0,-0.157,512.4
816.907,505.6,0.0,-0.115,508.8
838.899,501.3,0.0,-0.520,507.2
848.906,499.1,0.0,-0.219,505.7
860.917,500.2,0.0,-0.064,503.8
865.909,500.4,0.0,0.133,503.2
877.917,504.8,0.0,0.445,502.5
882.915,505.6,0.0,0.252,502.3
888.914,509.6,0.0,0.436,502.5
893.910,504.7,0.0,-0.045,502.5
899.917,504.6,0.0,-0.384,502.6
905.915,505.7,0.0,0.089,503.0
911.903,501.2,0.0,-0.450,503.5
923.917,502.8,0.0,0.394,503.6
929.914,506.3,0.0,0.540,504.1
935.912,503.3,0.0,-0.070,504.3
940.907,503.1,0.0,-0.378,504.1
946.913,504.0,0.0,0.115,503.8
958.908,502.3,0.0,-0.165,503.4
969.915,501.1,0.0,-0.121,502.7
1008.909,502.4,0.0,0.141,501.7
1013.912,502.4,0.0,0.062,501.6
1042.912,505.0,0.0,0.203,502.3
1047.907,506.6,0.0,0.344,502.7
1052.917,505.9,0.0,0.090,503.1
1057.907,504.4,0.0,-0.221,503.4
1063.902,504.9,0.0,-0.034,503.7
1069.921,506.4,0.0,0.163,504.1
1081.908,507.5,0.0,0.065,505.0
1098.924,505.5,0.0,-0.196,506.2
1103.918,504.2,0.0,-0.342,506.2
1109.916,502.9,0.0,-0.238,505.9
1114.910,502.5,0.0,-0.067,505.7
1137.923,499.6,0.0,-0.284,503.9
1142.919,501.7,0.0,0.183,503.4
1147.920,505.4,0.0,0.576,503.0
1153.928,502.5,0.0,0.076,502.7
1158.913,500.8,0.0,-0.437,502.2
1164.910,501.9,0.0,-0.058,501.8
1220.928,505.1,0.0,0.104,502.6
1243.931,502.9,0.0,-0.276,503.8
1249.930,502.3,0.0,-0.166,503.9
1255.908,501.8,0.0,-0.107,503.8
1471.911,504.3,0.0,0.253,501.7
1476.913,505.8,0.0,0.291,501.9
1482.911,508.8,0.0,0.449,502.6
1494.908,513.9,0.0,0.444,504.6
1505.908,514.4,0.0,-0.011,507.0
1516.914,516.2,0.0,0.158,509.5
1521.907,518.4,0.0,0.271,510.9
1532.903,523.7,0.0,0.445,515.8
1544.905,519.0,0.0,-0.293,517.0
1549.911,521.9,0.0,-0.160,517.8
1554.900,524.5,0.0,0.550,518.9
1560.910,523.7,0.0,0.168,519.7
1565.903,523.9,0.0,-0.027,520.4
1571.908,526.2,0.0,0.256,521.5
1577.896,525.1,0.0,0.091,522.4
1594.911,524.4,0.0,-0.380,524.4
1600.910,524.8,0.0,-0.137,524.5
1605.909,528.6,0.0,0.383,524.9
1616.898,530.7,0.0,0.149,526.5
1621.904,531.3,0.0,-0.011,527.1
1627.907,534.4,0.0,0.343,528.0
1637.901,533.3,0.0,-0.118,529.4
1648.913,531.2,0.0,-0.184,530.3
1653.897,530.1,0.0,-0.296,530.9
1658.901,532.9,0.0,0.170,531.4
1664.896,535.4,0.0,0.561,532.4
1669.910,536.6,0.0,0.172,532.9
1675.908,536.3,0.0,0.081,533.3
1720.902,536.6,0.0,0.141,535.8
1726.916,534.8,0.0,0.029,535.7
1755.901,539.2,0.0,0.187,535.9
1765.919,540.3,0.0,0.109,536.7
1771.909,541.6,0.0,0.137,537.2
1776.916,543.8,0.0,0.336,538.0
1787.903,544.6,0.0,0.062,539.8
1793.907,543.5,0.0,-0.157,540.5
1798.920,543.4,0.0,-0.109,541.1
1832.903,545.7,0.0,0.169,544.3
1838.907,545.7,0.0,0.098,544.5
1868.914,547.9,0.0,0.158,545.4
1879.911,548.8,0.0,0.065,546.1
1884.916,550.9,0.0,0.267,546.6
1894.924,552.6,0.0,0.172,547.8
1905.906,552.7,0.0,0.027,549.1
1917.915,554.7,0.0,0.178,550.7
1923.910,556.6,0.0,0.278,551.6
1928.904,556.9,0.0,0.198,552.5
1934.915,557.6,0.0,0.071,553.4
1939.913,558.8,0.0,0.171,554.2
1944.912,558.6,0.0,0.107,554.9
2028.897,557.9,0.0,-0.148,558.9
2034.905,557.9,0.0,-0.076,558.9
2040.915,555.9,0.0,-0.196,558.8
2046.909,552.0,0.0,-0.515,558.4
2051.909,547.0,0.0,-0.878,557.5
2057.916,541.5,0.0,-0.919,556.0
2068.915,538.5,0.0,-0.205,552.4
2073.903,536.6,0.0,-0.406,550.5
2079.916,537.1,0.0,-0.130,548.4
2084.917,535.5,0.0,-0.103,546.4
2089.914,533.1,0.0,-0.404,544.4
2095.912,533.4,0.0,-0.190,542.2
2100.916,530.1,0.0,-0.269,540.1
2112.914,526.1,0.0,-0.385,535.5
2123.915,524.1,0.0,-0.146,532.1
2129.910,519.0,0.0,-0.479,530.4
2141.904,515.5,0.0,-0.310,526.5
2146.913,512.5,0.0,-0.457,524.6
2151.909,509.1,0.0,-0.644,522.6
2163.904,508.4,0.0,-0.030,518.1
2190.920,510.3,0.0,0.156,511.0
2196.905,508.1,0.0,-0.105,510.1
2201.929,507.6,0.0,-0.236,509.4
2207.928,507.7,0.0,-0.028,508.9
2245.919,504.4,0.0,-0.190,507.3
2257.918,505.9,0.0,0.137,506.5
2274.906,508.2,0.0,0.078,506.6
2357.915,508.0,0.0,-0.133,509.0
2363.911,508.5,0.0,0.026,509.0
2392.914,505.8,0.0,-0.335,508.6
2398.918,507.1,0.0,-0.088,508.4
2446.906,508.8,0.0,0.154,507.5
2451.902,508.6,0.0,0.022,507.5
2462.911,507.0,0.0,-0.144,507.7
2467.901,508.4,0.0,0.004,507.7
2505.904,509.9,0.0,0.138,508.4
2511.899,510.1,0.0,0.064,508.5
2563.921,511.8,0.0,0.196,510.3
2568.939,511.3,0.0,0.025,510.4
2597.917,510.7,0.0,-0.164,511.2
2602.919,510.9,0.0,-0.106,511.2
2608.919,511.8,0.0,0.156,511.2
2619.917,511.9,0.0,-0.035,511.6
2630.906,507.9,0.0,-0.413,511.6
2641.908,504.0,0.0,-0.558,510.9
2646.904,504.7,0.0,-0.246,510.0
2651.912,503.2,0.0,-0.086,509.3
2657.902,500.5,0.0,-0.387,508.3
2663.902,501.5,0.0,0.068,507.3
2668.901,502.6,0.0,0.165,506.6
2680.922,506.7,0.0,0.440,504.9
2691.908,507.7,0.0,0.094,504.3
2696.917,506.2,0.0,-0.168,504.3
2702.909,505.1,0.0,-0.028,504.3
2712.903,506.5,0.0,0.139,504.5
2718.909,506.2,0.0,0.094,505.1
2738.905,503.1,0.0,-0.345,506.3
2744.908,503.9,0.0,-0.096,506.0
2754.907,505.3,0.0,0.137,505.7
2760.902,501.0,0.0,-0.474,505.4
2770.922,501.7,0.0,0.074,504.7
2776.909,504.7,0.0,0.260,504.4
2782.900,508.6,0.0,0.530,504.5
2798.897,512.7,0.0,0.208,505.8
2804.910,515.2,0.0,0.283,506.8
2816.908,518.7,0.0,0.262,509.2
2828.909,521.6,0.0,0.214,512.9
2839.909,521.8,0.0,0.012,516.2
2855.897,520.8,0.0,-0.149,519.4
2860.907,519.1,0.0,-0.281,519.8
2871.912,515.5,0.0,-0.199,519.9
2876.906,510.0,0.0,-0.628,519.2
2887.905,520.9,0.0,0.987,519.0
2892.904,521.7,0.0,0.005,519.0
3099.909,521.3,0.0,-0.141,521.3
3104.906,521.4,0.0,-0.035,521.5
3139.904,520.9,0.0,-0.135,521.8
3145.905,518.0,0.0,-0.493,521.5
3151.909,518.8,0.0,-0.202,521.1
3156.903,517.9,0.0,-0.011,520.7
3167.900,519.8,0.0,0.199,520.4
3173.912,520.3,0.0,0.059,520.2
3189.896,523.5,0.0,0.320,520.1
3195.904,523.4,0.0,0.169,520.1
3200.904,520.7,0.0,-0.174,520.1
3206.905,520.4,0.0,-0.273,520.4
3212.905,519.3,0.0,-0.213,520.5
3218.902,522.1,0.0,0.207,520.8
3223.906,518.0,0.0,-0.231,520.7
3229.907,520.9,0.0,0.342,520.6
3239.900,518.7,0.0,-0.218,520.5
3245.907,520.9,0.0,0.092,520.4
3255.916,518.2,0.0,-0.274,520.0
3267.895,514.7,0.0,0.066,518.9
3279.916,524.6,0.0,0.914,518.9
3290.917,524.8,0.0,0.013,520.0
3390.901,525.4,0.0,-0.151,526.4
3396.906,525.5,0.0,0.001,526.4
3425.893,522.8,0.0,-0.170,525.5
3430.915,523.5,0.0,0.028,525.2
3446.916,520.7,0.0,-0.228,524.1
3452.907,522.0,0.0,-0.037,523.7
3469.913,523.7,0.0,0.144,522.9
3481.902,523.4,0.0,-0.077,523.0
3486.916,523.1,0.0,-0.176,523.0
3491.909,523.8,0.0,0.039,523.0
3496.921,524.6,0.0,0.151,523.1
3501.907,523.9,0.0,0.019,523.2
3549.910,523.9,0.0,0.198,523.4
3555.914,523.7,0.0,-0.006,523.3
3577.914,524.8,0.0,0.189,523.2
3583.922,524.4,0.0,0.024,523.4
3601.932,527.3,0.0,0.223,524.2
3612.907,528.1,0.0,0.072,524.9
3623.915,530.3,0.0,0.196,526.0
3629.913,532.4,0.0,0.310,526.9
3634.915,532.9,0.0,0.238,527.6
3639.912,532.0,0.0,-0.041,528.2
3672.917,534.8,0.0,0.218,531.8
3683.909,533.8,0.0,-0.092,532.8
3705.910,534.2,0.0,0.135,533.4
3710.914,534.6,0.0,0.077,533.7
3716.916,538.2,0.0,0.365,534.0
3722.915,536.0,0.0,0.097,534.3
3739.917,533.6,0.0,-0.240,534.8
3750.915,535.3,0.0,0.202,534.9
3755.911,534.0,0.0,-0.049,535.0
3772.906,534.0,0.0,-0.139,535.2
3777.917,533.8,0.0,-0.112,535.0
3783.915,536.3,0.0,0.216,534.8
3794.913,534.7,0.0,-0.150,534.8
3799.916,535.8,0.0,0.030,534.8
3805.928,536.2,0.0,0.131,535.0
3810.918,537.7,0.0,0.282,535.2
3821.917,539.3,0.0,0.128,535.9
3826.914,539.9,0.0,0.044,536.3
3831.912,540.8,0.0,0.147,536.8
3837.918,541.4,0.0,0.092,537.5
3891.916,542.5,0.0,0.171,540.7
3896.916,542.0,0.0,0.033,540.8
3946.912,542.9,0.0,0.149,541.9
3958.913,542.5,0.0,-0.097,542.1
3963.912,540.8,0.0,-0.247,542.0
3969.927,543.2,0.0,0.060,542.0
3974.908,545.2,0.0,0.397,542.2
3980.915,544.8,0.0,0.097,542.6
4001.910,546.9,0.0,0.164,543.9
4018.914,550.0,0.0,0.244,545.6
4024.897,554.0,0.0,0.471,546.6
4035.907,555.8,0.0,0.171,548.8
4041.917,556.7,0.0,0.101,549.9
4046.906,557.6,0.0,0.166,550.9
4052.902,557.0,0.0,0.025,552.1
4057.908,556.1,0.0,-0.187,553.0
4068.906,556.4,0.0,0.034,554.6
4073.913,558.1,0.0,0.344,555.3
4079.913,557.1,0.0,0.010,556.1
4084.906,557.1,0.0,-0.130,556.5
4090.916,560.9,0.0,0.344,557.0
4101.915,562.7,0.0,0.164,558.2
4106.910,567.4,0.0,0.410,558.9
4117.907,569.5,0.0,0.118,560.9
4134.922,572.5,0.0,0.314,565.0
4139.915,572.5,0.0,0.052,566.3
4145.912,575.4,0.0,0.268,568.1
4151.911,577.1,0.0,0.175,569.6
4162.912,578.4,0.0,0.119,572.2
4167.913,579.4,0.0,0.202,573.4
4172.911,578.9,0.0,0.057,574.3
4194.913,581.8,0.0,0.216,577.8
4200.914,585.3,0.0,0.509,578.9
4212.907,586.4,0.0,0.015,581.0
4222.917,589.2,0.0,0.285,582.9
4228.916,589.4,0.0,0.195,583.9
4234.903,590.8,0.0,0.112,584.9
4240.908,590.9,0.0,0.136,586.0
4258.919,594.2,0.0,0.092,589.8
4275.915,596.3,0.0,0.245,592.0
4297.917,600.9,0.0,0.206,595.3
4307.912,602.0,0.0,0.114,597.1
4318.910,604.9,0.0,0.288,598.8
4324.917,605.9,0.0,0.248,600.0
4341.912,608.0,0.0,0.108,603.3
4390.904,607.4,0.0,-0.180,608.4
4401.899,608.1,0.0,0.018,608.4
4407.904,608.9,0.0,0.182,608.4
4423.917,611.7,0.0,0.113,609.0
4457.914,609.7,0.0,-0.187,610.6
4462.912,610.7,0.0,-0.092,610.8
4478.909,607.8,0.0,-0.288,610.9
4483.910,608.3,0.0,-0.211,610.7
4489.909,608.5,0.0,0.063,610.4
4665.179,607.6,0.0,-0.183,609.5
4670.884,607.9,0.0,-0.122,609.3
4879.892,605.0,0.0,-0.374,608.8
4885.916,605.9,0.0,-0.200,608.7
4891.906,602.3,0.0,-0.499,608.2
4897.914,602.5,0.0,-0.193,607.6
4903.906,599.1,0.0,-0.382,606.7
4915.914,591.3,0.0,-0.620,604.0
4920.915,586.2,0.0,-0.894,602.3
4925.927,581.9,0.0,-0.937,600.2
4931.936,572.3,0.0,-1.266,597.0
4936.927,566.5,0.0,-1.398,593.8
4941.913,561.8,0.0,-1.045,590.2
4947.912,556.4,0.0,-0.918,585.2
4959.930,549.7,0.0,-0.569,575.2
4965.921,545.2,0.0,-0.714,570.3
4976.904,543.8,0.0,-0.125,560.7
5069.913,540.6,0.0,-0.083,541.8
5074.913,539.2,0.0,-0.331,541.6
5079.901,539.0,0.0,-0.159,541.4
5085.914,538.2,0.0,-0.089,541.0
5128.916,539.3,0.0,0.137,538.4
5134.915,537.3,0.0,-0.178,538.2
5140.914,539.1,0.0,-0.021,538.2
5156.922,541.0,0.0,0.144,538.7
5173.915,542.8,0.0,0.044,540.0
5191.911,544.3,0.0,0.144,541.5
5197.913,542.7,0.0,-0.110,541.9
5219.912,543.6,0.0,0.215,543.0
5235.912,545.4,0.0,0.012,543.6
5241.920,543.7,0.0,-0.190,543.8
5252.910,543.0,0.0,-0.062,543.7
5263.913,541.3,0.0,-0.149,543.6
5268.913,541.8,0.0,-0.078,543.5
5279.920,543.1,0.0,0.132,543.4
5290.834,544.0,0.0,0.061,543.2
5296.893,546.1,0.0,0.147,543.1
5307.911,546.7,0.0,-0.000,543.5
5313.913,543.7,0.0,-0.195,543.7
5324.900,545.3,0.0,0.133,544.2
5330.917,544.0,0.0,-0.131,544.5
5341.904,542.9,0.0,-0.109,544.6
5390.896,541.7,0.0,-0.192,543.4
5396.909,543.3,0.0,0.123,543.3
5402.909,545.2,0.0,0.320,543.5
5407.913,544.6,0.0,0.109,543.7
5413.909,543.3,0.0,-0.172,543.7
5418.907,543.4,0.0,-0.112,543.7
5471.920,546.5,0.0,0.143,544.3
5477.919,550.4,0.0,0.429,544.9
5489.918,551.2,0.0,0.039,546.4
5499.910,553.0,0.0,0.183,547.8
5510.930,553.2,0.0,0.019,549.4
5515.917,552.3,0.0,-0.176,550.1
5521.939,554.6,0.0,0.062,551.1
5527.916,555.8,0.0,0.371,552.1
5533.916,556.6,0.0,0.176,553.0
5544.919,560.3,0.0,0.337,554.5
5554.910,561.3,0.0,0.095,556.2
5566.911,563.4,0.0,0.193,557.9
5571.916,564.9,0.0,0.291,558.9
5582.917,569.0,0.0,0.354,561.4
5587.907,568.4,0.0,0.117,562.5
5598.916,572.5,0.0,0.333,564.8
5603.908,572.6,0.0,0.227,566.1
5608.921,572.9,0.0,0.045,567.1
5619.907,574.6,0.0,0.164,569.2
5636.901,578.2,0.0,0.294,572.5
5641.906,579.2,0.0,0.140,573.6
5653.904,580.0,0.0,0.025,575.8
5659.915,582.4,0.0,0.194,576.7
5664.911,583.4,0.0,0.265,577.6
5670.918,580.1,0.0,-0.248,578.5
5681.920,586.3,0.0,0.814,580.0
5696.918,588.6,0.0,0.047,583.0
5708.922,590.6,0.0,0.158,584.7
5713.919,590.8,0.0,0.085,585.7
5719.917,592.2,0.0,0.149,586.8
5731.911,593.4,0.0,0.099,589.0
5764.916,596.3,0.0,0.169,593.3
5782.910,599.5,0.0,0.177,595.4
5798.918,599.2,0.0,-0.174,597.3
5804.915,597.5,0.0,-0.364,597.8
5815.897,594.4,0.0,-0.284,598.0
5820.907,597.0,0.0,0.098,598.1
5844.909,597.5,0.0,0.272,597.2
5849.916,597.0,0.0,0.052,596.9
5855.914,599.1,0.0,0.176,596.5
5867.916,597.1,0.0,-0.127,596.4
5877.909,599.6,0.0,0.259,596.9
5887.834,600.9,0.0,0.126,597.8
6172.906,597.8,0.0,-0.131,599.6
6178.910,599.6,0.0,-0.022,599.6
6184.902,601.2,0.0,0.370,599.6
6190.908,600.5,0.0,0.092,599.7
6217.906,598.7,0.0,-0.241,600.0
6223.906,599.4,0.0,-0.125,600.0
6366.903,598.5,0.0,-0.156,600.1
6372.773,598.2,0.0,-0.116,599.9
6527.926,601.7,0.0,0.303,599.8
6532.926,601.6,0.0,0.208,600.0
6538.922,601.8,0.0,0.009,600.2
6549.907,600.5,0.0,-0.171,600.7
6555.921,599.6,0.0,-0.272,600.7
6560.916,600.8,0.0,0.026,600.7
6565.919,605.0,0.0,0.533,601.1
6576.915,605.7,0.0,0.068,602.2
6592.919,607.2,0.0,0.217,603.6
6598.923,608.3,0.0,0.269,604.1
6603.909,606.6,0.0,-0.096,604.5
6619.917,609.9,0.0,0.147,606.4
6630.912,610.7,0.0,0.074,607.5
6635.919,611.0,0.0,0.135,608.0
6653.920,613.8,0.0,0.114,610.0
6658.921,615.0,0.0,0.214,610.5
6675.917,618.3,0.0,0.190,613.0
6680.917,616.6,0.0,-0.070,613.8
6685.901,616.9,0.0,-0.149,614.4
6691.911,616.0,0.0,-0.062,615.0
6696.910,622.3,0.0,0.546,615.9
6707.921,623.5,0.0,0.108,617.9
6729.921,620.9,0.0,-0.221,620.7
6735.926,620.9,0.0,-0.084,621.1
6746.919,625.7,0.0,0.438,622.1
6752.915,629.0,0.0,0.593,623.1
6764.919,630.3,0.0,0.096,624.5
6769.914,631.6,0.0,0.150,625.1
6774.911,630.6,0.0,0.031,625.7
6790.918,631.0,0.0,-0.132,628.1
6805.930,628.8,0.0,-0.062,630.0
6817.914,629.9,0.0,0.235,630.1
6828.923,630.3,0.0,0.034,630.0
6833.929,632.1,0.0,0.275,630.0
6839.924,632.9,0.0,0.242,630.2
6844.923,632.3,0.0,-0.022,630.2
6860.917,634.0,0.0,0.165,630.9
6871.927,635.6,0.0,0.092,632.0
6877.923,636.0,0.0,0.143,632.8
6889.917,641.4,0.0,0.436,634.5
6900.926,643.0,0.0,0.097,636.5
6910.919,644.3,0.0,0.134,638.3
6915.922,644.9,0.0,0.112,639.3
6931.930,642.6,0.0,-0.218,641.9
6937.922,640.7,0.0,-0.334,642.4
6942.919,642.2,0.0,0.030,643.0
6953.914,639.5,0.0,-0.257,643.0
6959.933,638.3,0.0,-0.234,642.5
6964.923,639.0,0.0,-0.040,642.2
7007.910,638.9,0.0,-0.163,639.7
7013.898,637.6,0.0,-0.261,639.4
7019.909,636.6,0.0,-0.152,639.2
7036.906,634.6,0.0,-0.069,638.0
7041.921,632.7,0.0,-0.151,637.5
7052.909,632.1,0.0,-0.105,636.1
7057.920,629.9,0.0,-0.263,635.3
7062.920,629.9,0.0,-0.211,634.4
7068.911,629.1,0.0,-0.125,633.5
7074.920,627.8,0.0,-0.188,632.5
7086.924,626.8,0.0,-0.103,630.8
7103.916,625.0,0.0,-0.168,628.5
7115.922,622.2,0.0,-0.256,626.9
7121.921,621.9,0.0,-0.141,626.1
7126.920,622.6,0.0,0.106,625.4
7143.913,620.7,0.0,-0.229,624.0
7148.911,619.5,0.0,-0.329,623.4
7154.902,620.1,0.0,-0.048,622.6
7160.908,621.2,0.0,0.156,622.2
7176.917,624.6,0.0,0.204,621.8
7182.911,627.9,0.0,0.502,622.4
7194.928,631.8,0.0,0.335,623.7
7200.921,631.1,0.0,0.119,624.5
7206.916,633.6,0.0,0.165,625.7
7211.920,634.2,0.0,0.267,627.0
7217.915,633.5,0.0,-0.005,628.4
7239.919,631.2,0.0,-0.255,632.2
7245.919,633.0,0.0,-0.098,632.5
7250.920,633.2,0.0,0.181,632.9
7256.920,633.3,0.0,-0.003,633.2
7267.922,634.9,0.0,0.142,633.5
7284.923,638.3,0.0,0.376,634.3
7289.921,639.3,0.0,0.197,634.7
7295.926,638.4,0.0,-0.017,635.3
7316.919,640.6,0.0,0.160,637.6
7322.919,644.0,0.0,0.412,638.7
7328.918,644.5,0.0,0.159,639.5
7334.921,643.8,0.0,0.039,640.3
7356.919,643.0,0.0,-0.184,642.4
7362.926,643.8,0.0,0.012,642.9
7373.920,642.0,0.0,-0.160,643.4
7384.930,639.2,0.0,-0.257,642.9
7389.920,635.6,0.0,-0.497,642.5
7394.925,632.2,0.0,-0.705,641.6
7405.920,634.1,0.0,0.181,639.6
7415.924,631.4,0.0,-0.275,637.8
7427.921,626.0,0.0,-0.466,635.0
7439.921,619.2,0.0,-0.637,631.2
7450.917,613.0,0.0,-0.512,627.1
7461.913,611.1,0.0,-0.173,623.4
7466.910,613.6,0.0,0.211,621.8
7472.909,616.6,0.0,0.495,619.8
7483.910,615.8,0.0,-0.066,617.3
7501.914,617.9,0.0,0.152,615.3
7507.915,615.7,0.0,-0.117,615.3
7512.916,615.4,0.0,-0.235,615.4
7517.919,614.7,0.0,-0.098,615.6
7523.915,611.2,0.0,-0.383,615.7
7534.908,607.3,0.0,-0.357,614.8
7539.920,606.6,0.0,-0.176,614.0
7556.912,544.1,0.0,-3.922,593.0
7562.913,548.6,0.0,-2.646,586.0
7568.915,540.3,0.0,-0.312,578.6
7574.915,531.1,0.0,-1.029,572.9
7580.909,526.0,0.0,-1.301,563.1
7591.917,528.3,0.0,0.309,547.0
7596.917,528.5,0.0,0.230,540.3
7608.912,529.7,0.0,0.112,534.6
7614.916,528.7,0.0,-0.199,533.1
7620.917,528.8,0.0,-0.076,531.4
7642.917,530.7,0.0,0.229,529.0
7648.916,528.5,0.0,-0.155,529.2
7653.920,526.2,0.0,-0.416,529.1
7664.915,525.2,0.0,-0.079,528.4
7675.917,523.6,0.0,-0.146,527.5
7686.921,524.6,0.0,0.094,526.6
7691.923,525.6,0.0,0.158,526.2
7697.907,524.0,0.0,-0.058,525.8
7702.922,523.9,0.0,-0.148,525.3
7707.906,523.7,0.0,-0.028,524.8
7724.921,525.3,0.0,0.143,524.4
7729.909,523.5,0.0,-0.156,524.3
7740.920,522.9,0.0,-0.065,524.1
7762.917,521.4,0.0,-0.189,523.5
7768.924,521.4,0.0,-0.094,523.3
7954.900,523.8,0.0,0.137,521.7
7965.900,525.0,0.0,0.094,522.4
7977.901,527.0,0.0,0.188,523.4
7982.894,526.3,0.0,0.012,523.8
8010.896,528.3,0.0,0.150,526.0
8015.900,527.9,0.0,0.088,526.5
8021.910,526.8,0.0,-0.138,526.7
8026.900,527.8,0.0,-0.003,526.9
8032.904,529.0,0.0,0.196,527.2
8037.904,528.2,0.0,0.041,527.3
8042.907,527.4,0.0,-0.158,527.4
8047.901,527.1,0.0,-0.116,527.5
8109.901,527.2,0.0,-0.144,527.9
8115.894,527.5,0.0,-0.025,527.9
8230.903,526.2,0.0,-0.143,527.3
8235.897,527.0,0.0,-0.006,527.3
8258.894,523.9,0.0,-0.214,527.0
8269.931,522.4,0.0,-0.105,526.0
8274.897,521.6,0.0,-0.171,525.6
8280.900,521.9,0.0,-0.057,525.0
8286.916,522.7,0.0,0.128,524.5
8291.900,523.2,0.0,0.118,524.2
8297.902,524.7,0.0,0.174,523.9
8308.899,526.0,0.0,0.125,523.6
8313.915,527.4,0.0,0.213,523.7
8319.900,526.9,0.0,0.015,523.9
8331.901,528.6,0.0,0.169,524.9
8336.895,528.4,0.0,0.051,525.5
8420.907,531.4,0.0,0.154,529.2
8426.900,532.5,0.0,0.261,529.5
8431.904,532.5,0.0,0.094,529.8
8436.899,535.2,0.0,0.274,530.2
8447.901,535.2,0.0,-0.001,531.3
8503.898,538.4,0.0,0.035,536.5
8569.895,538.9,0.0,-0.279,539.8
8575.895,538.1,0.0,-0.234,539.7
8586.892,538.6,0.0,0.024,539.3
8592.894,541.2,0.0,0.499,539.3
8598.902,541.4,0.0,0.138,539.6
8604.901,542.4,0.0,-0.001,539.9
8633.899,548.6,0.0,0.662,541.0
8638.898,551.8,0.0,0.761,542.2
8644.896,549.8,0.0,-0.001,543.7
8649.896,547.4,0.0,-0.277,544.3
8654.896,547.7,0.0,-0.206,545.0
8660.896,548.1,0.0,0.068,545.7
8676.898,553.4,0.0,0.576,547.7
8688.898,554.7,0.0,0.182,550.1
8693.901,556.8,0.0,0.043,551.1
8710.897,558.6,0.0,0.186,552.8
8715.903,560.6,0.0,0.414,553.9
8720.897,560.8,0.0,0.219,554.9
8726.898,561.0,0.0,0.015,556.2
8732.893,563.5,0.0,0.164,557.6
8737.897,564.5,0.0,0.301,558.6
8743.895,566.0,0.0,0.224,559.6
8748.896,565.6,0.0,0.075,560.6
8781.895,562.7,0.0,-0.394,565.3
8787.899,566.5,0.0,0.005,565.7
8792.895,569.7,0.0,0.698,566.0
8797.891,572.8,0.0,0.635,566.6
8803.896,577.6,0.0,0.723,567.6
8814.892,580.3,0.0,0.223,570.1
8820.894,576.9,0.0,-0.264,571.2
8826.895,583.1,0.0,0.266,572.4
8832.895,579.2,0.0,0.210,573.8
8838.896,578.1,0.0,-0.413,575.0
8844.891,578.3,0.0,-0.031,576.4
8860.903,574.6,0.0,-0.335,578.6
8870.905,574.6,0.0,-0.006,578.1
8897.913,578.6,0.0,0.274,576.4
8908.917,580.4,0.0,0.164,576.7
8914.914,581.3,0.0,0.119,576.9
8919.911,582.3,0.0,0.197,577.4
8931.902,583.5,0.0,0.076,579.1
8942.915,585.3,0.0,0.159,580.9
8948.921,585.3,0.0,0.027,581.7
8954.906,586.6,0.0,0.134,582.7
8977.924,589.6,0.0,0.080,585.9
8999.917,591.3,0.0,0.154,588.2
9005.917,590.1,0.0,-0.026,588.7
9027.909,592.3,0.0,0.191,590.2
9032.916,592.1,0.0,0.122,590.4
9047.914,590.9,0.0,-0.150,590.9
9053.919,591.3,0.0,-0.006,591.1
9141.919,595.5,0.0,0.190,593.3
9147.920,597.4,0.0,0.265,593.7
9153.909,597.6,0.0,0.156,594.2
9158.910,596.3,0.0,-0.097,594.6
9186.919,596.4,0.0,-0.152,596.3
9192.918,594.8,0.0,-0.110,596.6
9198.915,593.0,0.0,-0.461,596.6
9204.919,592.6,0.0,-0.180,596.3
9209.924,593.6,0.0,0.117,596.0
9253.909,590.3,0.0,-0.240,592.4
9259.915,589.4,0.0,-0.268,592.0
9265.913,588.7,0.0,-0.118,591.6
9276.907,586.4,0.0,-0.232,590.7
9282.918,585.1,0.0,-0.267,590.1
9288.916,584.9,0.0,-0.066,589.4
9294.911,575.5,0.0,-0.863,588.2
9299.922,571.9,0.0,-1.345,586.5
9311.924,569.7,0.0,-0.179,582.4
9317.912,567.2,0.0,-0.371,580.0
9323.917,568.7,0.0,0.044,578.1
9328.923,570.4,0.0,0.294,576.3
9333.907,570.7,0.0,0.202,574.9
9339.913,570.5,0.0,0.007,573.5
9384.921,568.5,0.0,-0.173,570.2
9390.916,567.6,0.0,-0.104,570.0
9396.921,566.6,0.0,-0.171,569.6
9402.921,566.7,0.0,-0.043,569.3
9414.907,564.7,0.0,-0.165,568.4
9420.907,565.8,0.0,0.022,567.9
9431.914,564.1,0.0,-0.156,566.9
9436.919,564.1,0.0,-0.072,566.3
9442.916,563.3,0.0,-0.138,565.7
9448.920,564.2,0.0,0.054,565.3
9482.918,560.9,0.0,-0.463,564.3
9492.906,560.5,0.0,-0.043,563.7
9514.912,558.9,0.0,-0.209,562.4
9520.911,559.2,0.0,-0.042,561.9
9568.906,558.5,0.0,-0.179,559.7
9585.914,559.2,0.0,0.229,559.3
9597.911,559.8,0.0,0.023,559.4
9613.913,558.6,0.0,-0.162,559.1
9619.924,558.2,0.0,-0.037,558.9
9786.925,555.4,0.0,-0.290,557.3
9797.911,554.9,0.0,-0.045,557.0
9813.906,555.8,0.0,0.142,556.4
9818.924,555.1,0.0,0.031,556.3
9824.915,554.0,0.0,-0.186,556.0
9829.919,554.1,0.0,-0.081,555.6
9840.927,555.5,0.0,0.148,555.0
9851.924,559.3,0.0,0.340,555.2
9863.925,560.4,0.0,0.079,556.3
9868.916,562.0,0.0,0.134,556.9
9885.907,567.6,0.0,0.483,559.5
9896.912,570.4,0.0,0.227,562.1
9913.918,571.5,0.0,-0.019,566.2
9924.921,573.5,0.0,0.191,568.4
9934.908,573.1,0.0,-0.035,570.3
9950.920,574.2,0.0,0.148,572.2
9960.922,575.4,0.0,0.111,573.1
9977.908,573.7,0.0,-0.135,574.1
9983.906,576.1,0.0,0.020,574.3
9988.906,576.2,0.0,0.226,574.5
9993.902,576.8,0.0,0.067,574.8
9998.900,577.6,0.0,0.137,575.1
10009.890,578.1,0.0,0.029,576.0
10043.900,581.2,0.0,0.165,578.6
10060.900,584.6,0.0,0.175,580.3
10071.906,584.8,0.0,0.024,581.6
10087.915,584.1,0.0,-0.162,583.2
10098.912,581.3,0.0,-0.256,583.7
10104.904,580.8,0.0,-0.180,583.7
10109.900,578.4,0.0,-0.260,583.5
10115.904,572.6,0.0,-0.811,582.7
10127.926,570.8,0.0,-0.116,580.2
10132.899,569.3,0.0,-0.226,578.8
10155.906,567.9,0.0,-0.017,572.9
10207.917,566.4,0.0,-0.134,567.5
10213.894,566.2,0.0,-0.080,567.4
10218.898,565.0,0.0,-0.128,567.2
10235.896,563.5,0.0,-0.059,566.1
10247.911,561.9,0.0,-0.165,565.3
10253.921,565.8,0.0,0.290,564.9
10264.911,562.7,0.0,-0.278,564.6
10275.903,563.5,0.0,0.082,564.0
10286.924,561.3,0.0,-0.200,563.5
10297.909,560.0,0.0,-0.108,563.0
10319.929,558.3,0.0,-0.152,561.4
10325.918,558.2,0.0,-0.101,560.8
10497.913,559.1,0.0,-0.153,559.2
10503.907,560.3,0.0,0.067,559.3
10509.921,560.9,0.0,0.189,559.6
10514.915,560.6,0.0,0.012,559.8
10520.914,559.2,0.0,-0.181,559.9
10531.914,559.0,0.0,0.021,559.9
10542.916,556.6,0.0,-0.237,559.5
10548.922,553.4,0.0,-0.475,558.9
10554.914,550.2,0.0,-0.527,558.1
10566.921,543.4,0.0,-0.571,555.8
10577.920,539.8,0.0,-0.269,552.1
10583.914,539.5,0.0,-0.069,550.1
10617.921,536.1,0.0,-0.352,540.7
10622.918,531.9,0.0,-0.682,539.4
10633.929,527.7,0.0,-0.380,536.9
10645.925,520.3,0.0,-0.658,534.0
10651.925,522.6,0.0,-0.109,532.3
10673.916,526.1,0.0,0.253,526.4
10678.910,528.1,0.0,0.561,525.5
10688.901,531.4,0.0,0.311,525.4
10693.916,530.9,0.0,-0.113,525.7
10705.919,534.3,0.0,0.207,527.2
10711.904,534.8,0.0,0.261,528.5
10717.926,534.8,0.0,0.015,529.8
10756.922,533.3,0.0,-0.244,534.3
10767.914,534.9,0.0,0.142,534.4
10773.918,535.9,0.0,0.355,534.4
10785.914,540.8,0.0,0.429,535.1
10795.917,544.2,0.0,0.338,536.5
10805.917,546.2,0.0,0.199,538.4
10811.919,548.8,0.0,0.288,539.5
10821.915,550.5,0.0,0.173,542.4
10832.914,554.5,0.0,0.357,545.9
10837.921,554.1,0.0,0.110,547.3
10855.924,555.8,0.0,0.141,551.4
10860.912,556.7,0.0,0.124,552.3
10894.917,558.8,0.0,0.140,556.6
10900.916,558.8,0.0,-0.114,557.0
10922.915,562.2,0.0,0.221,558.7
10933.914,562.9,0.0,0.032,559.8
10986.917,565.0,0.0,0.158,563.6
10991.920,563.6,0.0,-0.031,563.7
10997.918,563.3,0.0,-0.154,563.7
11003.916,563.2,0.0,0.011,563.6
</abvio:altitudeTable>
</extensions>
</gpx>
